<?xml version='1.0' encoding='UTF-8'?><gpx version="1.1" creator="JPX - https://github.com/jenetics/jpx" xmlns="http://www.topografix.com/GPX/1/1"><trk><trkseg><trkpt lat="44.99183855265568" lon="8.564677411055335"><ele>222.0</ele><time>2026-04-04T06:33:02.999Z</time></trkpt><trkpt lat="44.991769441697876" lon="8.564816293123332"><ele>222.0</ele><time>2026-04-04T06:33:03.999Z</time></trkpt><trkpt lat="44.991693499164825" lon="8.564976554556832"><ele>222.0</ele><time>2026-04-04T06:33:04.999Z</time></trkpt><trkpt lat="44.99159198264017" lon="8.565101188675458"><ele>222.0</ele><time>2026-04-04T06:33:05.999Z</time></trkpt><trkpt lat="44.991465957054814" lon="8.565160920409943"><ele>216.0</ele><time>2026-04-04T06:33:06.999Z</time></trkpt><trkpt lat="44.99132602457063" lon="8.565150906353647"><ele>210.0</ele><time>2026-04-04T06:33:07.999Z</time></trkpt><trkpt lat="44.99119639852877" lon="8.56501109434452"><ele>204.0</ele><time>2026-04-04T06:33:08.999Z</time></trkpt><trkpt lat="44.99105183477327" lon="8.564975301314963"><ele>204.0</ele><time>2026-04-04T06:33:09.999Z</time></trkpt><trkpt lat="44.99091347541522" lon="8.564926745473576"><ele>204.0</ele><time>2026-04-04T06:33:10.999Z</time></trkpt><trkpt lat="44.99078603586454" lon="8.564936512889398"><ele>204.0</ele><time>2026-04-04T06:33:11.999Z</time></trkpt><trkpt lat="44.990657241477486" lon="8.565018588222635"><ele>204.0</ele><time>2026-04-04T06:33:12.999Z</time></trkpt><trkpt lat="44.990540208284365" lon="8.56512813238207"><ele>203.0</ele><time>2026-04-04T06:33:13.999Z</time></trkpt><trkpt lat="44.99043451649106" lon="8.565267498403136"><ele>202.0</ele><time>2026-04-04T06:33:14.999Z</time></trkpt><trkpt lat="44.99033358451724" lon="8.565426645959246"><ele>201.0</ele><time>2026-04-04T06:33:15.999Z</time></trkpt><trkpt lat="44.99022994234103" lon="8.56559851753457"><ele>200.66666666666669</ele><time>2026-04-04T06:33:16.999Z</time></trkpt><trkpt lat="44.990112344905995" lon="8.565734106319429"><ele>200.33333333333334</ele><time>2026-04-04T06:33:17.999Z</time></trkpt><trkpt lat="44.98999261725495" lon="8.565877062918988"><ele>200.0</ele><time>2026-04-04T06:33:18.999Z</time></trkpt><trkpt lat="44.989860549376836" lon="8.565977087937041"><ele>200.0</ele><time>2026-04-04T06:33:19.999Z</time></trkpt><trkpt lat="44.98972324431642" lon="8.566013401962513"><ele>200.0</ele><time>2026-04-04T06:33:20.999Z</time></trkpt><trkpt lat="44.989584988067314" lon="8.565985883293413"><ele>200.0</ele><time>2026-04-04T06:33:21.999Z</time></trkpt><trkpt lat="44.989448047500154" lon="8.565907662312986"><ele>200.0</ele><time>2026-04-04T06:33:22.999Z</time></trkpt><trkpt lat="44.98929789014545" lon="8.565812651029672"><ele>200.33333333333334</ele><time>2026-04-04T06:33:23.999Z</time></trkpt><trkpt lat="44.98914780364353" lon="8.565737833019995"><ele>200.66666666666669</ele><time>2026-04-04T06:33:24.999Z</time></trkpt><trkpt lat="44.98898623513067" lon="8.56562754852069"><ele>201.0</ele><time>2026-04-04T06:33:25.999Z</time></trkpt><trkpt lat="44.98881290642818" lon="8.565522895204106"><ele>201.0</ele><time>2026-04-04T06:33:26.999Z</time></trkpt><trkpt lat="44.9886409947447" lon="8.565477106523288"><ele>201.0</ele><time>2026-04-04T06:33:27.999Z</time></trkpt><trkpt lat="44.98844813744078" lon="8.565472322104924"><ele>201.0</ele><time>2026-04-04T06:33:28.999Z</time></trkpt><trkpt lat="44.98823581180532" lon="8.565497467341336"><ele>202.66666666666669</ele><time>2026-04-04T06:33:29.999Z</time></trkpt><trkpt lat="44.98804534725036" lon="8.565490296173957"><ele>204.33333333333334</ele><time>2026-04-04T06:33:30.999Z</time></trkpt><trkpt lat="44.987893301813855" lon="8.565516463500318"><ele>206.0</ele><time>2026-04-04T06:33:31.999Z</time></trkpt><trkpt lat="44.98774928745269" lon="8.565532821511127"><ele>206.0</ele><time>2026-04-04T06:33:32.999Z</time></trkpt><trkpt lat="44.98761609439568" lon="8.565591548067715"><ele>206.0</ele><time>2026-04-04T06:33:33.999Z</time></trkpt><trkpt lat="44.98748731101877" lon="8.565694425534337"><ele>206.0</ele><time>2026-04-04T06:33:34.999Z</time></trkpt><trkpt lat="44.987360760591386" lon="8.565816524023157"><ele>206.0</ele><time>2026-04-04T06:33:35.999Z</time></trkpt><trkpt lat="44.987237813732236" lon="8.565960535286607"><ele>203.75</ele><time>2026-04-04T06:33:36.999Z</time></trkpt><trkpt lat="44.987100447045776" lon="8.566067790536215"><ele>201.5</ele><time>2026-04-04T06:33:37.999Z</time></trkpt><trkpt lat="44.98697107933066" lon="8.566143213514385"><ele>199.25</ele><time>2026-04-04T06:33:38.999Z</time></trkpt><trkpt lat="44.9868245078336" lon="8.566181415431002"><ele>197.0</ele><time>2026-04-04T06:33:39.999Z</time></trkpt><trkpt lat="44.986671386163664" lon="8.566170148524595"><ele>195.33333333333334</ele><time>2026-04-04T06:33:40.999Z</time></trkpt><trkpt lat="44.98650832631521" lon="8.566113394639059"><ele>193.66666666666669</ele><time>2026-04-04T06:33:41.999Z</time></trkpt><trkpt lat="44.98634679193492" lon="8.566043181741428"><ele>192.0</ele><time>2026-04-04T06:33:42.999Z</time></trkpt><trkpt lat="44.98618369142077" lon="8.565973111612252"><ele>192.0</ele><time>2026-04-04T06:33:43.999Z</time></trkpt><trkpt lat="44.98601332506117" lon="8.565920735228643"><ele>192.0</ele><time>2026-04-04T06:33:44.999Z</time></trkpt><trkpt lat="44.98586184667164" lon="8.565856015161483"><ele>192.0</ele><time>2026-04-04T06:33:45.999Z</time></trkpt><trkpt lat="44.98573076054997" lon="8.565773716009192"><ele>192.39999999999998</ele><time>2026-04-04T06:33:46.999Z</time></trkpt><trkpt lat="44.98560570646046" lon="8.565722863883618"><ele>192.79999999999998</ele><time>2026-04-04T06:33:47.999Z</time></trkpt><trkpt lat="44.98549294158148" lon="8.565675837857203"><ele>193.2</ele><time>2026-04-04T06:33:48.999Z</time></trkpt><trkpt lat="44.9853936522568" lon="8.565632314595756"><ele>193.6</ele><time>2026-04-04T06:33:49.999Z</time></trkpt><trkpt lat="44.98531246326045" lon="8.565596725873927"><ele>194.0</ele><time>2026-04-04T06:33:50.999Z</time></trkpt><trkpt lat="44.98521194971311" lon="8.565691879303127"><ele>194.0</ele><time>2026-04-04T06:33:51.999Z</time></trkpt><trkpt lat="44.985143627141106" lon="8.565682319181274"><ele>194.0</ele><time>2026-04-04T06:33:52.999Z</time></trkpt><trkpt lat="44.985061508780085" lon="8.565627159264764"><ele>194.0</ele><time>2026-04-04T06:33:54.999Z</time></trkpt><trkpt lat="44.98495521178117" lon="8.565580226194951"><ele>194.0</ele><time>2026-04-04T06:34:20.999Z</time></trkpt><trkpt lat="44.984820981119334" lon="8.56550312715118"><ele>194.0</ele><time>2026-04-04T06:34:22.998Z</time></trkpt><trkpt lat="44.98470802451219" lon="8.565444318534551"><ele>192.0</ele><time>2026-04-04T06:34:23.998Z</time></trkpt><trkpt lat="44.98454572690754" lon="8.565361874519732"><ele>190.0</ele><time>2026-04-04T06:34:24.998Z</time></trkpt><trkpt lat="44.98440488714332" lon="8.56527101733684"><ele>188.0</ele><time>2026-04-04T06:34:25.998Z</time></trkpt><trkpt lat="44.984299421329304" lon="8.565205436711953"><ele>186.0</ele><time>2026-04-04T06:34:26.998Z</time></trkpt><trkpt lat="44.98418094580396" lon="8.565144040388855"><ele>187.75</ele><time>2026-04-04T06:34:27.998Z</time></trkpt><trkpt lat="44.98405194478038" lon="8.565084473110652"><ele>189.5</ele><time>2026-04-04T06:34:28.998Z</time></trkpt><trkpt lat="44.98391532383427" lon="8.56506279389254"><ele>191.25</ele><time>2026-04-04T06:34:29.998Z</time></trkpt><trkpt lat="44.98377717570136" lon="8.565047342850784"><ele>193.0</ele><time>2026-04-04T06:34:30.998Z</time></trkpt><trkpt lat="44.983632093296855" lon="8.565040507444523"><ele>193.0</ele><time>2026-04-04T06:34:31.998Z</time></trkpt><trkpt lat="44.98348738012532" lon="8.565035799929285"><ele>193.0</ele><time>2026-04-04T06:34:32.998Z</time></trkpt><trkpt lat="44.9833450777746" lon="8.565051722166425"><ele>193.0</ele><time>2026-04-04T06:34:33.998Z</time></trkpt><trkpt lat="44.98322215618074" lon="8.565042682300247"><ele>193.0</ele><time>2026-04-04T06:34:35Z</time></trkpt><trkpt lat="44.9831016719011" lon="8.56503000973179"><ele>193.8</ele><time>2026-04-04T06:34:36Z</time></trkpt><trkpt lat="44.98298133241941" lon="8.565030338382858"><ele>194.60000000000002</ele><time>2026-04-04T06:34:37Z</time></trkpt><trkpt lat="44.982873766998026" lon="8.565021260243247"><ele>195.39999999999998</ele><time>2026-04-04T06:34:38Z</time></trkpt><trkpt lat="44.98276938333139" lon="8.565003783516502"><ele>196.2</ele><time>2026-04-04T06:34:39Z</time></trkpt><trkpt lat="44.98266573762662" lon="8.564993360492595"><ele>197.0</ele><time>2026-04-04T06:34:40Z</time></trkpt><trkpt lat="44.982542886862525" lon="8.5649844885335"><ele>196.6</ele><time>2026-04-04T06:34:41Z</time></trkpt><trkpt lat="44.982421650701454" lon="8.564973042179076"><ele>196.2</ele><time>2026-04-04T06:34:42Z</time></trkpt><trkpt lat="44.98231499301866" lon="8.564964906539839"><ele>195.8</ele><time>2026-04-04T06:34:43Z</time></trkpt><trkpt lat="44.982211535281586" lon="8.56496104406102"><ele>195.4</ele><time>2026-04-04T06:34:44Z</time></trkpt><trkpt lat="44.98211935215729" lon="8.564968862094776"><ele>195.0</ele><time>2026-04-04T06:34:45Z</time></trkpt><trkpt lat="44.98203149697426" lon="8.564985431451024"><ele>195.0</ele><time>2026-04-04T06:34:46Z</time></trkpt><trkpt lat="44.98194325392189" lon="8.565010024949915"><ele>195.0</ele><time>2026-04-04T06:34:47Z</time></trkpt><trkpt lat="44.98185594260363" lon="8.56504125615789"><ele>195.0</ele><time>2026-04-04T06:34:48Z</time></trkpt><trkpt lat="44.98177305289627" lon="8.565036585425455"><ele>195.0</ele><time>2026-04-04T06:34:49Z</time></trkpt><trkpt lat="44.98170012937573" lon="8.56504000568945"><ele>195.0</ele><time>2026-04-04T06:34:50Z</time></trkpt><trkpt lat="44.981631852913914" lon="8.565054968323818"><ele>195.0</ele><time>2026-04-04T06:34:51Z</time></trkpt><trkpt lat="44.98154565254361" lon="8.56503814531881"><ele>193.6</ele><time>2026-04-04T06:34:53Z</time></trkpt><trkpt lat="44.98147227755334" lon="8.565014196556424"><ele>192.2</ele><time>2026-04-04T06:35:13.999Z</time></trkpt><trkpt lat="44.981355088943815" lon="8.565055666147758"><ele>190.8</ele><time>2026-04-04T06:35:15.999Z</time></trkpt><trkpt lat="44.98128636246493" lon="8.56511316277823"><ele>189.4</ele><time>2026-04-04T06:35:16.999Z</time></trkpt><trkpt lat="44.981199690780464" lon="8.565144291503204"><ele>188.0</ele><time>2026-04-04T06:35:17.999Z</time></trkpt><trkpt lat="44.981110700620505" lon="8.565200182335971"><ele>188.0</ele><time>2026-04-04T06:35:18.999Z</time></trkpt><trkpt lat="44.98102070823134" lon="8.565256684838188"><ele>188.0</ele><time>2026-04-04T06:35:19.999Z</time></trkpt><trkpt lat="44.98092604066237" lon="8.565335858557068"><ele>188.0</ele><time>2026-04-04T06:35:20.999Z</time></trkpt><trkpt lat="44.980818776335326" lon="8.565445385059306"><ele>188.0</ele><time>2026-04-04T06:35:21.999Z</time></trkpt><trkpt lat="44.980710737888906" lon="8.565543407771544"><ele>187.5</ele><time>2026-04-04T06:35:22.999Z</time></trkpt><trkpt lat="44.98061048467001" lon="8.565641015396428"><ele>187.0</ele><time>2026-04-04T06:35:23.999Z</time></trkpt><trkpt lat="44.9805096430446" lon="8.565737820698391"><ele>186.5</ele><time>2026-04-04T06:35:24.999Z</time></trkpt><trkpt lat="44.98040786391022" lon="8.565830997037637"><ele>186.0</ele><time>2026-04-04T06:35:25.999Z</time></trkpt><trkpt lat="44.980310986779" lon="8.56591054139771"><ele>186.0</ele><time>2026-04-04T06:35:26.999Z</time></trkpt><trkpt lat="44.980208130122485" lon="8.565963093007207"><ele>186.0</ele><time>2026-04-04T06:35:27.999Z</time></trkpt><trkpt lat="44.980127720534085" lon="8.566068940538733"><ele>186.0</ele><time>2026-04-04T06:35:28.999Z</time></trkpt><trkpt lat="44.98004534164581" lon="8.566160968690122"><ele>186.0</ele><time>2026-04-04T06:35:29.999Z</time></trkpt><trkpt lat="44.97997460623398" lon="8.566266283409437"><ele>186.0</ele><time>2026-04-04T06:35:30.999Z</time></trkpt><trkpt lat="44.97990422725681" lon="8.566393116357666"><ele>185.5</ele><time>2026-04-04T06:35:31.999Z</time></trkpt><trkpt lat="44.97982509952495" lon="8.566540586652343"><ele>185.0</ele><time>2026-04-04T06:35:32.999Z</time></trkpt><trkpt lat="44.97974278409149" lon="8.566695025876555"><ele>184.5</ele><time>2026-04-04T06:35:33.999Z</time></trkpt><trkpt lat="44.97966009403688" lon="8.566858805805484"><ele>184.0</ele><time>2026-04-04T06:35:34.999Z</time></trkpt><trkpt lat="44.97957118242166" lon="8.567004555682246"><ele>182.25</ele><time>2026-04-04T06:35:35.999Z</time></trkpt><trkpt lat="44.97949789731822" lon="8.5671512676443"><ele>180.5</ele><time>2026-04-04T06:35:36.999Z</time></trkpt><trkpt lat="44.97942664820093" lon="8.567293903593079"><ele>178.75</ele><time>2026-04-04T06:35:37.999Z</time></trkpt><trkpt lat="44.97935406571033" lon="8.56743444599963"><ele>177.0</ele><time>2026-04-04T06:35:38.999Z</time></trkpt><trkpt lat="44.97928378948286" lon="8.567567963341373"><ele>177.0</ele><time>2026-04-04T06:35:39.999Z</time></trkpt><trkpt lat="44.979216218286055" lon="8.567696341429404"><ele>177.0</ele><time>2026-04-04T06:35:40.999Z</time></trkpt><trkpt lat="44.97915072275087" lon="8.5678272617612"><ele>177.0</ele><time>2026-04-04T06:35:41.999Z</time></trkpt><trkpt lat="44.97909172869252" lon="8.56796065390071"><ele>177.0</ele><time>2026-04-04T06:35:42.999Z</time></trkpt><trkpt lat="44.97904658476529" lon="8.568123242661553"><ele>177.0</ele><time>2026-04-04T06:35:43.999Z</time></trkpt><trkpt lat="44.97900352341334" lon="8.568290396745608"><ele>177.0</ele><time>2026-04-04T06:35:44.999Z</time></trkpt><trkpt lat="44.97896439384441" lon="8.568466850370434"><ele>177.0</ele><time>2026-04-04T06:35:45.999Z</time></trkpt><trkpt lat="44.978929499493866" lon="8.568634054114716"><ele>177.0</ele><time>2026-04-04T06:35:46.999Z</time></trkpt><trkpt lat="44.97888027176089" lon="8.568807062616315"><ele>175.25</ele><time>2026-04-04T06:35:47.999Z</time></trkpt><trkpt lat="44.978810405667545" lon="8.568947384007146"><ele>173.5</ele><time>2026-04-04T06:35:48.999Z</time></trkpt><trkpt lat="44.978720088289876" lon="8.569047222360611"><ele>171.75</ele><time>2026-04-04T06:35:49.999Z</time></trkpt><trkpt lat="44.97862426947919" lon="8.569153821714648"><ele>170.0</ele><time>2026-04-04T06:35:50.999Z</time></trkpt><trkpt lat="44.97853541708913" lon="8.569250629921614"><ele>170.0</ele><time>2026-04-04T06:35:51.999Z</time></trkpt><trkpt lat="44.9784521952624" lon="8.569341272050362"><ele>170.0</ele><time>2026-04-04T06:35:52.999Z</time></trkpt><trkpt lat="44.9783733678533" lon="8.569429840859607"><ele>170.0</ele><time>2026-04-04T06:35:53.999Z</time></trkpt><trkpt lat="44.978282324710705" lon="8.569533569815311"><ele>170.0</ele><time>2026-04-04T06:35:54.999Z</time></trkpt><trkpt lat="44.97818691494648" lon="8.569642273835795"><ele>170.0</ele><time>2026-04-04T06:35:55.999Z</time></trkpt><trkpt lat="44.97810059709826" lon="8.569740619091315"><ele>170.0</ele><time>2026-04-04T06:35:56.999Z</time></trkpt><trkpt lat="44.978015017072664" lon="8.56983812370601"><ele>170.0</ele><time>2026-04-04T06:35:57.999Z</time></trkpt><trkpt lat="44.9779222392945" lon="8.569943828998566"><ele>170.0</ele><time>2026-04-04T06:35:58.999Z</time></trkpt><trkpt lat="44.977825395188816" lon="8.570054167212982"><ele>170.0</ele><time>2026-04-04T06:35:59.999Z</time></trkpt><trkpt lat="44.97772445993757" lon="8.570169166631485"><ele>170.0</ele><time>2026-04-04T06:36:00.999Z</time></trkpt><trkpt lat="44.977623296395855" lon="8.57028442615719"><ele>170.0</ele><time>2026-04-04T06:36:01.999Z</time></trkpt><trkpt lat="44.977518869127614" lon="8.570403404170847"><ele>170.0</ele><time>2026-04-04T06:36:02.999Z</time></trkpt><trkpt lat="44.97741068126484" lon="8.570526666764605"><ele>170.0</ele><time>2026-04-04T06:36:03.999Z</time></trkpt><trkpt lat="44.977309317381426" lon="8.570642154551386"><ele>169.8</ele><time>2026-04-04T06:36:04.999Z</time></trkpt><trkpt lat="44.97721744445718" lon="8.570746658130162"><ele>169.6</ele><time>2026-04-04T06:36:05.999Z</time></trkpt><trkpt lat="44.977129428201415" lon="8.570846437514813"><ele>169.39999999999998</ele><time>2026-04-04T06:36:06.999Z</time></trkpt><trkpt lat="44.977046386274175" lon="8.570940577822501"><ele>169.2</ele><time>2026-04-04T06:36:07.999Z</time></trkpt><trkpt lat="44.97696564564144" lon="8.571032109300724"><ele>169.0</ele><time>2026-04-04T06:36:08.999Z</time></trkpt><trkpt lat="44.97689451986682" lon="8.571112740703025"><ele>169.6</ele><time>2026-04-04T06:36:09.999Z</time></trkpt><trkpt lat="44.97682269143497" lon="8.57119416874463"><ele>170.2</ele><time>2026-04-04T06:36:10.999Z</time></trkpt><trkpt lat="44.97673918345686" lon="8.571288326156145"><ele>170.79999999999998</ele><time>2026-04-04T06:36:11.999Z</time></trkpt><trkpt lat="44.976647229626394" lon="8.571388501624531"><ele>171.39999999999998</ele><time>2026-04-04T06:36:12.999Z</time></trkpt><trkpt lat="44.9765425699791" lon="8.571498226492762"><ele>172.0</ele><time>2026-04-04T06:36:13.999Z</time></trkpt><trkpt lat="44.97642910072423" lon="8.571600452664185"><ele>169.25</ele><time>2026-04-04T06:36:14.999Z</time></trkpt><trkpt lat="44.97630383160834" lon="8.571663249644896"><ele>166.5</ele><time>2026-04-04T06:36:15.999Z</time></trkpt><trkpt lat="44.976171062881654" lon="8.571715810147452"><ele>163.75</ele><time>2026-04-04T06:36:16.999Z</time></trkpt><trkpt lat="44.97603468270474" lon="8.571767101254224"><ele>161.0</ele><time>2026-04-04T06:36:17.999Z</time></trkpt><trkpt lat="44.97589775374042" lon="8.57181729119654"><ele>158.75</ele><time>2026-04-04T06:36:18.999Z</time></trkpt><trkpt lat="44.9757713348046" lon="8.571864134136462"><ele>156.5</ele><time>2026-04-04T06:36:19.999Z</time></trkpt><trkpt lat="44.97565168028494" lon="8.571908470608548"><ele>154.25</ele><time>2026-04-04T06:36:20.999Z</time></trkpt><trkpt lat="44.97552428491301" lon="8.571955675349622"><ele>152.0</ele><time>2026-04-04T06:36:21.999Z</time></trkpt><trkpt lat="44.97538993130661" lon="8.572005458371493"><ele>152.75</ele><time>2026-04-04T06:36:22.999Z</time></trkpt><trkpt lat="44.9752499898492" lon="8.572057381244166"><ele>153.5</ele><time>2026-04-04T06:36:23.998Z</time></trkpt><trkpt lat="44.97510492453915" lon="8.57211120137126"><ele>154.25</ele><time>2026-04-04T06:36:24.998Z</time></trkpt><trkpt lat="44.9749596566826" lon="8.572165096637965"><ele>155.0</ele><time>2026-04-04T06:36:25.998Z</time></trkpt><trkpt lat="44.97481014755678" lon="8.57222056544825"><ele>152.0</ele><time>2026-04-04T06:36:26.998Z</time></trkpt><trkpt lat="44.97466923645059" lon="8.57227308430887"><ele>149.0</ele><time>2026-04-04T06:36:27.998Z</time></trkpt><trkpt lat="44.97452503698362" lon="8.572326930941351"><ele>146.0</ele><time>2026-04-04T06:36:28.998Z</time></trkpt><trkpt lat="44.97437321278735" lon="8.572382816409407"><ele>146.0</ele><time>2026-04-04T06:36:29.998Z</time></trkpt><trkpt lat="44.974225307107154" lon="8.572436544525221"><ele>146.0</ele><time>2026-04-04T06:36:30.998Z</time></trkpt><trkpt lat="44.97407693498574" lon="8.572490442079042"><ele>146.0</ele><time>2026-04-04T06:36:31.998Z</time></trkpt><trkpt lat="44.97392005486774" lon="8.572549115611716"><ele>144.33333333333331</ele><time>2026-04-04T06:36:32.998Z</time></trkpt><trkpt lat="44.97375969896487" lon="8.572607265015172"><ele>142.66666666666666</ele><time>2026-04-04T06:36:33.998Z</time></trkpt><trkpt lat="44.973597316565126" lon="8.572665051359587"><ele>141.0</ele><time>2026-04-04T06:36:34.998Z</time></trkpt><trkpt lat="44.97343154509362" lon="8.572727051329258"><ele>139.66666666666666</ele><time>2026-04-04T06:36:35.998Z</time></trkpt><trkpt lat="44.97327248843395" lon="8.57278653990234"><ele>138.33333333333331</ele><time>2026-04-04T06:36:36.998Z</time></trkpt><trkpt lat="44.97312405739598" lon="8.572841606478763"><ele>137.0</ele><time>2026-04-04T06:36:37.998Z</time></trkpt><trkpt lat="44.97296986771305" lon="8.572898899142208"><ele>136.66666666666666</ele><time>2026-04-04T06:36:38.998Z</time></trkpt><trkpt lat="44.97281681922752" lon="8.572955739705566"><ele>136.33333333333334</ele><time>2026-04-04T06:36:39.998Z</time></trkpt><trkpt lat="44.972672009937185" lon="8.573009520317736"><ele>136.0</ele><time>2026-04-04T06:36:41Z</time></trkpt><trkpt lat="44.97253190625767" lon="8.573058252639898"><ele>134.5</ele><time>2026-04-04T06:36:42Z</time></trkpt><trkpt lat="44.97238849775482" lon="8.573111865694676"><ele>133.0</ele><time>2026-04-04T06:36:43Z</time></trkpt><trkpt lat="44.97225348875392" lon="8.573162338607535"><ele>131.5</ele><time>2026-04-04T06:36:44Z</time></trkpt><trkpt lat="44.9721529072481" lon="8.573199940857483"><ele>130.0</ele><time>2026-04-04T06:36:45Z</time></trkpt><trkpt lat="44.972061700130006" lon="8.573234038507195"><ele>130.0</ele><time>2026-04-04T06:36:46Z</time></trkpt><trkpt lat="44.971971675406934" lon="8.57326769411397"><ele>130.0</ele><time>2026-04-04T06:36:47Z</time></trkpt><trkpt lat="44.9718650625322" lon="8.573307551178942"><ele>130.0</ele><time>2026-04-04T06:36:48Z</time></trkpt><trkpt lat="44.97176887109332" lon="8.573343512132602"><ele>130.0</ele><time>2026-04-04T06:36:49Z</time></trkpt><trkpt lat="44.971680932794214" lon="8.573376389741124"><ele>130.0</ele><time>2026-04-04T06:36:50Z</time></trkpt><trkpt lat="44.971586497241276" lon="8.573411204546407"><ele>129.0</ele><time>2026-04-04T06:36:51Z</time></trkpt><trkpt lat="44.9714768087219" lon="8.573451722414875"><ele>128.0</ele><time>2026-04-04T06:36:52Z</time></trkpt><trkpt lat="44.97135753977849" lon="8.573495779204366"><ele>127.0</ele><time>2026-04-04T06:36:53Z</time></trkpt><trkpt lat="44.97123795045886" lon="8.573539954334853"><ele>126.0</ele><time>2026-04-04T06:36:54Z</time></trkpt><trkpt lat="44.97112242045983" lon="8.573582629991884"><ele>126.0</ele><time>2026-04-04T06:36:55Z</time></trkpt><trkpt lat="44.97100332359055" lon="8.573626574037672"><ele>126.0</ele><time>2026-04-04T06:36:56Z</time></trkpt><trkpt lat="44.970879901669974" lon="8.573672035358964"><ele>126.0</ele><time>2026-04-04T06:36:57Z</time></trkpt><trkpt lat="44.97076162070498" lon="8.573715603059016"><ele>126.0</ele><time>2026-04-04T06:36:57.999Z</time></trkpt><trkpt lat="44.970639915169556" lon="8.57376043216769"><ele>125.0</ele><time>2026-04-04T06:36:58.999Z</time></trkpt><trkpt lat="44.97050996412665" lon="8.573808298433624"><ele>124.0</ele><time>2026-04-04T06:36:59.999Z</time></trkpt><trkpt lat="44.97037382117263" lon="8.5738584454305"><ele>123.0</ele><time>2026-04-04T06:37:00.999Z</time></trkpt><trkpt lat="44.97024151484194" lon="8.573907179245476"><ele>122.0</ele><time>2026-04-04T06:37:01.999Z</time></trkpt><trkpt lat="44.97011209484193" lon="8.573954924610561"><ele>121.5</ele><time>2026-04-04T06:37:02.999Z</time></trkpt><trkpt lat="44.969976736579525" lon="8.574004900307814"><ele>121.0</ele><time>2026-04-04T06:37:03.999Z</time></trkpt><trkpt lat="44.96983522594902" lon="8.574057147524503"><ele>120.5</ele><time>2026-04-04T06:37:04.999Z</time></trkpt><trkpt lat="44.969698633142855" lon="8.574107579026737"><ele>120.0</ele><time>2026-04-04T06:37:05.999Z</time></trkpt><trkpt lat="44.969571579885006" lon="8.57415448842602"><ele>120.0</ele><time>2026-04-04T06:37:06.999Z</time></trkpt><trkpt lat="44.969442714254185" lon="8.574202066976493"><ele>120.0</ele><time>2026-04-04T06:37:07.999Z</time></trkpt><trkpt lat="44.969310177786596" lon="8.574251000838775"><ele>120.0</ele><time>2026-04-04T06:37:08.999Z</time></trkpt><trkpt lat="44.96918904142928" lon="8.574295725657125"><ele>120.0</ele><time>2026-04-04T06:37:09.999Z</time></trkpt><trkpt lat="44.96908255053903" lon="8.574335043221371"><ele>119.8</ele><time>2026-04-04T06:37:10.999Z</time></trkpt><trkpt lat="44.96898820666767" lon="8.57436987596976"><ele>119.6</ele><time>2026-04-04T06:37:11.999Z</time></trkpt><trkpt lat="44.968916426778726" lon="8.574396377858392"><ele>119.4</ele><time>2026-04-04T06:37:12.999Z</time></trkpt><trkpt lat="44.968811904738615" lon="8.574434400394457"><ele>119.2</ele><time>2026-04-04T06:37:14.999Z</time></trkpt><trkpt lat="44.968845472224885" lon="8.57464848712244"><ele>119.0</ele><time>2026-04-04T06:37:16.999Z</time></trkpt><trkpt lat="44.9688880003674" lon="8.574738505725682"><ele>119.0</ele><time>2026-04-04T06:37:17.999Z</time></trkpt><trkpt lat="44.968905551585486" lon="8.574858693062122"><ele>119.0</ele><time>2026-04-04T06:37:18.999Z</time></trkpt><trkpt lat="44.96893004105867" lon="8.574976056556768"><ele>119.0</ele><time>2026-04-04T06:37:19.999Z</time></trkpt><trkpt lat="44.96892602682259" lon="8.575108271834008"><ele>119.0</ele><time>2026-04-04T06:37:20.999Z</time></trkpt><trkpt lat="44.96889630685742" lon="8.575265624532399"><ele>119.0</ele><time>2026-04-04T06:37:21.999Z</time></trkpt><trkpt lat="44.96885102447648" lon="8.575432225143475"><ele>119.0</ele><time>2026-04-04T06:37:22.999Z</time></trkpt><trkpt lat="44.96878439512419" lon="8.575625258812254"><ele>119.0</ele><time>2026-04-04T06:37:23.999Z</time></trkpt><trkpt lat="44.968724970381274" lon="8.575808533834964"><ele>119.0</ele><time>2026-04-04T06:37:24.999Z</time></trkpt><trkpt lat="44.968679610176274" lon="8.575953175132726"><ele>119.0</ele><time>2026-04-04T06:37:25.999Z</time></trkpt><trkpt lat="44.96864524495067" lon="8.576079804284765"><ele>119.0</ele><time>2026-04-04T06:37:26.999Z</time></trkpt><trkpt lat="44.96863376336157" lon="8.576174350572344"><ele>119.0</ele><time>2026-04-04T06:37:27.999Z</time></trkpt><trkpt lat="44.96868784527272" lon="8.576319714085871"><ele>119.0</ele><time>2026-04-04T06:37:29.999Z</time></trkpt><trkpt lat="44.96878446306667" lon="8.576357992945718"><ele>119.0</ele><time>2026-04-04T06:37:30.999Z</time></trkpt><trkpt lat="44.968887443801" lon="8.576393930938611"><ele>119.0</ele><time>2026-04-04T06:37:31.999Z</time></trkpt><trkpt lat="44.96901081989732" lon="8.576387913767723"><ele>119.75</ele><time>2026-04-04T06:37:32.999Z</time></trkpt><trkpt lat="44.969131137058376" lon="8.576378701437545"><ele>120.5</ele><time>2026-04-04T06:37:33.999Z</time></trkpt><trkpt lat="44.96925071469858" lon="8.576437925812574"><ele>121.25</ele><time>2026-04-04T06:37:34.999Z</time></trkpt><trkpt lat="44.96937379182686" lon="8.576482661671909"><ele>122.0</ele><time>2026-04-04T06:37:35.999Z</time></trkpt><trkpt lat="44.96950885751273" lon="8.576537628714751"><ele>123.0</ele><time>2026-04-04T06:37:36.999Z</time></trkpt><trkpt lat="44.96963867591087" lon="8.5765928526829"><ele>123.99999999999999</ele><time>2026-04-04T06:37:37.999Z</time></trkpt><trkpt lat="44.96974751731442" lon="8.576641717806966"><ele>124.99999999999999</ele><time>2026-04-04T06:37:38.999Z</time></trkpt><trkpt lat="44.969827712187076" lon="8.576682035858068"><ele>126.0</ele><time>2026-04-04T06:37:39.999Z</time></trkpt><trkpt lat="44.96988681220806" lon="8.576731403650045"><ele>127.0</ele><time>2026-04-04T06:37:40.999Z</time></trkpt><trkpt lat="44.96993548878168" lon="8.576876199597022"><ele>127.0</ele><time>2026-04-04T06:37:42.999Z</time></trkpt><trkpt lat="44.96991714169865" lon="8.576992650524517"><ele>127.0</ele><time>2026-04-04T06:37:43.999Z</time></trkpt><trkpt lat="44.96987798859298" lon="8.577080745011523"><ele>127.0</ele><time>2026-04-04T06:37:44.999Z</time></trkpt><trkpt lat="44.969872878242654" lon="8.577181995272307"><ele>127.0</ele><time>2026-04-04T06:37:47.999Z</time></trkpt><trkpt lat="44.970086632572226" lon="8.57725627922442"><ele>129.25</ele><time>2026-04-04T06:37:49.999Z</time></trkpt><trkpt lat="44.970188818378105" lon="8.577294289362726"><ele>131.5</ele><time>2026-04-04T06:37:50.999Z</time></trkpt><trkpt lat="44.970295340224816" lon="8.577346807639618"><ele>133.75</ele><time>2026-04-04T06:37:51.999Z</time></trkpt><trkpt lat="44.9704145358443" lon="8.577412908619879"><ele>136.0</ele><time>2026-04-04T06:37:52.999Z</time></trkpt><trkpt lat="44.9705325743802" lon="8.577483254322463"><ele>136.0</ele><time>2026-04-04T06:37:53.999Z</time></trkpt><trkpt lat="44.9706278356366" lon="8.577538468299469"><ele>136.0</ele><time>2026-04-04T06:37:54.999Z</time></trkpt><trkpt lat="44.97071786425456" lon="8.577595257582727"><ele>136.0</ele><time>2026-04-04T06:37:55.999Z</time></trkpt><trkpt lat="44.97080950517548" lon="8.577675719163377"><ele>136.0</ele><time>2026-04-04T06:37:56.999Z</time></trkpt><trkpt lat="44.97090496087497" lon="8.577756468041049"><ele>136.0</ele><time>2026-04-04T06:37:57.999Z</time></trkpt><trkpt lat="44.97099630951596" lon="8.577856005471046"><ele>136.6</ele><time>2026-04-04T06:37:58.999Z</time></trkpt><trkpt lat="44.971082480676586" lon="8.577941199509073"><ele>137.2</ele><time>2026-04-04T06:37:59.999Z</time></trkpt><trkpt lat="44.97116863677059" lon="8.57802959732439"><ele>137.8</ele><time>2026-04-04T06:38:00.999Z</time></trkpt><trkpt lat="44.971262816649514" lon="8.5781227308504"><ele>138.4</ele><time>2026-04-04T06:38:01.999Z</time></trkpt><trkpt lat="44.97134780448577" lon="8.5782020237281"><ele>139.0</ele><time>2026-04-04T06:38:02.999Z</time></trkpt><trkpt lat="44.97130937078797" lon="8.578515746944776"><ele>139.0</ele><time>2026-04-04T06:38:03.999Z</time></trkpt><trkpt lat="44.971350437607676" lon="8.578601675925958"><ele>139.0</ele><time>2026-04-04T06:38:04.999Z</time></trkpt><trkpt lat="44.97140448151107" lon="8.57876997714538"><ele>139.0</ele><time>2026-04-04T06:38:06.999Z</time></trkpt><trkpt lat="44.971458768666466" lon="8.57890226468427"><ele>139.0</ele><time>2026-04-04T06:38:07.999Z</time></trkpt><trkpt lat="44.97151824425705" lon="8.57904719539584"><ele>139.0</ele><time>2026-04-04T06:38:08.999Z</time></trkpt><trkpt lat="44.97156937107271" lon="8.579171781723375"><ele>142.0</ele><time>2026-04-04T06:38:09.999Z</time></trkpt><trkpt lat="44.97194349792513" lon="8.579022402840426"><ele>145.0</ele><time>2026-04-04T06:38:10.999Z</time></trkpt><trkpt lat="44.972011829764526" lon="8.579152417591414"><ele>145.0</ele><time>2026-04-04T06:38:11.999Z</time></trkpt><trkpt lat="44.97208863159907" lon="8.579273231033739"><ele>145.0</ele><time>2026-04-04T06:38:12.999Z</time></trkpt><trkpt lat="44.97215932877774" lon="8.579374015912775"><ele>145.0</ele><time>2026-04-04T06:38:13.999Z</time></trkpt><trkpt lat="44.97223687832617" lon="8.579473771575401"><ele>145.0</ele><time>2026-04-04T06:38:14.999Z</time></trkpt><trkpt lat="44.972315930502646" lon="8.579579280899072"><ele>145.0</ele><time>2026-04-04T06:38:15.999Z</time></trkpt><trkpt lat="44.9724026922117" lon="8.579679087420987"><ele>145.75</ele><time>2026-04-04T06:38:16.999Z</time></trkpt><trkpt lat="44.972488984092564" lon="8.579781668953354"><ele>146.5</ele><time>2026-04-04T06:38:17.999Z</time></trkpt><trkpt lat="44.97258492202788" lon="8.579897864815658"><ele>147.25</ele><time>2026-04-04T06:38:18.999Z</time></trkpt><trkpt lat="44.97271293565788" lon="8.580056865894935"><ele>148.0</ele><time>2026-04-04T06:38:19.999Z</time></trkpt><trkpt lat="44.97284466476832" lon="8.580210447807696"><ele>148.4</ele><time>2026-04-04T06:38:20.999Z</time></trkpt><trkpt lat="44.97293328393382" lon="8.58030644180786"><ele>148.8</ele><time>2026-04-04T06:38:21.999Z</time></trkpt><trkpt lat="44.97302489747484" lon="8.580405216308174"><ele>149.2</ele><time>2026-04-04T06:38:22.999Z</time></trkpt><trkpt lat="44.973124428289594" lon="8.580491013631608"><ele>149.6</ele><time>2026-04-04T06:38:23.999Z</time></trkpt><trkpt lat="44.97320583525972" lon="8.580558110374493"><ele>150.0</ele><time>2026-04-04T06:38:24.998Z</time></trkpt><trkpt lat="44.97330337120032" lon="8.580646174105825"><ele>152.25</ele><time>2026-04-04T06:38:25.998Z</time></trkpt><trkpt lat="44.97340916456776" lon="8.580758628611353"><ele>154.5</ele><time>2026-04-04T06:38:26.998Z</time></trkpt><trkpt lat="44.97351107640126" lon="8.580874263943453"><ele>156.75</ele><time>2026-04-04T06:38:27.998Z</time></trkpt><trkpt lat="44.97360516065953" lon="8.580981822876348"><ele>159.0</ele><time>2026-04-04T06:38:28.998Z</time></trkpt><trkpt lat="44.97369742789618" lon="8.58108827065069"><ele>160.2</ele><time>2026-04-04T06:38:29.998Z</time></trkpt><trkpt lat="44.97379532149837" lon="8.581195642153624"><ele>161.4</ele><time>2026-04-04T06:38:30.998Z</time></trkpt><trkpt lat="44.97389358251194" lon="8.581287824944189"><ele>162.6</ele><time>2026-04-04T06:38:31.998Z</time></trkpt><trkpt lat="44.97398841747477" lon="8.581369701598687"><ele>163.8</ele><time>2026-04-04T06:38:32.998Z</time></trkpt><trkpt lat="44.97407123394619" lon="8.581436114710648"><ele>165.0</ele><time>2026-04-04T06:38:33.998Z</time></trkpt><trkpt lat="44.97415827896845" lon="8.581500555024476"><ele>165.2</ele><time>2026-04-04T06:38:34.998Z</time></trkpt><trkpt lat="44.97424993020795" lon="8.581585842989378"><ele>165.4</ele><time>2026-04-04T06:38:35.998Z</time></trkpt><trkpt lat="44.97434930121123" lon="8.581678806350949"><ele>165.60000000000002</ele><time>2026-04-04T06:38:36.998Z</time></trkpt><trkpt lat="44.97444944672404" lon="8.581768738269998"><ele>165.8</ele><time>2026-04-04T06:38:37.998Z</time></trkpt><trkpt lat="44.97452072095194" lon="8.5818352452949"><ele>166.0</ele><time>2026-04-04T06:38:38.998Z</time></trkpt><trkpt lat="44.97457430717284" lon="8.581886682413513"><ele>166.0</ele><time>2026-04-04T06:38:39.998Z</time></trkpt><trkpt lat="44.97466918725311" lon="8.581953622077782"><ele>166.0</ele><time>2026-04-04T06:38:41.998Z</time></trkpt><trkpt lat="44.974819626325434" lon="8.581918646025247"><ele>166.0</ele><time>2026-04-04T06:38:43.998Z</time></trkpt><trkpt lat="44.97493135071475" lon="8.581863424446912"><ele>166.0</ele><time>2026-04-04T06:38:44.998Z</time></trkpt><trkpt lat="44.975016280840215" lon="8.581831398633936"><ele>164.60000000000002</ele><time>2026-04-04T06:38:45.998Z</time></trkpt><trkpt lat="44.97510922852531" lon="8.58182062693937"><ele>163.20000000000002</ele><time>2026-04-04T06:38:47Z</time></trkpt><trkpt lat="44.97519126987332" lon="8.581764336907344"><ele>161.8</ele><time>2026-04-04T06:38:48Z</time></trkpt><trkpt lat="44.97527231744375" lon="8.581675809005516"><ele>160.4</ele><time>2026-04-04T06:38:49Z</time></trkpt><trkpt lat="44.97535507157537" lon="8.581594770750632"><ele>159.0</ele><time>2026-04-04T06:38:49.999Z</time></trkpt><trkpt lat="44.97542581092723" lon="8.581520906842776"><ele>159.0</ele><time>2026-04-04T06:38:50.999Z</time></trkpt><trkpt lat="44.975493410397576" lon="8.581435460538085"><ele>159.0</ele><time>2026-04-04T06:38:51.999Z</time></trkpt><trkpt lat="44.97558330374188" lon="8.581296025717924"><ele>159.0</ele><time>2026-04-04T06:38:52.999Z</time></trkpt><trkpt lat="44.97566441948056" lon="8.581171766427472"><ele>159.0</ele><time>2026-04-04T06:38:53.999Z</time></trkpt><trkpt lat="44.975730153900244" lon="8.581057378305953"><ele>159.0</ele><time>2026-04-04T06:38:54.999Z</time></trkpt><trkpt lat="44.97579282231156" lon="8.580945764579795"><ele>158.8</ele><time>2026-04-04T06:38:55.999Z</time></trkpt><trkpt lat="44.97584964631107" lon="8.580817896098637"><ele>158.60000000000002</ele><time>2026-04-04T06:38:56.999Z</time></trkpt><trkpt lat="44.97590093418292" lon="8.58070538510097"><ele>158.4</ele><time>2026-04-04T06:38:57.999Z</time></trkpt><trkpt lat="44.975941817346325" lon="8.580586625687443"><ele>158.20000000000002</ele><time>2026-04-04T06:38:58.999Z</time></trkpt><trkpt lat="44.975993236647135" lon="8.580462197596542"><ele>158.0</ele><time>2026-04-04T06:38:59.999Z</time></trkpt><trkpt lat="44.97604423401283" lon="8.580324216364614"><ele>158.0</ele><time>2026-04-04T06:39:00.999Z</time></trkpt><trkpt lat="44.97609196113326" lon="8.580193595455725"><ele>158.0</ele><time>2026-04-04T06:39:01.999Z</time></trkpt><trkpt lat="44.97614998969142" lon="8.580050897282117"><ele>158.0</ele><time>2026-04-04T06:39:02.999Z</time></trkpt><trkpt lat="44.97621182379216" lon="8.57989023297585"><ele>158.0</ele><time>2026-04-04T06:39:03.999Z</time></trkpt><trkpt lat="44.97626215582096" lon="8.579742459250808"><ele>158.0</ele><time>2026-04-04T06:39:04.999Z</time></trkpt><trkpt lat="44.976316035912575" lon="8.579590866636682"><ele>158.0</ele><time>2026-04-04T06:39:05.999Z</time></trkpt><trkpt lat="44.97635923001457" lon="8.57946342490554"><ele>158.0</ele><time>2026-04-04T06:39:06.999Z</time></trkpt><trkpt lat="44.97639741823243" lon="8.579332189194506"><ele>158.0</ele><time>2026-04-04T06:39:07.999Z</time></trkpt><trkpt lat="44.97643120068931" lon="8.579183234575543"><ele>158.0</ele><time>2026-04-04T06:39:08.999Z</time></trkpt><trkpt lat="44.97644596680473" lon="8.579017502092588"><ele>158.4</ele><time>2026-04-04T06:39:09.999Z</time></trkpt><trkpt lat="44.97646697212203" lon="8.57885405813375"><ele>158.8</ele><time>2026-04-04T06:39:10.999Z</time></trkpt><trkpt lat="44.976480627433006" lon="8.57868928668905"><ele>159.2</ele><time>2026-04-04T06:39:11.999Z</time></trkpt><trkpt lat="44.9764965854118" lon="8.57855005329329"><ele>159.6</ele><time>2026-04-04T06:39:12.999Z</time></trkpt><trkpt lat="44.976507340552764" lon="8.578432404167353"><ele>160.0</ele><time>2026-04-04T06:39:13.999Z</time></trkpt><trkpt lat="44.97651582518114" lon="8.578277755895792"><ele>160.0</ele><time>2026-04-04T06:39:14.999Z</time></trkpt><trkpt lat="44.976521010845275" lon="8.578125969339114"><ele>160.0</ele><time>2026-04-04T06:39:15.999Z</time></trkpt><trkpt lat="44.97652884655936" lon="8.577970693707936"><ele>160.0</ele><time>2026-04-04T06:39:16.999Z</time></trkpt><trkpt lat="44.97654150350003" lon="8.577811404269994"><ele>160.0</ele><time>2026-04-04T06:39:17.999Z</time></trkpt><trkpt lat="44.97655936884992" lon="8.577655750235177"><ele>160.0</ele><time>2026-04-04T06:39:18.999Z</time></trkpt><trkpt lat="44.97659152231018" lon="8.577492548814817"><ele>160.0</ele><time>2026-04-04T06:39:19.999Z</time></trkpt><trkpt lat="44.9766476309174" lon="8.57732114429718"><ele>160.0</ele><time>2026-04-04T06:39:20.999Z</time></trkpt><trkpt lat="44.976681894343606" lon="8.577191722696426"><ele>160.0</ele><time>2026-04-04T06:39:21.999Z</time></trkpt><trkpt lat="44.97669832099682" lon="8.57708187737926"><ele>160.0</ele><time>2026-04-04T06:39:22.999Z</time></trkpt><trkpt lat="44.97669313755464" lon="8.576922424341495"><ele>160.0</ele><time>2026-04-04T06:39:24.999Z</time></trkpt><trkpt lat="44.97665942069083" lon="8.576795936667898"><ele>161.0</ele><time>2026-04-04T06:39:25.999Z</time></trkpt><trkpt lat="44.97660032707904" lon="8.576630070531538"><ele>162.0</ele><time>2026-04-04T06:39:26.999Z</time></trkpt><trkpt lat="44.976541338234625" lon="8.576484339727536"><ele>163.0</ele><time>2026-04-04T06:39:27.999Z</time></trkpt><trkpt lat="44.97652956845865" lon="8.576342915843789"><ele>164.0</ele><time>2026-04-04T06:39:28.999Z</time></trkpt><trkpt lat="44.97650686764422" lon="8.576236050660969"><ele>165.0</ele><time>2026-04-04T06:39:29.999Z</time></trkpt><trkpt lat="44.97649470916276" lon="8.576143680138076"><ele>166.2</ele><time>2026-04-04T06:39:30.999Z</time></trkpt><trkpt lat="44.9765291510953" lon="8.576027290238304"><ele>167.4</ele><time>2026-04-04T06:39:31.999Z</time></trkpt><trkpt lat="44.97660761997617" lon="8.575894307639038"><ele>168.60000000000002</ele><time>2026-04-04T06:39:32.999Z</time></trkpt><trkpt lat="44.976666558081206" lon="8.575761250329798"><ele>169.8</ele><time>2026-04-04T06:39:33.999Z</time></trkpt><trkpt lat="44.976698174042674" lon="8.575659791438547"><ele>171.0</ele><time>2026-04-04T06:39:34.999Z</time></trkpt><trkpt lat="44.976718096602085" lon="8.57554812996775"><ele>167.75</ele><time>2026-04-04T06:39:35.999Z</time></trkpt><trkpt lat="44.97675648472332" lon="8.575403541144"><ele>164.5</ele><time>2026-04-04T06:39:36.999Z</time></trkpt><trkpt lat="44.976786382907356" lon="8.575244684702444"><ele>161.25</ele><time>2026-04-04T06:39:37.999Z</time></trkpt><trkpt lat="44.97682597012178" lon="8.575040344315477"><ele>158.0</ele><time>2026-04-04T06:39:38.999Z</time></trkpt><trkpt lat="44.97687998649519" lon="8.574782571713271"><ele>158.0</ele><time>2026-04-04T06:39:39.999Z</time></trkpt><trkpt lat="44.97692011140572" lon="8.574543479245476"><ele>158.0</ele><time>2026-04-04T06:39:40.999Z</time></trkpt><trkpt lat="44.97696386614184" lon="8.574375263663956"><ele>158.0</ele><time>2026-04-04T06:39:41.999Z</time></trkpt><trkpt lat="44.97700924475215" lon="8.5742211170023"><ele>158.0</ele><time>2026-04-04T06:39:42.999Z</time></trkpt><trkpt lat="44.977061067526925" lon="8.57407141481149"><ele>159.75</ele><time>2026-04-04T06:39:43.999Z</time></trkpt><trkpt lat="44.977104626352144" lon="8.573917350154211"><ele>161.5</ele><time>2026-04-04T06:39:44.999Z</time></trkpt><trkpt lat="44.97714741549075" lon="8.573769263685344"><ele>163.25</ele><time>2026-04-04T06:39:45.999Z</time></trkpt><trkpt lat="44.97718816865547" lon="8.573627693666964"><ele>165.0</ele><time>2026-04-04T06:39:46.999Z</time></trkpt><trkpt lat="44.97721800440864" lon="8.573470129605392"><ele>165.8</ele><time>2026-04-04T06:39:47.999Z</time></trkpt><trkpt lat="44.97725439643337" lon="8.573334928428453"><ele>166.6</ele><time>2026-04-04T06:39:48.999Z</time></trkpt><trkpt lat="44.977295140751956" lon="8.573217549308916"><ele>167.39999999999998</ele><time>2026-04-04T06:39:49.999Z</time></trkpt><trkpt lat="44.977354571425735" lon="8.57310023260605"><ele>168.2</ele><time>2026-04-04T06:39:50.999Z</time></trkpt><trkpt lat="44.9774051365495" lon="8.57298123325266"><ele>169.0</ele><time>2026-04-04T06:39:51.999Z</time></trkpt><trkpt lat="44.9774446640351" lon="8.572879117510043"><ele>169.39999999999998</ele><time>2026-04-04T06:39:52.999Z</time></trkpt><trkpt lat="44.97746863583982" lon="8.57276587239852"><ele>169.8</ele><time>2026-04-04T06:39:53.999Z</time></trkpt><trkpt lat="44.97751424904843" lon="8.572654892454064"><ele>170.2</ele><time>2026-04-04T06:39:54.999Z</time></trkpt><trkpt lat="44.97755235899329" lon="8.572515005717646"><ele>170.60000000000002</ele><time>2026-04-04T06:39:55.999Z</time></trkpt><trkpt lat="44.977583974054646" lon="8.572366935661087"><ele>171.0</ele><time>2026-04-04T06:39:56.999Z</time></trkpt><trkpt lat="44.977639237065745" lon="8.572218980777365"><ele>168.75</ele><time>2026-04-04T06:39:57.999Z</time></trkpt><trkpt lat="44.97768338003716" lon="8.572063219588493"><ele>166.5</ele><time>2026-04-04T06:39:58.999Z</time></trkpt><trkpt lat="44.97774654611291" lon="8.571908786258112"><ele>164.25</ele><time>2026-04-04T06:39:59.999Z</time></trkpt><trkpt lat="44.977827574157956" lon="8.571773355422055"><ele>162.0</ele><time>2026-04-04T06:40:00.999Z</time></trkpt><trkpt lat="44.977898256268524" lon="8.571644410938067"><ele>162.0</ele><time>2026-04-04T06:40:01.999Z</time></trkpt><trkpt lat="44.97796763964002" lon="8.571517713309277"><ele>162.0</ele><time>2026-04-04T06:40:02.999Z</time></trkpt><trkpt lat="44.978045834985664" lon="8.571401971194113"><ele>162.0</ele><time>2026-04-04T06:40:03.999Z</time></trkpt><trkpt lat="44.97812656080614" lon="8.571278779352236"><ele>162.0</ele><time>2026-04-04T06:40:04.999Z</time></trkpt><trkpt lat="44.97817552435925" lon="8.571143622609714"><ele>163.16666666666666</ele><time>2026-04-04T06:40:05.999Z</time></trkpt><trkpt lat="44.97821185757802" lon="8.571018793329664"><ele>164.33333333333334</ele><time>2026-04-04T06:40:06.999Z</time></trkpt><trkpt lat="44.97825371544854" lon="8.5709104768794"><ele>165.5</ele><time>2026-04-04T06:40:07.999Z</time></trkpt><trkpt lat="44.97824355804527" lon="8.570788196504337"><ele>166.66666666666669</ele><time>2026-04-04T06:40:08.999Z</time></trkpt><trkpt lat="44.978250198525004" lon="8.570686283683099"><ele>167.83333333333334</ele><time>2026-04-04T06:40:09.999Z</time></trkpt><trkpt lat="44.97826426432385" lon="8.570590906853875"><ele>169.0</ele><time>2026-04-04T06:40:10.999Z</time></trkpt><trkpt lat="44.97829985874915" lon="8.570494229451038"><ele>169.0</ele><time>2026-04-04T06:40:11.999Z</time></trkpt><trkpt lat="44.978340139962064" lon="8.570375063151374"><ele>169.0</ele><time>2026-04-04T06:40:12.999Z</time></trkpt><trkpt lat="44.97838843471677" lon="8.570232190122198"><ele>169.0</ele><time>2026-04-04T06:40:13.999Z</time></trkpt><trkpt lat="44.978437111545084" lon="8.570088187042506"><ele>169.0</ele><time>2026-04-04T06:40:14.999Z</time></trkpt><trkpt lat="44.9784769779681" lon="8.5699695387955"><ele>169.0</ele><time>2026-04-04T06:40:15.999Z</time></trkpt><trkpt lat="44.97851353779709" lon="8.569859859306709"><ele>169.16666666666669</ele><time>2026-04-04T06:40:16.999Z</time></trkpt><trkpt lat="44.97854518957188" lon="8.569764903960863"><ele>169.33333333333334</ele><time>2026-04-04T06:40:17.999Z</time></trkpt><trkpt lat="44.978577940746334" lon="8.569667946253947"><ele>169.5</ele><time>2026-04-04T06:40:18.999Z</time></trkpt><trkpt lat="44.97861494924604" lon="8.569570026754565"><ele>169.66666666666666</ele><time>2026-04-04T06:40:20.999Z</time></trkpt><trkpt lat="44.978644961235126" lon="8.569477673536428"><ele>169.83333333333331</ele><time>2026-04-04T06:40:22.999Z</time></trkpt><trkpt lat="44.97868538556342" lon="8.569407240323356"><ele>170.0</ele><time>2026-04-04T06:40:24.999Z</time></trkpt><trkpt lat="44.978754258612454" lon="8.569497277597643"><ele>168.2</ele><time>2026-04-04T06:40:26.998Z</time></trkpt><trkpt lat="44.97884258276528" lon="8.569615137781769"><ele>166.4</ele><time>2026-04-04T06:40:28.998Z</time></trkpt><trkpt lat="44.97890750863383" lon="8.56968431933504"><ele>164.60000000000002</ele><time>2026-04-04T06:40:29.998Z</time></trkpt><trkpt lat="44.978980845715206" lon="8.569782538871863"><ele>162.8</ele><time>2026-04-04T06:40:30.998Z</time></trkpt><trkpt lat="44.979049357719546" lon="8.56985309763463"><ele>161.0</ele><time>2026-04-04T06:40:31.998Z</time></trkpt><trkpt lat="44.97912007812826" lon="8.569925930926658"><ele>161.0</ele><time>2026-04-04T06:40:32.998Z</time></trkpt><trkpt lat="44.97918332587748" lon="8.569992382297087"><ele>161.0</ele><time>2026-04-04T06:40:33.998Z</time></trkpt><trkpt lat="44.979255181146215" lon="8.570072815226824"><ele>161.0</ele><time>2026-04-04T06:40:34.998Z</time></trkpt><trkpt lat="44.97932303994645" lon="8.570153191601669"><ele>161.0</ele><time>2026-04-04T06:40:35.998Z</time></trkpt><trkpt lat="44.97939387236443" lon="8.570238209369299"><ele>161.0</ele><time>2026-04-04T06:40:36.998Z</time></trkpt><trkpt lat="44.97946473777649" lon="8.570320192470666"><ele>161.0</ele><time>2026-04-04T06:40:37.998Z</time></trkpt><trkpt lat="44.97952814654401" lon="8.570390538968988"><ele>158.66666666666666</ele><time>2026-04-04T06:40:38.998Z</time></trkpt><trkpt lat="44.979588158155394" lon="8.570448418095994"><ele>156.33333333333331</ele><time>2026-04-04T06:40:39.998Z</time></trkpt><trkpt lat="44.97964700455616" lon="8.570514851558997"><ele>154.0</ele><time>2026-04-04T06:40:40.998Z</time></trkpt><trkpt lat="44.979733213242156" lon="8.57061143457928"><ele>151.66666666666666</ele><time>2026-04-04T06:40:41.998Z</time></trkpt><trkpt lat="44.979809233240445" lon="8.570696856077934"><ele>149.33333333333334</ele><time>2026-04-04T06:40:42.998Z</time></trkpt><trkpt lat="44.979880217191855" lon="8.570782483266866"><ele>147.0</ele><time>2026-04-04T06:40:43.998Z</time></trkpt><trkpt lat="44.97994934367048" lon="8.570884168896425"><ele>147.0</ele><time>2026-04-04T06:40:44.998Z</time></trkpt><trkpt lat="44.979998727555305" lon="8.570971255939211"><ele>147.0</ele><time>2026-04-04T06:40:45.998Z</time></trkpt><trkpt lat="44.98004027405289" lon="8.571056946800796"><ele>147.0</ele><time>2026-04-04T06:40:46.998Z</time></trkpt><trkpt lat="44.98007606814545" lon="8.571149493419432"><ele>147.0</ele><time>2026-04-04T06:40:47.998Z</time></trkpt><trkpt lat="44.98013141207071" lon="8.571301420949405"><ele>147.0</ele><time>2026-04-04T06:40:49.998Z</time></trkpt><trkpt lat="44.980167432322546" lon="8.571399279876864"><ele>147.0</ele><time>2026-04-04T06:40:51.998Z</time></trkpt><trkpt lat="44.980209903012856" lon="8.571478681745226"><ele>146.16666666666666</ele><time>2026-04-04T06:41:20.999Z</time></trkpt><trkpt lat="44.98023426842586" lon="8.571570560702215"><ele>145.33333333333334</ele><time>2026-04-04T06:41:21.999Z</time></trkpt><trkpt lat="44.98029798553583" lon="8.571656358036675"><ele>144.5</ele><time>2026-04-04T06:41:22.999Z</time></trkpt><trkpt lat="44.980354566450636" lon="8.571746166248445"><ele>143.66666666666669</ele><time>2026-04-04T06:41:23.999Z</time></trkpt><trkpt lat="44.98040311707286" lon="8.571832288366757"><ele>142.83333333333334</ele><time>2026-04-04T06:41:24.999Z</time></trkpt><trkpt lat="44.98047157703171" lon="8.571907259897815"><ele>142.0</ele><time>2026-04-04T06:41:25.999Z</time></trkpt><trkpt lat="44.98056284248743" lon="8.571995047194978"><ele>141.79999999999998</ele><time>2026-04-04T06:41:27.999Z</time></trkpt><trkpt lat="44.980628645301806" lon="8.572077538054844"><ele>141.6</ele><time>2026-04-04T06:41:29.999Z</time></trkpt><trkpt lat="44.980672595646645" lon="8.57215820284874"><ele>141.39999999999998</ele><time>2026-04-04T06:41:31.999Z</time></trkpt><trkpt lat="44.980703008108776" lon="8.572324502086769"><ele>141.2</ele><time>2026-04-04T06:41:33.999Z</time></trkpt><trkpt lat="44.980694897111015" lon="8.572448328920526"><ele>141.0</ele><time>2026-04-04T06:41:34.999Z</time></trkpt><trkpt lat="44.98067873091624" lon="8.572633199536233"><ele>141.0</ele><time>2026-04-04T06:41:35.999Z</time></trkpt><trkpt lat="44.98065685101947" lon="8.572862445497904"><ele>141.0</ele><time>2026-04-04T06:41:36.999Z</time></trkpt><trkpt lat="44.98064831824787" lon="8.573126308182598"><ele>141.0</ele><time>2026-04-04T06:41:37.999Z</time></trkpt><trkpt lat="44.98061218014007" lon="8.57336263561823"><ele>141.0</ele><time>2026-04-04T06:41:38.999Z</time></trkpt><trkpt lat="44.98058989465743" lon="8.573573378720912"><ele>141.0</ele><time>2026-04-04T06:41:39.999Z</time></trkpt><trkpt lat="44.980575147137394" lon="8.573784852233644"><ele>141.0</ele><time>2026-04-04T06:41:40.999Z</time></trkpt><trkpt lat="44.980572453395176" lon="8.573991268765836"><ele>141.0</ele><time>2026-04-04T06:41:41.999Z</time></trkpt><trkpt lat="44.98056629418721" lon="8.574161572578825"><ele>141.0</ele><time>2026-04-04T06:41:42.999Z</time></trkpt><trkpt lat="44.98052666431626" lon="8.574313155641237"><ele>141.0</ele><time>2026-04-04T06:41:43.999Z</time></trkpt><trkpt lat="44.98047583840258" lon="8.574476216029947"><ele>141.0</ele><time>2026-04-04T06:41:44.999Z</time></trkpt><trkpt lat="44.98041714946772" lon="8.574669221048195"><ele>141.0</ele><time>2026-04-04T06:41:45.999Z</time></trkpt><trkpt lat="44.98036147085651" lon="8.574852326439574"><ele>140.75</ele><time>2026-04-04T06:41:46.999Z</time></trkpt><trkpt lat="44.980310400306955" lon="8.575020440552002"><ele>140.5</ele><time>2026-04-04T06:41:47.999Z</time></trkpt><trkpt lat="44.98026197362305" lon="8.57518016916768"><ele>140.25</ele><time>2026-04-04T06:41:48.999Z</time></trkpt><trkpt lat="44.98021476679869" lon="8.575335874652428"><ele>140.0</ele><time>2026-04-04T06:41:49.999Z</time></trkpt><trkpt lat="44.98016508872953" lon="8.575499731072606"><ele>141.25</ele><time>2026-04-04T06:41:50.999Z</time></trkpt><trkpt lat="44.98011165165865" lon="8.57567513928365"><ele>142.5</ele><time>2026-04-04T06:41:51.999Z</time></trkpt><trkpt lat="44.980053946358005" lon="8.57585911114283"><ele>143.75</ele><time>2026-04-04T06:41:52.999Z</time></trkpt><trkpt lat="44.97999390720589" lon="8.57605052441317"><ele>145.0</ele><time>2026-04-04T06:41:53.999Z</time></trkpt><trkpt lat="44.979935517093054" lon="8.576236679847488"><ele>142.25</ele><time>2026-04-04T06:41:54.999Z</time></trkpt><trkpt lat="44.97988293197869" lon="8.576404328036421"><ele>139.5</ele><time>2026-04-04T06:41:55.999Z</time></trkpt><trkpt lat="44.979836715588995" lon="8.57655510682692"><ele>136.75</ele><time>2026-04-04T06:41:56.999Z</time></trkpt><trkpt lat="44.9797869283001" lon="8.576726105357915"><ele>134.0</ele><time>2026-04-04T06:41:57.999Z</time></trkpt><trkpt lat="44.97974082791332" lon="8.576905550403485"><ele>134.0</ele><time>2026-04-04T06:41:58.999Z</time></trkpt><trkpt lat="44.979697916124486" lon="8.577103806755806"><ele>134.0</ele><time>2026-04-04T06:41:59.999Z</time></trkpt><trkpt lat="44.97965371315934" lon="8.577311601697591"><ele>134.0</ele><time>2026-04-04T06:42:00.999Z</time></trkpt><trkpt lat="44.97961550188677" lon="8.577506066704082"><ele>134.0</ele><time>2026-04-04T06:42:01.999Z</time></trkpt><trkpt lat="44.979582817998896" lon="8.577681292239282"><ele>134.0</ele><time>2026-04-04T06:42:02.999Z</time></trkpt><trkpt lat="44.97955617510445" lon="8.57782410307287"><ele>134.0</ele><time>2026-04-04T06:42:03.999Z</time></trkpt><trkpt lat="44.979532773786524" lon="8.57795321831096"><ele>134.0</ele><time>2026-04-04T06:42:04.999Z</time></trkpt><trkpt lat="44.979512562470944" lon="8.57806664797464"><ele>134.0</ele><time>2026-04-04T06:42:05.999Z</time></trkpt><trkpt lat="44.97949219066515" lon="8.578200896191884"><ele>134.0</ele><time>2026-04-04T06:42:06.999Z</time></trkpt><trkpt lat="44.97946663129878" lon="8.578357061189728"><ele>134.0</ele><time>2026-04-04T06:42:07.999Z</time></trkpt><trkpt lat="44.979445053758546" lon="8.578452548556882"><ele>134.0</ele><time>2026-04-04T06:42:08.999Z</time></trkpt><trkpt lat="44.97940245057552" lon="8.578577430016406"><ele>134.0</ele><time>2026-04-04T06:42:09.999Z</time></trkpt><trkpt lat="44.97934842051147" lon="8.57867412151132"><ele>134.0</ele><time>2026-04-04T06:42:10.999Z</time></trkpt><trkpt lat="44.97928383708134" lon="8.578772405313874"><ele>134.0</ele><time>2026-04-04T06:42:11.999Z</time></trkpt><trkpt lat="44.97922461956138" lon="8.578863559075913"><ele>134.0</ele><time>2026-04-04T06:42:12.999Z</time></trkpt><trkpt lat="44.97915458313798" lon="8.578980285536694"><ele>132.8</ele><time>2026-04-04T06:42:13.999Z</time></trkpt><trkpt lat="44.97909878037469" lon="8.579091050701551"><ele>131.60000000000002</ele><time>2026-04-04T06:42:14.999Z</time></trkpt><trkpt lat="44.979051624458634" lon="8.57921708446983"><ele>130.4</ele><time>2026-04-04T06:42:15.999Z</time></trkpt><trkpt lat="44.97901977067738" lon="8.579334650014086"><ele>129.20000000000002</ele><time>2026-04-04T06:42:16.999Z</time></trkpt><trkpt lat="44.978984844738136" lon="8.579471414570834"><ele>128.0</ele><time>2026-04-04T06:42:17.999Z</time></trkpt><trkpt lat="44.978945820620105" lon="8.579641169654423"><ele>128.0</ele><time>2026-04-04T06:42:18.999Z</time></trkpt><trkpt lat="44.97891779087462" lon="8.579767195595812"><ele>128.0</ele><time>2026-04-04T06:42:19.999Z</time></trkpt><trkpt lat="44.97887658038352" lon="8.579926028251403"><ele>128.0</ele><time>2026-04-04T06:42:20.999Z</time></trkpt><trkpt lat="44.97883996875131" lon="8.58004298725878"><ele>128.0</ele><time>2026-04-04T06:42:21.999Z</time></trkpt><trkpt lat="44.97878810546992" lon="8.580187996492983"><ele>128.0</ele><time>2026-04-04T06:42:22.999Z</time></trkpt><trkpt lat="44.97873968730208" lon="8.580297756306008"><ele>128.0</ele><time>2026-04-04T06:42:23.999Z</time></trkpt><trkpt lat="44.97868241127484" lon="8.580415995193587"><ele>128.0</ele><time>2026-04-04T06:42:24.999Z</time></trkpt><trkpt lat="44.97862409500397" lon="8.580535122295787"><ele>128.0</ele><time>2026-04-04T06:42:25.999Z</time></trkpt><trkpt lat="44.97855949995253" lon="8.580667075510714"><ele>128.0</ele><time>2026-04-04T06:42:26.999Z</time></trkpt><trkpt lat="44.97848450464836" lon="8.580811716909231"><ele>128.0</ele><time>2026-04-04T06:42:27.999Z</time></trkpt><trkpt lat="44.978406962489686" lon="8.58094303706008"><ele>128.4</ele><time>2026-04-04T06:42:28.999Z</time></trkpt><trkpt lat="44.97834403560357" lon="8.581040786816535"><ele>128.8</ele><time>2026-04-04T06:42:29.999Z</time></trkpt><trkpt lat="44.97827836501499" lon="8.581139717471883"><ele>129.2</ele><time>2026-04-04T06:42:30.999Z</time></trkpt><trkpt lat="44.97820704363468" lon="8.581247160912476"><ele>129.6</ele><time>2026-04-04T06:42:31.999Z</time></trkpt><trkpt lat="44.978135312223934" lon="8.58136181209925"><ele>130.0</ele><time>2026-04-04T06:42:32.999Z</time></trkpt><trkpt lat="44.97806584306459" lon="8.581486697891178"><ele>130.5</ele><time>2026-04-04T06:42:33.999Z</time></trkpt><trkpt lat="44.97799594282066" lon="8.581624994103693"><ele>131.0</ele><time>2026-04-04T06:42:34.999Z</time></trkpt><trkpt lat="44.9779208615412" lon="8.581773034993555"><ele>131.5</ele><time>2026-04-04T06:42:35.998Z</time></trkpt><trkpt lat="44.97785048047575" lon="8.581928162487872"><ele>132.0</ele><time>2026-04-04T06:42:36.998Z</time></trkpt><trkpt lat="44.97777729691632" lon="8.58208496436938"><ele>131.0</ele><time>2026-04-04T06:42:37.998Z</time></trkpt><trkpt lat="44.977698948005724" lon="8.582252833900586"><ele>130.0</ele><time>2026-04-04T06:42:38.998Z</time></trkpt><trkpt lat="44.97762095177895" lon="8.582421817279974"><ele>129.0</ele><time>2026-04-04T06:42:39.998Z</time></trkpt><trkpt lat="44.97755061886073" lon="8.582577034709102"><ele>128.0</ele><time>2026-04-04T06:42:40.998Z</time></trkpt><trkpt lat="44.97748574886506" lon="8.582724369779568"><ele>126.75</ele><time>2026-04-04T06:42:41.998Z</time></trkpt><trkpt lat="44.97741704996201" lon="8.582880557008332"><ele>125.5</ele><time>2026-04-04T06:42:42.998Z</time></trkpt><trkpt lat="44.97734280965486" lon="8.583046687603556"><ele>124.25</ele><time>2026-04-04T06:42:43.998Z</time></trkpt><trkpt lat="44.977284576789266" lon="8.583183772291607"><ele>123.0</ele><time>2026-04-04T06:42:44.998Z</time></trkpt><trkpt lat="44.97722846771757" lon="8.583317591136803"><ele>123.0</ele><time>2026-04-04T06:42:45.998Z</time></trkpt><trkpt lat="44.9771620886423" lon="8.583470073046524"><ele>123.0</ele><time>2026-04-04T06:42:46.998Z</time></trkpt><trkpt lat="44.97709164043119" lon="8.58361739775591"><ele>123.0</ele><time>2026-04-04T06:42:47.998Z</time></trkpt><trkpt lat="44.977009542502294" lon="8.58376005322412"><ele>123.0</ele><time>2026-04-04T06:42:48.998Z</time></trkpt><trkpt lat="44.97693963880019" lon="8.58390390438671"><ele>123.0</ele><time>2026-04-04T06:42:49.998Z</time></trkpt><trkpt lat="44.97686322448431" lon="8.584030646182237"><ele>123.00000000000001</ele><time>2026-04-04T06:42:50.998Z</time></trkpt><trkpt lat="44.97678474169651" lon="8.584122209178872"><ele>123.00000000000001</ele><time>2026-04-04T06:42:51.998Z</time></trkpt><trkpt lat="44.976701616333976" lon="8.584231352597149"><ele>123.0</ele><time>2026-04-04T06:42:52.998Z</time></trkpt><trkpt lat="44.976616026104765" lon="8.584328308005462"><ele>123.0</ele><time>2026-04-04T06:42:53.998Z</time></trkpt><trkpt lat="44.97652706188581" lon="8.584415153678528"><ele>123.0</ele><time>2026-04-04T06:42:54.998Z</time></trkpt><trkpt lat="44.976433042573916" lon="8.584496326552282"><ele>123.00000000000001</ele><time>2026-04-04T06:42:55.998Z</time></trkpt><trkpt lat="44.97634337783989" lon="8.584568111875605"><ele>123.00000000000001</ele><time>2026-04-04T06:42:56.998Z</time></trkpt><trkpt lat="44.97624840353484" lon="8.584640094939006"><ele>123.0</ele><time>2026-04-04T06:42:57.999Z</time></trkpt><trkpt lat="44.976143119775536" lon="8.584719891866273"><ele>123.0</ele><time>2026-04-04T06:42:58.999Z</time></trkpt><trkpt lat="44.976036843387995" lon="8.58480302438"><ele>122.80000000000001</ele><time>2026-04-04T06:42:59.999Z</time></trkpt><trkpt lat="44.9759369280676" lon="8.584882908608298"><ele>122.60000000000001</ele><time>2026-04-04T06:43:00.999Z</time></trkpt><trkpt lat="44.97584062560568" lon="8.584959904044563"><ele>122.39999999999999</ele><time>2026-04-04T06:43:01.999Z</time></trkpt><trkpt lat="44.97575930960962" lon="8.585022370559848"><ele>122.19999999999999</ele><time>2026-04-04T06:43:02.999Z</time></trkpt><trkpt lat="44.97568387722033" lon="8.585074148246838"><ele>122.0</ele><time>2026-04-04T06:43:03.999Z</time></trkpt><trkpt lat="44.97560889997572" lon="8.585126615763665"><ele>121.8</ele><time>2026-04-04T06:43:04.999Z</time></trkpt><trkpt lat="44.9755400880158" lon="8.585181309730464"><ele>121.6</ele><time>2026-04-04T06:43:05.999Z</time></trkpt><trkpt lat="44.975447573639414" lon="8.585302475513801"><ele>121.39999999999999</ele><time>2026-04-04T06:43:07.999Z</time></trkpt><trkpt lat="44.97542963805846" lon="8.5853902810924"><ele>121.19999999999999</ele><time>2026-04-04T06:43:08.999Z</time></trkpt><trkpt lat="44.97550385706372" lon="8.585531172020701"><ele>121.0</ele><time>2026-04-04T06:43:09.999Z</time></trkpt><trkpt lat="44.975566904997464" lon="8.585649881536582"><ele>120.8</ele><time>2026-04-04T06:43:11Z</time></trkpt><trkpt lat="44.97556811834066" lon="8.585788470330277"><ele>120.6</ele><time>2026-04-04T06:43:11.999Z</time></trkpt><trkpt lat="44.9755315501161" lon="8.585923233297079"><ele>120.4</ele><time>2026-04-04T06:43:12.999Z</time></trkpt><trkpt lat="44.97550333749955" lon="8.586106168670355"><ele>120.2</ele><time>2026-04-04T06:43:13.999Z</time></trkpt><trkpt lat="44.975513995913566" lon="8.586248875331583"><ele>120.0</ele><time>2026-04-04T06:43:14.999Z</time></trkpt><trkpt lat="44.97552259234731" lon="8.58638530401278"><ele>120.0</ele><time>2026-04-04T06:43:15.999Z</time></trkpt><trkpt lat="44.97552548270122" lon="8.58653496933203"><ele>120.0</ele><time>2026-04-04T06:43:16.999Z</time></trkpt><trkpt lat="44.97553793677616" lon="8.586696201884402"><ele>120.0</ele><time>2026-04-04T06:43:17.999Z</time></trkpt><trkpt lat="44.975550824389494" lon="8.586851908427976"><ele>120.0</ele><time>2026-04-04T06:43:18.999Z</time></trkpt><trkpt lat="44.975563753264254" lon="8.586983973553314"><ele>120.0</ele><time>2026-04-04T06:43:19.999Z</time></trkpt><trkpt lat="44.97557484615677" lon="8.587091899898779"><ele>120.0</ele><time>2026-04-04T06:43:20.999Z</time></trkpt><trkpt lat="44.9755830858532" lon="8.587185855517495"><ele>120.0</ele><time>2026-04-04T06:43:21.999Z</time></trkpt><trkpt lat="44.975587553349214" lon="8.587319298038462"><ele>120.0</ele><time>2026-04-04T06:43:23.999Z</time></trkpt><trkpt lat="44.975563997530315" lon="8.58741046940666"><ele>120.0</ele><time>2026-04-04T06:43:39.999Z</time></trkpt><trkpt lat="44.97570165783471" lon="8.58746698393532"><ele>120.0</ele><time>2026-04-04T06:43:41.999Z</time></trkpt><trkpt lat="44.97580031246976" lon="8.587473121308301"><ele>120.0</ele><time>2026-04-04T06:43:42.999Z</time></trkpt><trkpt lat="44.97590481538139" lon="8.587472553279914"><ele>120.0</ele><time>2026-04-04T06:43:43.999Z</time></trkpt><trkpt lat="44.976008169575714" lon="8.587471991496686"><ele>120.0</ele><time>2026-04-04T06:43:44.999Z</time></trkpt><trkpt lat="44.97612002332072" lon="8.587471383514842"><ele>120.0</ele><time>2026-04-04T06:43:45.999Z</time></trkpt><trkpt lat="44.97623864386328" lon="8.587447437199913"><ele>120.0</ele><time>2026-04-04T06:43:46.999Z</time></trkpt><trkpt lat="44.976354641923024" lon="8.587458100663593"><ele>120.0</ele><time>2026-04-04T06:43:47.999Z</time></trkpt><trkpt lat="44.9765048678684" lon="8.587446944653342"><ele>120.0</ele><time>2026-04-04T06:43:48.999Z</time></trkpt><trkpt lat="44.97658528335519" lon="8.587446640817575"><ele>120.0</ele><time>2026-04-04T06:43:49.999Z</time></trkpt><trkpt lat="44.976656328789794" lon="8.587446300950996"><ele>120.0</ele><time>2026-04-04T06:43:50.999Z</time></trkpt><trkpt lat="44.97675670377937" lon="8.587447141526837"><ele>120.0</ele><time>2026-04-04T06:43:51.999Z</time></trkpt><trkpt lat="44.97687101257455" lon="8.587471395208143"><ele>120.75</ele><time>2026-04-04T06:43:52.999Z</time></trkpt><trkpt lat="44.97698635962309" lon="8.587472880229175"><ele>121.5</ele><time>2026-04-04T06:43:53.999Z</time></trkpt><trkpt lat="44.97708939492212" lon="8.587469367668971"><ele>122.25</ele><time>2026-04-04T06:43:54.999Z</time></trkpt><trkpt lat="44.97720900547565" lon="8.587459352512505"><ele>123.0</ele><time>2026-04-04T06:43:55.999Z</time></trkpt><trkpt lat="44.97732233538005" lon="8.587425263356561"><ele>123.0</ele><time>2026-04-04T06:43:56.999Z</time></trkpt><trkpt lat="44.97741558669545" lon="8.587338857789083"><ele>123.0</ele><time>2026-04-04T06:43:57.999Z</time></trkpt><trkpt lat="44.97751066069165" lon="8.587212275387994"><ele>123.0</ele><time>2026-04-04T06:43:58.999Z</time></trkpt><trkpt lat="44.977608556948766" lon="8.587029643348354"><ele>123.0</ele><time>2026-04-04T06:43:59.999Z</time></trkpt><trkpt lat="44.977725866280046" lon="8.58684947623894"><ele>124.5</ele><time>2026-04-04T06:44:00.999Z</time></trkpt><trkpt lat="44.97782403358158" lon="8.586725918607282"><ele>126.0</ele><time>2026-04-04T06:44:01.999Z</time></trkpt><trkpt lat="44.97794167640438" lon="8.586620002192985"><ele>127.5</ele><time>2026-04-04T06:44:02.999Z</time></trkpt><trkpt lat="44.97805075681151" lon="8.586522084128543"><ele>129.0</ele><time>2026-04-04T06:44:03.999Z</time></trkpt><trkpt lat="44.97814124707558" lon="8.586465408787952"><ele>129.0</ele><time>2026-04-04T06:44:04.999Z</time></trkpt><trkpt lat="44.97826300981197" lon="8.586418172952337"><ele>129.0</ele><time>2026-04-04T06:44:05.999Z</time></trkpt><trkpt lat="44.97839579497969" lon="8.586392226114306"><ele>129.0</ele><time>2026-04-04T06:44:06.999Z</time></trkpt><trkpt lat="44.97853796032387" lon="8.586370775780491"><ele>129.0</ele><time>2026-04-04T06:44:07.999Z</time></trkpt><trkpt lat="44.97869777364942" lon="8.586324840084695"><ele>130.0</ele><time>2026-04-04T06:44:08.999Z</time></trkpt><trkpt lat="44.97884126106269" lon="8.586306193290968"><ele>131.0</ele><time>2026-04-04T06:44:09.999Z</time></trkpt><trkpt lat="44.97898733196149" lon="8.58626692822398"><ele>132.0</ele><time>2026-04-04T06:44:10.999Z</time></trkpt><trkpt lat="44.979127628190675" lon="8.586213841314514"><ele>133.0</ele><time>2026-04-04T06:44:11.999Z</time></trkpt><trkpt lat="44.97925540508145" lon="8.586151582919664"><ele>134.4</ele><time>2026-04-04T06:44:12.999Z</time></trkpt><trkpt lat="44.9793678122926" lon="8.586094262069558"><ele>135.8</ele><time>2026-04-04T06:44:13.999Z</time></trkpt><trkpt lat="44.979462189929336" lon="8.586033743196296"><ele>137.2</ele><time>2026-04-04T06:44:14.999Z</time></trkpt><trkpt lat="44.97954044586459" lon="8.585960261473296"><ele>138.6</ele><time>2026-04-04T06:44:15.999Z</time></trkpt><trkpt lat="44.97958184777947" lon="8.585854415401046"><ele>140.0</ele><time>2026-04-04T06:44:16.999Z</time></trkpt><trkpt lat="44.97962524852342" lon="8.585703503016523"><ele>140.0</ele><time>2026-04-04T06:44:17.999Z</time></trkpt><trkpt lat="44.97971100786217" lon="8.585557172356687"><ele>140.0</ele><time>2026-04-04T06:44:18.999Z</time></trkpt><trkpt lat="44.97981221850519" lon="8.585388993321896"><ele>140.0</ele><time>2026-04-04T06:44:19.999Z</time></trkpt><trkpt lat="44.979920728631924" lon="8.585208684934653"><ele>140.5</ele><time>2026-04-04T06:44:20.999Z</time></trkpt><trkpt lat="44.97984214949599" lon="8.584911496457822"><ele>141.0</ele><time>2026-04-04T06:44:21.999Z</time></trkpt><trkpt lat="44.979883822800005" lon="8.584777510349292"><ele>141.5</ele><time>2026-04-04T06:44:22.999Z</time></trkpt><trkpt lat="44.97994226999397" lon="8.584645526214889"><ele>142.0</ele><time>2026-04-04T06:44:23.999Z</time></trkpt><trkpt lat="44.980002119939435" lon="8.584525474338735"><ele>141.2</ele><time>2026-04-04T06:44:24.999Z</time></trkpt><trkpt lat="44.98006857274208" lon="8.584404384626314"><ele>140.39999999999998</ele><time>2026-04-04T06:44:25.999Z</time></trkpt><trkpt lat="44.98014082518837" lon="8.584299338184298"><ele>139.60000000000002</ele><time>2026-04-04T06:44:26.999Z</time></trkpt><trkpt lat="44.98021800610372" lon="8.5841900890012"><ele>138.8</ele><time>2026-04-04T06:44:27.999Z</time></trkpt><trkpt lat="44.98028507949179" lon="8.584079722174208"><ele>138.0</ele><time>2026-04-04T06:44:28.999Z</time></trkpt><trkpt lat="44.980347836189395" lon="8.58396754616759"><ele>138.0</ele><time>2026-04-04T06:44:29.999Z</time></trkpt><trkpt lat="44.98040666039753" lon="8.583842139162877"><ele>138.0</ele><time>2026-04-04T06:44:30.999Z</time></trkpt><trkpt lat="44.98046309906141" lon="8.58371605412764"><ele>138.0</ele><time>2026-04-04T06:44:31.999Z</time></trkpt><trkpt lat="44.98049913665237" lon="8.583587557246766"><ele>138.0</ele><time>2026-04-04T06:44:32.999Z</time></trkpt><trkpt lat="44.980540618649634" lon="8.583453144349381"><ele>138.0</ele><time>2026-04-04T06:44:33.999Z</time></trkpt><trkpt lat="44.98056835535769" lon="8.583319259487956"><ele>139.6</ele><time>2026-04-04T06:44:34.999Z</time></trkpt><trkpt lat="44.98062576652047" lon="8.583195339132129"><ele>141.20000000000002</ele><time>2026-04-04T06:44:35.999Z</time></trkpt><trkpt lat="44.98068368556994" lon="8.583097952861404"><ele>142.8</ele><time>2026-04-04T06:44:36.999Z</time></trkpt><trkpt lat="44.9807327853445" lon="8.582964600263354"><ele>144.4</ele><time>2026-04-04T06:44:37.999Z</time></trkpt><trkpt lat="44.98076042593997" lon="8.582845775652775"><ele>146.0</ele><time>2026-04-04T06:44:38.999Z</time></trkpt><trkpt lat="44.98078086636829" lon="8.582698095019632"><ele>146.5</ele><time>2026-04-04T06:44:39.999Z</time></trkpt><trkpt lat="44.98081137707114" lon="8.582548935534563"><ele>147.0</ele><time>2026-04-04T06:44:40.999Z</time></trkpt><trkpt lat="44.98084111294254" lon="8.58238839413165"><ele>147.5</ele><time>2026-04-04T06:44:41.999Z</time></trkpt><trkpt lat="44.98087588964648" lon="8.58222285287588"><ele>148.0</ele><time>2026-04-04T06:44:42.999Z</time></trkpt><trkpt lat="44.98091307661039" lon="8.582059058895892"><ele>147.0</ele><time>2026-04-04T06:44:43.999Z</time></trkpt><trkpt lat="44.9809428089868" lon="8.581926508496613"><ele>146.0</ele><time>2026-04-04T06:44:44.999Z</time></trkpt><trkpt lat="44.980967899086636" lon="8.581790568556036"><ele>145.0</ele><time>2026-04-04T06:44:45.999Z</time></trkpt><trkpt lat="44.980988101733956" lon="8.581656953554658"><ele>144.0</ele><time>2026-04-04T06:44:46.999Z</time></trkpt><trkpt lat="44.98101764825671" lon="8.581507989534993"><ele>143.0</ele><time>2026-04-04T06:44:47.998Z</time></trkpt><trkpt lat="44.981048587091074" lon="8.581364085978018"><ele>143.0</ele><time>2026-04-04T06:44:48.998Z</time></trkpt><trkpt lat="44.98110451349176" lon="8.581244478684479"><ele>143.0</ele><time>2026-04-04T06:44:49.998Z</time></trkpt><trkpt lat="44.981145128521895" lon="8.581133014475064"><ele>143.0</ele><time>2026-04-04T06:44:50.998Z</time></trkpt><trkpt lat="44.98118745427169" lon="8.581047328786308"><ele>143.0</ele><time>2026-04-04T06:44:51.998Z</time></trkpt><trkpt lat="44.98123274986736" lon="8.580965719771921"><ele>143.0</ele><time>2026-04-04T06:44:52.998Z</time></trkpt><trkpt lat="44.98127867021223" lon="8.580873368897537"><ele>143.0</ele><time>2026-04-04T06:44:53.998Z</time></trkpt><trkpt lat="44.98131710003355" lon="8.580754147556341"><ele>143.5</ele><time>2026-04-04T06:44:54.998Z</time></trkpt><trkpt lat="44.981353328563536" lon="8.580646011478102"><ele>144.0</ele><time>2026-04-04T06:44:55.998Z</time></trkpt><trkpt lat="44.981384664170555" lon="8.580524236143535"><ele>144.5</ele><time>2026-04-04T06:44:56.998Z</time></trkpt><trkpt lat="44.98140721192916" lon="8.580409418340937"><ele>145.0</ele><time>2026-04-04T06:44:57.998Z</time></trkpt><trkpt lat="44.98142253343029" lon="8.58029090680534"><ele>145.5</ele><time>2026-04-04T06:44:58.998Z</time></trkpt><trkpt lat="44.98143867303775" lon="8.580155156280991"><ele>146.0</ele><time>2026-04-04T06:44:59.998Z</time></trkpt><trkpt lat="44.98145279615329" lon="8.58003563547352"><ele>146.25</ele><time>2026-04-04T06:45:00.998Z</time></trkpt><trkpt lat="44.98146986256366" lon="8.579914380855843"><ele>146.5</ele><time>2026-04-04T06:45:01.998Z</time></trkpt><trkpt lat="44.98149260082824" lon="8.579762404973478"><ele>146.75</ele><time>2026-04-04T06:45:02.998Z</time></trkpt><trkpt lat="44.98151839925493" lon="8.57958997586781"><ele>147.0</ele><time>2026-04-04T06:45:04Z</time></trkpt><trkpt lat="44.981544672842524" lon="8.579394629757804"><ele>149.0</ele><time>2026-04-04T06:45:05Z</time></trkpt><trkpt lat="44.981577108829114" lon="8.579163286344505"><ele>151.0</ele><time>2026-04-04T06:45:06Z</time></trkpt><trkpt lat="44.981612756216386" lon="8.578944090671124"><ele>153.0</ele><time>2026-04-04T06:45:07Z</time></trkpt><trkpt lat="44.9816476191358" lon="8.578758411442337"><ele>152.8</ele><time>2026-04-04T06:45:08Z</time></trkpt><trkpt lat="44.981685332786455" lon="8.578587576210197"><ele>152.60000000000002</ele><time>2026-04-04T06:45:09Z</time></trkpt><trkpt lat="44.981715234588286" lon="8.578456929870356"><ele>152.39999999999998</ele><time>2026-04-04T06:45:10Z</time></trkpt><trkpt lat="44.98175600934765" lon="8.57832713293227"><ele>152.2</ele><time>2026-04-04T06:45:11Z</time></trkpt><trkpt lat="44.981830880290254" lon="8.578230024148755"><ele>152.0</ele><time>2026-04-04T06:45:12Z</time></trkpt><trkpt lat="44.98193649560922" lon="8.578077414116327"><ele>152.0</ele><time>2026-04-04T06:45:13Z</time></trkpt><trkpt lat="44.98206669483397" lon="8.577905705264863"><ele>152.0</ele><time>2026-04-04T06:45:14Z</time></trkpt><trkpt lat="44.98218176825261" lon="8.57777686422162"><ele>152.0</ele><time>2026-04-04T06:45:15Z</time></trkpt><trkpt lat="44.98227922067509" lon="8.577639833944817"><ele>151.5</ele><time>2026-04-04T06:45:16Z</time></trkpt><trkpt lat="44.982375844576275" lon="8.577506328299352"><ele>151.0</ele><time>2026-04-04T06:45:17Z</time></trkpt><trkpt lat="44.982461915858316" lon="8.57738880915439"><ele>150.5</ele><time>2026-04-04T06:45:18Z</time></trkpt><trkpt lat="44.982566114413025" lon="8.577308390959763"><ele>150.0</ele><time>2026-04-04T06:45:19Z</time></trkpt><trkpt lat="44.982649542751524" lon="8.577196570201473"><ele>150.0</ele><time>2026-04-04T06:45:20Z</time></trkpt><trkpt lat="44.982713330931624" lon="8.57709941658998"><ele>150.0</ele><time>2026-04-04T06:45:21Z</time></trkpt><trkpt lat="44.98276606360573" lon="8.577011319162182"><ele>150.0</ele><time>2026-04-04T06:45:22Z</time></trkpt><trkpt lat="44.98283372855705" lon="8.576943911767502"><ele>150.0</ele><time>2026-04-04T06:45:22.999Z</time></trkpt><trkpt lat="44.98291245500378" lon="8.576834419187081"><ele>150.0</ele><time>2026-04-04T06:45:23.999Z</time></trkpt><trkpt lat="44.9829994388097" lon="8.576702436785057"><ele>152.5</ele><time>2026-04-04T06:45:24.999Z</time></trkpt><trkpt lat="44.98309064785577" lon="8.576546577531309"><ele>155.0</ele><time>2026-04-04T06:45:25.999Z</time></trkpt><trkpt lat="44.98315919410936" lon="8.576361960109418"><ele>157.5</ele><time>2026-04-04T06:45:26.999Z</time></trkpt><trkpt lat="44.983248084375404" lon="8.57618597449526"><ele>160.0</ele><time>2026-04-04T06:45:27.999Z</time></trkpt><trkpt lat="44.98332458791216" lon="8.576002865005043"><ele>160.66666666666669</ele><time>2026-04-04T06:45:28.999Z</time></trkpt><trkpt lat="44.98342334715992" lon="8.57583608731249"><ele>161.33333333333334</ele><time>2026-04-04T06:45:29.999Z</time></trkpt><trkpt lat="44.98355604901891" lon="8.575642764284058"><ele>162.0</ele><time>2026-04-04T06:45:30.999Z</time></trkpt><trkpt lat="44.98366897027044" lon="8.575442773580557"><ele>163.8</ele><time>2026-04-04T06:45:31.999Z</time></trkpt><trkpt lat="44.98375939001757" lon="8.575299287418119"><ele>165.6</ele><time>2026-04-04T06:45:32.999Z</time></trkpt><trkpt lat="44.98382954503634" lon="8.575176891165679"><ele>167.4</ele><time>2026-04-04T06:45:33.999Z</time></trkpt><trkpt lat="44.98388589298861" lon="8.575076230907303"><ele>169.20000000000002</ele><time>2026-04-04T06:45:34.999Z</time></trkpt><trkpt lat="44.98393153756779" lon="8.57495533011247"><ele>171.0</ele><time>2026-04-04T06:45:35.999Z</time></trkpt><trkpt lat="44.98396982933694" lon="8.574823373577372"><ele>171.0</ele><time>2026-04-04T06:45:36.999Z</time></trkpt><trkpt lat="44.98400418840081" lon="8.57468071163063"><ele>171.0</ele><time>2026-04-04T06:45:37.999Z</time></trkpt><trkpt lat="44.98403096400988" lon="8.574548156998757"><ele>171.0</ele><time>2026-04-04T06:45:38.999Z</time></trkpt><trkpt lat="44.98403932825434" lon="8.574422396387742"><ele>171.0</ele><time>2026-04-04T06:45:39.999Z</time></trkpt><trkpt lat="44.98403112994954" lon="8.574271763043622"><ele>171.0</ele><time>2026-04-04T06:45:40.999Z</time></trkpt><trkpt lat="44.984004827672834" lon="8.57410235261467"><ele>171.5</ele><time>2026-04-04T06:45:41.999Z</time></trkpt><trkpt lat="44.98397296643786" lon="8.573911224990086"><ele>172.0</ele><time>2026-04-04T06:45:42.999Z</time></trkpt><trkpt lat="44.98397782435182" lon="8.57374285366126"><ele>172.5</ele><time>2026-04-04T06:45:43.999Z</time></trkpt><trkpt lat="44.983979382993326" lon="8.573596070070321"><ele>173.0</ele><time>2026-04-04T06:45:44.999Z</time></trkpt><trkpt lat="44.983997948335116" lon="8.573435899280145"><ele>173.25</ele><time>2026-04-04T06:45:45.999Z</time></trkpt><trkpt lat="44.98403540412564" lon="8.573267798172282"><ele>173.5</ele><time>2026-04-04T06:45:46.999Z</time></trkpt><trkpt lat="44.984090088321594" lon="8.5730748627954"><ele>173.75</ele><time>2026-04-04T06:45:47.999Z</time></trkpt><trkpt lat="44.984165558333345" lon="8.572859888632676"><ele>174.0</ele><time>2026-04-04T06:45:48.999Z</time></trkpt><trkpt lat="44.98422371862687" lon="8.572665259734173"><ele>171.66666666666666</ele><time>2026-04-04T06:45:49.999Z</time></trkpt><trkpt lat="44.98425693935465" lon="8.572458503927109"><ele>169.33333333333331</ele><time>2026-04-04T06:45:50.999Z</time></trkpt><trkpt lat="44.98428780748114" lon="8.57224892070816"><ele>167.0</ele><time>2026-04-04T06:45:51.999Z</time></trkpt><trkpt lat="44.984335629963354" lon="8.572047998309214"><ele>169.25</ele><time>2026-04-04T06:45:52.999Z</time></trkpt><trkpt lat="44.98440510699295" lon="8.571914574296168"><ele>171.5</ele><time>2026-04-04T06:45:53.999Z</time></trkpt><trkpt lat="44.984461285076215" lon="8.571781541163496"><ele>173.75</ele><time>2026-04-04T06:45:54.999Z</time></trkpt><trkpt lat="44.9845318306963" lon="8.571633036926286"><ele>176.0</ele><time>2026-04-04T06:45:55.999Z</time></trkpt><trkpt lat="44.98460572290939" lon="8.571468084647126"><ele>176.0</ele><time>2026-04-04T06:45:56.999Z</time></trkpt><trkpt lat="44.9846845567517" lon="8.571319615105134"><ele>176.0</ele><time>2026-04-04T06:45:57.999Z</time></trkpt><trkpt lat="44.98475609600308" lon="8.571169184493375"><ele>176.0</ele><time>2026-04-04T06:45:58.999Z</time></trkpt><trkpt lat="44.98482450416542" lon="8.57099778619495"><ele>176.0</ele><time>2026-04-04T06:45:59.999Z</time></trkpt><trkpt lat="44.984883462913835" lon="8.570801034690287"><ele>177.20000000000002</ele><time>2026-04-04T06:46:00.999Z</time></trkpt><trkpt lat="44.98492258225374" lon="8.570611019049148"><ele>178.4</ele><time>2026-04-04T06:46:01.999Z</time></trkpt><trkpt lat="44.98493884673672" lon="8.570460226562297"><ele>179.6</ele><time>2026-04-04T06:46:02.999Z</time></trkpt><trkpt lat="44.98498733899915" lon="8.570349677838118"><ele>180.8</ele><time>2026-04-04T06:46:03.999Z</time></trkpt><trkpt lat="44.985040682230775" lon="8.570216601703347"><ele>182.0</ele><time>2026-04-04T06:46:04.999Z</time></trkpt><trkpt lat="44.98511716136293" lon="8.570060674351273"><ele>183.25</ele><time>2026-04-04T06:46:05.999Z</time></trkpt><trkpt lat="44.98518370170063" lon="8.569935086540617"><ele>184.5</ele><time>2026-04-04T06:46:06.999Z</time></trkpt><trkpt lat="44.98526421928619" lon="8.569804177604986"><ele>185.75</ele><time>2026-04-04T06:46:07.999Z</time></trkpt><trkpt lat="44.98535789379802" lon="8.56968844052692"><ele>187.0</ele><time>2026-04-04T06:46:08.999Z</time></trkpt><trkpt lat="44.985467215464716" lon="8.569590112829292"><ele>187.5</ele><time>2026-04-04T06:46:09.999Z</time></trkpt><trkpt lat="44.98559128055686" lon="8.56952058088127"><ele>188.0</ele><time>2026-04-04T06:46:10.999Z</time></trkpt><trkpt lat="44.985741057287676" lon="8.569451504564213"><ele>188.5</ele><time>2026-04-04T06:46:11.999Z</time></trkpt><trkpt lat="44.98588242067449" lon="8.569401953154594"><ele>189.0</ele><time>2026-04-04T06:46:12.999Z</time></trkpt><trkpt lat="44.9859812195723" lon="8.569317938116864"><ele>189.0</ele><time>2026-04-04T06:46:13.999Z</time></trkpt><trkpt lat="44.98610292599817" lon="8.569233848270994"><ele>189.0</ele><time>2026-04-04T06:46:14.999Z</time></trkpt><trkpt lat="44.986225583372814" lon="8.569116879084406"><ele>189.0</ele><time>2026-04-04T06:46:15.999Z</time></trkpt><trkpt lat="44.98635912172889" lon="8.56904498790296"><ele>189.0</ele><time>2026-04-04T06:46:16.999Z</time></trkpt><trkpt lat="44.98649056716199" lon="8.568962295378004"><ele>189.0</ele><time>2026-04-04T06:46:17.999Z</time></trkpt><trkpt lat="44.986611463554034" lon="8.56886076379468"><ele>189.0</ele><time>2026-04-04T06:46:18.999Z</time></trkpt><trkpt lat="44.98672424526208" lon="8.56878154798974"><ele>189.0</ele><time>2026-04-04T06:46:19.999Z</time></trkpt><trkpt lat="44.98683226110183" lon="8.568683552886139"><ele>189.0</ele><time>2026-04-04T06:46:20.999Z</time></trkpt><trkpt lat="44.986931125772045" lon="8.568573718044467"><ele>192.75</ele><time>2026-04-04T06:46:21.999Z</time></trkpt><trkpt lat="44.98702293307552" lon="8.568508508339102"><ele>196.5</ele><time>2026-04-04T06:46:22.999Z</time></trkpt><trkpt lat="44.987111347224804" lon="8.568478984261583"><ele>200.25</ele><time>2026-04-04T06:46:23.999Z</time></trkpt><trkpt lat="44.987243834667254" lon="8.568458415128273"><ele>204.0</ele><time>2026-04-04T06:46:24.999Z</time></trkpt><trkpt lat="44.98737057137935" lon="8.568451120900137"><ele>204.0</ele><time>2026-04-04T06:46:25.999Z</time></trkpt><trkpt lat="44.987490432240484" lon="8.568440454777084"><ele>204.0</ele><time>2026-04-04T06:46:26.999Z</time></trkpt><trkpt lat="44.987591447033736" lon="8.568396949570506"><ele>204.0</ele><time>2026-04-04T06:46:27.999Z</time></trkpt><trkpt lat="44.98768752861827" lon="8.568363507890838"><ele>204.0</ele><time>2026-04-04T06:46:28.999Z</time></trkpt><trkpt lat="44.98778009820108" lon="8.568293693346865"><ele>204.0</ele><time>2026-04-04T06:46:29.999Z</time></trkpt><trkpt lat="44.98787148754234" lon="8.568207895682013"><ele>203.2</ele><time>2026-04-04T06:46:30.999Z</time></trkpt><trkpt lat="44.98795370721059" lon="8.568107243535094"><ele>202.39999999999998</ele><time>2026-04-04T06:46:31.999Z</time></trkpt><trkpt lat="44.988032125719705" lon="8.56797991730585"><ele>201.6</ele><time>2026-04-04T06:46:32.999Z</time></trkpt><trkpt lat="44.9881026629896" lon="8.567846035962976"><ele>200.8</ele><time>2026-04-04T06:46:33.999Z</time></trkpt><trkpt lat="44.988160267273564" lon="8.567725734986105"><ele>200.0</ele><time>2026-04-04T06:46:34.999Z</time></trkpt><trkpt lat="44.98822503738564" lon="8.567614839390552"><ele>201.6</ele><time>2026-04-04T06:46:35.999Z</time></trkpt><trkpt lat="44.98828923995677" lon="8.567502096661173"><ele>203.2</ele><time>2026-04-04T06:46:36.999Z</time></trkpt><trkpt lat="44.98835883227115" lon="8.567430814551003"><ele>204.8</ele><time>2026-04-04T06:46:37.999Z</time></trkpt><trkpt lat="44.98842875252292" lon="8.567384805362078"><ele>206.4</ele><time>2026-04-04T06:46:38.999Z</time></trkpt><trkpt lat="44.98852188310859" lon="8.56734580973671"><ele>208.0</ele><time>2026-04-04T06:46:39.999Z</time></trkpt><trkpt lat="44.98864107303573" lon="8.567315938618526"><ele>208.60000000000002</ele><time>2026-04-04T06:46:40.999Z</time></trkpt><trkpt lat="44.98874931300709" lon="8.567284415825275"><ele>209.20000000000002</ele><time>2026-04-04T06:46:41.999Z</time></trkpt><trkpt lat="44.9888403322164" lon="8.567251128307282"><ele>209.8</ele><time>2026-04-04T06:46:42.999Z</time></trkpt><trkpt lat="44.988938872275064" lon="8.56721164863518"><ele>210.4</ele><time>2026-04-04T06:46:43.999Z</time></trkpt><trkpt lat="44.98903907739204" lon="8.567174247985546"><ele>211.0</ele><time>2026-04-04T06:46:44.999Z</time></trkpt><trkpt lat="44.989126362757446" lon="8.567144417744384"><ele>212.20000000000002</ele><time>2026-04-04T06:46:45.999Z</time></trkpt><trkpt lat="44.989189954510664" lon="8.567116304852503"><ele>213.4</ele><time>2026-04-04T06:46:46.999Z</time></trkpt><trkpt lat="44.98926016633509" lon="8.567045564014352"><ele>214.6</ele><time>2026-04-04T06:46:49.999Z</time></trkpt><trkpt lat="44.98939004621929" lon="8.567137800017123"><ele>215.8</ele><time>2026-04-04T06:46:51.999Z</time></trkpt><trkpt lat="44.989482528446615" lon="8.56716923395956"><ele>217.0</ele><time>2026-04-04T06:46:52.998Z</time></trkpt><trkpt lat="44.98959571219563" lon="8.567217870207852"><ele>216.99999999999997</ele><time>2026-04-04T06:46:54.998Z</time></trkpt><trkpt lat="44.989652090548326" lon="8.567258268824906"><ele>217.0</ele><time>2026-04-04T06:46:55.998Z</time></trkpt><trkpt lat="44.989715911427346" lon="8.56727657302079"><ele>217.0</ele><time>2026-04-04T06:46:56.998Z</time></trkpt><trkpt lat="44.98978687068121" lon="8.567290680752494"><ele>217.0</ele><time>2026-04-04T06:46:57.998Z</time></trkpt><trkpt lat="44.98987258188906" lon="8.567307219470822"><ele>216.99999999999997</ele><time>2026-04-04T06:46:58.998Z</time></trkpt><trkpt lat="44.98997300207905" lon="8.567300975133461"><ele>217.0</ele><time>2026-04-04T06:47:00.998Z</time></trkpt><trkpt lat="44.990087776368405" lon="8.567329576244386"><ele>217.8</ele><time>2026-04-04T06:47:02.998Z</time></trkpt><trkpt lat="44.99015880275853" lon="8.56733283272047"><ele>218.6</ele><time>2026-04-04T06:47:03.998Z</time></trkpt><trkpt lat="44.990256120948196" lon="8.567323364278868"><ele>219.40000000000003</ele><time>2026-04-04T06:47:05.998Z</time></trkpt><trkpt lat="44.990344648401695" lon="8.567316032520143"><ele>220.20000000000002</ele><time>2026-04-04T06:47:08.998Z</time></trkpt><trkpt lat="44.9903878379027" lon="8.567205003158872"><ele>221.0</ele><time>2026-04-04T06:47:11Z</time></trkpt><trkpt lat="44.99043143567286" lon="8.567052566189423"><ele>220.66666666666669</ele><time>2026-04-04T06:47:13Z</time></trkpt><trkpt lat="44.99049588777557" lon="8.566930676007821"><ele>220.33333333333334</ele><time>2026-04-04T06:47:15Z</time></trkpt><trkpt lat="44.99054255158734" lon="8.566835406343772"><ele>220.0</ele><time>2026-04-04T06:47:16Z</time></trkpt><trkpt lat="44.99058033571339" lon="8.566741404344189"><ele>219.66666666666669</ele><time>2026-04-04T06:47:17Z</time></trkpt><trkpt lat="44.99060989607602" lon="8.566660988120821"><ele>219.33333333333334</ele><time>2026-04-04T06:47:18Z</time></trkpt><trkpt lat="44.99064453530477" lon="8.566557412260794"><ele>219.0</ele><time>2026-04-04T06:47:19Z</time></trkpt><trkpt lat="44.99068011906747" lon="8.566471748946604"><ele>219.0</ele><time>2026-04-04T06:47:20Z</time></trkpt><trkpt lat="44.9907126708127" lon="8.566378081308875"><ele>218.99999999999997</ele><time>2026-04-04T06:47:21Z</time></trkpt><trkpt lat="44.99074937006235" lon="8.566286577374658"><ele>218.99999999999997</ele><time>2026-04-04T06:47:22Z</time></trkpt><trkpt lat="44.990811528081124" lon="8.566138759164552"><ele>219.0</ele><time>2026-04-04T06:47:24Z</time></trkpt><trkpt lat="44.99087629169596" lon="8.56599486015441"><ele>219.0</ele><time>2026-04-04T06:47:25.999Z</time></trkpt><trkpt lat="44.9909218876041" lon="8.565917379709083"><ele>219.39999999999998</ele><time>2026-04-04T06:47:26.999Z</time></trkpt><trkpt lat="44.990965933046816" lon="8.565843627591947"><ele>219.79999999999998</ele><time>2026-04-04T06:47:27.999Z</time></trkpt><trkpt lat="44.991021377223475" lon="8.56578985494814"><ele>220.20000000000002</ele><time>2026-04-04T06:47:28.999Z</time></trkpt><trkpt lat="44.991120871806174" lon="8.565712892543033"><ele>220.60000000000002</ele><time>2026-04-04T06:47:30.999Z</time></trkpt><trkpt lat="44.991235013567156" lon="8.565672523259918"><ele>221.0</ele><time>2026-04-04T06:47:32.999Z</time></trkpt><trkpt lat="44.99134797843153" lon="8.565601987007355"><ele>221.00000000000003</ele><time>2026-04-04T06:47:34.999Z</time></trkpt><trkpt lat="44.99140684263951" lon="8.565560698442853"><ele>221.0</ele><time>2026-04-04T06:47:35.999Z</time></trkpt><trkpt lat="44.99147749935515" lon="8.565508837213253"><ele>221.0</ele><time>2026-04-04T06:47:37.999Z</time></trkpt><trkpt lat="44.99155993990601" lon="8.565446881078968"><ele>221.0</ele><time>2026-04-04T06:47:39.999Z</time></trkpt><trkpt lat="44.99165279043415" lon="8.56534528330619"><ele>221.00000000000003</ele><time>2026-04-04T06:47:41.999Z</time></trkpt><trkpt lat="44.99166770361766" lon="8.565246553626272"><ele>221.0</ele><time>2026-04-04T06:47:42.999Z</time></trkpt><trkpt lat="44.99169850860835" lon="8.565099793494234"><ele>221.16666666666669</ele><time>2026-04-04T06:47:44.999Z</time></trkpt><trkpt lat="44.991718452849575" lon="8.565008397002986"><ele>221.33333333333334</ele><time>2026-04-04T06:47:45.999Z</time></trkpt><trkpt lat="44.991749133514" lon="8.564905493977815"><ele>221.5</ele><time>2026-04-04T06:47:46.999Z</time></trkpt><trkpt lat="44.99178496416845" lon="8.564824416494474"><ele>221.66666666666669</ele><time>2026-04-04T06:47:47.999Z</time></trkpt><trkpt lat="44.99181608618852" lon="8.564700207044693"><ele>221.83333333333334</ele><time>2026-04-04T06:47:48.999Z</time></trkpt><trkpt lat="44.99183983256485" lon="8.564525534490606"><ele>222.0</ele><time>2026-04-04T06:47:49.999Z</time></trkpt><trkpt lat="44.99188081114423" lon="8.564387541608061"><ele>219.39999999999998</ele><time>2026-04-04T06:47:50.999Z</time></trkpt><trkpt lat="44.9919296600144" lon="8.564254497068225"><ele>216.79999999999998</ele><time>2026-04-04T06:47:51.999Z</time></trkpt><trkpt lat="44.99196852234972" lon="8.564124052216998"><ele>214.2</ele><time>2026-04-04T06:47:52.999Z</time></trkpt><trkpt lat="44.992004506343264" lon="8.563985324867183"><ele>211.6</ele><time>2026-04-04T06:47:53.999Z</time></trkpt><trkpt lat="44.99204182716976" lon="8.563846165440916"><ele>209.0</ele><time>2026-04-04T06:47:54.999Z</time></trkpt><trkpt lat="44.992098775140995" lon="8.563722297251557"><ele>205.0</ele><time>2026-04-04T06:47:55.999Z</time></trkpt><trkpt lat="44.99214822340678" lon="8.56359522283428"><ele>201.0</ele><time>2026-04-04T06:47:56.999Z</time></trkpt><trkpt lat="44.99221086043795" lon="8.563485337570919"><ele>197.0</ele><time>2026-04-04T06:47:57.999Z</time></trkpt><trkpt lat="44.992303633651716" lon="8.563416891832174"><ele>193.0</ele><time>2026-04-04T06:47:58.999Z</time></trkpt><trkpt lat="44.992413283243344" lon="8.563322877912135"><ele>189.0</ele><time>2026-04-04T06:47:59.999Z</time></trkpt><trkpt lat="44.99256308657956" lon="8.56334475923083"><ele>187.0</ele><time>2026-04-04T06:48:00.999Z</time></trkpt><trkpt lat="44.99272079511886" lon="8.563349813539926"><ele>185.0</ele><time>2026-04-04T06:48:01.999Z</time></trkpt><trkpt lat="44.992878887947725" lon="8.563377361165015"><ele>183.0</ele><time>2026-04-04T06:48:02.999Z</time></trkpt><trkpt lat="44.993020139560684" lon="8.56340332764194"><ele>183.0</ele><time>2026-04-04T06:48:03.999Z</time></trkpt><trkpt lat="44.99315727411445" lon="8.563435023290113"><ele>183.0</ele><time>2026-04-04T06:48:04.999Z</time></trkpt><trkpt lat="44.99328695058396" lon="8.563471160883696"><ele>183.0</ele><time>2026-04-04T06:48:05.999Z</time></trkpt><trkpt lat="44.99341372719071" lon="8.563502775336215"><ele>183.0</ele><time>2026-04-04T06:48:06.999Z</time></trkpt><trkpt lat="44.993545157106794" lon="8.563519406828025"><ele>181.75</ele><time>2026-04-04T06:48:07.999Z</time></trkpt><trkpt lat="44.993660282460674" lon="8.56354613286523"><ele>180.5</ele><time>2026-04-04T06:48:08.999Z</time></trkpt><trkpt lat="44.99376932318537" lon="8.563565488690848"><ele>179.25</ele><time>2026-04-04T06:48:09.999Z</time></trkpt><trkpt lat="44.99387970237105" lon="8.563483056309936"><ele>178.0</ele><time>2026-04-04T06:48:10.999Z</time></trkpt><trkpt lat="44.994006783320984" lon="8.563441677030724"><ele>178.0</ele><time>2026-04-04T06:48:11.999Z</time></trkpt><trkpt lat="44.99411411615202" lon="8.56340162159339"><ele>178.0</ele><time>2026-04-04T06:48:12.999Z</time></trkpt><trkpt lat="44.9942118805024" lon="8.563351685406053"><ele>178.0</ele><time>2026-04-04T06:48:13.999Z</time></trkpt><trkpt lat="44.994305861207444" lon="8.56330615521561"><ele>178.0</ele><time>2026-04-04T06:48:14.999Z</time></trkpt><trkpt lat="44.99439510105299" lon="8.563251572847518"><ele>178.0</ele><time>2026-04-04T06:48:15.999Z</time></trkpt><trkpt lat="44.9944178274186" lon="8.563107633901215"><ele>177.25</ele><time>2026-04-04T06:48:16.999Z</time></trkpt><trkpt lat="44.9944050922825" lon="8.562977765909963"><ele>176.5</ele><time>2026-04-04T06:48:17.999Z</time></trkpt><trkpt lat="44.994352349691674" lon="8.562816886319556"><ele>175.75</ele><time>2026-04-04T06:48:18.999Z</time></trkpt><trkpt lat="44.994304501560364" lon="8.562617067252763"><ele>175.0</ele><time>2026-04-04T06:48:19.999Z</time></trkpt><trkpt lat="44.99425810943963" lon="8.56242959399269"><ele>175.0</ele><time>2026-04-04T06:48:20.999Z</time></trkpt><trkpt lat="44.99422831589864" lon="8.562246051084031"><ele>175.0</ele><time>2026-04-04T06:48:21.999Z</time></trkpt><trkpt lat="44.994189677315894" lon="8.562076457599886"><ele>175.0</ele><time>2026-04-04T06:48:22.999Z</time></trkpt><trkpt lat="44.99414636290717" lon="8.561926049745633"><ele>175.0</ele><time>2026-04-04T06:48:23.999Z</time></trkpt><trkpt lat="44.99408079345009" lon="8.56181281633203"><ele>171.75</ele><time>2026-04-04T06:48:24.999Z</time></trkpt><trkpt lat="44.993981723439525" lon="8.56171227813129"><ele>168.5</ele><time>2026-04-04T06:48:25.999Z</time></trkpt><trkpt lat="44.99384266144733" lon="8.561650092389943"><ele>165.25</ele><time>2026-04-04T06:48:26.999Z</time></trkpt><trkpt lat="44.9936877683984" lon="8.561630156575909"><ele>162.0</ele><time>2026-04-04T06:48:27.999Z</time></trkpt><trkpt lat="44.99352960589742" lon="8.561615720044253"><ele>162.0</ele><time>2026-04-04T06:48:28.999Z</time></trkpt><trkpt lat="44.99336331740015" lon="8.561579151726958"><ele>162.0</ele><time>2026-04-04T06:48:29.999Z</time></trkpt><trkpt lat="44.99320516871403" lon="8.561531708574446"><ele>162.0</ele><time>2026-04-04T06:48:30.999Z</time></trkpt><trkpt lat="44.99304579357277" lon="8.561471716002279"><ele>160.66666666666666</ele><time>2026-04-04T06:48:31.999Z</time></trkpt><trkpt lat="44.99287899235073" lon="8.561426274714727"><ele>159.33333333333331</ele><time>2026-04-04T06:48:32.999Z</time></trkpt><trkpt lat="44.992714004484775" lon="8.561394563974233"><ele>158.0</ele><time>2026-04-04T06:48:33.999Z</time></trkpt><trkpt lat="44.99254459567929" lon="8.561369618331113"><ele>158.0</ele><time>2026-04-04T06:48:34.999Z</time></trkpt><trkpt lat="44.99234810132344" lon="8.561345999928225"><ele>158.0</ele><time>2026-04-04T06:48:35.999Z</time></trkpt><trkpt lat="44.99213818224743" lon="8.561330635734262"><ele>158.0</ele><time>2026-04-04T06:48:36.999Z</time></trkpt><trkpt lat="44.991956459107584" lon="8.561303965102576"><ele>158.0</ele><time>2026-04-04T06:48:37.999Z</time></trkpt><trkpt lat="44.99177852599611" lon="8.561265710721317"><ele>158.0</ele><time>2026-04-04T06:48:38.999Z</time></trkpt><trkpt lat="44.99162207946788" lon="8.561297465340981"><ele>158.0</ele><time>2026-04-04T06:48:39.999Z</time></trkpt><trkpt lat="44.99145428947856" lon="8.56133169016472"><ele>159.33333333333331</ele><time>2026-04-04T06:48:40.999Z</time></trkpt><trkpt lat="44.99127530737413" lon="8.561349098080669"><ele>160.66666666666666</ele><time>2026-04-04T06:48:41.999Z</time></trkpt><trkpt lat="44.99110208997123" lon="8.561421331076335"><ele>162.0</ele><time>2026-04-04T06:48:42.999Z</time></trkpt><trkpt lat="44.99090582219888" lon="8.561471363275345"><ele>158.0</ele><time>2026-04-04T06:48:43.999Z</time></trkpt><trkpt lat="44.99070914711848" lon="8.561531045666008"><ele>154.0</ele><time>2026-04-04T06:48:44.999Z</time></trkpt><trkpt lat="44.99052717482375" lon="8.561566656794167"><ele>150.0</ele><time>2026-04-04T06:48:45.999Z</time></trkpt><trkpt lat="44.99032895045991" lon="8.561543938716"><ele>150.0</ele><time>2026-04-04T06:48:46.999Z</time></trkpt><trkpt lat="44.99014347247814" lon="8.561536013407478"><ele>150.0</ele><time>2026-04-04T06:48:47.999Z</time></trkpt><trkpt lat="44.989957044867346" lon="8.561509385545914"><ele>150.0</ele><time>2026-04-04T06:48:48.999Z</time></trkpt><trkpt lat="44.989799079084584" lon="8.561446108071038"><ele>148.0</ele><time>2026-04-04T06:48:49.999Z</time></trkpt><trkpt lat="44.98963087839842" lon="8.561351226459246"><ele>146.0</ele><time>2026-04-04T06:48:50.999Z</time></trkpt><trkpt lat="44.989457375452695" lon="8.56122775003655"><ele>144.0</ele><time>2026-04-04T06:48:51.999Z</time></trkpt><trkpt lat="44.98929018249161" lon="8.56111852725715"><ele>142.66666666666666</ele><time>2026-04-04T06:48:52.999Z</time></trkpt><trkpt lat="44.989110012904426" lon="8.561040183946059"><ele>141.33333333333331</ele><time>2026-04-04T06:48:53.999Z</time></trkpt><trkpt lat="44.98891287257745" lon="8.560994063284825"><ele>140.0</ele><time>2026-04-04T06:48:54.999Z</time></trkpt><trkpt lat="44.98871843927153" lon="8.560970129306297"><ele>140.0</ele><time>2026-04-04T06:48:55.999Z</time></trkpt><trkpt lat="44.988533818841965" lon="8.56094204975118"><ele>140.0</ele><time>2026-04-04T06:48:56.999Z</time></trkpt><trkpt lat="44.98834198241692" lon="8.560878574397547"><ele>140.0</ele><time>2026-04-04T06:48:57.998Z</time></trkpt><trkpt lat="44.98815544910754" lon="8.560818054254938"><ele>140.0</ele><time>2026-04-04T06:48:58.998Z</time></trkpt><trkpt lat="44.98797447836949" lon="8.560754189928586"><ele>140.0</ele><time>2026-04-04T06:48:59.998Z</time></trkpt><trkpt lat="44.987788993122386" lon="8.56071497506002"><ele>140.0</ele><time>2026-04-04T06:49:00.998Z</time></trkpt><trkpt lat="44.98761885568139" lon="8.560638185425804"><ele>139.33333333333331</ele><time>2026-04-04T06:49:01.998Z</time></trkpt><trkpt lat="44.987450080265354" lon="8.560584174105596"><ele>138.66666666666666</ele><time>2026-04-04T06:49:02.998Z</time></trkpt><trkpt lat="44.98729188205162" lon="8.560525258451005"><ele>138.0</ele><time>2026-04-04T06:49:03.998Z</time></trkpt><trkpt lat="44.987161294409695" lon="8.560448784112682"><ele>137.25</ele><time>2026-04-04T06:49:04.998Z</time></trkpt><trkpt lat="44.98703872243132" lon="8.560364222930124"><ele>136.5</ele><time>2026-04-04T06:49:05.998Z</time></trkpt><trkpt lat="44.98691634068555" lon="8.560297523537443"><ele>135.75</ele><time>2026-04-04T06:49:06.998Z</time></trkpt><trkpt lat="44.986828958352994" lon="8.560172706985526"><ele>135.0</ele><time>2026-04-04T06:49:07.998Z</time></trkpt><trkpt lat="44.986761430708945" lon="8.560028367220196"><ele>135.0</ele><time>2026-04-04T06:49:08.998Z</time></trkpt><trkpt lat="44.986688377321315" lon="8.559864234901742"><ele>135.0</ele><time>2026-04-04T06:49:09.998Z</time></trkpt><trkpt lat="44.986594423424336" lon="8.559707918016642"><ele>135.0</ele><time>2026-04-04T06:49:10.998Z</time></trkpt><trkpt lat="44.98648803735802" lon="8.559565941423484"><ele>135.0</ele><time>2026-04-04T06:49:11.998Z</time></trkpt><trkpt lat="44.98639480631658" lon="8.559428672727426"><ele>134.83333333333334</ele><time>2026-04-04T06:49:12.998Z</time></trkpt><trkpt lat="44.98630219023593" lon="8.559328995388684"><ele>134.66666666666666</ele><time>2026-04-04T06:49:13.998Z</time></trkpt><trkpt lat="44.98625095750632" lon="8.559205145513001"><ele>134.5</ele><time>2026-04-04T06:49:15Z</time></trkpt><trkpt lat="44.98624895106275" lon="8.559085609271342"><ele>134.33333333333331</ele><time>2026-04-04T06:49:15.999Z</time></trkpt><trkpt lat="44.9862549106892" lon="8.558981928023611"><ele>134.16666666666666</ele><time>2026-04-04T06:49:16.999Z</time></trkpt><trkpt lat="44.98628449934332" lon="8.558892063409402"><ele>134.0</ele><time>2026-04-04T06:49:17.999Z</time></trkpt><trkpt lat="44.98630096317992" lon="8.558761345545927"><ele>134.0</ele><time>2026-04-04T06:49:19.999Z</time></trkpt><trkpt lat="44.98631683910653" lon="8.558654119395866"><ele>134.0</ele><time>2026-04-04T06:49:31.999Z</time></trkpt><trkpt lat="44.986343410212385" lon="8.55850049988275"><ele>134.0</ele><time>2026-04-04T06:49:33.999Z</time></trkpt><trkpt lat="44.98635427702502" lon="8.55840468465319"><ele>134.0</ele><time>2026-04-04T06:49:34.999Z</time></trkpt><trkpt lat="44.98637038466589" lon="8.558280820475648"><ele>134.0</ele><time>2026-04-04T06:49:35.999Z</time></trkpt><trkpt lat="44.986405165590476" lon="8.558165642211321"><ele>134.0</ele><time>2026-04-04T06:49:36.999Z</time></trkpt><trkpt lat="44.98642386227296" lon="8.558025821791343"><ele>134.25</ele><time>2026-04-04T06:49:37.999Z</time></trkpt><trkpt lat="44.98643267158488" lon="8.557863820667814"><ele>134.5</ele><time>2026-04-04T06:49:38.999Z</time></trkpt><trkpt lat="44.986401937784144" lon="8.557690304034368"><ele>134.75</ele><time>2026-04-04T06:49:39.999Z</time></trkpt><trkpt lat="44.986359063034314" lon="8.557518166987814"><ele>135.0</ele><time>2026-04-04T06:49:40.999Z</time></trkpt><trkpt lat="44.986283219313655" lon="8.557345267367882"><ele>135.0</ele><time>2026-04-04T06:49:41.999Z</time></trkpt><trkpt lat="44.98621736429982" lon="8.557164774852305"><ele>135.0</ele><time>2026-04-04T06:49:42.999Z</time></trkpt><trkpt lat="44.98614442717393" lon="8.556994352942349"><ele>135.0</ele><time>2026-04-04T06:49:43.999Z</time></trkpt><trkpt lat="44.986067883607824" lon="8.55682526640281"><ele>135.0</ele><time>2026-04-04T06:49:44.999Z</time></trkpt><trkpt lat="44.985967353433644" lon="8.556669241475708"><ele>135.0</ele><time>2026-04-04T06:49:45.999Z</time></trkpt><trkpt lat="44.985873053789625" lon="8.556512003650168"><ele>135.0</ele><time>2026-04-04T06:49:46.999Z</time></trkpt><trkpt lat="44.98577066578203" lon="8.55637768111302"><ele>135.0</ele><time>2026-04-04T06:49:47.999Z</time></trkpt><trkpt lat="44.98565638382087" lon="8.556247811341542"><ele>135.0</ele><time>2026-04-04T06:49:48.999Z</time></trkpt><trkpt lat="44.98552329984965" lon="8.556124431327682"><ele>133.33333333333334</ele><time>2026-04-04T06:49:49.999Z</time></trkpt><trkpt lat="44.985376303009446" lon="8.556022111857208"><ele>131.66666666666669</ele><time>2026-04-04T06:49:50.999Z</time></trkpt><trkpt lat="44.98522495520785" lon="8.555915868868894"><ele>130.0</ele><time>2026-04-04T06:49:51.999Z</time></trkpt><trkpt lat="44.985073314978614" lon="8.555807336047016"><ele>128.66666666666669</ele><time>2026-04-04T06:49:52.999Z</time></trkpt><trkpt lat="44.98491956534421" lon="8.555693908819645"><ele>127.33333333333334</ele><time>2026-04-04T06:49:53.999Z</time></trkpt><trkpt lat="44.984758567309584" lon="8.555579095220494"><ele>126.0</ele><time>2026-04-04T06:49:54.999Z</time></trkpt><trkpt lat="44.98459086882872" lon="8.555468030601341"><ele>126.0</ele><time>2026-04-04T06:49:55.999Z</time></trkpt><trkpt lat="44.98443910362699" lon="8.555328664054763"><ele>126.0</ele><time>2026-04-04T06:49:56.999Z</time></trkpt><trkpt lat="44.98427926103647" lon="8.55524158411459"><ele>126.0</ele><time>2026-04-04T06:49:57.999Z</time></trkpt><trkpt lat="44.98413884745388" lon="8.55511244118908"><ele>126.33333333333334</ele><time>2026-04-04T06:49:58.999Z</time></trkpt><trkpt lat="44.98399560924792" lon="8.554984212206854"><ele>126.66666666666667</ele><time>2026-04-04T06:49:59.999Z</time></trkpt><trkpt lat="44.98385839711412" lon="8.554837929012896"><ele>127.0</ele><time>2026-04-04T06:50:00.999Z</time></trkpt><trkpt lat="44.98371605686533" lon="8.554678333273204"><ele>127.0</ele><time>2026-04-04T06:50:01.999Z</time></trkpt><trkpt lat="44.983571206680914" lon="8.5545236118508"><ele>127.0</ele><time>2026-04-04T06:50:02.999Z</time></trkpt><trkpt lat="44.98341876579971" lon="8.554410908640532"><ele>127.0</ele><time>2026-04-04T06:50:03.999Z</time></trkpt><trkpt lat="44.98329059281597" lon="8.554276805175038"><ele>127.0</ele><time>2026-04-04T06:50:04.999Z</time></trkpt><trkpt lat="44.98316595016875" lon="8.554198132925743"><ele>126.99999999999999</ele><time>2026-04-04T06:50:05.999Z</time></trkpt><trkpt lat="44.98307560982211" lon="8.554095856288908"><ele>126.99999999999999</ele><time>2026-04-04T06:50:06.999Z</time></trkpt><trkpt lat="44.982987495043204" lon="8.554029243474947"><ele>127.0</ele><time>2026-04-04T06:50:07.999Z</time></trkpt><trkpt lat="44.98290093964438" lon="8.553976847117282"><ele>127.0</ele><time>2026-04-04T06:50:08.999Z</time></trkpt><trkpt lat="44.98283188492291" lon="8.553947431894034"><ele>127.0</ele><time>2026-04-04T06:50:09.999Z</time></trkpt><trkpt lat="44.98272276694372" lon="8.553904564111978"><ele>126.99999999999999</ele><time>2026-04-04T06:50:11.999Z</time></trkpt><trkpt lat="44.98265354098746" lon="8.553875430482673"><ele>126.99999999999999</ele><time>2026-04-04T06:50:14.999Z</time></trkpt><trkpt lat="44.98256063790119" lon="8.553828256011743"><ele>127.0</ele><time>2026-04-04T06:50:16.999Z</time></trkpt><trkpt lat="44.98248086243588" lon="8.553775606374769"><ele>127.0</ele><time>2026-04-04T06:50:17.999Z</time></trkpt><trkpt lat="44.98240231723237" lon="8.553681927450771"><ele>126.33333333333334</ele><time>2026-04-04T06:50:18.999Z</time></trkpt><trkpt lat="44.982313044229535" lon="8.55353066666975"><ele>125.66666666666666</ele><time>2026-04-04T06:50:19.999Z</time></trkpt><trkpt lat="44.98220330751845" lon="8.553332812065412"><ele>125.0</ele><time>2026-04-04T06:50:20.999Z</time></trkpt><trkpt lat="44.98208803878413" lon="8.553082556675786"><ele>125.66666666666666</ele><time>2026-04-04T06:50:21.999Z</time></trkpt><trkpt lat="44.98199056882602" lon="8.552822655404617"><ele>126.33333333333334</ele><time>2026-04-04T06:50:22.999Z</time></trkpt><trkpt lat="44.98188426476975" lon="8.552610067710722"><ele>127.0</ele><time>2026-04-04T06:50:23.999Z</time></trkpt><trkpt lat="44.981754362549886" lon="8.552425645122684"><ele>126.33333333333334</ele><time>2026-04-04T06:50:24.999Z</time></trkpt><trkpt lat="44.98164550307235" lon="8.552221509168614"><ele>125.66666666666666</ele><time>2026-04-04T06:50:25.999Z</time></trkpt><trkpt lat="44.98153537039921" lon="8.552047285685566"><ele>125.0</ele><time>2026-04-04T06:50:26.999Z</time></trkpt><trkpt lat="44.98143593388756" lon="8.551883326858446"><ele>125.0</ele><time>2026-04-04T06:50:27.999Z</time></trkpt><trkpt lat="44.98134253090777" lon="8.551700500885408"><ele>125.0</ele><time>2026-04-04T06:50:28.999Z</time></trkpt><trkpt lat="44.981260889393084" lon="8.551515743206748"><ele>125.0</ele><time>2026-04-04T06:50:29.999Z</time></trkpt><trkpt lat="44.9811706484327" lon="8.551301197599495"><ele>126.0</ele><time>2026-04-04T06:50:30.999Z</time></trkpt><trkpt lat="44.981086236222424" lon="8.55110315357903"><ele>127.0</ele><time>2026-04-04T06:50:31.999Z</time></trkpt><trkpt lat="44.98099945476043" lon="8.5508995509055"><ele>128.0</ele><time>2026-04-04T06:50:32.999Z</time></trkpt><trkpt lat="44.98092429202042" lon="8.550723207528529"><ele>128.0</ele><time>2026-04-04T06:50:33.999Z</time></trkpt><trkpt lat="44.98086061998019" lon="8.550563199419894"><ele>128.0</ele><time>2026-04-04T06:50:34.999Z</time></trkpt><trkpt lat="44.980809990191844" lon="8.550405600071963"><ele>128.0</ele><time>2026-04-04T06:50:35.999Z</time></trkpt><trkpt lat="44.980779734805985" lon="8.55023555456458"><ele>128.0</ele><time>2026-04-04T06:50:36.999Z</time></trkpt><trkpt lat="44.98075887337136" lon="8.550050029256274"><ele>126.33333333333333</ele><time>2026-04-04T06:50:37.999Z</time></trkpt><trkpt lat="44.98074912056059" lon="8.549850982028675"><ele>124.66666666666666</ele><time>2026-04-04T06:50:38.999Z</time></trkpt><trkpt lat="44.98074122870487" lon="8.5496330097048"><ele>123.0</ele><time>2026-04-04T06:50:39.999Z</time></trkpt><trkpt lat="44.98071786792774" lon="8.549404205961538"><ele>122.66666666666666</ele><time>2026-04-04T06:50:40.999Z</time></trkpt><trkpt lat="44.98071589547564" lon="8.549172100516818"><ele>122.33333333333333</ele><time>2026-04-04T06:50:41.999Z</time></trkpt><trkpt lat="44.98071482184783" lon="8.54892604904081"><ele>122.0</ele><time>2026-04-04T06:50:42.999Z</time></trkpt><trkpt lat="44.98070413974254" lon="8.548672442991954"><ele>123.0</ele><time>2026-04-04T06:50:43.999Z</time></trkpt><trkpt lat="44.98069413996894" lon="8.548435036194993"><ele>124.0</ele><time>2026-04-04T06:50:44.999Z</time></trkpt><trkpt lat="44.980685434920595" lon="8.548228367900425"><ele>125.0</ele><time>2026-04-04T06:50:45.999Z</time></trkpt><trkpt lat="44.980684610578024" lon="8.548047610251189"><ele>126.0</ele><time>2026-04-04T06:50:46.999Z</time></trkpt><trkpt lat="44.98070388538648" lon="8.54788014848404"><ele>126.0</ele><time>2026-04-04T06:50:47.999Z</time></trkpt><trkpt lat="44.98074905860277" lon="8.547716258823224"><ele>126.0</ele><time>2026-04-04T06:50:48.999Z</time></trkpt><trkpt lat="44.980819782661584" lon="8.547544262043202"><ele>126.0</ele><time>2026-04-04T06:50:49.999Z</time></trkpt><trkpt lat="44.98089901831945" lon="8.547353350324277"><ele>126.0</ele><time>2026-04-04T06:50:50.999Z</time></trkpt><trkpt lat="44.980983175167715" lon="8.54715068863168"><ele>126.66666666666666</ele><time>2026-04-04T06:50:51.999Z</time></trkpt><trkpt lat="44.981073049718304" lon="8.546934257985123"><ele>127.33333333333333</ele><time>2026-04-04T06:50:52.999Z</time></trkpt><trkpt lat="44.98116296090408" lon="8.546717739108965"><ele>128.0</ele><time>2026-04-04T06:50:53.999Z</time></trkpt><trkpt lat="44.981253315988305" lon="8.546500733083779"><ele>128.0</ele><time>2026-04-04T06:50:54.999Z</time></trkpt><trkpt lat="44.98134733358509" lon="8.54627504550658"><ele>128.0</ele><time>2026-04-04T06:50:55.999Z</time></trkpt><trkpt lat="44.98143910947253" lon="8.546054739256023"><ele>128.0</ele><time>2026-04-04T06:50:56.999Z</time></trkpt><trkpt lat="44.981535683152416" lon="8.545822915936544"><ele>127.66666666666666</ele><time>2026-04-04T06:50:57.999Z</time></trkpt><trkpt lat="44.9816344202801" lon="8.54558819797547"><ele>127.33333333333334</ele><time>2026-04-04T06:50:58.999Z</time></trkpt><trkpt lat="44.98172374006105" lon="8.545376252698219"><ele>127.0</ele><time>2026-04-04T06:50:59.999Z</time></trkpt><trkpt lat="44.98181402218903" lon="8.545160727264227"><ele>127.0</ele><time>2026-04-04T06:51:00.999Z</time></trkpt><trkpt lat="44.98190411135265" lon="8.544945137318736"><ele>127.0</ele><time>2026-04-04T06:51:01.999Z</time></trkpt><trkpt lat="44.98199005265208" lon="8.544738789335975"><ele>127.0</ele><time>2026-04-04T06:51:02.999Z</time></trkpt><trkpt lat="44.98207824286162" lon="8.54452704185393"><ele>125.66666666666667</ele><time>2026-04-04T06:51:03.999Z</time></trkpt><trkpt lat="44.982164516411736" lon="8.544310119089833"><ele>124.33333333333334</ele><time>2026-04-04T06:51:04.999Z</time></trkpt><trkpt lat="44.982218687693916" lon="8.544077259064903"><ele>123.0</ele><time>2026-04-04T06:51:05.999Z</time></trkpt><trkpt lat="44.982270341276156" lon="8.54385324584951"><ele>122.66666666666666</ele><time>2026-04-04T06:51:06.999Z</time></trkpt><trkpt lat="44.98228765230187" lon="8.543619142997956"><ele>122.33333333333333</ele><time>2026-04-04T06:51:07.999Z</time></trkpt><trkpt lat="44.982282882020336" lon="8.543371550466473"><ele>122.0</ele><time>2026-04-04T06:51:08.999Z</time></trkpt><trkpt lat="44.98228939818782" lon="8.543127065022357"><ele>122.0</ele><time>2026-04-04T06:51:09.999Z</time></trkpt><trkpt lat="44.98229618827299" lon="8.542886016756842"><ele>122.0</ele><time>2026-04-04T06:51:10.998Z</time></trkpt><trkpt lat="44.98230558431369" lon="8.5426514947011"><ele>122.0</ele><time>2026-04-04T06:51:11.998Z</time></trkpt><trkpt lat="44.982317529639424" lon="8.542415301985894"><ele>121.33333333333333</ele><time>2026-04-04T06:51:12.998Z</time></trkpt><trkpt lat="44.982333047281024" lon="8.542174657296664"><ele>120.66666666666666</ele><time>2026-04-04T06:51:13.998Z</time></trkpt><trkpt lat="44.98234984213881" lon="8.541929185187911"><ele>120.0</ele><time>2026-04-04T06:51:14.998Z</time></trkpt><trkpt lat="44.982368950860455" lon="8.541686130254138"><ele>119.66666666666666</ele><time>2026-04-04T06:51:15.998Z</time></trkpt><trkpt lat="44.98239203754533" lon="8.541438517956774"><ele>119.33333333333333</ele><time>2026-04-04T06:51:16.998Z</time></trkpt><trkpt lat="44.98241798933769" lon="8.541194153375494"><ele>119.0</ele><time>2026-04-04T06:51:17.998Z</time></trkpt><trkpt lat="44.982446072655534" lon="8.54095290924448"><ele>119.0</ele><time>2026-04-04T06:51:18.998Z</time></trkpt><trkpt lat="44.98247614388066" lon="8.54070300898105"><ele>119.0</ele><time>2026-04-04T06:51:19.998Z</time></trkpt><trkpt lat="44.98250714870299" lon="8.540455273213045"><ele>119.0</ele><time>2026-04-04T06:51:21Z</time></trkpt><trkpt lat="44.98253823231889" lon="8.540214706834815"><ele>119.66666666666666</ele><time>2026-04-04T06:51:22Z</time></trkpt><trkpt lat="44.9825715951047" lon="8.539958559674536"><ele>120.33333333333334</ele><time>2026-04-04T06:51:23Z</time></trkpt><trkpt lat="44.98260609463201" lon="8.539723482812468"><ele>121.0</ele><time>2026-04-04T06:51:24Z</time></trkpt><trkpt lat="44.9826458565834" lon="8.539488078510267"><ele>122.0</ele><time>2026-04-04T06:51:25Z</time></trkpt><trkpt lat="44.98267627196557" lon="8.539253943560603"><ele>123.0</ele><time>2026-04-04T06:51:26Z</time></trkpt><trkpt lat="44.98271850863197" lon="8.539020191196885"><ele>124.0</ele><time>2026-04-04T06:51:27Z</time></trkpt><trkpt lat="44.982776508034945" lon="8.538793699820255"><ele>124.66666666666667</ele><time>2026-04-04T06:51:28Z</time></trkpt><trkpt lat="44.98282727303828" lon="8.538555984911099"><ele>125.33333333333334</ele><time>2026-04-04T06:51:29Z</time></trkpt><trkpt lat="44.982864913707864" lon="8.538312049531525"><ele>126.0</ele><time>2026-04-04T06:51:30Z</time></trkpt><trkpt lat="44.98292856000812" lon="8.538078260859976"><ele>125.33333333333334</ele><time>2026-04-04T06:51:31Z</time></trkpt><trkpt lat="44.98297800347429" lon="8.537837978334668"><ele>124.66666666666667</ele><time>2026-04-04T06:51:32Z</time></trkpt><trkpt lat="44.983023076400045" lon="8.53761349030209"><ele>124.0</ele><time>2026-04-04T06:51:33Z</time></trkpt><trkpt lat="44.983068507630044" lon="8.537387217714537"><ele>124.0</ele><time>2026-04-04T06:51:34Z</time></trkpt><trkpt lat="44.98311233573249" lon="8.537168929589557"><ele>124.0</ele><time>2026-04-04T06:51:35Z</time></trkpt><trkpt lat="44.98315045616035" lon="8.536979068740205"><ele>124.0</ele><time>2026-04-04T06:51:36Z</time></trkpt><trkpt lat="44.983192127896885" lon="8.536784834108769"><ele>124.0</ele><time>2026-04-04T06:51:37Z</time></trkpt><trkpt lat="44.98325275390609" lon="8.536601589987091"><ele>124.0</ele><time>2026-04-04T06:51:38Z</time></trkpt><trkpt lat="44.983343715829285" lon="8.536433518999614"><ele>124.0</ele><time>2026-04-04T06:51:39Z</time></trkpt><trkpt lat="44.98345008734702" lon="8.536262358151722"><ele>124.0</ele><time>2026-04-04T06:51:40Z</time></trkpt><trkpt lat="44.983547027037275" lon="8.536082990503923"><ele>124.0</ele><time>2026-04-04T06:51:41Z</time></trkpt><trkpt lat="44.983626820397305" lon="8.535880866324383"><ele>124.0</ele><time>2026-04-04T06:51:41.999Z</time></trkpt><trkpt lat="44.98372475021419" lon="8.535697266797992"><ele>124.0</ele><time>2026-04-04T06:51:42.999Z</time></trkpt><trkpt lat="44.98381440903594" lon="8.535513944311557"><ele>124.0</ele><time>2026-04-04T06:51:43.999Z</time></trkpt><trkpt lat="44.983905759300015" lon="8.535370164161769"><ele>124.0</ele><time>2026-04-04T06:51:44.999Z</time></trkpt><trkpt lat="44.98400778057598" lon="8.535236604660987"><ele>124.0</ele><time>2026-04-04T06:51:45.999Z</time></trkpt><trkpt lat="44.98411628217267" lon="8.53510403203116"><ele>124.0</ele><time>2026-04-04T06:51:46.999Z</time></trkpt><trkpt lat="44.98423261646679" lon="8.534966822039612"><ele>124.66666666666667</ele><time>2026-04-04T06:51:47.999Z</time></trkpt><trkpt lat="44.98435111059832" lon="8.53482596791025"><ele>125.33333333333334</ele><time>2026-04-04T06:51:48.999Z</time></trkpt><trkpt lat="44.984469974342616" lon="8.5346815382159"><ele>126.0</ele><time>2026-04-04T06:51:49.999Z</time></trkpt><trkpt lat="44.98459001367668" lon="8.534527922166477"><ele>126.0</ele><time>2026-04-04T06:51:50.999Z</time></trkpt><trkpt lat="44.984690692522456" lon="8.534388234146782"><ele>126.0</ele><time>2026-04-04T06:51:51.999Z</time></trkpt><trkpt lat="44.98478171513039" lon="8.534258415505498"><ele>126.0</ele><time>2026-04-04T06:51:52.999Z</time></trkpt><trkpt lat="44.98486718164582" lon="8.534136368884894"><ele>126.0</ele><time>2026-04-04T06:51:53.999Z</time></trkpt><trkpt lat="44.984956199445385" lon="8.53400925097596"><ele>125.75</ele><time>2026-04-04T06:51:54.999Z</time></trkpt><trkpt lat="44.98505141527077" lon="8.53387328228825"><ele>125.5</ele><time>2026-04-04T06:51:55.999Z</time></trkpt><trkpt lat="44.98515477518189" lon="8.53372711923644"><ele>125.25</ele><time>2026-04-04T06:51:56.999Z</time></trkpt><trkpt lat="44.98526432592975" lon="8.533572582681428"><ele>125.0</ele><time>2026-04-04T06:51:57.999Z</time></trkpt><trkpt lat="44.985377396245724" lon="8.533413082472787"><ele>125.0</ele><time>2026-04-04T06:51:58.999Z</time></trkpt><trkpt lat="44.98549577313892" lon="8.533245512589042"><ele>125.0</ele><time>2026-04-04T06:51:59.999Z</time></trkpt><trkpt lat="44.98560781395649" lon="8.533083309844551"><ele>125.0</ele><time>2026-04-04T06:52:00.999Z</time></trkpt><trkpt lat="44.98570797566371" lon="8.532938304645366"><ele>125.0</ele><time>2026-04-04T06:52:01.999Z</time></trkpt><trkpt lat="44.98579405947003" lon="8.53280880709066"><ele>125.0</ele><time>2026-04-04T06:52:02.999Z</time></trkpt><trkpt lat="44.98587828149664" lon="8.532680849071692"><ele>125.0</ele><time>2026-04-04T06:52:03.999Z</time></trkpt><trkpt lat="44.985954076491275" lon="8.532561936822656"><ele>125.0</ele><time>2026-04-04T06:52:04.999Z</time></trkpt><trkpt lat="44.98602167514203" lon="8.532455058121661"><ele>125.49999999999999</ele><time>2026-04-04T06:52:05.999Z</time></trkpt><trkpt lat="44.986086310765344" lon="8.532349834934951"><ele>126.0</ele><time>2026-04-04T06:52:06.999Z</time></trkpt><trkpt lat="44.98614199126976" lon="8.532256811785546"><ele>126.5</ele><time>2026-04-04T06:52:07.999Z</time></trkpt><trkpt lat="44.98619458851262" lon="8.53216627943046"><ele>127.0</ele><time>2026-04-04T06:52:08.999Z</time></trkpt><trkpt lat="44.986246283778065" lon="8.53207428086501"><ele>127.49999999999999</ele><time>2026-04-04T06:52:09.999Z</time></trkpt><trkpt lat="44.98629409333518" lon="8.531983807472887"><ele>128.0</ele><time>2026-04-04T06:52:10.999Z</time></trkpt><trkpt lat="44.98632172386753" lon="8.531889534822596"><ele>128.0</ele><time>2026-04-04T06:52:11.999Z</time></trkpt><trkpt lat="44.986364918456566" lon="8.53180712958135"><ele>128.0</ele><time>2026-04-04T06:52:12.999Z</time></trkpt><trkpt lat="44.986430110073556" lon="8.531687618458102"><ele>128.0</ele><time>2026-04-04T06:52:14.999Z</time></trkpt><trkpt lat="44.9862860159382" lon="8.531449558906779"><ele>128.0</ele><time>2026-04-04T06:52:17.999Z</time></trkpt><trkpt lat="44.9861943415095" lon="8.53135795000555"><ele>128.0</ele><time>2026-04-04T06:52:18.999Z</time></trkpt><trkpt lat="44.98607537422914" lon="8.531254066625312"><ele>128.0</ele><time>2026-04-04T06:52:19.999Z</time></trkpt><trkpt lat="44.985975001114056" lon="8.531123614310316"><ele>128.0</ele><time>2026-04-04T06:52:20.999Z</time></trkpt><trkpt lat="44.98586828247267" lon="8.531012887703763"><ele>128.0</ele><time>2026-04-04T06:52:21.999Z</time></trkpt><trkpt lat="44.985720904610304" lon="8.530884585301386"><ele>127.33333333333333</ele><time>2026-04-04T06:52:22.999Z</time></trkpt><trkpt lat="44.98558086969306" lon="8.530730460166865"><ele>126.66666666666666</ele><time>2026-04-04T06:52:23.999Z</time></trkpt><trkpt lat="44.98542690992516" lon="8.530574791067853"><ele>126.0</ele><time>2026-04-04T06:52:24.999Z</time></trkpt><trkpt lat="44.98528905280676" lon="8.53044090457758"><ele>126.66666666666666</ele><time>2026-04-04T06:52:25.999Z</time></trkpt><trkpt lat="44.9851827220732" lon="8.530308227382397"><ele>127.33333333333333</ele><time>2026-04-04T06:52:26.999Z</time></trkpt><trkpt lat="44.9850790933675" lon="8.530202970288588"><ele>128.0</ele><time>2026-04-04T06:52:27.999Z</time></trkpt><trkpt lat="44.98489862282301" lon="8.530018210985407"><ele>131.0</ele><time>2026-04-04T06:52:28.999Z</time></trkpt><trkpt lat="44.984773087677766" lon="8.529885536277455"><ele>134.0</ele><time>2026-04-04T06:52:29.999Z</time></trkpt><trkpt lat="44.98463038301228" lon="8.529733034154136"><ele>137.0</ele><time>2026-04-04T06:52:30.999Z</time></trkpt><trkpt lat="44.984505027840214" lon="8.529603523914863"><ele>139.5</ele><time>2026-04-04T06:52:31.999Z</time></trkpt><trkpt lat="44.98440602758352" lon="8.52950088560104"><ele>142.0</ele><time>2026-04-04T06:52:32.999Z</time></trkpt><trkpt lat="44.98433306137084" lon="8.529410567372759"><ele>144.5</ele><time>2026-04-04T06:52:33.999Z</time></trkpt><trkpt lat="44.98427043124209" lon="8.529291779891654"><ele>147.0</ele><time>2026-04-04T06:52:34.999Z</time></trkpt><trkpt lat="44.98421950411841" lon="8.52912918011641"><ele>148.0</ele><time>2026-04-04T06:52:35.999Z</time></trkpt><trkpt lat="44.984130122298176" lon="8.528955265654668"><ele>149.0</ele><time>2026-04-04T06:52:36.999Z</time></trkpt><trkpt lat="44.9840386129765" lon="8.52881666330507"><ele>150.0</ele><time>2026-04-04T06:52:37.999Z</time></trkpt><trkpt lat="44.98395054309793" lon="8.528684060613054"><ele>151.0</ele><time>2026-04-04T06:52:38.999Z</time></trkpt><trkpt lat="44.98387366174592" lon="8.528547244470163"><ele>151.8</ele><time>2026-04-04T06:52:39.999Z</time></trkpt><trkpt lat="44.9838230494832" lon="8.528427633567917"><ele>152.6</ele><time>2026-04-04T06:52:40.999Z</time></trkpt><trkpt lat="44.98379232340125" lon="8.528324743833407"><ele>153.4</ele><time>2026-04-04T06:52:41.999Z</time></trkpt><trkpt lat="44.98380268842066" lon="8.528232028412049"><ele>154.2</ele><time>2026-04-04T06:52:42.999Z</time></trkpt><trkpt lat="44.98386416872567" lon="8.52806673223219"><ele>155.0</ele><time>2026-04-04T06:52:44.999Z</time></trkpt><trkpt lat="44.98391572609697" lon="8.52795804530443"><ele>155.75</ele><time>2026-04-04T06:52:45.999Z</time></trkpt><trkpt lat="44.98399168963337" lon="8.527829887607473"><ele>156.5</ele><time>2026-04-04T06:52:46.999Z</time></trkpt><trkpt lat="44.98408736507939" lon="8.527692155018809"><ele>157.25</ele><time>2026-04-04T06:52:47.999Z</time></trkpt><trkpt lat="44.984190439419955" lon="8.52753978018974"><ele>158.0</ele><time>2026-04-04T06:52:48.999Z</time></trkpt><trkpt lat="44.9842872092347" lon="8.5273591035512"><ele>158.0</ele><time>2026-04-04T06:52:49.999Z</time></trkpt><trkpt lat="44.98438547017147" lon="8.527173071703281"><ele>158.0</ele><time>2026-04-04T06:52:50.999Z</time></trkpt><trkpt lat="44.98445841064363" lon="8.526997662212787"><ele>158.0</ele><time>2026-04-04T06:52:51.999Z</time></trkpt><trkpt lat="44.98452116776824" lon="8.526819628072758"><ele>158.0</ele><time>2026-04-04T06:52:52.999Z</time></trkpt><trkpt lat="44.984582258939845" lon="8.526647398512102"><ele>158.0</ele><time>2026-04-04T06:52:53.999Z</time></trkpt><trkpt lat="44.984666820502106" lon="8.526478080533629"><ele>158.0</ele><time>2026-04-04T06:52:54.999Z</time></trkpt><trkpt lat="44.984739627682366" lon="8.526290552679002"><ele>158.0</ele><time>2026-04-04T06:52:55.999Z</time></trkpt><trkpt lat="44.98481098296024" lon="8.526106245415525"><ele>158.0</ele><time>2026-04-04T06:52:56.999Z</time></trkpt><trkpt lat="44.98488323830696" lon="8.525916775305095"><ele>158.0</ele><time>2026-04-04T06:52:57.999Z</time></trkpt><trkpt lat="44.98496746657882" lon="8.525695909395946"><ele>158.0</ele><time>2026-04-04T06:52:58.999Z</time></trkpt><trkpt lat="44.98507667150296" lon="8.525409548935151"><ele>158.0</ele><time>2026-04-04T06:52:59.999Z</time></trkpt><trkpt lat="44.98516950320197" lon="8.52516854707503"><ele>159.66666666666666</ele><time>2026-04-04T06:53:00.999Z</time></trkpt><trkpt lat="44.9852528104313" lon="8.524957392961777"><ele>161.33333333333334</ele><time>2026-04-04T06:53:01.999Z</time></trkpt><trkpt lat="44.9853297708663" lon="8.524762544986817"><ele>163.0</ele><time>2026-04-04T06:53:02.999Z</time></trkpt><trkpt lat="44.98539803722534" lon="8.524589708653368"><ele>164.0</ele><time>2026-04-04T06:53:03.999Z</time></trkpt><trkpt lat="44.98544863841785" lon="8.524422975526385"><ele>165.0</ele><time>2026-04-04T06:53:04.999Z</time></trkpt><trkpt lat="44.98551082310859" lon="8.524259937700403"><ele>166.0</ele><time>2026-04-04T06:53:05.999Z</time></trkpt><trkpt lat="44.98556928162267" lon="8.524070403905982"><ele>167.0</ele><time>2026-04-04T06:53:06.999Z</time></trkpt><trkpt lat="44.98562297114485" lon="8.523860314615709"><ele>168.33333333333331</ele><time>2026-04-04T06:53:07.999Z</time></trkpt><trkpt lat="44.98567085856288" lon="8.523647460347009"><ele>169.66666666666666</ele><time>2026-04-04T06:53:08.999Z</time></trkpt><trkpt lat="44.985713421860986" lon="8.52341850621109"><ele>171.0</ele><time>2026-04-04T06:53:09.999Z</time></trkpt><trkpt lat="44.98575565635295" lon="8.523188861759966"><ele>171.0</ele><time>2026-04-04T06:53:10.999Z</time></trkpt><trkpt lat="44.985802343679055" lon="8.522956867290626"><ele>171.0</ele><time>2026-04-04T06:53:11.999Z</time></trkpt><trkpt lat="44.98586252621396" lon="8.522744118785036"><ele>171.0</ele><time>2026-04-04T06:53:12.999Z</time></trkpt><trkpt lat="44.98590293139586" lon="8.522551539196954"><ele>170.0</ele><time>2026-04-04T06:53:13.999Z</time></trkpt><trkpt lat="44.985933141958014" lon="8.522363438385307"><ele>169.0</ele><time>2026-04-04T06:53:14.999Z</time></trkpt><trkpt lat="44.98594332092171" lon="8.522168628974523"><ele>168.0</ele><time>2026-04-04T06:53:15.999Z</time></trkpt><trkpt lat="44.985959416620716" lon="8.521989124423166"><ele>167.0</ele><time>2026-04-04T06:53:16.999Z</time></trkpt><trkpt lat="44.985962235597135" lon="8.521813803181706"><ele>167.0</ele><time>2026-04-04T06:53:17.998Z</time></trkpt><trkpt lat="44.985942132739204" lon="8.521630140096127"><ele>167.0</ele><time>2026-04-04T06:53:18.998Z</time></trkpt><trkpt lat="44.985913536032456" lon="8.521431900360398"><ele>167.0</ele><time>2026-04-04T06:53:19.998Z</time></trkpt><trkpt lat="44.98587603598764" lon="8.521251868524379"><ele>167.0</ele><time>2026-04-04T06:53:20.998Z</time></trkpt><trkpt lat="44.98583392663907" lon="8.521105537262889"><ele>168.6</ele><time>2026-04-04T06:53:21.998Z</time></trkpt><trkpt lat="44.98581096601629" lon="8.520970122060612"><ele>170.2</ele><time>2026-04-04T06:53:22.998Z</time></trkpt><trkpt lat="44.985798638470044" lon="8.52085320348827"><ele>171.8</ele><time>2026-04-04T06:53:23.998Z</time></trkpt><trkpt lat="44.9858596120986" lon="8.52069937539464"><ele>173.4</ele><time>2026-04-04T06:53:26Z</time></trkpt><trkpt lat="44.9859457954302" lon="8.520604639197586"><ele>175.0</ele><time>2026-04-04T06:53:27Z</time></trkpt><trkpt lat="44.98605098239148" lon="8.520448943581062"><ele>177.66666666666669</ele><time>2026-04-04T06:53:28Z</time></trkpt><trkpt lat="44.986157109492204" lon="8.520293869953992"><ele>180.33333333333334</ele><time>2026-04-04T06:53:29Z</time></trkpt><trkpt lat="44.98626752500577" lon="8.520134257114401"><ele>183.0</ele><time>2026-04-04T06:53:30Z</time></trkpt><trkpt lat="44.986381597151414" lon="8.519974949005828"><ele>183.0</ele><time>2026-04-04T06:53:31Z</time></trkpt><trkpt lat="44.986475492203596" lon="8.519855650183162"><ele>183.0</ele><time>2026-04-04T06:53:32Z</time></trkpt><trkpt lat="44.98656540366975" lon="8.519742819258546"><ele>183.0</ele><time>2026-04-04T06:53:33Z</time></trkpt><trkpt lat="44.98665592715087" lon="8.519620157550914"><ele>183.0</ele><time>2026-04-04T06:53:34Z</time></trkpt><trkpt lat="44.98672931953983" lon="8.519480922564997"><ele>183.25</ele><time>2026-04-04T06:53:35Z</time></trkpt><trkpt lat="44.98681855051801" lon="8.519361060669556"><ele>183.5</ele><time>2026-04-04T06:53:36Z</time></trkpt><trkpt lat="44.98688328921411" lon="8.519190167174317"><ele>183.75</ele><time>2026-04-04T06:53:37Z</time></trkpt><trkpt lat="44.98697121191285" lon="8.519033093312135"><ele>184.0</ele><time>2026-04-04T06:53:38Z</time></trkpt><trkpt lat="44.98702544493539" lon="8.518860341946034"><ele>186.33333333333334</ele><time>2026-04-04T06:53:39Z</time></trkpt><trkpt lat="44.987044546085066" lon="8.518617710045634"><ele>188.66666666666666</ele><time>2026-04-04T06:53:40Z</time></trkpt><trkpt lat="44.98710424207773" lon="8.518367094628077"><ele>191.0</ele><time>2026-04-04T06:53:41Z</time></trkpt><trkpt lat="44.98715399546403" lon="8.51813483489252"><ele>191.0</ele><time>2026-04-04T06:53:42Z</time></trkpt><trkpt lat="44.98720349697948" lon="8.517918123805961"><ele>191.0</ele><time>2026-04-04T06:53:43Z</time></trkpt><trkpt lat="44.987255072854744" lon="8.517745040515969"><ele>191.0</ele><time>2026-04-04T06:53:44Z</time></trkpt><trkpt lat="44.987318868802795" lon="8.517586287127344"><ele>191.0</ele><time>2026-04-04T06:53:45Z</time></trkpt><trkpt lat="44.98740541552605" lon="8.517420929896124"><ele>191.0</ele><time>2026-04-04T06:53:46Z</time></trkpt><trkpt lat="44.98748633444534" lon="8.517280317479079"><ele>191.0</ele><time>2026-04-04T06:53:47Z</time></trkpt><trkpt lat="44.98756165795176" lon="8.517154010870241"><ele>191.0</ele><time>2026-04-04T06:53:48Z</time></trkpt><trkpt lat="44.98761557668501" lon="8.517030868701836"><ele>191.0</ele><time>2026-04-04T06:53:49Z</time></trkpt><trkpt lat="44.987672249613574" lon="8.516926304875676"><ele>191.0</ele><time>2026-04-04T06:53:50Z</time></trkpt><trkpt lat="44.987710938096605" lon="8.51679467000046"><ele>189.25</ele><time>2026-04-04T06:53:50.999Z</time></trkpt><trkpt lat="44.98774396864831" lon="8.516612588894"><ele>187.5</ele><time>2026-04-04T06:53:51.999Z</time></trkpt><trkpt lat="44.98779248253335" lon="8.516433443102258"><ele>185.75</ele><time>2026-04-04T06:53:52.999Z</time></trkpt><trkpt lat="44.98782149224448" lon="8.516259605282213"><ele>184.0</ele><time>2026-04-04T06:53:53.999Z</time></trkpt><trkpt lat="44.98784795823874" lon="8.516095538959013"><ele>184.0</ele><time>2026-04-04T06:53:54.999Z</time></trkpt><trkpt lat="44.987878140665615" lon="8.515961907729661"><ele>184.0</ele><time>2026-04-04T06:53:55.999Z</time></trkpt><trkpt lat="44.987935808163755" lon="8.51582929530495"><ele>184.0</ele><time>2026-04-04T06:53:56.999Z</time></trkpt><trkpt lat="44.9880362158415" lon="8.515701107089512"><ele>184.0</ele><time>2026-04-04T06:53:57.999Z</time></trkpt><trkpt lat="44.98817032125631" lon="8.515578680931952"><ele>184.0</ele><time>2026-04-04T06:53:58.999Z</time></trkpt><trkpt lat="44.988319095886574" lon="8.515446229796806"><ele>184.0</ele><time>2026-04-04T06:53:59.999Z</time></trkpt><trkpt lat="44.98846868242509" lon="8.515316213632888"><ele>184.0</ele><time>2026-04-04T06:54:00.999Z</time></trkpt><trkpt lat="44.98859520198173" lon="8.515198569622104"><ele>183.75</ele><time>2026-04-04T06:54:01.999Z</time></trkpt><trkpt lat="44.98871915606196" lon="8.515069036695804"><ele>183.5</ele><time>2026-04-04T06:54:02.999Z</time></trkpt><trkpt lat="44.98883236814452" lon="8.514949407241708"><ele>183.25</ele><time>2026-04-04T06:54:03.999Z</time></trkpt><trkpt lat="44.98891999227227" lon="8.514860443840881"><ele>183.0</ele><time>2026-04-04T06:54:04.999Z</time></trkpt><trkpt lat="44.989004202306205" lon="8.51479431716154"><ele>183.0</ele><time>2026-04-04T06:54:05.999Z</time></trkpt><trkpt lat="44.9890959132979" lon="8.514749753089287"><ele>183.0</ele><time>2026-04-04T06:54:06.999Z</time></trkpt><trkpt lat="44.989184994214945" lon="8.514733195920591"><ele>183.0</ele><time>2026-04-04T06:54:07.999Z</time></trkpt><trkpt lat="44.98925865225342" lon="8.514732480668608"><ele>183.0</ele><time>2026-04-04T06:54:08.999Z</time></trkpt><trkpt lat="44.98934386478559" lon="8.51473377415244"><ele>183.0</ele><time>2026-04-04T06:54:09.999Z</time></trkpt><trkpt lat="44.989469540524155" lon="8.514736531348136"><ele>183.5</ele><time>2026-04-04T06:54:10.999Z</time></trkpt><trkpt lat="44.98962684466507" lon="8.514742815171196"><ele>184.0</ele><time>2026-04-04T06:54:11.999Z</time></trkpt><trkpt lat="44.98976541631564" lon="8.514748352587755"><ele>184.5</ele><time>2026-04-04T06:54:12.999Z</time></trkpt><trkpt lat="44.989914596566514" lon="8.514754311849245"><ele>185.0</ele><time>2026-04-04T06:54:13.999Z</time></trkpt><trkpt lat="44.990086278343405" lon="8.514760358520933"><ele>186.5</ele><time>2026-04-04T06:54:14.999Z</time></trkpt><trkpt lat="44.9902238286999" lon="8.514756629528435"><ele>188.0</ele><time>2026-04-04T06:54:15.999Z</time></trkpt><trkpt lat="44.99033469232837" lon="8.51473769582999"><ele>189.5</ele><time>2026-04-04T06:54:16.999Z</time></trkpt><trkpt lat="44.99043833753906" lon="8.514704263055933"><ele>191.0</ele><time>2026-04-04T06:54:17.999Z</time></trkpt><trkpt lat="44.99055662645051" lon="8.514645890679857"><ele>191.0</ele><time>2026-04-04T06:54:18.999Z</time></trkpt><trkpt lat="44.99070057622063" lon="8.514565134380678"><ele>191.0</ele><time>2026-04-04T06:54:19.999Z</time></trkpt><trkpt lat="44.99085135974782" lon="8.514471996816482"><ele>191.0</ele><time>2026-04-04T06:54:20.999Z</time></trkpt><trkpt lat="44.99101719212448" lon="8.514365960546376"><ele>192.66666666666666</ele><time>2026-04-04T06:54:21.999Z</time></trkpt><trkpt lat="44.99116598271208" lon="8.514265995397254"><ele>194.33333333333331</ele><time>2026-04-04T06:54:22.999Z</time></trkpt><trkpt lat="44.99130879385563" lon="8.514163174346677"><ele>196.0</ele><time>2026-04-04T06:54:23.999Z</time></trkpt><trkpt lat="44.991426960022594" lon="8.514066098000978"><ele>196.0</ele><time>2026-04-04T06:54:24.999Z</time></trkpt><trkpt lat="44.991536523176286" lon="8.513965372930839"><ele>196.0</ele><time>2026-04-04T06:54:25.999Z</time></trkpt><trkpt lat="44.99164363660037" lon="8.513872451353063"><ele>196.0</ele><time>2026-04-04T06:54:26.999Z</time></trkpt><trkpt lat="44.991725359259966" lon="8.51383119388937"><ele>196.0</ele><time>2026-04-04T06:54:27.999Z</time></trkpt><trkpt lat="44.99180252319165" lon="8.513846322322411"><ele>196.0</ele><time>2026-04-04T06:54:29.999Z</time></trkpt><trkpt lat="44.991881198441455" lon="8.513957611447873"><ele>196.20000000000002</ele><time>2026-04-04T06:54:31.999Z</time></trkpt><trkpt lat="44.991936089716255" lon="8.51404083032796"><ele>196.4</ele><time>2026-04-04T06:54:32.999Z</time></trkpt><trkpt lat="44.992010031388006" lon="8.51411514426658"><ele>196.6</ele><time>2026-04-04T06:54:33.999Z</time></trkpt><trkpt lat="44.99208790809759" lon="8.514155599002425"><ele>196.8</ele><time>2026-04-04T06:54:34.999Z</time></trkpt><trkpt lat="44.99219694932074" lon="8.51410630590705"><ele>197.0</ele><time>2026-04-04T06:54:35.999Z</time></trkpt><trkpt lat="44.992296434034856" lon="8.514048903676924"><ele>197.0</ele><time>2026-04-04T06:54:36.999Z</time></trkpt><trkpt lat="44.9924067631779" lon="8.513939567912447"><ele>197.0</ele><time>2026-04-04T06:54:37.999Z</time></trkpt><trkpt lat="44.992530106600974" lon="8.513821754527081"><ele>197.0</ele><time>2026-04-04T06:54:38.999Z</time></trkpt><trkpt lat="44.99261692304701" lon="8.51364745630819"><ele>197.0</ele><time>2026-04-04T06:54:39.999Z</time></trkpt><trkpt lat="44.99270814855115" lon="8.513438463927354"><ele>197.0</ele><time>2026-04-04T06:54:40.999Z</time></trkpt><trkpt lat="44.992794845216615" lon="8.513184338947683"><ele>197.0</ele><time>2026-04-04T06:54:41.999Z</time></trkpt><trkpt lat="44.992892862744895" lon="8.512969924263125"><ele>197.0</ele><time>2026-04-04T06:54:42.999Z</time></trkpt><trkpt lat="44.99296044306252" lon="8.512788043636105"><ele>198.25</ele><time>2026-04-04T06:54:43.999Z</time></trkpt><trkpt lat="44.99299981720601" lon="8.512629620979173"><ele>199.5</ele><time>2026-04-04T06:54:44.999Z</time></trkpt><trkpt lat="44.99305514695044" lon="8.512482046371806"><ele>200.75</ele><time>2026-04-04T06:54:45.999Z</time></trkpt><trkpt lat="44.99311446455744" lon="8.512322621717564"><ele>202.0</ele><time>2026-04-04T06:54:46.999Z</time></trkpt><trkpt lat="44.993165941790934" lon="8.512189869738469"><ele>201.99999999999997</ele><time>2026-04-04T06:54:47.999Z</time></trkpt><trkpt lat="44.993211352283716" lon="8.512092799475594"><ele>202.0</ele><time>2026-04-04T06:54:48.999Z</time></trkpt><trkpt lat="44.993259781256626" lon="8.512020732156742"><ele>202.0</ele><time>2026-04-04T06:54:49.999Z</time></trkpt><trkpt lat="44.9932982208724" lon="8.511908371513949"><ele>202.0</ele><time>2026-04-04T06:54:51.999Z</time></trkpt><trkpt lat="44.993362612144075" lon="8.511838361238848"><ele>201.99999999999997</ele><time>2026-04-04T06:54:53.999Z</time></trkpt><trkpt lat="44.99341013588024" lon="8.5117650007773"><ele>202.0</ele><time>2026-04-04T06:54:54.999Z</time></trkpt><trkpt lat="44.993459328997055" lon="8.511694222557635"><ele>204.16666666666666</ele><time>2026-04-04T06:54:55.999Z</time></trkpt><trkpt lat="44.99350908309032" lon="8.511626458264542"><ele>206.33333333333331</ele><time>2026-04-04T06:54:56.999Z</time></trkpt><trkpt lat="44.993562355266526" lon="8.511557034947437"><ele>208.5</ele><time>2026-04-04T06:54:57.999Z</time></trkpt><trkpt lat="44.99364403687137" lon="8.51146769927123"><ele>210.66666666666669</ele><time>2026-04-04T06:54:59.999Z</time></trkpt><trkpt lat="44.99373076543874" lon="8.511358783957526"><ele>212.83333333333334</ele><time>2026-04-04T06:55:01.999Z</time></trkpt><trkpt lat="44.99378926759805" lon="8.51130070016311"><ele>215.0</ele><time>2026-04-04T06:55:02.999Z</time></trkpt><trkpt lat="44.99391093433984" lon="8.511227606415822"><ele>215.6</ele><time>2026-04-04T06:55:04.999Z</time></trkpt><trkpt lat="44.99399421948085" lon="8.511157777906341"><ele>216.2</ele><time>2026-04-04T06:55:05.999Z</time></trkpt><trkpt lat="44.99405961155723" lon="8.51110194587218"><ele>216.8</ele><time>2026-04-04T06:55:06.999Z</time></trkpt><trkpt lat="44.994186495245174" lon="8.510993936802908"><ele>217.4</ele><time>2026-04-04T06:55:08.999Z</time></trkpt><trkpt lat="44.99427579007941" lon="8.510918336681653"><ele>218.0</ele><time>2026-04-04T06:55:09.999Z</time></trkpt><trkpt lat="44.99434279351106" lon="8.510861609229554"><ele>220.2</ele><time>2026-04-04T06:55:10.999Z</time></trkpt><trkpt lat="44.99440697303164" lon="8.510807272618388"><ele>222.4</ele><time>2026-04-04T06:55:11.999Z</time></trkpt><trkpt lat="44.994511773958465" lon="8.510719770701314"><ele>224.59999999999997</ele><time>2026-04-04T06:55:12.999Z</time></trkpt><trkpt lat="44.99458445992773" lon="8.510662678020939"><ele>226.79999999999998</ele><time>2026-04-04T06:55:13.999Z</time></trkpt><trkpt lat="44.99471030523732" lon="8.510576595707642"><ele>229.0</ele><time>2026-04-04T06:55:15.999Z</time></trkpt><trkpt lat="44.99479523295727" lon="8.51052883743469"><ele>229.0</ele><time>2026-04-04T06:55:16.999Z</time></trkpt><trkpt lat="44.994926593377464" lon="8.510471213587214"><ele>229.0</ele><time>2026-04-04T06:55:17.999Z</time></trkpt><trkpt lat="44.995053108375096" lon="8.510402884778358"><ele>229.0</ele><time>2026-04-04T06:55:18.999Z</time></trkpt><trkpt lat="44.99517339172197" lon="8.510320522534135"><ele>229.0</ele><time>2026-04-04T06:55:19.999Z</time></trkpt><trkpt lat="44.99529390300095" lon="8.510219312300155"><ele>230.2</ele><time>2026-04-04T06:55:20.999Z</time></trkpt><trkpt lat="44.99539419261212" lon="8.510114637252094"><ele>231.39999999999998</ele><time>2026-04-04T06:55:21.999Z</time></trkpt><trkpt lat="44.99549145550926" lon="8.510010156505015"><ele>232.6</ele><time>2026-04-04T06:55:22.999Z</time></trkpt><trkpt lat="44.99557141705833" lon="8.509924260956689"><ele>233.8</ele><time>2026-04-04T06:55:23.999Z</time></trkpt><trkpt lat="44.99564074667303" lon="8.5098494123127"><ele>235.0</ele><time>2026-04-04T06:55:24.999Z</time></trkpt><trkpt lat="44.99571999046921" lon="8.509759926218164"><ele>235.0</ele><time>2026-04-04T06:55:25.999Z</time></trkpt><trkpt lat="44.995806083563174" lon="8.509659533416556"><ele>235.0</ele><time>2026-04-04T06:55:26.999Z</time></trkpt><trkpt lat="44.99587421330194" lon="8.509553493164072"><ele>235.0</ele><time>2026-04-04T06:55:27.999Z</time></trkpt><trkpt lat="44.9959262685611" lon="8.509415705289944"><ele>235.0</ele><time>2026-04-04T06:55:28.998Z</time></trkpt><trkpt lat="44.99599201270052" lon="8.50929192857925"><ele>235.0</ele><time>2026-04-04T06:55:29.998Z</time></trkpt><trkpt lat="44.996036235354396" lon="8.509160891203402"><ele>235.0</ele><time>2026-04-04T06:55:30.998Z</time></trkpt><trkpt lat="44.9960846957432" lon="8.509025046982801"><ele>235.0</ele><time>2026-04-04T06:55:32Z</time></trkpt><trkpt lat="44.996134904577616" lon="8.508884302117556"><ele>235.0</ele><time>2026-04-04T06:55:33Z</time></trkpt><trkpt lat="44.99617773331018" lon="8.508761074975542"><ele>235.0</ele><time>2026-04-04T06:55:34Z</time></trkpt><trkpt lat="44.9962139942752" lon="8.50865229199488"><ele>235.0</ele><time>2026-04-04T06:55:35Z</time></trkpt><trkpt lat="44.996246095873175" lon="8.508557499621004"><ele>235.0</ele><time>2026-04-04T06:55:36Z</time></trkpt><trkpt lat="44.99627727361654" lon="8.508469257961677"><ele>235.0</ele><time>2026-04-04T06:55:37Z</time></trkpt><trkpt lat="44.996328990454664" lon="8.508346353063994"><ele>235.0</ele><time>2026-04-04T06:55:39Z</time></trkpt><trkpt lat="44.99639414798722" lon="8.508221714707682"><ele>235.0</ele><time>2026-04-04T06:55:44Z</time></trkpt><trkpt lat="44.996388146615736" lon="8.50810537437694"><ele>235.0</ele><time>2026-04-04T06:55:45Z</time></trkpt><trkpt lat="44.996397856532056" lon="8.507972807716506"><ele>236.0</ele><time>2026-04-04T06:55:46Z</time></trkpt><trkpt lat="44.99641763166391" lon="8.507822742613124"><ele>237.0</ele><time>2026-04-04T06:55:47Z</time></trkpt><trkpt lat="44.99645558450505" lon="8.507672521637753"><ele>238.0</ele><time>2026-04-04T06:55:48Z</time></trkpt><trkpt lat="44.99651903755064" lon="8.507534315425211"><ele>239.0</ele><time>2026-04-04T06:55:49Z</time></trkpt><trkpt lat="44.996563272209464" lon="8.507413816531203"><ele>240.0</ele><time>2026-04-04T06:55:50Z</time></trkpt><trkpt lat="44.996596220773235" lon="8.507327637195253"><ele>240.0</ele><time>2026-04-04T06:55:51Z</time></trkpt><trkpt lat="44.99665153033889" lon="8.507186624856363"><ele>240.0</ele><time>2026-04-04T06:55:53Z</time></trkpt><trkpt lat="44.996686922584765" lon="8.507098402376883"><ele>240.0</ele><time>2026-04-04T06:55:54Z</time></trkpt><trkpt lat="44.996733460673696" lon="8.506981625229516"><ele>240.0</ele><time>2026-04-04T06:55:55Z</time></trkpt><trkpt lat="44.99678377708569" lon="8.506855367124363"><ele>240.0</ele><time>2026-04-04T06:55:56Z</time></trkpt><trkpt lat="44.99683871293636" lon="8.506717517840798"><ele>239.4</ele><time>2026-04-04T06:55:57Z</time></trkpt><trkpt lat="44.9968838624495" lon="8.506559119024159"><ele>238.8</ele><time>2026-04-04T06:55:58Z</time></trkpt><trkpt lat="44.99693784358448" lon="8.506421943336202"><ele>238.2</ele><time>2026-04-04T06:55:59Z</time></trkpt><trkpt lat="44.996987627807314" lon="8.506329107093043"><ele>237.6</ele><time>2026-04-04T06:56:00Z</time></trkpt><trkpt lat="44.99704539513555" lon="8.506217316084486"><ele>237.0</ele><time>2026-04-04T06:56:02Z</time></trkpt><trkpt lat="44.99714209447845" lon="8.506273303407902"><ele>236.83333333333334</ele><time>2026-04-04T06:56:04Z</time></trkpt><trkpt lat="44.997246219530815" lon="8.50633167929768"><ele>236.66666666666669</ele><time>2026-04-04T06:56:05.999Z</time></trkpt><trkpt lat="44.9973135137735" lon="8.50636914719566"><ele>236.5</ele><time>2026-04-04T06:56:07.999Z</time></trkpt><trkpt lat="44.99737264270739" lon="8.506401445712571"><ele>236.33333333333334</ele><time>2026-04-04T06:56:09.999Z</time></trkpt><trkpt lat="44.9974523448976" lon="8.506444828843577"><ele>236.16666666666669</ele><time>2026-04-04T06:56:11.999Z</time></trkpt><trkpt lat="44.99752366787364" lon="8.506482978798205"><ele>236.0</ele><time>2026-04-04T06:56:12.999Z</time></trkpt><trkpt lat="44.997590172671195" lon="8.506518551536407"><ele>234.16666666666669</ele><time>2026-04-04T06:56:13.999Z</time></trkpt><trkpt lat="44.99767454304269" lon="8.5065636803744"><ele>232.33333333333334</ele><time>2026-04-04T06:56:14.999Z</time></trkpt><trkpt lat="44.99774912068049" lon="8.50660357121542"><ele>230.5</ele><time>2026-04-04T06:56:15.999Z</time></trkpt><trkpt lat="44.9978279871455" lon="8.506645818474043"><ele>228.66666666666669</ele><time>2026-04-04T06:56:16.999Z</time></trkpt><trkpt lat="44.99791508185065" lon="8.50669308951595"><ele>226.83333333333334</ele><time>2026-04-04T06:56:17.999Z</time></trkpt><trkpt lat="44.99799768630218" lon="8.506737923461568"><ele>225.0</ele><time>2026-04-04T06:56:18.999Z</time></trkpt><trkpt lat="44.99807562823748" lon="8.506780226796312"><ele>225.0</ele><time>2026-04-04T06:56:19.999Z</time></trkpt><trkpt lat="44.998143559898" lon="8.506817707294204"><ele>225.0</ele><time>2026-04-04T06:56:20.999Z</time></trkpt><trkpt lat="44.99821508120244" lon="8.506859870446473"><ele>225.0</ele><time>2026-04-04T06:56:21.999Z</time></trkpt><trkpt lat="44.998291347607115" lon="8.506909661475195"><ele>225.0</ele><time>2026-04-04T06:56:22.999Z</time></trkpt><trkpt lat="44.99836348030574" lon="8.506975074627222"><ele>225.0</ele><time>2026-04-04T06:56:23.999Z</time></trkpt><trkpt lat="44.99843520615287" lon="8.507034270861475"><ele>225.0</ele><time>2026-04-04T06:56:24.999Z</time></trkpt><trkpt lat="44.99850272200077" lon="8.507075349712625"><ele>225.75</ele><time>2026-04-04T06:56:25.999Z</time></trkpt><trkpt lat="44.99860166803714" lon="8.507225659903733"><ele>226.5</ele><time>2026-04-04T06:56:26.999Z</time></trkpt><trkpt lat="44.99870849832252" lon="8.507308039507937"><ele>227.25</ele><time>2026-04-04T06:56:27.999Z</time></trkpt><trkpt lat="44.99883818134927" lon="8.507399268715066"><ele>228.0</ele><time>2026-04-04T06:56:28.999Z</time></trkpt><trkpt lat="44.99898094176794" lon="8.507472846280672"><ele>228.0</ele><time>2026-04-04T06:56:29.999Z</time></trkpt><trkpt lat="44.999120023407684" lon="8.50749190066228"><ele>228.0</ele><time>2026-04-04T06:56:30.999Z</time></trkpt><trkpt lat="44.999256907980715" lon="8.507501420246713"><ele>228.0</ele><time>2026-04-04T06:56:31.999Z</time></trkpt><trkpt lat="44.99938103944676" lon="8.507483080909877"><ele>228.0</ele><time>2026-04-04T06:56:32.999Z</time></trkpt><trkpt lat="44.99951669902221" lon="8.50746548593767"><ele>226.75</ele><time>2026-04-04T06:56:33.999Z</time></trkpt><trkpt lat="44.99964817921702" lon="8.507426838953162"><ele>225.5</ele><time>2026-04-04T06:56:34.999Z</time></trkpt><trkpt lat="44.999764050640806" lon="8.507398703101533"><ele>224.25</ele><time>2026-04-04T06:56:35.999Z</time></trkpt><trkpt lat="44.99987322162821" lon="8.507375820207667"><ele>223.0</ele><time>2026-04-04T06:56:36.999Z</time></trkpt><trkpt lat="44.99998801465927" lon="8.507367362320482"><ele>223.0</ele><time>2026-04-04T06:56:37.999Z</time></trkpt><trkpt lat="45.00011732742206" lon="8.507394852460363"><ele>223.0</ele><time>2026-04-04T06:56:38.999Z</time></trkpt><trkpt lat="45.000262771729275" lon="8.50745674290243"><ele>223.0</ele><time>2026-04-04T06:56:39.999Z</time></trkpt><trkpt lat="45.00041332661944" lon="8.507514766752369"><ele>223.0</ele><time>2026-04-04T06:56:40.999Z</time></trkpt><trkpt lat="45.000549169894796" lon="8.507559556028795"><ele>223.0</ele><time>2026-04-04T06:56:41.999Z</time></trkpt><trkpt lat="45.00069231056637" lon="8.507588332801305"><ele>223.0</ele><time>2026-04-04T06:56:42.999Z</time></trkpt><trkpt lat="45.00083506604215" lon="8.507586765318516"><ele>223.0</ele><time>2026-04-04T06:56:43.999Z</time></trkpt><trkpt lat="45.00095931311821" lon="8.507583717006261"><ele>223.0</ele><time>2026-04-04T06:56:44.999Z</time></trkpt><trkpt lat="45.00107738362875" lon="8.507588894535226"><ele>221.0</ele><time>2026-04-04T06:56:45.999Z</time></trkpt><trkpt lat="45.00119736060324" lon="8.507616321169763"><ele>219.0</ele><time>2026-04-04T06:56:46.999Z</time></trkpt><trkpt lat="45.00131392921028" lon="8.507663865817308"><ele>217.0</ele><time>2026-04-04T06:56:47.999Z</time></trkpt><trkpt lat="45.0014157927629" lon="8.50773078363024"><ele>215.0</ele><time>2026-04-04T06:56:48.999Z</time></trkpt><trkpt lat="45.0015085732454" lon="8.507806408427859"><ele>215.0</ele><time>2026-04-04T06:56:49.999Z</time></trkpt><trkpt lat="45.001590197572824" lon="8.507895314079795"><ele>215.0</ele><time>2026-04-04T06:56:50.999Z</time></trkpt><trkpt lat="45.00166025836335" lon="8.507989526370789"><ele>215.0</ele><time>2026-04-04T06:56:51.999Z</time></trkpt><trkpt lat="45.00172862417034" lon="8.508093495539878"><ele>215.0</ele><time>2026-04-04T06:56:52.999Z</time></trkpt><trkpt lat="45.0017872327778" lon="8.508190167981297"><ele>215.0</ele><time>2026-04-04T06:56:53.999Z</time></trkpt><trkpt lat="45.00184728452516" lon="8.50829434011371"><ele>214.6</ele><time>2026-04-04T06:56:54.999Z</time></trkpt><trkpt lat="45.00189877922516" lon="8.508383761639498"><ele>214.2</ele><time>2026-04-04T06:56:55.999Z</time></trkpt><trkpt lat="45.0019661104127" lon="8.508495572939262"><ele>213.8</ele><time>2026-04-04T06:56:56.999Z</time></trkpt><trkpt lat="45.00205240750008" lon="8.508626151141966"><ele>213.4</ele><time>2026-04-04T06:56:57.999Z</time></trkpt><trkpt lat="45.002155737808415" lon="8.508723382584645"><ele>213.0</ele><time>2026-04-04T06:56:58.999Z</time></trkpt><trkpt lat="45.002257287669515" lon="8.508822281697697"><ele>212.75</ele><time>2026-04-04T06:56:59.999Z</time></trkpt><trkpt lat="45.00236715867472" lon="8.50891289895164"><ele>212.5</ele><time>2026-04-04T06:57:00.999Z</time></trkpt><trkpt lat="45.002501562166" lon="8.508938438862206"><ele>212.25</ele><time>2026-04-04T06:57:01.999Z</time></trkpt><trkpt lat="45.0026461346447" lon="8.508988783592375"><ele>212.0</ele><time>2026-04-04T06:57:02.999Z</time></trkpt><trkpt lat="45.0027932778201" lon="8.509021962420043"><ele>212.39999999999998</ele><time>2026-04-04T06:57:03.999Z</time></trkpt><trkpt lat="45.002900642602185" lon="8.50905635197945"><ele>212.79999999999998</ele><time>2026-04-04T06:57:04.999Z</time></trkpt><trkpt lat="45.00299698025982" lon="8.509096205416855"><ele>213.2</ele><time>2026-04-04T06:57:05.999Z</time></trkpt><trkpt lat="45.0030777874302" lon="8.509142030945656"><ele>213.6</ele><time>2026-04-04T06:57:06.999Z</time></trkpt><trkpt lat="45.00317134422951" lon="8.509208217564247"><ele>214.0</ele><time>2026-04-04T06:57:07.999Z</time></trkpt><trkpt lat="45.00323479457226" lon="8.509256852397948"><ele>214.0</ele><time>2026-04-04T06:57:08.999Z</time></trkpt><trkpt lat="45.00330888247407" lon="8.509319776614879"><ele>213.99999999999997</ele><time>2026-04-04T06:57:10.999Z</time></trkpt><trkpt lat="45.00338959183735" lon="8.50918145016528"><ele>213.99999999999997</ele><time>2026-04-04T06:57:13.999Z</time></trkpt><trkpt lat="45.00340493571658" lon="8.508973344525314"><ele>214.0</ele><time>2026-04-04T06:57:15.999Z</time></trkpt><trkpt lat="45.00342456587947" lon="8.508856627591632"><ele>214.0</ele><time>2026-04-04T06:57:16.999Z</time></trkpt><trkpt lat="45.003449343478366" lon="8.50872811469675"><ele>212.6</ele><time>2026-04-04T06:57:17.999Z</time></trkpt><trkpt lat="45.003483012730975" lon="8.508618431681876"><ele>211.2</ele><time>2026-04-04T06:57:18.999Z</time></trkpt><trkpt lat="45.00350089074642" lon="8.508509944676959"><ele>209.79999999999998</ele><time>2026-04-04T06:57:19.999Z</time></trkpt><trkpt lat="45.003516417165805" lon="8.508415727513531"><ele>208.39999999999998</ele><time>2026-04-04T06:57:20.999Z</time></trkpt><trkpt lat="45.003542597553114" lon="8.50825198895363"><ele>207.0</ele><time>2026-04-04T06:57:22.999Z</time></trkpt><trkpt lat="45.00356913352348" lon="8.50807330571205"><ele>207.00000000000003</ele><time>2026-04-04T06:57:24.999Z</time></trkpt><trkpt lat="45.00358026631238" lon="8.507976915224743"><ele>207.0</ele><time>2026-04-04T06:57:25.999Z</time></trkpt><trkpt lat="45.0035887944692" lon="8.507880940192507"><ele>207.0</ele><time>2026-04-04T06:57:26.999Z</time></trkpt><trkpt lat="45.00359607677709" lon="8.507783265608369"><ele>207.0</ele><time>2026-04-04T06:57:27.999Z</time></trkpt><trkpt lat="45.00360230731648" lon="8.50767624577858"><ele>207.0</ele><time>2026-04-04T06:57:28.999Z</time></trkpt><trkpt lat="45.00360701968617" lon="8.507573813718741"><ele>207.00000000000003</ele><time>2026-04-04T06:57:29.999Z</time></trkpt><trkpt lat="45.003611437646" lon="8.507449276996287"><ele>207.0</ele><time>2026-04-04T06:57:30.999Z</time></trkpt><trkpt lat="45.00361454695632" lon="8.50734497385215"><ele>205.33333333333334</ele><time>2026-04-04T06:57:31.999Z</time></trkpt><trkpt lat="45.00361684611259" lon="8.50724228107038"><ele>203.66666666666669</ele><time>2026-04-04T06:57:32.999Z</time></trkpt><trkpt lat="45.00361890285632" lon="8.507129782905974"><ele>202.0</ele><time>2026-04-04T06:57:33.999Z</time></trkpt><trkpt lat="45.00362089599146" lon="8.507020763738627"><ele>200.33333333333334</ele><time>2026-04-04T06:57:34.999Z</time></trkpt><trkpt lat="45.00360697290832" lon="8.506915230003083"><ele>198.66666666666669</ele><time>2026-04-04T06:57:35.999Z</time></trkpt><trkpt lat="45.003622357619555" lon="8.50680587135765"><ele>197.0</ele><time>2026-04-04T06:57:36.999Z</time></trkpt><trkpt lat="45.0036177028044" lon="8.5066938118844"><ele>195.42857142857144</ele><time>2026-04-04T06:57:38Z</time></trkpt><trkpt lat="45.00360954791105" lon="8.506596044809521"><ele>193.85714285714286</ele><time>2026-04-04T06:57:39Z</time></trkpt><trkpt lat="45.00360144820145" lon="8.506498848160678"><ele>192.28571428571428</ele><time>2026-04-04T06:57:40Z</time></trkpt><trkpt lat="45.003595393506394" lon="8.506396678480998"><ele>190.71428571428572</ele><time>2026-04-04T06:57:41Z</time></trkpt><trkpt lat="45.00359472806885" lon="8.506289935449843"><ele>189.14285714285714</ele><time>2026-04-04T06:57:42Z</time></trkpt><trkpt lat="45.00360170929927" lon="8.506187795605758"><ele>187.57142857142858</ele><time>2026-04-04T06:57:43Z</time></trkpt><trkpt lat="45.00361470886059" lon="8.506097129643269"><ele>186.0</ele><time>2026-04-04T06:57:44Z</time></trkpt><trkpt lat="45.00363424968958" lon="8.50599357574898"><ele>184.60000000000002</ele><time>2026-04-04T06:57:45Z</time></trkpt><trkpt lat="45.003677878338394" lon="8.505828970248848"><ele>183.2</ele><time>2026-04-04T06:57:47Z</time></trkpt><trkpt lat="45.00371569111799" lon="8.505698085221859"><ele>181.8</ele><time>2026-04-04T06:57:49Z</time></trkpt><trkpt lat="45.0037520684028" lon="8.505577671598372"><ele>180.39999999999998</ele><time>2026-04-04T06:57:51Z</time></trkpt><trkpt lat="45.00377799061459" lon="8.505492346205678"><ele>179.0</ele><time>2026-04-04T06:57:53Z</time></trkpt><trkpt lat="45.003809129347104" lon="8.505383992121056"><ele>178.33333333333331</ele><time>2026-04-04T06:57:56Z</time></trkpt><trkpt lat="45.0038340829862" lon="8.50529469552169"><ele>177.66666666666666</ele><time>2026-04-04T06:57:59Z</time></trkpt><trkpt lat="45.003864418484234" lon="8.505182933311852"><ele>177.0</ele><time>2026-04-04T06:58:01Z</time></trkpt><trkpt lat="45.003884680780864" lon="8.505096553285764"><ele>176.33333333333334</ele><time>2026-04-04T06:58:02Z</time></trkpt><trkpt lat="45.00390397097799" lon="8.505000155448174"><ele>175.66666666666669</ele><time>2026-04-04T06:58:03Z</time></trkpt><trkpt lat="45.003905510633544" lon="8.504860549946617"><ele>175.0</ele><time>2026-04-04T06:58:04Z</time></trkpt><trkpt lat="45.003902411215655" lon="8.504724801710898"><ele>175.0</ele><time>2026-04-04T06:58:05Z</time></trkpt><trkpt lat="45.00389812856205" lon="8.50458047647928"><ele>175.0</ele><time>2026-04-04T06:58:06Z</time></trkpt><trkpt lat="45.00385305070622" lon="8.50441187839792"><ele>175.0</ele><time>2026-04-04T06:58:07Z</time></trkpt><trkpt lat="45.00380190534761" lon="8.50422901779316"><ele>175.0</ele><time>2026-04-04T06:58:08Z</time></trkpt><trkpt lat="45.00375232050847" lon="8.50403208341669"><ele>175.33333333333334</ele><time>2026-04-04T06:58:09Z</time></trkpt><trkpt lat="45.0036909555715" lon="8.503775375531232"><ele>175.66666666666666</ele><time>2026-04-04T06:58:10Z</time></trkpt><trkpt lat="45.003642592917124" lon="8.503502132119419"><ele>176.0</ele><time>2026-04-04T06:58:11Z</time></trkpt><trkpt lat="45.00361847697674" lon="8.503287341349225"><ele>177.5</ele><time>2026-04-04T06:58:12Z</time></trkpt><trkpt lat="45.003606786755675" lon="8.503078176600622"><ele>179.0</ele><time>2026-04-04T06:58:13Z</time></trkpt><trkpt lat="45.00359425280315" lon="8.502872164793345"><ele>180.5</ele><time>2026-04-04T06:58:14Z</time></trkpt><trkpt lat="45.003576637607786" lon="8.502668933430858"><ele>182.0</ele><time>2026-04-04T06:58:15Z</time></trkpt><trkpt lat="45.00355007819597" lon="8.502517283530409"><ele>183.5</ele><time>2026-04-04T06:58:16Z</time></trkpt><trkpt lat="45.003546298650704" lon="8.502292717521842"><ele>185.0</ele><time>2026-04-04T06:58:17Z</time></trkpt><trkpt lat="45.00354662164925" lon="8.502109730210684"><ele>186.5</ele><time>2026-04-04T06:58:17.999Z</time></trkpt><trkpt lat="45.00355870540234" lon="8.501920630267948"><ele>188.0</ele><time>2026-04-04T06:58:18.999Z</time></trkpt><trkpt lat="45.00357959219123" lon="8.501704196840715"><ele>188.5</ele><time>2026-04-04T06:58:19.999Z</time></trkpt><trkpt lat="45.00360211166416" lon="8.501490814499006"><ele>189.0</ele><time>2026-04-04T06:58:20.999Z</time></trkpt><trkpt lat="45.00362073779497" lon="8.501281052113228"><ele>189.5</ele><time>2026-04-04T06:58:21.999Z</time></trkpt><trkpt lat="45.003649708376756" lon="8.50109170856631"><ele>190.0</ele><time>2026-04-04T06:58:22.999Z</time></trkpt><trkpt lat="45.0036799582285" lon="8.500937042979485"><ele>191.25</ele><time>2026-04-04T06:58:23.999Z</time></trkpt><trkpt lat="45.00371594934228" lon="8.500780475515723"><ele>192.5</ele><time>2026-04-04T06:58:24.999Z</time></trkpt><trkpt lat="45.003754462763496" lon="8.500631041077169"><ele>193.75</ele><time>2026-04-04T06:58:25.999Z</time></trkpt><trkpt lat="45.00380111537069" lon="8.500469355557177"><ele>195.0</ele><time>2026-04-04T06:58:26.999Z</time></trkpt><trkpt lat="45.00385094931367" lon="8.50031210230836"><ele>195.8</ele><time>2026-04-04T06:58:27.999Z</time></trkpt><trkpt lat="45.00390090255372" lon="8.50016741648958"><ele>196.6</ele><time>2026-04-04T06:58:28.999Z</time></trkpt><trkpt lat="45.00394401657701" lon="8.500047639896824"><ele>197.39999999999998</ele><time>2026-04-04T06:58:29.999Z</time></trkpt><trkpt lat="45.00398674137475" lon="8.499898118792863"><ele>198.2</ele><time>2026-04-04T06:58:30.999Z</time></trkpt><trkpt lat="45.0040597918676" lon="8.499775196724546"><ele>199.0</ele><time>2026-04-04T06:58:31.999Z</time></trkpt><trkpt lat="45.00413111501148" lon="8.499627170168736"><ele>199.75</ele><time>2026-04-04T06:58:32.999Z</time></trkpt><trkpt lat="45.00419638017016" lon="8.499501476142406"><ele>200.5</ele><time>2026-04-04T06:58:33.999Z</time></trkpt><trkpt lat="45.0042691936366" lon="8.49935524616628"><ele>201.25</ele><time>2026-04-04T06:58:34.999Z</time></trkpt><trkpt lat="45.004306793068075" lon="8.49920168265965"><ele>202.0</ele><time>2026-04-04T06:58:35.999Z</time></trkpt><trkpt lat="45.00436748923624" lon="8.499047343240859"><ele>202.0</ele><time>2026-04-04T06:58:36.999Z</time></trkpt><trkpt lat="45.00438664981037" lon="8.498878575596567"><ele>202.0</ele><time>2026-04-04T06:58:37.999Z</time></trkpt><trkpt lat="45.00439408623591" lon="8.498702374726896"><ele>202.0</ele><time>2026-04-04T06:58:38.999Z</time></trkpt><trkpt lat="45.00439943876574" lon="8.498520219529311"><ele>202.0</ele><time>2026-04-04T06:58:39.999Z</time></trkpt><trkpt lat="45.0044049201866" lon="8.498304781160858"><ele>204.33333333333331</ele><time>2026-04-04T06:58:40.999Z</time></trkpt><trkpt lat="45.00441006965413" lon="8.498081302309261"><ele>206.66666666666669</ele><time>2026-04-04T06:58:41.999Z</time></trkpt><trkpt lat="45.00441612807512" lon="8.497846432407272"><ele>209.0</ele><time>2026-04-04T06:58:42.999Z</time></trkpt><trkpt lat="45.00442369552178" lon="8.497624453658592"><ele>210.66666666666669</ele><time>2026-04-04T06:58:43.999Z</time></trkpt><trkpt lat="45.00443490200106" lon="8.497392362943776"><ele>212.33333333333331</ele><time>2026-04-04T06:58:44.999Z</time></trkpt><trkpt lat="45.00444910230605" lon="8.497175780264657"><ele>214.0</ele><time>2026-04-04T06:58:45.999Z</time></trkpt><trkpt lat="45.004462822436935" lon="8.496985276047258"><ele>215.75</ele><time>2026-04-04T06:58:46.999Z</time></trkpt><trkpt lat="45.00446043679797" lon="8.496805362584551"><ele>217.5</ele><time>2026-04-04T06:58:47.999Z</time></trkpt><trkpt lat="45.00448994041795" lon="8.49661604328572"><ele>219.25</ele><time>2026-04-04T06:58:48.999Z</time></trkpt><trkpt lat="45.004544410335654" lon="8.49644692909992"><ele>221.0</ele><time>2026-04-04T06:58:49.999Z</time></trkpt><trkpt lat="45.00459738245002" lon="8.496286928857607"><ele>223.0</ele><time>2026-04-04T06:58:50.999Z</time></trkpt><trkpt lat="45.004635061694806" lon="8.496114409532833"><ele>225.0</ele><time>2026-04-04T06:58:51.999Z</time></trkpt><trkpt lat="45.00469042235366" lon="8.495939783837478"><ele>227.0</ele><time>2026-04-04T06:58:52.999Z</time></trkpt><trkpt lat="45.004725643547225" lon="8.495766798142785"><ele>229.0</ele><time>2026-04-04T06:58:53.999Z</time></trkpt><trkpt lat="45.00474483691958" lon="8.495603549036579"><ele>229.0</ele><time>2026-04-04T06:58:54.999Z</time></trkpt><trkpt lat="45.00474710688067" lon="8.495475097980682"><ele>228.99999999999997</ele><time>2026-04-04T06:58:55.999Z</time></trkpt><trkpt lat="45.004732309692386" lon="8.495335248062961"><ele>228.99999999999997</ele><time>2026-04-04T06:58:56.999Z</time></trkpt><trkpt lat="45.004719110323514" lon="8.495231437098536"><ele>229.0</ele><time>2026-04-04T06:58:57.999Z</time></trkpt><trkpt lat="45.004669316775484" lon="8.495108856791616"><ele>229.0</ele><time>2026-04-04T06:58:58.999Z</time></trkpt><trkpt lat="45.004592095389604" lon="8.49500157206474"><ele>231.0</ele><time>2026-04-04T06:58:59.999Z</time></trkpt><trkpt lat="45.004490489944914" lon="8.494909859359085"><ele>233.0</ele><time>2026-04-04T06:59:00.999Z</time></trkpt><trkpt lat="45.004355523921056" lon="8.494803512822582"><ele>235.0</ele><time>2026-04-04T06:59:01.999Z</time></trkpt><trkpt lat="45.00421825982376" lon="8.494690803355004"><ele>237.0</ele><time>2026-04-04T06:59:02.999Z</time></trkpt><trkpt lat="45.00414329532948" lon="8.494596593381443"><ele>240.75</ele><time>2026-04-04T06:59:03.999Z</time></trkpt><trkpt lat="45.00411184025642" lon="8.494450407730879"><ele>244.5</ele><time>2026-04-04T06:59:04.999Z</time></trkpt><trkpt lat="45.004079432444485" lon="8.494267720207159"><ele>248.25</ele><time>2026-04-04T06:59:05.999Z</time></trkpt><trkpt lat="45.004045320711654" lon="8.494040534328397"><ele>252.0</ele><time>2026-04-04T06:59:06.999Z</time></trkpt><trkpt lat="45.003990741426485" lon="8.493879653793527"><ele>252.0</ele><time>2026-04-04T06:59:07.999Z</time></trkpt><trkpt lat="45.00394738574851" lon="8.493779905367068"><ele>252.0</ele><time>2026-04-04T06:59:08.999Z</time></trkpt><trkpt lat="45.003868633346016" lon="8.493717577846159"><ele>252.0</ele><time>2026-04-04T06:59:09.999Z</time></trkpt><trkpt lat="45.00376149972444" lon="8.49368156467646"><ele>252.0</ele><time>2026-04-04T06:59:10.999Z</time></trkpt><trkpt lat="45.003649302407474" lon="8.493658659925153"><ele>252.0</ele><time>2026-04-04T06:59:11.999Z</time></trkpt><trkpt lat="45.00357035796022" lon="8.493605682827075"><ele>253.5</ele><time>2026-04-04T06:59:12.999Z</time></trkpt><trkpt lat="45.00352062278084" lon="8.493484862223054"><ele>255.0</ele><time>2026-04-04T06:59:13.999Z</time></trkpt><trkpt lat="45.00348107845936" lon="8.493375629388783"><ele>256.5</ele><time>2026-04-04T06:59:14.999Z</time></trkpt><trkpt lat="45.00346233806453" lon="8.493282472627273"><ele>258.0</ele><time>2026-04-04T06:59:15.999Z</time></trkpt><trkpt lat="45.003469508753426" lon="8.49318171150593"><ele>259.5</ele><time>2026-04-04T06:59:16.999Z</time></trkpt><trkpt lat="45.00350681157488" lon="8.493058766170593"><ele>261.0</ele><time>2026-04-04T06:59:17.999Z</time></trkpt><trkpt lat="45.003556689151125" lon="8.49293615893239"><ele>261.1666666666667</ele><time>2026-04-04T06:59:18.999Z</time></trkpt><trkpt lat="45.003605285542235" lon="8.492838897061677"><ele>261.3333333333333</ele><time>2026-04-04T06:59:19.999Z</time></trkpt><trkpt lat="45.00365676637465" lon="8.492774323635448"><ele>261.5</ele><time>2026-04-04T06:59:21.999Z</time></trkpt><trkpt lat="45.003705623644265" lon="8.492704798262315"><ele>261.66666666666663</ele><time>2026-04-04T06:59:24.999Z</time></trkpt><trkpt lat="45.00368680854251" lon="8.492585085411466"><ele>261.8333333333333</ele><time>2026-04-04T06:59:26.999Z</time></trkpt><trkpt lat="45.003725358016425" lon="8.492405396462372"><ele>262.0</ele><time>2026-04-04T06:59:28.999Z</time></trkpt><trkpt lat="45.00373260399141" lon="8.492270279258465"><ele>262.0</ele><time>2026-04-04T06:59:29.999Z</time></trkpt><trkpt lat="45.00376353425264" lon="8.492155648360889"><ele>262.0</ele><time>2026-04-04T06:59:30.999Z</time></trkpt><trkpt lat="45.0037719420467" lon="8.492019290093422"><ele>262.0</ele><time>2026-04-04T06:59:31.999Z</time></trkpt><trkpt lat="45.00379574812507" lon="8.49184820787451"><ele>262.0</ele><time>2026-04-04T06:59:32.999Z</time></trkpt><trkpt lat="45.003811934019375" lon="8.491669432677371"><ele>262.0</ele><time>2026-04-04T06:59:33.999Z</time></trkpt><trkpt lat="45.0038107418371" lon="8.49147991783965"><ele>260.75</ele><time>2026-04-04T06:59:34.999Z</time></trkpt><trkpt lat="45.00379758664202" lon="8.491303981792965"><ele>259.5</ele><time>2026-04-04T06:59:35.999Z</time></trkpt><trkpt lat="45.003767325226036" lon="8.491091844317358"><ele>258.25</ele><time>2026-04-04T06:59:36.999Z</time></trkpt><trkpt lat="45.00372521421969" lon="8.490872354537196"><ele>257.0</ele><time>2026-04-04T06:59:37.999Z</time></trkpt><trkpt lat="45.003677062381975" lon="8.490662141114413"><ele>257.0</ele><time>2026-04-04T06:59:38.999Z</time></trkpt><trkpt lat="45.00361995593116" lon="8.490450096817836"><ele>257.0</ele><time>2026-04-04T06:59:39.999Z</time></trkpt><trkpt lat="45.003558805764875" lon="8.490252411828425"><ele>257.0</ele><time>2026-04-04T06:59:40.999Z</time></trkpt><trkpt lat="45.00348475204165" lon="8.490049335085402"><ele>258.0</ele><time>2026-04-04T06:59:41.999Z</time></trkpt><trkpt lat="45.00341958788183" lon="8.48986682989055"><ele>259.0</ele><time>2026-04-04T06:59:42.999Z</time></trkpt><trkpt lat="45.003348023077024" lon="8.489704556391416"><ele>260.0</ele><time>2026-04-04T06:59:44Z</time></trkpt><trkpt lat="45.00329043744184" lon="8.489548176474887"><ele>261.0</ele><time>2026-04-04T06:59:45Z</time></trkpt><trkpt lat="45.00326483152956" lon="8.4893830322827"><ele>259.25</ele><time>2026-04-04T06:59:46Z</time></trkpt><trkpt lat="45.00321662891988" lon="8.48922400970077"><ele>257.5</ele><time>2026-04-04T06:59:47Z</time></trkpt><trkpt lat="45.00317865187475" lon="8.489051596630716"><ele>255.75</ele><time>2026-04-04T06:59:48Z</time></trkpt><trkpt lat="45.003135153875014" lon="8.488857365075706"><ele>254.0</ele><time>2026-04-04T06:59:49Z</time></trkpt><trkpt lat="45.00309490755963" lon="8.488682284388195"><ele>254.0</ele><time>2026-04-04T06:59:50Z</time></trkpt><trkpt lat="45.003053966072656" lon="8.48850936592795"><ele>254.0</ele><time>2026-04-04T06:59:51Z</time></trkpt><trkpt lat="45.003019118238505" lon="8.488354980360635"><ele>254.0</ele><time>2026-04-04T06:59:52Z</time></trkpt><trkpt lat="45.002989325806006" lon="8.488208684646255"><ele>254.0</ele><time>2026-04-04T06:59:53Z</time></trkpt><trkpt lat="45.00297590522412" lon="8.48805858750199"><ele>255.33333333333334</ele><time>2026-04-04T06:59:54Z</time></trkpt><trkpt lat="45.00295213406982" lon="8.487911627619281"><ele>256.6666666666667</ele><time>2026-04-04T06:59:55Z</time></trkpt><trkpt lat="45.00292205708236" lon="8.487783748072756"><ele>258.0</ele><time>2026-04-04T06:59:56Z</time></trkpt><trkpt lat="45.002919933761035" lon="8.48767329621677"><ele>259.3333333333333</ele><time>2026-04-04T06:59:57Z</time></trkpt><trkpt lat="45.002910156551195" lon="8.487585311651124"><ele>260.66666666666663</ele><time>2026-04-04T06:59:58Z</time></trkpt><trkpt lat="45.0029093049384" lon="8.487475458168246"><ele>262.0</ele><time>2026-04-04T07:00:00Z</time></trkpt><trkpt lat="45.00281299198607" lon="8.487494465102229"><ele>262.0</ele><time>2026-04-04T07:00:02Z</time></trkpt><trkpt lat="45.002672933536694" lon="8.487489369413408"><ele>262.0</ele><time>2026-04-04T07:00:04Z</time></trkpt><trkpt lat="45.002523850024325" lon="8.487365846070928"><ele>262.0</ele><time>2026-04-04T07:00:06Z</time></trkpt><trkpt lat="45.00239542424572" lon="8.487248191542099"><ele>262.0</ele><time>2026-04-04T07:00:07Z</time></trkpt><trkpt lat="45.002237063683026" lon="8.48714216074063"><ele>262.0</ele><time>2026-04-04T07:00:08Z</time></trkpt><trkpt lat="45.00209884032321" lon="8.487045573529475"><ele>262.0</ele><time>2026-04-04T07:00:09Z</time></trkpt><trkpt lat="45.001939812597705" lon="8.486953668005803"><ele>262.0</ele><time>2026-04-04T07:00:10Z</time></trkpt><trkpt lat="45.001823832278696" lon="8.486858966767565"><ele>262.0</ele><time>2026-04-04T07:00:11Z</time></trkpt><trkpt lat="45.00170596539437" lon="8.48676687270938"><ele>262.0</ele><time>2026-04-04T07:00:12Z</time></trkpt><trkpt lat="45.00161020286354" lon="8.486663688946932"><ele>262.0</ele><time>2026-04-04T07:00:13Z</time></trkpt><trkpt lat="45.00153855284535" lon="8.486556223197372"><ele>261.4</ele><time>2026-04-04T07:00:14Z</time></trkpt><trkpt lat="45.001479843938945" lon="8.48646944947655"><ele>260.79999999999995</ele><time>2026-04-04T07:00:15Z</time></trkpt><trkpt lat="45.00142950951466" lon="8.486340146176374"><ele>260.2</ele><time>2026-04-04T07:00:16Z</time></trkpt><trkpt lat="45.00136801405849" lon="8.486215329360931"><ele>259.59999999999997</ele><time>2026-04-04T07:00:17Z</time></trkpt><trkpt lat="45.001310955426604" lon="8.486090192944866"><ele>259.0</ele><time>2026-04-04T07:00:18Z</time></trkpt><trkpt lat="45.00123663901136" lon="8.485927582417041"><ele>259.0</ele><time>2026-04-04T07:00:19Z</time></trkpt><trkpt lat="45.00115005167299" lon="8.485738121771211"><ele>259.0</ele><time>2026-04-04T07:00:20Z</time></trkpt><trkpt lat="45.00106066928555" lon="8.485542545812354"><ele>259.0</ele><time>2026-04-04T07:00:21Z</time></trkpt><trkpt lat="45.00097870867512" lon="8.485360353802916"><ele>261.66666666666663</ele><time>2026-04-04T07:00:22Z</time></trkpt><trkpt lat="45.0008963798691" lon="8.485176892887928"><ele>264.3333333333333</ele><time>2026-04-04T07:00:23Z</time></trkpt><trkpt lat="45.000811245329224" lon="8.484990986225908"><ele>267.0</ele><time>2026-04-04T07:00:24Z</time></trkpt><trkpt lat="45.000726381943004" lon="8.484809245615535"><ele>267.0</ele><time>2026-04-04T07:00:25Z</time></trkpt><trkpt lat="45.00064478471523" lon="8.484677973578433"><ele>267.0</ele><time>2026-04-04T07:00:26Z</time></trkpt><trkpt lat="45.000576154044595" lon="8.484521889080975"><ele>267.0</ele><time>2026-04-04T07:00:26.999Z</time></trkpt><trkpt lat="45.000499055209495" lon="8.484370799889925"><ele>267.0</ele><time>2026-04-04T07:00:27.999Z</time></trkpt><trkpt lat="45.00040417767759" lon="8.484256353079926"><ele>269.25</ele><time>2026-04-04T07:00:28.999Z</time></trkpt><trkpt lat="45.0002908977367" lon="8.484191394721115"><ele>271.5</ele><time>2026-04-04T07:00:29.999Z</time></trkpt><trkpt lat="45.00015937818043" lon="8.484156911242259"><ele>273.75</ele><time>2026-04-04T07:00:30.999Z</time></trkpt><trkpt lat="45.0000259588184" lon="8.484159815597431"><ele>276.0</ele><time>2026-04-04T07:00:31.999Z</time></trkpt><trkpt lat="44.99990114786604" lon="8.48420007737105"><ele>276.0</ele><time>2026-04-04T07:00:32.999Z</time></trkpt><trkpt lat="44.99977126935226" lon="8.484264567689232"><ele>276.0</ele><time>2026-04-04T07:00:33.999Z</time></trkpt><trkpt lat="44.99962648548114" lon="8.484305855239846"><ele>276.0</ele><time>2026-04-04T07:00:34.999Z</time></trkpt><trkpt lat="44.99949829300636" lon="8.484336687725902"><ele>276.0</ele><time>2026-04-04T07:00:35.999Z</time></trkpt><trkpt lat="44.99936163979624" lon="8.484372939248276"><ele>276.0</ele><time>2026-04-04T07:00:36.999Z</time></trkpt><trkpt lat="44.99924835199775" lon="8.484390371419401"><ele>276.0</ele><time>2026-04-04T07:00:37.999Z</time></trkpt><trkpt lat="44.99915376156639" lon="8.484412752881326"><ele>276.0</ele><time>2026-04-04T07:00:38.999Z</time></trkpt><trkpt lat="44.999067458454014" lon="8.484413733136185"><ele>276.0</ele><time>2026-04-04T07:00:39.999Z</time></trkpt><trkpt lat="44.99897178441248" lon="8.484398391601886"><ele>276.0</ele><time>2026-04-04T07:00:40.999Z</time></trkpt><trkpt lat="44.998893755739" lon="8.484343615167283"><ele>276.5</ele><time>2026-04-04T07:00:41.999Z</time></trkpt><trkpt lat="44.99881620198348" lon="8.48427337587587"><ele>277.0</ele><time>2026-04-04T07:00:42.999Z</time></trkpt><trkpt lat="44.9987373946035" lon="8.48420849446126"><ele>277.5</ele><time>2026-04-04T07:00:43.999Z</time></trkpt><trkpt lat="44.99865770200103" lon="8.4841422764135"><ele>278.0</ele><time>2026-04-04T07:00:44.999Z</time></trkpt><trkpt lat="44.99858578147757" lon="8.484079408407228"><ele>278.5</ele><time>2026-04-04T07:00:45.999Z</time></trkpt><trkpt lat="44.998521673325925" lon="8.484019545110073"><ele>279.0</ele><time>2026-04-04T07:00:46.999Z</time></trkpt><trkpt lat="44.998462287197114" lon="8.483963537157074"><ele>279.0</ele><time>2026-04-04T07:00:47.999Z</time></trkpt><trkpt lat="44.99839536569231" lon="8.4838494179468"><ele>279.0</ele><time>2026-04-04T07:00:49.999Z</time></trkpt><trkpt lat="44.9982896202474" lon="8.483767406296247"><ele>279.0</ele><time>2026-04-04T07:00:51.999Z</time></trkpt><trkpt lat="44.99820380683367" lon="8.48377495981687"><ele>279.0</ele><time>2026-04-04T07:00:52.999Z</time></trkpt><trkpt lat="44.99811849125209" lon="8.48381143780071"><ele>279.0</ele><time>2026-04-04T07:00:53.999Z</time></trkpt><trkpt lat="44.99799954411284" lon="8.483748266069858"><ele>277.4</ele><time>2026-04-04T07:00:55.999Z</time></trkpt><trkpt lat="44.99793288840279" lon="8.483680259873207"><ele>275.79999999999995</ele><time>2026-04-04T07:00:56.999Z</time></trkpt><trkpt lat="44.997861887518134" lon="8.483573760133174"><ele>274.20000000000005</ele><time>2026-04-04T07:00:57.999Z</time></trkpt><trkpt lat="44.997763133208" lon="8.483493399363644"><ele>272.6</ele><time>2026-04-04T07:00:58.999Z</time></trkpt><trkpt lat="44.99766763527429" lon="8.483415688650135"><ele>271.0</ele><time>2026-04-04T07:00:59.999Z</time></trkpt><trkpt lat="44.99755238567354" lon="8.483321197772705"><ele>272.0</ele><time>2026-04-04T07:01:00.999Z</time></trkpt><trkpt lat="44.99741846889468" lon="8.483228557738185"><ele>273.0</ele><time>2026-04-04T07:01:01.999Z</time></trkpt><trkpt lat="44.99725500257567" lon="8.483097316630744"><ele>274.0</ele><time>2026-04-04T07:01:02.999Z</time></trkpt><trkpt lat="44.9970684940902" lon="8.482943440280831"><ele>270.66666666666663</ele><time>2026-04-04T07:01:03.999Z</time></trkpt><trkpt lat="44.99691065611737" lon="8.482782096860937"><ele>267.3333333333333</ele><time>2026-04-04T07:01:04.999Z</time></trkpt><trkpt lat="44.99679430364792" lon="8.482667580441788"><ele>264.0</ele><time>2026-04-04T07:01:05.999Z</time></trkpt><trkpt lat="44.99670162344653" lon="8.482547528454594"><ele>267.0</ele><time>2026-04-04T07:01:06.999Z</time></trkpt><trkpt lat="44.996622628792565" lon="8.482408868521695"><ele>270.0</ele><time>2026-04-04T07:01:07.999Z</time></trkpt><trkpt lat="44.99655077046571" lon="8.482246837616875"><ele>273.0</ele><time>2026-04-04T07:01:08.999Z</time></trkpt><trkpt lat="44.99649934041552" lon="8.482058239179205"><ele>276.0</ele><time>2026-04-04T07:01:09.999Z</time></trkpt><trkpt lat="44.996469182572106" lon="8.481856126541945"><ele>276.0</ele><time>2026-04-04T07:01:10.999Z</time></trkpt><trkpt lat="44.99646193335185" lon="8.481641709120284"><ele>276.0</ele><time>2026-04-04T07:01:11.999Z</time></trkpt><trkpt lat="44.99646919931881" lon="8.48143061159007"><ele>276.0</ele><time>2026-04-04T07:01:12.999Z</time></trkpt><trkpt lat="44.996487763263644" lon="8.481233079188904"><ele>276.0</ele><time>2026-04-04T07:01:13.999Z</time></trkpt><trkpt lat="44.99650749347056" lon="8.481055025052253"><ele>275.0</ele><time>2026-04-04T07:01:14.999Z</time></trkpt><trkpt lat="44.99652870083085" lon="8.480872677885015"><ele>274.0</ele><time>2026-04-04T07:01:15.999Z</time></trkpt><trkpt lat="44.99655266437321" lon="8.480683297405465"><ele>273.0</ele><time>2026-04-04T07:01:16.999Z</time></trkpt><trkpt lat="44.996578464660246" lon="8.48049052310763"><ele>272.0</ele><time>2026-04-04T07:01:17.999Z</time></trkpt><trkpt lat="44.99660436851717" lon="8.48029730751112"><ele>270.25</ele><time>2026-04-04T07:01:18.999Z</time></trkpt><trkpt lat="44.99663054568707" lon="8.480105746671278"><ele>268.5</ele><time>2026-04-04T07:01:19.999Z</time></trkpt><trkpt lat="44.99665629442987" lon="8.47991915482756"><ele>266.75</ele><time>2026-04-04T07:01:20.999Z</time></trkpt><trkpt lat="44.99667731743142" lon="8.479728475213044"><ele>265.0</ele><time>2026-04-04T07:01:21.999Z</time></trkpt><trkpt lat="44.99668274620852" lon="8.47952610992375"><ele>263.75</ele><time>2026-04-04T07:01:22.999Z</time></trkpt><trkpt lat="44.99667729194685" lon="8.479336535885468"><ele>262.5</ele><time>2026-04-04T07:01:23.999Z</time></trkpt><trkpt lat="44.99666322269768" lon="8.479138843904737"><ele>261.25</ele><time>2026-04-04T07:01:24.999Z</time></trkpt><trkpt lat="44.99664712184433" lon="8.478954338939987"><ele>260.0</ele><time>2026-04-04T07:01:25.999Z</time></trkpt><trkpt lat="44.99663155685864" lon="8.478769080328115"><ele>259.0</ele><time>2026-04-04T07:01:26.999Z</time></trkpt><trkpt lat="44.99661595083701" lon="8.47856392844393"><ele>258.0</ele><time>2026-04-04T07:01:27.999Z</time></trkpt><trkpt lat="44.996600005573974" lon="8.478354256045137"><ele>257.0</ele><time>2026-04-04T07:01:28.999Z</time></trkpt><trkpt lat="44.99658365471932" lon="8.478139250303226"><ele>256.0</ele><time>2026-04-04T07:01:29.999Z</time></trkpt><trkpt lat="44.99656716114156" lon="8.477901054063443"><ele>255.66666666666666</ele><time>2026-04-04T07:01:30.999Z</time></trkpt><trkpt lat="44.99655217450241" lon="8.477675216260586"><ele>255.33333333333331</ele><time>2026-04-04T07:01:31.999Z</time></trkpt><trkpt lat="44.99652017374559" lon="8.477439972594908"><ele>255.0</ele><time>2026-04-04T07:01:32.999Z</time></trkpt><trkpt lat="44.9965133982159" lon="8.477187091447957"><ele>254.0</ele><time>2026-04-04T07:01:33.999Z</time></trkpt><trkpt lat="44.99647565709984" lon="8.476951764254519"><ele>253.0</ele><time>2026-04-04T07:01:34.999Z</time></trkpt><trkpt lat="44.9964122327031" lon="8.476755467873499"><ele>252.0</ele><time>2026-04-04T07:01:35.999Z</time></trkpt><trkpt lat="44.996317352510886" lon="8.476564991692063"><ele>252.0</ele><time>2026-04-04T07:01:36.999Z</time></trkpt><trkpt lat="44.99622664686245" lon="8.47635884193667"><ele>252.0</ele><time>2026-04-04T07:01:37.999Z</time></trkpt><trkpt lat="44.996125168765104" lon="8.476167940491708"><ele>252.0</ele><time>2026-04-04T07:01:38.999Z</time></trkpt><trkpt lat="44.99602833425471" lon="8.475982329568454"><ele>250.75</ele><time>2026-04-04T07:01:39.999Z</time></trkpt><trkpt lat="44.99597989150373" lon="8.475816283613263"><ele>249.5</ele><time>2026-04-04T07:01:40.999Z</time></trkpt><trkpt lat="44.99596125508961" lon="8.47561530859607"><ele>248.25</ele><time>2026-04-04T07:01:41.999Z</time></trkpt><trkpt lat="44.99596542739303" lon="8.475404289578332"><ele>247.0</ele><time>2026-04-04T07:01:42.999Z</time></trkpt><trkpt lat="44.99597904286686" lon="8.47518089155097"><ele>247.0</ele><time>2026-04-04T07:01:43.999Z</time></trkpt><trkpt lat="44.99599552501024" lon="8.474958861422897"><ele>247.0</ele><time>2026-04-04T07:01:44.999Z</time></trkpt><trkpt lat="44.996012269823595" lon="8.474728971304803"><ele>247.0</ele><time>2026-04-04T07:01:45.999Z</time></trkpt><trkpt lat="44.99601568809624" lon="8.474525512682257"><ele>248.0</ele><time>2026-04-04T07:01:46.999Z</time></trkpt><trkpt lat="44.99604531771821" lon="8.474348043431931"><ele>249.0</ele><time>2026-04-04T07:01:47.999Z</time></trkpt><trkpt lat="44.99606758933532" lon="8.47417349736486"><ele>250.0</ele><time>2026-04-04T07:01:48.999Z</time></trkpt><trkpt lat="44.99608755404848" lon="8.473995155565254"><ele>251.0</ele><time>2026-04-04T07:01:50Z</time></trkpt><trkpt lat="44.99610560771155" lon="8.473823596499095"><ele>250.0</ele><time>2026-04-04T07:01:51Z</time></trkpt><trkpt lat="44.996118914720924" lon="8.473664312196586"><ele>249.00000000000003</ele><time>2026-04-04T07:01:52Z</time></trkpt><trkpt lat="44.99612917773683" lon="8.473503898716634"><ele>248.00000000000003</ele><time>2026-04-04T07:01:53Z</time></trkpt><trkpt lat="44.9961336797313" lon="8.473352610070101"><ele>247.0</ele><time>2026-04-04T07:01:54Z</time></trkpt><trkpt lat="44.99611597325118" lon="8.47320703768624"><ele>246.0</ele><time>2026-04-04T07:01:55Z</time></trkpt><trkpt lat="44.996114868700644" lon="8.473063082268261"><ele>246.0</ele><time>2026-04-04T07:01:56Z</time></trkpt><trkpt lat="44.99613064623084" lon="8.472921809132842"><ele>246.00000000000003</ele><time>2026-04-04T07:01:57Z</time></trkpt><trkpt lat="44.996124298415566" lon="8.472780462692958"><ele>246.00000000000003</ele><time>2026-04-04T07:01:58Z</time></trkpt><trkpt lat="44.99611995382576" lon="8.472646666641603"><ele>246.0</ele><time>2026-04-04T07:01:59Z</time></trkpt><trkpt lat="44.996145625146575" lon="8.472523008895715"><ele>246.0</ele><time>2026-04-04T07:02:00Z</time></trkpt><trkpt lat="44.99616829310319" lon="8.47240527021812"><ele>246.0</ele><time>2026-04-04T07:02:01Z</time></trkpt><trkpt lat="44.99621673120644" lon="8.472300947084506"><ele>246.00000000000003</ele><time>2026-04-04T07:02:02Z</time></trkpt><trkpt lat="44.99627575431033" lon="8.47219191730157"><ele>246.00000000000003</ele><time>2026-04-04T07:02:03Z</time></trkpt><trkpt lat="44.996344878825845" lon="8.472066938354232"><ele>246.0</ele><time>2026-04-04T07:02:04Z</time></trkpt><trkpt lat="44.99641674222409" lon="8.471937309362833"><ele>246.0</ele><time>2026-04-04T07:02:05Z</time></trkpt><trkpt lat="44.99647707304717" lon="8.471792765647981"><ele>245.25</ele><time>2026-04-04T07:02:06Z</time></trkpt><trkpt lat="44.99655343663375" lon="8.471665519038554"><ele>244.5</ele><time>2026-04-04T07:02:07Z</time></trkpt><trkpt lat="44.99663168741877" lon="8.471528821369894"><ele>243.75</ele><time>2026-04-04T07:02:08Z</time></trkpt><trkpt lat="44.99670836792745" lon="8.471405463999407"><ele>243.0</ele><time>2026-04-04T07:02:09Z</time></trkpt><trkpt lat="44.99679571348474" lon="8.471312558747163"><ele>247.0</ele><time>2026-04-04T07:02:10Z</time></trkpt><trkpt lat="44.99687444669645" lon="8.471207942965952"><ele>251.0</ele><time>2026-04-04T07:02:11Z</time></trkpt><trkpt lat="44.996954836649714" lon="8.471102862273334"><ele>255.0</ele><time>2026-04-04T07:02:12Z</time></trkpt><trkpt lat="44.99703055311482" lon="8.47097836642142"><ele>259.0</ele><time>2026-04-04T07:02:13Z</time></trkpt><trkpt lat="44.9971148484114" lon="8.470865424316969"><ele>259.0</ele><time>2026-04-04T07:02:14Z</time></trkpt><trkpt lat="44.99720072598508" lon="8.470752695314761"><ele>259.0</ele><time>2026-04-04T07:02:15Z</time></trkpt><trkpt lat="44.997292657482475" lon="8.470663931672615"><ele>259.0</ele><time>2026-04-04T07:02:16Z</time></trkpt><trkpt lat="44.99737709865517" lon="8.470554559505295"><ele>259.0</ele><time>2026-04-04T07:02:17Z</time></trkpt><trkpt lat="44.99746188214098" lon="8.470429100067074"><ele>260.75</ele><time>2026-04-04T07:02:18Z</time></trkpt><trkpt lat="44.99755899687529" lon="8.4703230573704"><ele>262.5</ele><time>2026-04-04T07:02:19Z</time></trkpt><trkpt lat="44.997627630078554" lon="8.470213767283582"><ele>264.25</ele><time>2026-04-04T07:02:20Z</time></trkpt><trkpt lat="44.99771129999091" lon="8.470109096901734"><ele>266.0</ele><time>2026-04-04T07:02:21Z</time></trkpt><trkpt lat="44.99780057818094" lon="8.469991658958847"><ele>266.0</ele><time>2026-04-04T07:02:22Z</time></trkpt><trkpt lat="44.99788242474058" lon="8.46989253550185"><ele>266.0</ele><time>2026-04-04T07:02:23Z</time></trkpt><trkpt lat="44.99796938000849" lon="8.469782207733253"><ele>266.0</ele><time>2026-04-04T07:02:24Z</time></trkpt><trkpt lat="44.998056905800546" lon="8.469667177614573"><ele>266.0</ele><time>2026-04-04T07:02:25Z</time></trkpt><trkpt lat="44.99815687629349" lon="8.469548469907773"><ele>265.0</ele><time>2026-04-04T07:02:26Z</time></trkpt><trkpt lat="44.99826093839498" lon="8.469438007074245"><ele>264.0</ele><time>2026-04-04T07:02:27Z</time></trkpt><trkpt lat="44.99834125730455" lon="8.469303460919964"><ele>263.0</ele><time>2026-04-04T07:02:28Z</time></trkpt><trkpt lat="44.998431947737174" lon="8.469188933712136"><ele>262.0</ele><time>2026-04-04T07:02:28.999Z</time></trkpt><trkpt lat="44.99851974380565" lon="8.46907604786681"><ele>260.6</ele><time>2026-04-04T07:02:29.999Z</time></trkpt><trkpt lat="44.998605586585036" lon="8.468973138400269"><ele>259.2</ele><time>2026-04-04T07:02:30.999Z</time></trkpt><trkpt lat="44.99866281588096" lon="8.468841048188333"><ele>257.8</ele><time>2026-04-04T07:02:31.999Z</time></trkpt><trkpt lat="44.99872274625709" lon="8.468713564220735"><ele>256.4</ele><time>2026-04-04T07:02:32.999Z</time></trkpt><trkpt lat="44.99877556076662" lon="8.468574715281957"><ele>255.0</ele><time>2026-04-04T07:02:33.999Z</time></trkpt><trkpt lat="44.998822760838024" lon="8.46841952636684"><ele>255.0</ele><time>2026-04-04T07:02:34.999Z</time></trkpt><trkpt lat="44.99885711261629" lon="8.46827354275969"><ele>255.0</ele><time>2026-04-04T07:02:35.999Z</time></trkpt><trkpt lat="44.99887304411776" lon="8.468141642947847"><ele>255.0</ele><time>2026-04-04T07:02:36.999Z</time></trkpt><trkpt lat="44.998875740232734" lon="8.468037139277618"><ele>255.0</ele><time>2026-04-04T07:02:37.999Z</time></trkpt><trkpt lat="44.998905047360964" lon="8.467870642828748"><ele>255.0</ele><time>2026-04-04T07:02:39.999Z</time></trkpt><trkpt lat="44.99890837014337" lon="8.467774457191679"><ele>256.4</ele><time>2026-04-04T07:02:40.999Z</time></trkpt><trkpt lat="44.99888780811225" lon="8.467662869732523"><ele>257.8</ele><time>2026-04-04T07:02:41.999Z</time></trkpt><trkpt lat="44.998874958618025" lon="8.467532811121647"><ele>259.2</ele><time>2026-04-04T07:02:42.999Z</time></trkpt><trkpt lat="44.99885526687088" lon="8.467386593511032"><ele>260.6</ele><time>2026-04-04T07:02:43.999Z</time></trkpt><trkpt lat="44.99882075073569" lon="8.467225781158032"><ele>262.0</ele><time>2026-04-04T07:02:44.999Z</time></trkpt><trkpt lat="44.9987678072639" lon="8.467047229083624"><ele>264.0</ele><time>2026-04-04T07:02:45.999Z</time></trkpt><trkpt lat="44.998712846236614" lon="8.466869984424843"><ele>266.0</ele><time>2026-04-04T07:02:46.999Z</time></trkpt><trkpt lat="44.99866417710312" lon="8.46669057345359"><ele>268.0</ele><time>2026-04-04T07:02:47.999Z</time></trkpt><trkpt lat="44.99864596606121" lon="8.466500659202254"><ele>270.0</ele><time>2026-04-04T07:02:48.999Z</time></trkpt><trkpt lat="44.99862224508828" lon="8.466312255469449"><ele>271.75</ele><time>2026-04-04T07:02:49.999Z</time></trkpt><trkpt lat="44.99861670817013" lon="8.466127759777262"><ele>273.5</ele><time>2026-04-04T07:02:50.999Z</time></trkpt><trkpt lat="44.998609553520616" lon="8.465931425709279"><ele>275.25</ele><time>2026-04-04T07:02:51.999Z</time></trkpt><trkpt lat="44.998592038998936" lon="8.465742641946582"><ele>277.0</ele><time>2026-04-04T07:02:52.999Z</time></trkpt><trkpt lat="44.998568239614386" lon="8.46554683852897"><ele>275.25</ele><time>2026-04-04T07:02:53.999Z</time></trkpt><trkpt lat="44.99854127377568" lon="8.465352823185988"><ele>273.5</ele><time>2026-04-04T07:02:54.999Z</time></trkpt><trkpt lat="44.99851234381981" lon="8.465152653600386"><ele>271.75</ele><time>2026-04-04T07:02:55.999Z</time></trkpt><trkpt lat="44.99849442403115" lon="8.464944092865418"><ele>270.0</ele><time>2026-04-04T07:02:56.999Z</time></trkpt><trkpt lat="44.99847933134002" lon="8.464726966691197"><ele>266.6666666666667</ele><time>2026-04-04T07:02:57.999Z</time></trkpt><trkpt lat="44.998469993358874" lon="8.464509156174842"><ele>263.33333333333337</ele><time>2026-04-04T07:02:58.999Z</time></trkpt><trkpt lat="44.998479511778214" lon="8.46428489949754"><ele>260.0</ele><time>2026-04-04T07:02:59.999Z</time></trkpt><trkpt lat="44.998481974536766" lon="8.46406315391837"><ele>260.0</ele><time>2026-04-04T07:03:00.999Z</time></trkpt><trkpt lat="44.99847538350727" lon="8.463828683701196"><ele>260.0</ele><time>2026-04-04T07:03:01.999Z</time></trkpt><trkpt lat="44.998487797614075" lon="8.463610458107405"><ele>260.0</ele><time>2026-04-04T07:03:02.999Z</time></trkpt><trkpt lat="44.99849439592045" lon="8.463401134949837"><ele>259.25</ele><time>2026-04-04T07:03:03.999Z</time></trkpt><trkpt lat="44.99849555149348" lon="8.463224151459714"><ele>258.5</ele><time>2026-04-04T07:03:04.999Z</time></trkpt><trkpt lat="44.99848650819458" lon="8.463045170781527"><ele>257.75</ele><time>2026-04-04T07:03:05.999Z</time></trkpt><trkpt lat="44.99847444312314" lon="8.462859080906629"><ele>257.0</ele><time>2026-04-04T07:03:06.999Z</time></trkpt><trkpt lat="44.99845784626367" lon="8.462651775886565"><ele>257.0</ele><time>2026-04-04T07:03:07.999Z</time></trkpt><trkpt lat="44.99842681479991" lon="8.46244788685138"><ele>257.0</ele><time>2026-04-04T07:03:08.999Z</time></trkpt><trkpt lat="44.9983860418448" lon="8.462250563093713"><ele>257.0</ele><time>2026-04-04T07:03:09.999Z</time></trkpt><trkpt lat="44.998346980857505" lon="8.46206311901691"><ele>257.0</ele><time>2026-04-04T07:03:10.999Z</time></trkpt><trkpt lat="44.9983121519319" lon="8.461871168180487"><ele>256.33333333333337</ele><time>2026-04-04T07:03:11.999Z</time></trkpt><trkpt lat="44.99827287669924" lon="8.461674900866843"><ele>255.66666666666669</ele><time>2026-04-04T07:03:12.999Z</time></trkpt><trkpt lat="44.99822693193177" lon="8.461466692877169"><ele>255.0</ele><time>2026-04-04T07:03:13.999Z</time></trkpt><trkpt lat="44.998165006200274" lon="8.461271198342269"><ele>255.0</ele><time>2026-04-04T07:03:14.999Z</time></trkpt><trkpt lat="44.9980980918155" lon="8.461083387534622"><ele>255.0</ele><time>2026-04-04T07:03:15.999Z</time></trkpt><trkpt lat="44.998015019914945" lon="8.460894983967762"><ele>255.0</ele><time>2026-04-04T07:03:16.999Z</time></trkpt><trkpt lat="44.99792636745288" lon="8.460723056852027"><ele>255.0</ele><time>2026-04-04T07:03:17.999Z</time></trkpt><trkpt lat="44.997854307920626" lon="8.460539711955045"><ele>255.0</ele><time>2026-04-04T07:03:18.999Z</time></trkpt><trkpt lat="44.9977734935818" lon="8.460367330567268"><ele>255.0</ele><time>2026-04-04T07:03:19.999Z</time></trkpt><trkpt lat="44.99769766598938" lon="8.46019916757475"><ele>255.0</ele><time>2026-04-04T07:03:20.999Z</time></trkpt><trkpt lat="44.99761573786034" lon="8.46003192160319"><ele>253.0</ele><time>2026-04-04T07:03:21.999Z</time></trkpt><trkpt lat="44.99755148465953" lon="8.459859471686586"><ele>251.0</ele><time>2026-04-04T07:03:22.999Z</time></trkpt><trkpt lat="44.99752213853191" lon="8.459677692951647"><ele>249.0</ele><time>2026-04-04T07:03:23.999Z</time></trkpt><trkpt lat="44.9974896350592" lon="8.459511679631651"><ele>247.0</ele><time>2026-04-04T07:03:24.999Z</time></trkpt><trkpt lat="44.997444623810196" lon="8.459343684096998"><ele>247.0</ele><time>2026-04-04T07:03:25.999Z</time></trkpt><trkpt lat="44.99741698202164" lon="8.459161416448943"><ele>247.0</ele><time>2026-04-04T07:03:26.999Z</time></trkpt><trkpt lat="44.99736367509735" lon="8.458974345795397"><ele>247.0</ele><time>2026-04-04T07:03:27.999Z</time></trkpt><trkpt lat="44.997275465922094" lon="8.458794053595206"><ele>247.0</ele><time>2026-04-04T07:03:28.999Z</time></trkpt><trkpt lat="44.99715700671318" lon="8.458619638196769"><ele>246.25</ele><time>2026-04-04T07:03:29.999Z</time></trkpt><trkpt lat="44.99703444366004" lon="8.458459760338831"><ele>245.5</ele><time>2026-04-04T07:03:30.999Z</time></trkpt><trkpt lat="44.99692269086432" lon="8.458336126424292"><ele>244.75</ele><time>2026-04-04T07:03:31.999Z</time></trkpt><trkpt lat="44.996824737561106" lon="8.458247403375614"><ele>244.0</ele><time>2026-04-04T07:03:32.999Z</time></trkpt><trkpt lat="44.99674206225951" lon="8.458135239002901"><ele>246.2</ele><time>2026-04-04T07:03:33.999Z</time></trkpt><trkpt lat="44.99665946861952" lon="8.458033763694589"><ele>248.39999999999998</ele><time>2026-04-04T07:03:34.999Z</time></trkpt><trkpt lat="44.99656622101998" lon="8.457939439697437"><ele>250.6</ele><time>2026-04-04T07:03:35.999Z</time></trkpt><trkpt lat="44.99648297890322" lon="8.457829811414344"><ele>252.8</ele><time>2026-04-04T07:03:36.999Z</time></trkpt><trkpt lat="44.99640051311243" lon="8.45772685276631"><ele>255.0</ele><time>2026-04-04T07:03:37.999Z</time></trkpt><trkpt lat="44.996339983199235" lon="8.457608346215567"><ele>255.83333333333334</ele><time>2026-04-04T07:03:38.999Z</time></trkpt><trkpt lat="44.99626403913873" lon="8.457522384087591"><ele>256.6666666666667</ele><time>2026-04-04T07:03:39.999Z</time></trkpt><trkpt lat="44.996199227769566" lon="8.457432163733502"><ele>257.5</ele><time>2026-04-04T07:03:40.999Z</time></trkpt><trkpt lat="44.99614057301134" lon="8.4573409517148"><ele>258.33333333333337</ele><time>2026-04-04T07:03:41.999Z</time></trkpt><trkpt lat="44.99608444719829" lon="8.457249652041131"><ele>259.1666666666667</ele><time>2026-04-04T07:03:42.999Z</time></trkpt><trkpt lat="44.996014182456065" lon="8.457192142690946"><ele>260.0</ele><time>2026-04-04T07:03:43.999Z</time></trkpt><trkpt lat="44.995945256221525" lon="8.457142537430434"><ele>258.5</ele><time>2026-04-04T07:03:44.999Z</time></trkpt><trkpt lat="44.99585407398864" lon="8.457097364872839"><ele>257.0</ele><time>2026-04-04T07:03:45.999Z</time></trkpt><trkpt lat="44.99577339127073" lon="8.457053032937345"><ele>255.5</ele><time>2026-04-04T07:03:46.999Z</time></trkpt><trkpt lat="44.995699336060795" lon="8.456995786317075"><ele>254.0</ele><time>2026-04-04T07:03:47.999Z</time></trkpt><trkpt lat="44.99563327413606" lon="8.45695298046468"><ele>252.50000000000003</ele><time>2026-04-04T07:03:48.999Z</time></trkpt><trkpt lat="44.99557552829992" lon="8.456910484043025"><ele>251.0</ele><time>2026-04-04T07:03:49.999Z</time></trkpt><trkpt lat="44.995499235781864" lon="8.456874716943037"><ele>251.00000000000003</ele><time>2026-04-04T07:03:50.999Z</time></trkpt><trkpt lat="44.995427301815766" lon="8.456831640815484"><ele>251.0</ele><time>2026-04-04T07:03:51.999Z</time></trkpt><trkpt lat="44.99534025691283" lon="8.456817992135898"><ele>251.0</ele><time>2026-04-04T07:03:52.999Z</time></trkpt><trkpt lat="44.99525878266512" lon="8.456806681587057"><ele>251.0</ele><time>2026-04-04T07:03:53.999Z</time></trkpt><trkpt lat="44.99517653564408" lon="8.456800731034809"><ele>251.00000000000003</ele><time>2026-04-04T07:03:54.998Z</time></trkpt><trkpt lat="44.99509287874133" lon="8.456753320628307"><ele>251.0</ele><time>2026-04-04T07:03:56Z</time></trkpt><trkpt lat="44.995007272274805" lon="8.456694896887925"><ele>249.60000000000002</ele><time>2026-04-04T07:03:57Z</time></trkpt><trkpt lat="44.99490069994289" lon="8.456657694231714"><ele>248.20000000000002</ele><time>2026-04-04T07:03:58Z</time></trkpt><trkpt lat="44.99480889637211" lon="8.456606522998687"><ele>246.79999999999998</ele><time>2026-04-04T07:03:59Z</time></trkpt><trkpt lat="44.99471322812555" lon="8.456568336545912"><ele>245.39999999999998</ele><time>2026-04-04T07:04:00Z</time></trkpt><trkpt lat="44.99461541440669" lon="8.456616731201775"><ele>244.0</ele><time>2026-04-04T07:04:01Z</time></trkpt><trkpt lat="44.99451674928997" lon="8.456676181185216"><ele>244.0</ele><time>2026-04-04T07:04:02Z</time></trkpt><trkpt lat="44.99441440556707" lon="8.456689865659678"><ele>243.99999999999997</ele><time>2026-04-04T07:04:03Z</time></trkpt><trkpt lat="44.99432168527552" lon="8.456703076308758"><ele>243.99999999999997</ele><time>2026-04-04T07:04:04Z</time></trkpt><trkpt lat="44.99422291801417" lon="8.456720051522492"><ele>244.0</ele><time>2026-04-04T07:04:05Z</time></trkpt><trkpt lat="44.99413124545666" lon="8.45673580735602"><ele>244.0</ele><time>2026-04-04T07:04:06Z</time></trkpt><trkpt lat="44.994026234760845" lon="8.456753855633792"><ele>242.0</ele><time>2026-04-04T07:04:07Z</time></trkpt><trkpt lat="44.993911714382094" lon="8.456783330920462"><ele>239.99999999999997</ele><time>2026-04-04T07:04:08Z</time></trkpt><trkpt lat="44.99381016211192" lon="8.456786172196038"><ele>237.99999999999997</ele><time>2026-04-04T07:04:09Z</time></trkpt><trkpt lat="44.99371630272963" lon="8.45676533992682"><ele>236.0</ele><time>2026-04-04T07:04:10Z</time></trkpt><trkpt lat="44.99363263366592" lon="8.45676533992493"><ele>234.0</ele><time>2026-04-04T07:04:11Z</time></trkpt><trkpt lat="44.993556340418124" lon="8.456765792060349"><ele>234.0</ele><time>2026-04-04T07:04:12Z</time></trkpt><trkpt lat="44.9934765958817" lon="8.456768642624194"><ele>234.0</ele><time>2026-04-04T07:04:13Z</time></trkpt><trkpt lat="44.99340281897181" lon="8.45677127986869"><ele>234.0</ele><time>2026-04-04T07:04:14Z</time></trkpt><trkpt lat="44.99333936902846" lon="8.456772790209731"><ele>234.0</ele><time>2026-04-04T07:04:15Z</time></trkpt><trkpt lat="44.993242050830396" lon="8.456759746243856"><ele>234.0</ele><time>2026-04-04T07:04:17Z</time></trkpt><trkpt lat="44.993142548699964" lon="8.45666896484646"><ele>234.0</ele><time>2026-04-04T07:04:19Z</time></trkpt><trkpt lat="44.993069363143334" lon="8.456542418857024"><ele>234.0</ele><time>2026-04-04T07:04:21Z</time></trkpt><trkpt lat="44.99304291936752" lon="8.456433410268621"><ele>233.99999999999997</ele><time>2026-04-04T07:04:23Z</time></trkpt><trkpt lat="44.992911181876075" lon="8.456417344746878"><ele>233.99999999999997</ele><time>2026-04-04T07:04:25Z</time></trkpt><trkpt lat="44.99283033351599" lon="8.456461043812032"><ele>234.0</ele><time>2026-04-04T07:04:26Z</time></trkpt><trkpt lat="44.992748652449485" lon="8.456484466485517"><ele>234.0</ele><time>2026-04-04T07:04:27Z</time></trkpt><trkpt lat="44.99267662315534" lon="8.456535213717771"><ele>234.0</ele><time>2026-04-04T07:04:28Z</time></trkpt><trkpt lat="44.99258259935958" lon="8.456568629431027"><ele>233.99999999999997</ele><time>2026-04-04T07:04:29Z</time></trkpt><trkpt lat="44.99251309683757" lon="8.456599755781149"><ele>233.99999999999997</ele><time>2026-04-04T07:04:30Z</time></trkpt><trkpt lat="44.99242264416021" lon="8.456612678756358"><ele>234.0</ele><time>2026-04-04T07:04:31Z</time></trkpt><trkpt lat="44.99232604918203" lon="8.456637375320259"><ele>234.0</ele><time>2026-04-04T07:04:32Z</time></trkpt><trkpt lat="44.992217580816536" lon="8.45664320635978"><ele>234.79999999999998</ele><time>2026-04-04T07:04:33Z</time></trkpt><trkpt lat="44.99211547358388" lon="8.456627152658145"><ele>235.59999999999997</ele><time>2026-04-04T07:04:34Z</time></trkpt><trkpt lat="44.992014210356075" lon="8.456600943138003"><ele>236.4</ele><time>2026-04-04T07:04:35Z</time></trkpt><trkpt lat="44.99192557794324" lon="8.456571189610267"><ele>237.2</ele><time>2026-04-04T07:04:36Z</time></trkpt><trkpt lat="44.991833793204904" lon="8.456537707207575"><ele>238.0</ele><time>2026-04-04T07:04:37Z</time></trkpt><trkpt lat="44.99178470537371" lon="8.456422068769669"><ele>238.0</ele><time>2026-04-04T07:04:38Z</time></trkpt><trkpt lat="44.991727818079276" lon="8.456278281558804"><ele>238.0</ele><time>2026-04-04T07:04:39Z</time></trkpt><trkpt lat="44.99165904860937" lon="8.456144176465841"><ele>238.0</ele><time>2026-04-04T07:04:40Z</time></trkpt><trkpt lat="44.99157923224294" lon="8.456002392177897"><ele>238.0</ele><time>2026-04-04T07:04:41Z</time></trkpt><trkpt lat="44.991476051409364" lon="8.45586229104122"><ele>238.0</ele><time>2026-04-04T07:04:42Z</time></trkpt><trkpt lat="44.99135297532939" lon="8.455746366596285"><ele>238.0</ele><time>2026-04-04T07:04:43Z</time></trkpt><trkpt lat="44.99122405039959" lon="8.455683711598668"><ele>238.0</ele><time>2026-04-04T07:04:43.999Z</time></trkpt><trkpt lat="44.99109614812331" lon="8.455657852831592"><ele>238.0</ele><time>2026-04-04T07:04:44.999Z</time></trkpt><trkpt lat="44.990974790971414" lon="8.455643225003817"><ele>238.0</ele><time>2026-04-04T07:04:45.999Z</time></trkpt><trkpt lat="44.990847483711214" lon="8.455620120479153"><ele>238.0</ele><time>2026-04-04T07:04:46.999Z</time></trkpt><trkpt lat="44.990742230749106" lon="8.455608533427917"><ele>238.0</ele><time>2026-04-04T07:04:47.999Z</time></trkpt><trkpt lat="44.990655021027806" lon="8.455598274774339"><ele>238.0</ele><time>2026-04-04T07:04:48.999Z</time></trkpt><trkpt lat="44.99058720027782" lon="8.455553645608926"><ele>238.0</ele><time>2026-04-04T07:04:49.999Z</time></trkpt><trkpt lat="44.99050463664066" lon="8.45547552619582"><ele>238.4</ele><time>2026-04-04T07:04:51.999Z</time></trkpt><trkpt lat="44.99055572939207" lon="8.4553326062165"><ele>238.8</ele><time>2026-04-04T07:04:52.999Z</time></trkpt><trkpt lat="44.990550993337635" lon="8.455238123117056"><ele>239.2</ele><time>2026-04-04T07:04:53.999Z</time></trkpt><trkpt lat="44.99054130775475" lon="8.455044897957205"><ele>239.6</ele><time>2026-04-04T07:04:54.999Z</time></trkpt><trkpt lat="44.9905331793405" lon="8.454889199414982"><ele>240.0</ele><time>2026-04-04T07:04:55.999Z</time></trkpt><trkpt lat="44.99052401462832" lon="8.454721088799051"><ele>238.5</ele><time>2026-04-04T07:04:56.999Z</time></trkpt><trkpt lat="44.990515558272556" lon="8.454565971790512"><ele>237.0</ele><time>2026-04-04T07:04:57.999Z</time></trkpt><trkpt lat="44.99050643359507" lon="8.454398595587719"><ele>235.5</ele><time>2026-04-04T07:04:58.999Z</time></trkpt><trkpt lat="44.99049804037425" lon="8.454230683760604"><ele>234.0</ele><time>2026-04-04T07:04:59.999Z</time></trkpt><trkpt lat="44.990490267615705" lon="8.454038119898167"><ele>234.0</ele><time>2026-04-04T07:05:00.999Z</time></trkpt><trkpt lat="44.990481115765164" lon="8.453842355628469"><ele>234.0</ele><time>2026-04-04T07:05:01.999Z</time></trkpt><trkpt lat="44.990470480599065" lon="8.453628048978965"><ele>234.0</ele><time>2026-04-04T07:05:02.999Z</time></trkpt><trkpt lat="44.990459844960014" lon="8.45342900159754"><ele>234.0</ele><time>2026-04-04T07:05:03.999Z</time></trkpt><trkpt lat="44.9904503076028" lon="8.453254891827271"><ele>234.25</ele><time>2026-04-04T07:05:04.999Z</time></trkpt><trkpt lat="44.99044313797925" lon="8.45310041355231"><ele>234.5</ele><time>2026-04-04T07:05:05.999Z</time></trkpt><trkpt lat="44.990435997391685" lon="8.452945162083505"><ele>234.75</ele><time>2026-04-04T07:05:06.999Z</time></trkpt><trkpt lat="44.990427204748805" lon="8.4527539910469"><ele>235.0</ele><time>2026-04-04T07:05:07.999Z</time></trkpt><trkpt lat="44.99041667008321" lon="8.452578999581466"><ele>234.5</ele><time>2026-04-04T07:05:08.999Z</time></trkpt><trkpt lat="44.99040678687332" lon="8.452425784819294"><ele>234.0</ele><time>2026-04-04T07:05:09.999Z</time></trkpt><trkpt lat="44.99039503582666" lon="8.452251207933786"><ele>233.5</ele><time>2026-04-04T07:05:10.999Z</time></trkpt><trkpt lat="44.99038048559011" lon="8.452056068020418"><ele>233.0</ele><time>2026-04-04T07:05:11.999Z</time></trkpt><trkpt lat="44.990364188957976" lon="8.451853470043966"><ele>233.0</ele><time>2026-04-04T07:05:12.999Z</time></trkpt><trkpt lat="44.9903407915761" lon="8.451649417021287"><ele>233.0</ele><time>2026-04-04T07:05:13.999Z</time></trkpt><trkpt lat="44.99032511960261" lon="8.451471537906562"><ele>233.0</ele><time>2026-04-04T07:05:14.999Z</time></trkpt><trkpt lat="44.99030702072024" lon="8.451294035886269"><ele>233.0</ele><time>2026-04-04T07:05:15.999Z</time></trkpt><trkpt lat="44.990278562097224" lon="8.451113554704204"><ele>230.75</ele><time>2026-04-04T07:05:16.999Z</time></trkpt><trkpt lat="44.99023937545863" lon="8.450938660771143"><ele>228.5</ele><time>2026-04-04T07:05:17.999Z</time></trkpt><trkpt lat="44.99019595668351" lon="8.450766712917778"><ele>226.25</ele><time>2026-04-04T07:05:18.999Z</time></trkpt><trkpt lat="44.99015692304693" lon="8.450603281204117"><ele>224.0</ele><time>2026-04-04T07:05:19.999Z</time></trkpt><trkpt lat="44.990113385104266" lon="8.450457043937089"><ele>224.0</ele><time>2026-04-04T07:05:20.999Z</time></trkpt><trkpt lat="44.99006548313552" lon="8.450334792570581"><ele>223.99999999999997</ele><time>2026-04-04T07:05:21.999Z</time></trkpt><trkpt lat="44.98999207316866" lon="8.45022947991058"><ele>223.99999999999997</ele><time>2026-04-04T07:05:22.999Z</time></trkpt><trkpt lat="44.98989694903621" lon="8.450157118220753"><ele>224.0</ele><time>2026-04-04T07:05:23.999Z</time></trkpt><trkpt lat="44.989787008167056" lon="8.450115976679214"><ele>224.0</ele><time>2026-04-04T07:05:24.999Z</time></trkpt><trkpt lat="44.98967468021218" lon="8.45010177689529"><ele>224.0</ele><time>2026-04-04T07:05:25.999Z</time></trkpt><trkpt lat="44.98957075880558" lon="8.450090586288754"><ele>223.99999999999997</ele><time>2026-04-04T07:05:26.999Z</time></trkpt><trkpt lat="44.989485084869926" lon="8.450061186709808"><ele>223.99999999999997</ele><time>2026-04-04T07:05:27.999Z</time></trkpt><trkpt lat="44.989406184583494" lon="8.450000512974473"><ele>224.0</ele><time>2026-04-04T07:05:28.999Z</time></trkpt><trkpt lat="44.98934854678543" lon="8.44991022576897"><ele>224.0</ele><time>2026-04-04T07:05:29.999Z</time></trkpt><trkpt lat="44.989299750435045" lon="8.449786504628737"><ele>224.00000000000003</ele><time>2026-04-04T07:05:30.999Z</time></trkpt><trkpt lat="44.98925582587981" lon="8.449655325055172"><ele>224.0</ele><time>2026-04-04T07:05:31.999Z</time></trkpt><trkpt lat="44.98921438640861" lon="8.449547698886477"><ele>224.0</ele><time>2026-04-04T07:05:32.999Z</time></trkpt><trkpt lat="44.989191165315916" lon="8.449444112168557"><ele>224.0</ele><time>2026-04-04T07:05:33.999Z</time></trkpt><trkpt lat="44.989179805606646" lon="8.449344530845089"><ele>224.00000000000003</ele><time>2026-04-04T07:05:34.999Z</time></trkpt><trkpt lat="44.98920920487622" lon="8.449245880314473"><ele>224.0</ele><time>2026-04-04T07:05:35.999Z</time></trkpt><trkpt lat="44.98920366961388" lon="8.44913319799362"><ele>223.50000000000003</ele><time>2026-04-04T07:05:36.999Z</time></trkpt><trkpt lat="44.989183388774414" lon="8.449030074137413"><ele>223.0</ele><time>2026-04-04T07:05:37.999Z</time></trkpt><trkpt lat="44.98918092673942" lon="8.448928159616607"><ele>222.5</ele><time>2026-04-04T07:05:38.999Z</time></trkpt><trkpt lat="44.98918656359911" lon="8.448834781034885"><ele>222.0</ele><time>2026-04-04T07:05:39.999Z</time></trkpt><trkpt lat="44.98918071711676" lon="8.448732958846396"><ele>221.50000000000003</ele><time>2026-04-04T07:05:40.999Z</time></trkpt><trkpt lat="44.989169297473794" lon="8.448642400535183"><ele>221.0</ele><time>2026-04-04T07:05:41.999Z</time></trkpt><trkpt lat="44.98914402274656" lon="8.448453333840341"><ele>219.60000000000002</ele><time>2026-04-04T07:05:43.999Z</time></trkpt><trkpt lat="44.989140311159105" lon="8.448346152978283"><ele>218.20000000000002</ele><time>2026-04-04T07:05:44.999Z</time></trkpt><trkpt lat="44.98912606099988" lon="8.44821833588727"><ele>216.79999999999998</ele><time>2026-04-04T07:05:45.999Z</time></trkpt><trkpt lat="44.98910658935608" lon="8.448085438109514"><ele>215.39999999999998</ele><time>2026-04-04T07:05:46.999Z</time></trkpt><trkpt lat="44.989102362178464" lon="8.447945446948392"><ele>214.0</ele><time>2026-04-04T07:05:47.999Z</time></trkpt><trkpt lat="44.98908771345915" lon="8.447815167885118"><ele>211.79999999999998</ele><time>2026-04-04T07:05:48.999Z</time></trkpt><trkpt lat="44.9890749469275" lon="8.447678440440775"><ele>209.59999999999997</ele><time>2026-04-04T07:05:49.999Z</time></trkpt><trkpt lat="44.98906571116373" lon="8.447543934575986"><ele>207.4</ele><time>2026-04-04T07:05:50.999Z</time></trkpt><trkpt lat="44.989059464025566" lon="8.447412648365868"><ele>205.2</ele><time>2026-04-04T07:05:51.999Z</time></trkpt><trkpt lat="44.989045900392966" lon="8.447292667285376"><ele>203.0</ele><time>2026-04-04T07:05:52.999Z</time></trkpt><trkpt lat="44.98905596409209" lon="8.447157810672214"><ele>201.66666666666669</ele><time>2026-04-04T07:05:53.999Z</time></trkpt><trkpt lat="44.989057791306784" lon="8.447004389166409"><ele>200.33333333333334</ele><time>2026-04-04T07:05:54.999Z</time></trkpt><trkpt lat="44.989063687137524" lon="8.446873680597356"><ele>199.0</ele><time>2026-04-04T07:05:55.999Z</time></trkpt><trkpt lat="44.98906564240141" lon="8.446759311776045"><ele>197.66666666666669</ele><time>2026-04-04T07:05:56.999Z</time></trkpt><trkpt lat="44.98905597779184" lon="8.4466508830825"><ele>196.33333333333334</ele><time>2026-04-04T07:05:57.999Z</time></trkpt><trkpt lat="44.98908786397664" lon="8.446548121597388"><ele>195.0</ele><time>2026-04-04T07:05:58.999Z</time></trkpt><trkpt lat="44.98909743524429" lon="8.446380018740614"><ele>194.4</ele><time>2026-04-04T07:05:59.999Z</time></trkpt><trkpt lat="44.98911427695552" lon="8.446244730380279"><ele>193.8</ele><time>2026-04-04T07:06:00.999Z</time></trkpt><trkpt lat="44.98912628307588" lon="8.446113742912459"><ele>193.2</ele><time>2026-04-04T07:06:02Z</time></trkpt><trkpt lat="44.989137406939726" lon="8.445986676746797"><ele>192.6</ele><time>2026-04-04T07:06:03Z</time></trkpt><trkpt lat="44.98914722813457" lon="8.445856859573029"><ele>192.0</ele><time>2026-04-04T07:06:04Z</time></trkpt><trkpt lat="44.989146659962834" lon="8.445722898528013"><ele>192.0</ele><time>2026-04-04T07:06:05Z</time></trkpt><trkpt lat="44.98913643684297" lon="8.445605612005764"><ele>192.0</ele><time>2026-04-04T07:06:06Z</time></trkpt><trkpt lat="44.98912482495047" lon="8.445460300571856"><ele>192.0</ele><time>2026-04-04T07:06:07Z</time></trkpt><trkpt lat="44.98911177399306" lon="8.445342338908741"><ele>192.0</ele><time>2026-04-04T07:06:08Z</time></trkpt><trkpt lat="44.98911026225859" lon="8.445221511035982"><ele>192.0</ele><time>2026-04-04T07:06:09Z</time></trkpt><trkpt lat="44.98909715225479" lon="8.445088636644504"><ele>190.5</ele><time>2026-04-04T07:06:10Z</time></trkpt><trkpt lat="44.98908584022608" lon="8.444954678370863"><ele>189.0</ele><time>2026-04-04T07:06:11Z</time></trkpt><trkpt lat="44.98906374054307" lon="8.444842280606416"><ele>187.5</ele><time>2026-04-04T07:06:12Z</time></trkpt><trkpt lat="44.98906151373172" lon="8.444728763342628"><ele>186.0</ele><time>2026-04-04T07:06:13Z</time></trkpt><trkpt lat="44.98904801035615" lon="8.444606870496148"><ele>184.5</ele><time>2026-04-04T07:06:14Z</time></trkpt><trkpt lat="44.98903018902759" lon="8.444466774741416"><ele>183.0</ele><time>2026-04-04T07:06:15Z</time></trkpt><trkpt lat="44.989014163742155" lon="8.444333113155913"><ele>181.66666666666666</ele><time>2026-04-04T07:06:16Z</time></trkpt><trkpt lat="44.98899627086611" lon="8.444205671950321"><ele>180.33333333333334</ele><time>2026-04-04T07:06:17Z</time></trkpt><trkpt lat="44.988976988158264" lon="8.444089951912918"><ele>179.0</ele><time>2026-04-04T07:06:18Z</time></trkpt><trkpt lat="44.988954834338806" lon="8.443980496905262"><ele>177.66666666666669</ele><time>2026-04-04T07:06:19Z</time></trkpt><trkpt lat="44.98893497886085" lon="8.443868561538553"><ele>176.33333333333334</ele><time>2026-04-04T07:06:20Z</time></trkpt><trkpt lat="44.988896742992765" lon="8.443736966971745"><ele>175.0</ele><time>2026-04-04T07:06:21Z</time></trkpt><trkpt lat="44.9888596459813" lon="8.44360306554104"><ele>173.25</ele><time>2026-04-04T07:06:22Z</time></trkpt><trkpt lat="44.988816752493186" lon="8.44345332584093"><ele>171.5</ele><time>2026-04-04T07:06:23Z</time></trkpt><trkpt lat="44.9887844377477" lon="8.44328719993633"><ele>169.75</ele><time>2026-04-04T07:06:24Z</time></trkpt><trkpt lat="44.98873426259657" lon="8.443122313106919"><ele>168.0</ele><time>2026-04-04T07:06:25Z</time></trkpt><trkpt lat="44.988676886465264" lon="8.442956534778528"><ele>166.25</ele><time>2026-04-04T07:06:26Z</time></trkpt><trkpt lat="44.98861671055993" lon="8.442788067373751"><ele>164.5</ele><time>2026-04-04T07:06:27Z</time></trkpt><trkpt lat="44.98856002779079" lon="8.442615066085558"><ele>162.75</ele><time>2026-04-04T07:06:28Z</time></trkpt><trkpt lat="44.98852112585053" lon="8.442471006196767"><ele>161.0</ele><time>2026-04-04T07:06:29Z</time></trkpt><trkpt lat="44.98849037495498" lon="8.44232272947579"><ele>161.0</ele><time>2026-04-04T07:06:30Z</time></trkpt><trkpt lat="44.98847725101923" lon="8.442194613631191"><ele>161.0</ele><time>2026-04-04T07:06:31Z</time></trkpt><trkpt lat="44.988470485879716" lon="8.442059917046267"><ele>161.0</ele><time>2026-04-04T07:06:32Z</time></trkpt><trkpt lat="44.98846609056311" lon="8.441940697560236"><ele>161.0</ele><time>2026-04-04T07:06:33Z</time></trkpt><trkpt lat="44.98846180030074" lon="8.441829480777455"><ele>161.0</ele><time>2026-04-04T07:06:34Z</time></trkpt><trkpt lat="44.98845509405077" lon="8.441725783272679"><ele>161.0</ele><time>2026-04-04T07:06:35Z</time></trkpt><trkpt lat="44.98844526489158" lon="8.441608580084242"><ele>160.33333333333331</ele><time>2026-04-04T07:06:36Z</time></trkpt><trkpt lat="44.98843706170584" lon="8.441513979588654"><ele>159.66666666666666</ele><time>2026-04-04T07:06:37Z</time></trkpt><trkpt lat="44.98842915497483" lon="8.441422796791423"><ele>159.0</ele><time>2026-04-04T07:06:38Z</time></trkpt><trkpt lat="44.988426541116475" lon="8.441303350860439"><ele>158.33333333333334</ele><time>2026-04-04T07:06:39Z</time></trkpt><trkpt lat="44.9884355173055" lon="8.441214848045746"><ele>157.66666666666669</ele><time>2026-04-04T07:06:40Z</time></trkpt><trkpt lat="44.98842648182341" lon="8.441107798754684"><ele>157.0</ele><time>2026-04-04T07:06:48.999Z</time></trkpt><trkpt lat="44.98840965788668" lon="8.440967132563365"><ele>157.0</ele><time>2026-04-04T07:06:50.999Z</time></trkpt><trkpt lat="44.988400000850255" lon="8.440873600006878"><ele>157.0</ele><time>2026-04-04T07:06:52.999Z</time></trkpt><trkpt lat="44.98838304527235" lon="8.440750979569993"><ele>157.0</ele><time>2026-04-04T07:06:54.999Z</time></trkpt><trkpt lat="44.98836750672193" lon="8.440607849029194"><ele>157.0</ele><time>2026-04-04T07:06:56.999Z</time></trkpt><trkpt lat="44.98835513226756" lon="8.440440058438536"><ele>157.0</ele><time>2026-04-04T07:06:58.999Z</time></trkpt><trkpt lat="44.988324045980825" lon="8.440263933232293"><ele>157.2</ele><time>2026-04-04T07:07:00.999Z</time></trkpt><trkpt lat="44.988303085967715" lon="8.440085545764607"><ele>157.39999999999998</ele><time>2026-04-04T07:07:02.999Z</time></trkpt><trkpt lat="44.98828964880002" lon="8.43999155402411"><ele>157.60000000000002</ele><time>2026-04-04T07:07:03.999Z</time></trkpt><trkpt lat="44.988267313087235" lon="8.439879962769945"><ele>157.8</ele><time>2026-04-04T07:07:04.999Z</time></trkpt><trkpt lat="44.98824972765396" lon="8.4397895654334"><ele>158.0</ele><time>2026-04-04T07:07:05.999Z</time></trkpt><trkpt lat="44.988211175158455" lon="8.439588822516006"><ele>157.42857142857144</ele><time>2026-04-04T07:07:07.999Z</time></trkpt><trkpt lat="44.988188123952426" lon="8.43948878787015"><ele>156.85714285714286</ele><time>2026-04-04T07:07:08.999Z</time></trkpt><trkpt lat="44.988167669149924" lon="8.43939957403372"><ele>156.28571428571428</ele><time>2026-04-04T07:07:09.999Z</time></trkpt><trkpt lat="44.98813875110288" lon="8.439289613294624"><ele>155.71428571428572</ele><time>2026-04-04T07:07:10.999Z</time></trkpt><trkpt lat="44.98811792864555" lon="8.439202472615467"><ele>155.14285714285714</ele><time>2026-04-04T07:07:11.999Z</time></trkpt><trkpt lat="44.988091256287596" lon="8.439119504696942"><ele>154.57142857142858</ele><time>2026-04-04T07:07:12.999Z</time></trkpt><trkpt lat="44.98806263280414" lon="8.439009701698902"><ele>154.0</ele><time>2026-04-04T07:07:13.999Z</time></trkpt><trkpt lat="44.9880332004515" lon="8.438911918137107"><ele>154.0</ele><time>2026-04-04T07:07:14.999Z</time></trkpt><trkpt lat="44.98800372199326" lon="8.438812317107402"><ele>154.0</ele><time>2026-04-04T07:07:15.999Z</time></trkpt><trkpt lat="44.98797096048987" lon="8.438709554902534"><ele>154.0</ele><time>2026-04-04T07:07:16.999Z</time></trkpt><trkpt lat="44.98793679554287" lon="8.438603668371389"><ele>154.0</ele><time>2026-04-04T07:07:17.999Z</time></trkpt><trkpt lat="44.98790033105867" lon="8.438509995903283"><ele>154.0</ele><time>2026-04-04T07:07:18.999Z</time></trkpt><trkpt lat="44.98787632618826" lon="8.438427512670568"><ele>154.0</ele><time>2026-04-04T07:07:19.999Z</time></trkpt><trkpt lat="44.98784099131116" lon="8.43834105012827"><ele>154.0</ele><time>2026-04-04T07:07:20.999Z</time></trkpt><trkpt lat="44.987799210631046" lon="8.438231276195173"><ele>152.8</ele><time>2026-04-04T07:07:21.999Z</time></trkpt><trkpt lat="44.9877420998919" lon="8.438101282838018"><ele>151.60000000000002</ele><time>2026-04-04T07:07:23.999Z</time></trkpt><trkpt lat="44.98770978455055" lon="8.438024812438854"><ele>150.4</ele><time>2026-04-04T07:07:24.999Z</time></trkpt><trkpt lat="44.98763175331143" lon="8.43789776144567"><ele>149.20000000000002</ele><time>2026-04-04T07:07:26.999Z</time></trkpt><trkpt lat="44.98757600898357" lon="8.43784158692063"><ele>148.0</ele><time>2026-04-04T07:07:27.999Z</time></trkpt><trkpt lat="44.98746798770097" lon="8.43779733330701"><ele>146.6</ele><time>2026-04-04T07:07:29.999Z</time></trkpt><trkpt lat="44.9873359423871" lon="8.43783062589512"><ele>145.20000000000002</ele><time>2026-04-04T07:07:31.999Z</time></trkpt><trkpt lat="44.98725866570166" lon="8.437843567761517"><ele>143.8</ele><time>2026-04-04T07:07:32.999Z</time></trkpt><trkpt lat="44.98718278039005" lon="8.437845560411581"><ele>142.4</ele><time>2026-04-04T07:07:33.999Z</time></trkpt><trkpt lat="44.98708793049892" lon="8.437847515306538"><ele>141.0</ele><time>2026-04-04T07:07:34.999Z</time></trkpt><trkpt lat="44.98700379440707" lon="8.43785685431569"><ele>141.0</ele><time>2026-04-04T07:07:35.999Z</time></trkpt><trkpt lat="44.986936594846384" lon="8.43787270957695"><ele>141.0</ele><time>2026-04-04T07:07:36.999Z</time></trkpt><trkpt lat="44.98683453518356" lon="8.43788393405756"><ele>141.0</ele><time>2026-04-04T07:07:38.999Z</time></trkpt><trkpt lat="44.986794364429095" lon="8.437770613835943"><ele>141.0</ele><time>2026-04-04T07:07:40.999Z</time></trkpt><trkpt lat="44.98679378415326" lon="8.43766735260346"><ele>141.0</ele><time>2026-04-04T07:07:41.999Z</time></trkpt><trkpt lat="44.98680565179103" lon="8.43754394220603"><ele>141.0</ele><time>2026-04-04T07:07:42.999Z</time></trkpt><trkpt lat="44.986828202371136" lon="8.437386343801043"><ele>141.0</ele><time>2026-04-04T07:07:43.999Z</time></trkpt><trkpt lat="44.98684228698548" lon="8.437274928177168"><ele>141.0</ele><time>2026-04-04T07:07:44.999Z</time></trkpt><trkpt lat="44.98685974260301" lon="8.437174990112014"><ele>141.0</ele><time>2026-04-04T07:07:45.999Z</time></trkpt><trkpt lat="44.98687259372953" lon="8.437071522963784"><ele>141.0</ele><time>2026-04-04T07:07:46.999Z</time></trkpt><trkpt lat="44.98689090621295" lon="8.436971747247338"><ele>141.0</ele><time>2026-04-04T07:07:47.999Z</time></trkpt><trkpt lat="44.9869016305261" lon="8.436838588981615"><ele>141.0</ele><time>2026-04-04T07:07:48.999Z</time></trkpt><trkpt lat="44.9869241450303" lon="8.436732558920252"><ele>141.0</ele><time>2026-04-04T07:07:49.999Z</time></trkpt><trkpt lat="44.98694766697603" lon="8.436635564955171"><ele>141.0</ele><time>2026-04-04T07:07:50.999Z</time></trkpt><trkpt lat="44.98694131029296" lon="8.436439759073792"><ele>141.0</ele><time>2026-04-04T07:07:51.999Z</time></trkpt><trkpt lat="44.98695345704157" lon="8.436315546557612"><ele>141.0</ele><time>2026-04-04T07:07:52.999Z</time></trkpt><trkpt lat="44.98696835432749" lon="8.436201093794516"><ele>141.0</ele><time>2026-04-04T07:07:53.999Z</time></trkpt><trkpt lat="44.98697922500005" lon="8.436089029561947"><ele>140.8</ele><time>2026-04-04T07:07:54.999Z</time></trkpt><trkpt lat="44.9870002370776" lon="8.435989775548803"><ele>140.6</ele><time>2026-04-04T07:07:55.999Z</time></trkpt><trkpt lat="44.98709342459456" lon="8.435851148508023"><ele>140.4</ele><time>2026-04-04T07:07:57.999Z</time></trkpt><trkpt lat="44.987162105676994" lon="8.435811918793217"><ele>140.2</ele><time>2026-04-04T07:07:58.999Z</time></trkpt><trkpt lat="44.987229914902024" lon="8.435682939102142"><ele>140.0</ele><time>2026-04-04T07:08:00.999Z</time></trkpt><trkpt lat="44.987242931238676" lon="8.43547978567583"><ele>140.16666666666666</ele><time>2026-04-04T07:08:02.998Z</time></trkpt><trkpt lat="44.98723873495808" lon="8.435368268825865"><ele>140.33333333333331</ele><time>2026-04-04T07:08:03.998Z</time></trkpt><trkpt lat="44.9872521318608" lon="8.435216518034366"><ele>140.5</ele><time>2026-04-04T07:08:05.998Z</time></trkpt><trkpt lat="44.98724269362418" lon="8.435125768060635"><ele>140.66666666666666</ele><time>2026-04-04T07:08:08Z</time></trkpt><trkpt lat="44.98719690267251" lon="8.435058901736129"><ele>140.83333333333334</ele><time>2026-04-04T07:08:10Z</time></trkpt><trkpt lat="44.98711320885609" lon="8.435047595881194"><ele>141.0</ele><time>2026-04-04T07:08:12Z</time></trkpt><trkpt lat="44.98702863497039" lon="8.435027034811748"><ele>141.0</ele><time>2026-04-04T07:08:13Z</time></trkpt><trkpt lat="44.98696283018271" lon="8.435031343257103"><ele>141.0</ele><time>2026-04-04T07:08:14Z</time></trkpt><trkpt lat="44.98689534251866" lon="8.435024238304461"><ele>141.0</ele><time>2026-04-04T07:08:15Z</time></trkpt><trkpt lat="44.98679817597522" lon="8.435030815911775"><ele>141.0</ele><time>2026-04-04T07:08:16Z</time></trkpt><trkpt lat="44.98671470879219" lon="8.435030332532195"><ele>141.0</ele><time>2026-04-04T07:08:17Z</time></trkpt><trkpt lat="44.98660190308701" lon="8.435032411184883"><ele>141.0</ele><time>2026-04-04T07:08:19Z</time></trkpt><trkpt lat="44.98653421612113" lon="8.435017812105945"><ele>141.66666666666666</ele><time>2026-04-04T07:08:20Z</time></trkpt><trkpt lat="44.98646669734605" lon="8.435002601473885"><ele>142.33333333333334</ele><time>2026-04-04T07:08:21Z</time></trkpt><trkpt lat="44.98638679376442" lon="8.435009274734327"><ele>143.0</ele><time>2026-04-04T07:08:22Z</time></trkpt><trkpt lat="44.98629909819032" lon="8.435002259781351"><ele>143.66666666666669</ele><time>2026-04-04T07:08:23Z</time></trkpt><trkpt lat="44.98621941626621" lon="8.434992253120672"><ele>144.33333333333334</ele><time>2026-04-04T07:08:24Z</time></trkpt><trkpt lat="44.98613843278122" lon="8.435000628141026"><ele>145.0</ele><time>2026-04-04T07:08:25Z</time></trkpt><trkpt lat="44.98602242121754" lon="8.434998802447318"><ele>145.0</ele><time>2026-04-04T07:08:27Z</time></trkpt><trkpt lat="44.985962386858745" lon="8.43487945460097"><ele>145.0</ele><time>2026-04-04T07:08:29Z</time></trkpt><trkpt lat="44.98594781643103" lon="8.434769289880501"><ele>145.0</ele><time>2026-04-04T07:08:30Z</time></trkpt><trkpt lat="44.98594086496663" lon="8.434637037060893"><ele>145.0</ele><time>2026-04-04T07:08:31Z</time></trkpt><trkpt lat="44.985931312455826" lon="8.434527739498204"><ele>145.0</ele><time>2026-04-04T07:08:32Z</time></trkpt><trkpt lat="44.98591768421758" lon="8.434425119448974"><ele>145.0</ele><time>2026-04-04T07:08:33Z</time></trkpt><trkpt lat="44.985904354085875" lon="8.434310575883865"><ele>144.6</ele><time>2026-04-04T07:08:34Z</time></trkpt><trkpt lat="44.98589810921561" lon="8.434192107609812"><ele>144.2</ele><time>2026-04-04T07:08:35Z</time></trkpt><trkpt lat="44.985898325298194" lon="8.434057535822651"><ele>143.8</ele><time>2026-04-04T07:08:36Z</time></trkpt><trkpt lat="44.98589498764735" lon="8.433897667557842"><ele>143.4</ele><time>2026-04-04T07:08:37Z</time></trkpt><trkpt lat="44.98588820774858" lon="8.433772839569315"><ele>143.0</ele><time>2026-04-04T07:08:38Z</time></trkpt><trkpt lat="44.98587647800619" lon="8.43362080661852"><ele>143.0</ele><time>2026-04-04T07:08:39Z</time></trkpt><trkpt lat="44.98587091978477" lon="8.433461381597967"><ele>143.0</ele><time>2026-04-04T07:08:40Z</time></trkpt><trkpt lat="44.98587237957115" lon="8.433339314647522"><ele>143.0</ele><time>2026-04-04T07:08:41Z</time></trkpt><trkpt lat="44.98586837696424" lon="8.433197568331758"><ele>143.0</ele><time>2026-04-04T07:08:42Z</time></trkpt><trkpt lat="44.98586348919995" lon="8.433056973393581"><ele>143.0</ele><time>2026-04-04T07:08:43Z</time></trkpt><trkpt lat="44.98586618742129" lon="8.432928430543848"><ele>142.66666666666666</ele><time>2026-04-04T07:08:43.999Z</time></trkpt><trkpt lat="44.98586075799267" lon="8.432824652523822"><ele>142.33333333333331</ele><time>2026-04-04T07:08:44.999Z</time></trkpt><trkpt lat="44.98585258565549" lon="8.432733901390959"><ele>142.0</ele><time>2026-04-04T07:08:45.999Z</time></trkpt><trkpt lat="44.98583355122938" lon="8.432602672213775"><ele>141.66666666666666</ele><time>2026-04-04T07:08:47.999Z</time></trkpt><trkpt lat="44.985799950350255" lon="8.4324855460472"><ele>141.33333333333334</ele><time>2026-04-04T07:08:49.999Z</time></trkpt><trkpt lat="44.9857621686541" lon="8.432405074629798"><ele>141.0</ele><time>2026-04-04T07:08:50.999Z</time></trkpt><trkpt lat="44.9857068505256" lon="8.432310499697946"><ele>141.0</ele><time>2026-04-04T07:08:51.999Z</time></trkpt><trkpt lat="44.98565144384627" lon="8.432255999080274"><ele>141.0</ele><time>2026-04-04T07:08:52.999Z</time></trkpt><trkpt lat="44.98558960426252" lon="8.432169616037955"><ele>141.0</ele><time>2026-04-04T07:08:53.999Z</time></trkpt><trkpt lat="44.98551694217869" lon="8.43207298536299"><ele>141.0</ele><time>2026-04-04T07:08:54.999Z</time></trkpt><trkpt lat="44.985445095720756" lon="8.43195134424348"><ele>141.0</ele><time>2026-04-04T07:08:55.999Z</time></trkpt><trkpt lat="44.98536677217296" lon="8.431832168334015"><ele>140.6</ele><time>2026-04-04T07:08:56.999Z</time></trkpt><trkpt lat="44.98531324252247" lon="8.431727212505459"><ele>140.2</ele><time>2026-04-04T07:08:57.999Z</time></trkpt><trkpt lat="44.98525230841516" lon="8.431592244600148"><ele>139.8</ele><time>2026-04-04T07:08:58.999Z</time></trkpt><trkpt lat="44.98519428476822" lon="8.431434996896511"><ele>139.4</ele><time>2026-04-04T07:08:59.999Z</time></trkpt><trkpt lat="44.98515668944209" lon="8.43127839679246"><ele>139.0</ele><time>2026-04-04T07:09:00.999Z</time></trkpt><trkpt lat="44.98511445174224" lon="8.431118624386272"><ele>139.0</ele><time>2026-04-04T07:09:01.999Z</time></trkpt><trkpt lat="44.985061596446805" lon="8.430962721349413"><ele>139.0</ele><time>2026-04-04T07:09:02.999Z</time></trkpt><trkpt lat="44.98500965794348" lon="8.430793117314753"><ele>139.0</ele><time>2026-04-04T07:09:03.999Z</time></trkpt><trkpt lat="44.98496377578825" lon="8.430614170645132"><ele>139.0</ele><time>2026-04-04T07:09:04.999Z</time></trkpt><trkpt lat="44.98493367778194" lon="8.430481716777308"><ele>140.0</ele><time>2026-04-04T07:09:05.999Z</time></trkpt><trkpt lat="44.984909063918806" lon="8.430354357794656"><ele>141.0</ele><time>2026-04-04T07:09:06.999Z</time></trkpt><trkpt lat="44.98489373472395" lon="8.430251574137985"><ele>142.0</ele><time>2026-04-04T07:09:07.999Z</time></trkpt><trkpt lat="44.98487917742321" lon="8.430161228689315"><ele>143.0</ele><time>2026-04-04T07:09:08.999Z</time></trkpt><trkpt lat="44.98484696328623" lon="8.42999225408571"><ele>144.0</ele><time>2026-04-04T07:09:10.999Z</time></trkpt><trkpt lat="44.98482661644899" lon="8.42988737065292"><ele>145.0</ele><time>2026-04-04T07:09:11.999Z</time></trkpt><trkpt lat="44.984803955886214" lon="8.429791563317035"><ele>145.0</ele><time>2026-04-04T07:09:12.999Z</time></trkpt><trkpt lat="44.98478141036528" lon="8.429668692036106"><ele>145.0</ele><time>2026-04-04T07:09:13.999Z</time></trkpt><trkpt lat="44.98475459015307" lon="8.429560294027077"><ele>145.0</ele><time>2026-04-04T07:09:15.999Z</time></trkpt><trkpt lat="44.98474096566809" lon="8.429650725983112"><ele>145.0</ele><time>2026-04-04T07:09:37.999Z</time></trkpt><trkpt lat="44.98476423278952" lon="8.429737376440512"><ele>145.0</ele><time>2026-04-04T07:09:40.999Z</time></trkpt><trkpt lat="44.98475811542269" lon="8.429829311163392"><ele>145.0</ele><time>2026-04-04T07:09:51.999Z</time></trkpt><trkpt lat="44.984765937838" lon="8.429940806569041"><ele>145.0</ele><time>2026-04-04T07:09:52.999Z</time></trkpt><trkpt lat="44.98479720882697" lon="8.43005988671451"><ele>145.0</ele><time>2026-04-04T07:09:53.999Z</time></trkpt><trkpt lat="44.98482192681067" lon="8.430152371117195"><ele>145.0</ele><time>2026-04-04T07:09:54.999Z</time></trkpt><trkpt lat="44.98486395345121" lon="8.430311688937072"><ele>145.0</ele><time>2026-04-04T07:09:56.999Z</time></trkpt><trkpt lat="44.98489397742359" lon="8.430407048485867"><ele>145.0</ele><time>2026-04-04T07:09:57.999Z</time></trkpt><trkpt lat="44.985010355560405" lon="8.430394100903863"><ele>145.0</ele><time>2026-04-04T07:10:00.999Z</time></trkpt><trkpt lat="44.98507819981713" lon="8.43036554740596"><ele>144.66666666666669</ele><time>2026-04-04T07:10:01.999Z</time></trkpt><trkpt lat="44.98516099214999" lon="8.430338150506055"><ele>144.33333333333334</ele><time>2026-04-04T07:10:02.999Z</time></trkpt><trkpt lat="44.9852464122646" lon="8.430309821833099"><ele>144.0</ele><time>2026-04-04T07:10:03.999Z</time></trkpt><trkpt lat="44.985326430304355" lon="8.430287750258252"><ele>143.66666666666666</ele><time>2026-04-04T07:10:04.999Z</time></trkpt><trkpt lat="44.985405974431316" lon="8.430263117715317"><ele>143.33333333333331</ele><time>2026-04-04T07:10:05.998Z</time></trkpt><trkpt lat="44.985481613830906" lon="8.430237077898232"><ele>143.0</ele><time>2026-04-04T07:10:06.998Z</time></trkpt><trkpt lat="44.98556784120555" lon="8.430197682735162"><ele>143.0</ele><time>2026-04-04T07:10:07.998Z</time></trkpt><trkpt lat="44.985654043813646" lon="8.430172493486355"><ele>143.0</ele><time>2026-04-04T07:10:08.998Z</time></trkpt><trkpt lat="44.98572872157446" lon="8.43016667905898"><ele>143.0</ele><time>2026-04-04T07:10:09.998Z</time></trkpt><trkpt lat="44.98581562469827" lon="8.43014142585266"><ele>143.0</ele><time>2026-04-04T07:10:10.998Z</time></trkpt><trkpt lat="44.985891650550705" lon="8.430124358730623"><ele>143.0</ele><time>2026-04-04T07:10:11.998Z</time></trkpt><trkpt lat="44.98603252249915" lon="8.430089798669483"><ele>142.20000000000002</ele><time>2026-04-04T07:10:14Z</time></trkpt><trkpt lat="44.98613139934977" lon="8.43006933560944"><ele>141.4</ele><time>2026-04-04T07:10:15Z</time></trkpt><trkpt lat="44.986242962249406" lon="8.43004974719502"><ele>140.60000000000002</ele><time>2026-04-04T07:10:16Z</time></trkpt><trkpt lat="44.98634201268733" lon="8.430025527184695"><ele>139.8</ele><time>2026-04-04T07:10:17Z</time></trkpt><trkpt lat="44.986414299885354" lon="8.430003986048584"><ele>139.0</ele><time>2026-04-04T07:10:18Z</time></trkpt><trkpt lat="44.98652274878674" lon="8.429979259718227"><ele>139.0</ele><time>2026-04-04T07:10:20Z</time></trkpt><trkpt lat="44.986542479583" lon="8.429855182144413"><ele>139.0</ele><time>2026-04-04T07:10:23Z</time></trkpt><trkpt lat="44.986518319519625" lon="8.429771690596555"><ele>139.0</ele><time>2026-04-04T07:10:24Z</time></trkpt><trkpt lat="44.98647177362736" lon="8.4297052549155"><ele>139.0</ele><time>2026-04-04T07:10:25Z</time></trkpt><trkpt lat="44.986374495105515" lon="8.429604803780144"><ele>139.0</ele><time>2026-04-04T07:10:27Z</time></trkpt><trkpt lat="44.986322980181505" lon="8.429508849522588"><ele>139.0</ele><time>2026-04-04T07:10:28Z</time></trkpt><trkpt lat="44.98629722546804" lon="8.429420616965366"><ele>139.14285714285714</ele><time>2026-04-04T07:10:29Z</time></trkpt><trkpt lat="44.98628652194364" lon="8.429325681963178"><ele>139.28571428571428</ele><time>2026-04-04T07:10:30Z</time></trkpt><trkpt lat="44.9862847455777" lon="8.429228249009524"><ele>139.42857142857144</ele><time>2026-04-04T07:10:31Z</time></trkpt><trkpt lat="44.98628583028086" lon="8.429136389960735"><ele>139.57142857142856</ele><time>2026-04-04T07:10:32Z</time></trkpt><trkpt lat="44.9862811637945" lon="8.429028692551926"><ele>139.71428571428572</ele><time>2026-04-04T07:10:33Z</time></trkpt><trkpt lat="44.98627220225782" lon="8.428895642191288"><ele>139.85714285714286</ele><time>2026-04-04T07:10:34Z</time></trkpt><trkpt lat="44.98626729987504" lon="8.428794860668836"><ele>140.0</ele><time>2026-04-04T07:10:35Z</time></trkpt><trkpt lat="44.986262644164235" lon="8.428691517596247"><ele>140.0</ele><time>2026-04-04T07:10:36Z</time></trkpt><trkpt lat="44.98625565604342" lon="8.428597064319376"><ele>140.0</ele><time>2026-04-04T07:10:37Z</time></trkpt><trkpt lat="44.98625295000129" lon="8.42843287212628"><ele>140.0</ele><time>2026-04-04T07:10:39Z</time></trkpt><trkpt lat="44.98630199890931" lon="8.428320559377697"><ele>140.0</ele><time>2026-04-04T07:10:43Z</time></trkpt><trkpt lat="44.986374903083465" lon="8.428280872367553"><ele>140.0</ele><time>2026-04-04T07:10:45Z</time></trkpt><trkpt lat="44.98643891745834" lon="8.428253347477291"><ele>140.0</ele><time>2026-04-04T07:10:46Z</time></trkpt><trkpt lat="44.986536482318805" lon="8.428181367279384"><ele>140.0</ele><time>2026-04-04T07:10:48Z</time></trkpt><trkpt lat="44.986584988214545" lon="8.42807267920719"><ele>140.0</ele><time>2026-04-04T07:10:50Z</time></trkpt><trkpt lat="44.98658307914725" lon="8.427954463704435"><ele>140.0</ele><time>2026-04-04T07:10:52Z</time></trkpt><trkpt lat="44.98655584228071" lon="8.427853469760512"><ele>140.0</ele><time>2026-04-04T07:10:53.999Z</time></trkpt><trkpt lat="44.98650761654746" lon="8.42772280683096"><ele>140.0</ele><time>2026-04-04T07:10:55.999Z</time></trkpt><trkpt lat="44.98648096580338" lon="8.427571859746966"><ele>140.0</ele><time>2026-04-04T07:10:57.999Z</time></trkpt><trkpt lat="44.98647046966438" lon="8.427458750483325"><ele>140.0</ele><time>2026-04-04T07:10:59.999Z</time></trkpt><trkpt lat="44.98646805082369" lon="8.427367153375986"><ele>140.0</ele><time>2026-04-04T07:11:00.999Z</time></trkpt><trkpt lat="44.98645684573586" lon="8.427239467886334"><ele>140.0</ele><time>2026-04-04T07:11:02.999Z</time></trkpt><trkpt lat="44.986444214299866" lon="8.427111152381007"><ele>140.0</ele><time>2026-04-04T07:11:04.999Z</time></trkpt><trkpt lat="44.98644763356176" lon="8.426987119796173"><ele>140.0</ele><time>2026-04-04T07:11:06.999Z</time></trkpt><trkpt lat="44.98643985753475" lon="8.426828155931236"><ele>140.0</ele><time>2026-04-04T07:11:08.999Z</time></trkpt><trkpt lat="44.98643865429661" lon="8.426738682929832"><ele>140.0</ele><time>2026-04-04T07:11:09.999Z</time></trkpt><trkpt lat="44.986445345946855" lon="8.426626246964377"><ele>140.0</ele><time>2026-04-04T07:11:10.999Z</time></trkpt><trkpt lat="44.986469155874005" lon="8.426454632904544"><ele>140.0</ele><time>2026-04-04T07:11:12.999Z</time></trkpt><trkpt lat="44.9864826158167" lon="8.426311761435203"><ele>140.0</ele><time>2026-04-04T07:11:14.999Z</time></trkpt><trkpt lat="44.98643201148831" lon="8.426166674788366"><ele>140.16666666666666</ele><time>2026-04-04T07:11:16.999Z</time></trkpt><trkpt lat="44.986396194315965" lon="8.426069264332037"><ele>140.33333333333331</ele><time>2026-04-04T07:11:18.999Z</time></trkpt><trkpt lat="44.98640192780446" lon="8.425903673000459"><ele>140.5</ele><time>2026-04-04T07:11:20.999Z</time></trkpt><trkpt lat="44.98641679199168" lon="8.425799071478956"><ele>140.66666666666666</ele><time>2026-04-04T07:11:21.999Z</time></trkpt><trkpt lat="44.98641368203027" lon="8.425699654970227"><ele>140.83333333333334</ele><time>2026-04-04T07:11:22.999Z</time></trkpt><trkpt lat="44.986402386670484" lon="8.42554758773645"><ele>141.0</ele><time>2026-04-04T07:11:24.999Z</time></trkpt><trkpt lat="44.98637657518274" lon="8.425373460595727"><ele>141.0</ele><time>2026-04-04T07:11:26.999Z</time></trkpt><trkpt lat="44.98636342044276" lon="8.42526860480169"><ele>141.0</ele><time>2026-04-04T07:11:27.999Z</time></trkpt><trkpt lat="44.98635018773408" lon="8.425175549252959"><ele>141.0</ele><time>2026-04-04T07:11:28.999Z</time></trkpt><trkpt lat="44.98633407727427" lon="8.425080907195516"><ele>141.0</ele><time>2026-04-04T07:11:29.999Z</time></trkpt><trkpt lat="44.98632137230543" lon="8.4249364077896"><ele>141.0</ele><time>2026-04-04T07:11:31.999Z</time></trkpt><trkpt lat="44.986306974398744" lon="8.424830605062729"><ele>141.0</ele><time>2026-04-04T07:11:33.999Z</time></trkpt><trkpt lat="44.98627926986152" lon="8.424652696962596"><ele>140.83333333333334</ele><time>2026-04-04T07:11:35.999Z</time></trkpt><trkpt lat="44.986270254530844" lon="8.42453890648524"><ele>140.66666666666666</ele><time>2026-04-04T07:11:37.999Z</time></trkpt><trkpt lat="44.986263851452414" lon="8.424442458771152"><ele>140.5</ele><time>2026-04-04T07:17:17.999Z</time></trkpt><trkpt lat="44.98626165745478" lon="8.424315226299335"><ele>140.33333333333331</ele><time>2026-04-04T07:17:19.999Z</time></trkpt><trkpt lat="44.986254972596036" lon="8.424213736989557"><ele>140.16666666666666</ele><time>2026-04-04T07:17:21.999Z</time></trkpt><trkpt lat="44.986261192090296" lon="8.424123731853463"><ele>140.0</ele><time>2026-04-04T07:17:30.999Z</time></trkpt><trkpt lat="44.98623975252126" lon="8.424011312640896"><ele>140.0</ele><time>2026-04-04T07:17:33.999Z</time></trkpt><trkpt lat="44.986228771517574" lon="8.423882951840877"><ele>140.0</ele><time>2026-04-04T07:17:35.999Z</time></trkpt><trkpt lat="44.986236049144864" lon="8.423757279041084"><ele>140.0</ele><time>2026-04-04T07:17:37.999Z</time></trkpt><trkpt lat="44.98622907643879" lon="8.42366307498915"><ele>140.0</ele><time>2026-04-04T07:17:40.999Z</time></trkpt><trkpt lat="44.986238323235106" lon="8.423544730013585"><ele>140.0</ele><time>2026-04-04T07:17:43.999Z</time></trkpt><trkpt lat="44.986251978922546" lon="8.423429828681833"><ele>140.0</ele><time>2026-04-04T07:17:45.999Z</time></trkpt><trkpt lat="44.98625519702244" lon="8.423310696515953"><ele>140.4</ele><time>2026-04-04T07:17:47.999Z</time></trkpt><trkpt lat="44.986270728145115" lon="8.423171122227332"><ele>140.8</ele><time>2026-04-04T07:17:49.999Z</time></trkpt><trkpt lat="44.98628161159412" lon="8.423083236293078"><ele>141.2</ele><time>2026-04-04T07:17:50.999Z</time></trkpt><trkpt lat="44.98630736432698" lon="8.422925948405522"><ele>141.6</ele><time>2026-04-04T07:17:52.999Z</time></trkpt><trkpt lat="44.98632189777512" lon="8.422773018404582"><ele>142.0</ele><time>2026-04-04T07:17:54.999Z</time></trkpt><trkpt lat="44.98632487724907" lon="8.4226804971063"><ele>142.0</ele><time>2026-04-04T07:17:55.999Z</time></trkpt><trkpt lat="44.98633503092921" lon="8.422589852224927"><ele>142.0</ele><time>2026-04-04T07:17:56.999Z</time></trkpt><trkpt lat="44.98634437429804" lon="8.422486327578325"><ele>142.0</ele><time>2026-04-04T07:17:57.999Z</time></trkpt><trkpt lat="44.98638403114121" lon="8.422306739961488"><ele>142.0</ele><time>2026-04-04T07:17:59.999Z</time></trkpt><trkpt lat="44.986406932249984" lon="8.42217589681583"><ele>142.0</ele><time>2026-04-04T07:18:00.999Z</time></trkpt><trkpt lat="44.98642453560527" lon="8.422066075213609"><ele>142.0</ele><time>2026-04-04T07:18:01.999Z</time></trkpt><trkpt lat="44.98645085405704" lon="8.421907187621242"><ele>142.0</ele><time>2026-04-04T07:18:03.999Z</time></trkpt><trkpt lat="44.986465067508036" lon="8.421789345958052"><ele>142.0</ele><time>2026-04-04T07:18:05.999Z</time></trkpt><trkpt lat="44.98647535878501" lon="8.42169586589327"><ele>142.0</ele><time>2026-04-04T07:18:06.999Z</time></trkpt><trkpt lat="44.986509035609075" lon="8.421519610950641"><ele>142.0</ele><time>2026-04-04T07:18:08.999Z</time></trkpt><trkpt lat="44.98652116025085" lon="8.421398244512472"><ele>142.0</ele><time>2026-04-04T07:18:09.999Z</time></trkpt><trkpt lat="44.98653440828587" lon="8.421310895003353"><ele>142.0</ele><time>2026-04-04T07:18:10.999Z</time></trkpt><trkpt lat="44.98654911328443" lon="8.421202536899782"><ele>142.0</ele><time>2026-04-04T07:18:11.999Z</time></trkpt><trkpt lat="44.98656510599182" lon="8.421097336655633"><ele>142.0</ele><time>2026-04-04T07:18:12.999Z</time></trkpt><trkpt lat="44.98658680477841" lon="8.420982235036726"><ele>142.0</ele><time>2026-04-04T07:18:13.999Z</time></trkpt><trkpt lat="44.98660279270148" lon="8.420878948241771"><ele>142.0</ele><time>2026-04-04T07:18:14.999Z</time></trkpt><trkpt lat="44.98662144421414" lon="8.420767308522871"><ele>142.0</ele><time>2026-04-04T07:18:15.999Z</time></trkpt><trkpt lat="44.9866411558017" lon="8.420643926453337"><ele>142.0</ele><time>2026-04-04T07:18:16.999Z</time></trkpt><trkpt lat="44.98665267061963" lon="8.420524423557765"><ele>142.0</ele><time>2026-04-04T07:18:17.999Z</time></trkpt><trkpt lat="44.98665939749061" lon="8.42041413998155"><ele>142.0</ele><time>2026-04-04T07:18:18.999Z</time></trkpt><trkpt lat="44.98666322600867" lon="8.42031335040991"><ele>142.0</ele><time>2026-04-04T07:18:19.999Z</time></trkpt><trkpt lat="44.98666420630994" lon="8.420205478173749"><ele>142.0</ele><time>2026-04-04T07:18:20.999Z</time></trkpt><trkpt lat="44.98666297360419" lon="8.420050147700323"><ele>142.0</ele><time>2026-04-04T07:18:22.999Z</time></trkpt><trkpt lat="44.986681279886845" lon="8.419957395700326"><ele>142.0</ele><time>2026-04-04T07:18:23.999Z</time></trkpt><trkpt lat="44.986701089407866" lon="8.419853034180816"><ele>141.66666666666669</ele><time>2026-04-04T07:18:24.998Z</time></trkpt><trkpt lat="44.98672528969987" lon="8.419720025177476"><ele>141.33333333333334</ele><time>2026-04-04T07:18:25.998Z</time></trkpt><trkpt lat="44.98673253295833" lon="8.419608835575024"><ele>141.0</ele><time>2026-04-04T07:18:26.998Z</time></trkpt><trkpt lat="44.98673588541964" lon="8.419491573173511"><ele>140.66666666666666</ele><time>2026-04-04T07:18:27.998Z</time></trkpt><trkpt lat="44.98675136148014" lon="8.419367539529436"><ele>140.33333333333331</ele><time>2026-04-04T07:18:28.998Z</time></trkpt><trkpt lat="44.98676396770186" lon="8.419237531243013"><ele>140.0</ele><time>2026-04-04T07:18:29.998Z</time></trkpt><trkpt lat="44.98677727172671" lon="8.419143129446825"><ele>140.0</ele><time>2026-04-04T07:18:30.998Z</time></trkpt><trkpt lat="44.986790273077816" lon="8.419039505041116"><ele>140.0</ele><time>2026-04-04T07:18:31.998Z</time></trkpt><trkpt lat="44.98681307154997" lon="8.418902317294414"><ele>140.0</ele><time>2026-04-04T07:18:33.998Z</time></trkpt><trkpt lat="44.98686908313022" lon="8.418774646058278"><ele>140.0</ele><time>2026-04-04T07:18:35.998Z</time></trkpt><trkpt lat="44.98692917765355" lon="8.41860144400692"><ele>140.0</ele><time>2026-04-04T07:18:38Z</time></trkpt><trkpt lat="44.98695939704748" lon="8.418514191577913"><ele>140.16666666666666</ele><time>2026-04-04T07:18:39Z</time></trkpt><trkpt lat="44.98701875481715" lon="8.41836567886058"><ele>140.33333333333331</ele><time>2026-04-04T07:18:41Z</time></trkpt><trkpt lat="44.98707106464476" lon="8.418281134560903"><ele>140.5</ele><time>2026-04-04T07:18:43Z</time></trkpt><trkpt lat="44.987103654824516" lon="8.418200451345204"><ele>140.66666666666666</ele><time>2026-04-04T07:18:44Z</time></trkpt><trkpt lat="44.98714658071138" lon="8.418105524023444"><ele>140.83333333333334</ele><time>2026-04-04T07:18:45Z</time></trkpt><trkpt lat="44.98718328748186" lon="8.41801953384525"><ele>141.0</ele><time>2026-04-04T07:18:46Z</time></trkpt><trkpt lat="44.98721915749841" lon="8.417905956146736"><ele>141.16666666666666</ele><time>2026-04-04T07:18:48Z</time></trkpt><trkpt lat="44.98725248567364" lon="8.4177489348969"><ele>141.33333333333334</ele><time>2026-04-04T07:18:50Z</time></trkpt><trkpt lat="44.98727900782689" lon="8.417618202336408"><ele>141.5</ele><time>2026-04-04T07:18:52Z</time></trkpt><trkpt lat="44.98729471253496" lon="8.417526430858315"><ele>141.66666666666669</ele><time>2026-04-04T07:18:53Z</time></trkpt><trkpt lat="44.9873206083137" lon="8.417389601984638"><ele>141.83333333333334</ele><time>2026-04-04T07:18:55Z</time></trkpt><trkpt lat="44.98734211967083" lon="8.417298231339116"><ele>142.0</ele><time>2026-04-04T07:18:56Z</time></trkpt><trkpt lat="44.98736013808928" lon="8.417195979741608"><ele>142.79999999999998</ele><time>2026-04-04T07:18:57Z</time></trkpt><trkpt lat="44.98740414993845" lon="8.417013457162092"><ele>143.6</ele><time>2026-04-04T07:18:59Z</time></trkpt><trkpt lat="44.987435991719096" lon="8.41685006817753"><ele>144.39999999999998</ele><time>2026-04-04T07:19:01Z</time></trkpt><trkpt lat="44.98745521678713" lon="8.416741616036195"><ele>145.2</ele><time>2026-04-04T07:19:02Z</time></trkpt><trkpt lat="44.98746492611504" lon="8.416585862229287"><ele>146.0</ele><time>2026-04-04T07:19:04Z</time></trkpt><trkpt lat="44.98749018134148" lon="8.416417674822267"><ele>145.5</ele><time>2026-04-04T07:19:06Z</time></trkpt><trkpt lat="44.98752321856978" lon="8.416288716388046"><ele>145.0</ele><time>2026-04-04T07:19:08Z</time></trkpt><trkpt lat="44.98754891259536" lon="8.416044808185667"><ele>144.5</ele><time>2026-04-04T07:19:09.999Z</time></trkpt><trkpt lat="44.9875618824642" lon="8.415882878972406"><ele>144.0</ele><time>2026-04-04T07:19:11.999Z</time></trkpt><trkpt lat="44.98757707046291" lon="8.41578915425377"><ele>144.0</ele><time>2026-04-04T07:19:12.999Z</time></trkpt><trkpt lat="44.98758287698472" lon="8.415634673628523"><ele>144.0</ele><time>2026-04-04T07:19:14.999Z</time></trkpt><trkpt lat="44.98756980305503" lon="8.415440696065588"><ele>144.0</ele><time>2026-04-04T07:19:16.999Z</time></trkpt><trkpt lat="44.98757193599649" lon="8.415345676265975"><ele>144.0</ele><time>2026-04-04T07:19:17.999Z</time></trkpt><trkpt lat="44.98756137427406" lon="8.415197040690275"><ele>144.0</ele><time>2026-04-04T07:19:19.999Z</time></trkpt><trkpt lat="44.987548375654484" lon="8.415107068264215"><ele>143.8</ele><time>2026-04-04T07:19:20.999Z</time></trkpt><trkpt lat="44.98754085293368" lon="8.415006624772325"><ele>143.60000000000002</ele><time>2026-04-04T07:19:21.999Z</time></trkpt><trkpt lat="44.987537247116734" lon="8.414838131524762"><ele>143.4</ele><time>2026-04-04T07:19:23.999Z</time></trkpt><trkpt lat="44.98754283420845" lon="8.41472312042528"><ele>143.20000000000002</ele><time>2026-04-04T07:19:25.999Z</time></trkpt><trkpt lat="44.987540201352736" lon="8.414611599951265"><ele>143.0</ele><time>2026-04-04T07:19:28.999Z</time></trkpt><trkpt lat="44.98756022133066" lon="8.414468189239777"><ele>143.0</ele><time>2026-04-04T07:19:31.999Z</time></trkpt><trkpt lat="44.987556279608754" lon="8.414353634060646"><ele>143.0</ele><time>2026-04-04T07:19:33.999Z</time></trkpt><trkpt lat="44.98753933625408" lon="8.414240463939509"><ele>143.0</ele><time>2026-04-04T07:19:35.999Z</time></trkpt><trkpt lat="44.9875294154252" lon="8.414141089760333"><ele>143.0</ele><time>2026-04-04T07:19:39.999Z</time></trkpt><trkpt lat="44.987492128208515" lon="8.414059641927414"><ele>143.0</ele><time>2026-04-04T07:19:42.999Z</time></trkpt><trkpt lat="44.98753203719893" lon="8.4139467084003"><ele>143.0</ele><time>2026-04-04T07:19:45.999Z</time></trkpt><trkpt lat="44.98759363909281" lon="8.413894803230194"><ele>142.83333333333331</ele><time>2026-04-04T07:19:47.999Z</time></trkpt><trkpt lat="44.98765757123239" lon="8.413799359556297"><ele>142.66666666666666</ele><time>2026-04-04T07:19:50.999Z</time></trkpt><trkpt lat="44.98770293886755" lon="8.413701589869323"><ele>142.5</ele><time>2026-04-04T07:19:53.999Z</time></trkpt><trkpt lat="44.98773449430018" lon="8.413582253205202"><ele>142.33333333333334</ele><time>2026-04-04T07:19:55.999Z</time></trkpt><trkpt lat="44.987759222547524" lon="8.413475963883048"><ele>142.16666666666669</ele><time>2026-04-04T07:19:57.999Z</time></trkpt><trkpt lat="44.98776446070067" lon="8.41337253902256"><ele>142.0</ele><time>2026-04-04T07:19:58.999Z</time></trkpt><trkpt lat="44.987780082341175" lon="8.413266286385083"><ele>142.0</ele><time>2026-04-04T07:19:59.999Z</time></trkpt><trkpt lat="44.98777716094721" lon="8.41315366607283"><ele>142.0</ele><time>2026-04-04T07:20:01.999Z</time></trkpt><trkpt lat="44.98777116395959" lon="8.413012549341424"><ele>142.0</ele><time>2026-04-04T07:20:03.999Z</time></trkpt><trkpt lat="44.98769858804399" lon="8.412945074688"><ele>142.0</ele><time>2026-04-04T07:20:05.999Z</time></trkpt><trkpt lat="44.98762735530903" lon="8.41294894449313"><ele>142.0</ele><time>2026-04-04T07:20:06.999Z</time></trkpt><trkpt lat="44.98755808016187" lon="8.412948152783903"><ele>142.0</ele><time>2026-04-04T07:20:07.999Z</time></trkpt><trkpt lat="44.98749473025781" lon="8.412955334556258"><ele>142.6</ele><time>2026-04-04T07:20:08.999Z</time></trkpt><trkpt lat="44.98738488916862" lon="8.412955220236867"><ele>143.2</ele><time>2026-04-04T07:20:10.999Z</time></trkpt><trkpt lat="44.98729240110671" lon="8.412955833218358"><ele>143.8</ele><time>2026-04-04T07:20:12.999Z</time></trkpt><trkpt lat="44.98717896112429" lon="8.412925488598914"><ele>144.4</ele><time>2026-04-04T07:20:14.999Z</time></trkpt><trkpt lat="44.98707838282458" lon="8.412909469874716"><ele>145.0</ele><time>2026-04-04T07:20:16.999Z</time></trkpt><trkpt lat="44.986958167345776" lon="8.412898091643262"><ele>145.0</ele><time>2026-04-04T07:20:18.999Z</time></trkpt><trkpt lat="44.986835462225926" lon="8.41287329282302"><ele>145.0</ele><time>2026-04-04T07:20:20.999Z</time></trkpt><trkpt lat="44.98672280335222" lon="8.412861245912001"><ele>145.0</ele><time>2026-04-04T07:20:22.999Z</time></trkpt><trkpt lat="44.986603725323135" lon="8.412820922389937"><ele>145.0</ele><time>2026-04-04T07:20:24.999Z</time></trkpt><trkpt lat="44.986505381132865" lon="8.412777253751992"><ele>145.5</ele><time>2026-04-04T07:20:26.999Z</time></trkpt><trkpt lat="44.98641745773899" lon="8.412731649141303"><ele>146.0</ele><time>2026-04-04T07:20:28.999Z</time></trkpt><trkpt lat="44.986343138330724" lon="8.412711732531761"><ele>146.5</ele><time>2026-04-04T07:20:29.999Z</time></trkpt><trkpt lat="44.98625339922087" lon="8.412676437606345"><ele>147.0</ele><time>2026-04-04T07:20:31.998Z</time></trkpt><trkpt lat="44.9861585913225" lon="8.412641820302431"><ele>147.5</ele><time>2026-04-04T07:20:33.998Z</time></trkpt><trkpt lat="44.9860791941458" lon="8.412615036650958"><ele>148.0</ele><time>2026-04-04T07:20:34.998Z</time></trkpt><trkpt lat="44.98600051792922" lon="8.412585101693022"><ele>148.0</ele><time>2026-04-04T07:20:35.998Z</time></trkpt><trkpt lat="44.985921420511325" lon="8.412563510165148"><ele>148.0</ele><time>2026-04-04T07:20:36.998Z</time></trkpt><trkpt lat="44.985846581566754" lon="8.412537826320095"><ele>148.0</ele><time>2026-04-04T07:20:37.998Z</time></trkpt><trkpt lat="44.985774120638276" lon="8.41251859095038"><ele>148.0</ele><time>2026-04-04T07:20:38.998Z</time></trkpt><trkpt lat="44.98571115804488" lon="8.412505070992689"><ele>148.0</ele><time>2026-04-04T07:20:39.998Z</time></trkpt><trkpt lat="44.9856330530817" lon="8.412490522776498"><ele>148.0</ele><time>2026-04-04T07:20:40.998Z</time></trkpt><trkpt lat="44.98555250132436" lon="8.412450061975939"><ele>147.66666666666669</ele><time>2026-04-04T07:20:42.998Z</time></trkpt><trkpt lat="44.98550030151347" lon="8.412369119249613"><ele>147.33333333333334</ele><time>2026-04-04T07:20:45Z</time></trkpt><trkpt lat="44.98550362154091" lon="8.412219818993043"><ele>147.0</ele><time>2026-04-04T07:20:47Z</time></trkpt><trkpt lat="44.98551951135221" lon="8.412114430057223"><ele>146.66666666666666</ele><time>2026-04-04T07:20:48Z</time></trkpt><trkpt lat="44.98552960316571" lon="8.412000831761526"><ele>146.33333333333331</ele><time>2026-04-04T07:20:49Z</time></trkpt><trkpt lat="44.98554032808963" lon="8.411902903371208"><ele>146.0</ele><time>2026-04-04T07:20:50Z</time></trkpt><trkpt lat="44.98555811209746" lon="8.41179287043792"><ele>146.0</ele><time>2026-04-04T07:20:51Z</time></trkpt><trkpt lat="44.985567530813874" lon="8.411652195877437"><ele>146.0</ele><time>2026-04-04T07:20:53Z</time></trkpt><trkpt lat="44.98556713795216" lon="8.411501045557271"><ele>146.0</ele><time>2026-04-04T07:20:55Z</time></trkpt><trkpt lat="44.985600112827484" lon="8.41135997425862"><ele>146.0</ele><time>2026-04-04T07:20:57Z</time></trkpt><trkpt lat="44.98562843610121" lon="8.411226175593365"><ele>146.0</ele><time>2026-04-04T07:20:59Z</time></trkpt><trkpt lat="44.98565554826832" lon="8.411084139068029"><ele>145.8</ele><time>2026-04-04T07:21:01Z</time></trkpt><trkpt lat="44.98569895721914" lon="8.410972400666934"><ele>145.6</ele><time>2026-04-04T07:21:03Z</time></trkpt><trkpt lat="44.98572233169845" lon="8.410884868200695"><ele>145.4</ele><time>2026-04-04T07:21:04Z</time></trkpt><trkpt lat="44.98576592809936" lon="8.410717102908883"><ele>145.2</ele><time>2026-04-04T07:21:06Z</time></trkpt><trkpt lat="44.98580349123158" lon="8.410578672704997"><ele>145.0</ele><time>2026-04-04T07:21:08Z</time></trkpt><trkpt lat="44.98584397534927" lon="8.410426289257458"><ele>145.2</ele><time>2026-04-04T07:21:10Z</time></trkpt><trkpt lat="44.985864356110554" lon="8.410339337405919"><ele>145.4</ele><time>2026-04-04T07:21:11Z</time></trkpt><trkpt lat="44.98589736507709" lon="8.410172851407658"><ele>145.6</ele><time>2026-04-04T07:21:13Z</time></trkpt><trkpt lat="44.9859456214339" lon="8.410026508153786"><ele>145.8</ele><time>2026-04-04T07:21:15Z</time></trkpt><trkpt lat="44.98597834627693" lon="8.409923088016459"><ele>146.0</ele><time>2026-04-04T07:21:16.999Z</time></trkpt><trkpt lat="44.98600049161217" lon="8.409829194839077"><ele>146.0</ele><time>2026-04-04T07:21:17.999Z</time></trkpt><trkpt lat="44.98603680987254" lon="8.409703786147436"><ele>146.0</ele><time>2026-04-04T07:21:18.999Z</time></trkpt><trkpt lat="44.98608603654548" lon="8.409612353864892"><ele>146.0</ele><time>2026-04-04T07:21:19.999Z</time></trkpt><trkpt lat="44.986138260709076" lon="8.409520655136157"><ele>146.0</ele><time>2026-04-04T07:21:20.999Z</time></trkpt><trkpt lat="44.986114467062954" lon="8.40938639729832"><ele>146.0</ele><time>2026-04-04T07:21:22.999Z</time></trkpt><trkpt lat="44.98613722704372" lon="8.40928764203102"><ele>146.0</ele><time>2026-04-04T07:21:23.999Z</time></trkpt><trkpt lat="44.98616289847664" lon="8.409181871837404"><ele>145.83333333333331</ele><time>2026-04-04T07:21:24.999Z</time></trkpt><trkpt lat="44.98618977960074" lon="8.40908260555149"><ele>145.66666666666666</ele><time>2026-04-04T07:21:25.999Z</time></trkpt><trkpt lat="44.986217982051" lon="8.408973973895932"><ele>145.5</ele><time>2026-04-04T07:21:26.999Z</time></trkpt><trkpt lat="44.98625264438989" lon="8.408855558667673"><ele>145.33333333333334</ele><time>2026-04-04T07:21:27.999Z</time></trkpt><trkpt lat="44.986271779035036" lon="8.408741810119002"><ele>145.16666666666669</ele><time>2026-04-04T07:21:28.999Z</time></trkpt><trkpt lat="44.986301782421165" lon="8.40862768902211"><ele>145.0</ele><time>2026-04-04T07:21:29.999Z</time></trkpt><trkpt lat="44.9863309533767" lon="8.408519507068982"><ele>145.0</ele><time>2026-04-04T07:21:30.999Z</time></trkpt><trkpt lat="44.98636811248419" lon="8.408369789256936"><ele>145.0</ele><time>2026-04-04T07:21:32.999Z</time></trkpt><trkpt lat="44.986381405758365" lon="8.408220287801438"><ele>145.0</ele><time>2026-04-04T07:21:34.999Z</time></trkpt><trkpt lat="44.98637363832002" lon="8.40813097536358"><ele>145.0</ele><time>2026-04-04T07:21:35.999Z</time></trkpt><trkpt lat="44.98634645004171" lon="8.408041267673402"><ele>145.0</ele><time>2026-04-04T07:21:36.999Z</time></trkpt><trkpt lat="44.98631237211865" lon="8.40796401758137"><ele>145.0</ele><time>2026-04-04T07:21:37.999Z</time></trkpt><trkpt lat="44.9862652852084" lon="8.407835867662554"><ele>145.33333333333334</ele><time>2026-04-04T07:21:39.999Z</time></trkpt><trkpt lat="44.986243602176096" lon="8.407714390642559"><ele>145.66666666666669</ele><time>2026-04-04T07:21:41.999Z</time></trkpt><trkpt lat="44.98621400939353" lon="8.407628604959875"><ele>146.0</ele><time>2026-04-04T07:21:43.999Z</time></trkpt><trkpt lat="44.986182541115944" lon="8.407533259988258"><ele>146.33333333333334</ele><time>2026-04-04T07:21:45.999Z</time></trkpt><trkpt lat="44.98615242002084" lon="8.40742654931178"><ele>146.66666666666666</ele><time>2026-04-04T07:21:47.999Z</time></trkpt><trkpt lat="44.98612792647806" lon="8.407314637186607"><ele>147.0</ele><time>2026-04-04T07:21:50.999Z</time></trkpt><trkpt lat="44.986103046351445" lon="8.407221035346216"><ele>147.2</ele><time>2026-04-04T07:21:52.999Z</time></trkpt><trkpt lat="44.986080294729646" lon="8.407132799954935"><ele>147.39999999999998</ele><time>2026-04-04T07:21:54.999Z</time></trkpt><trkpt lat="44.986045094225254" lon="8.407019090759137"><ele>147.60000000000002</ele><time>2026-04-04T07:21:56.999Z</time></trkpt><trkpt lat="44.985990690862" lon="8.406847652915966"><ele>147.8</ele><time>2026-04-04T07:21:58.999Z</time></trkpt><trkpt lat="44.98595147702755" lon="8.406689406503881"><ele>148.0</ele><time>2026-04-04T07:22:00.999Z</time></trkpt><trkpt lat="44.98591668281786" lon="8.406612678196781"><ele>148.0</ele><time>2026-04-04T07:22:01.999Z</time></trkpt><trkpt lat="44.98587897624241" lon="8.406514074916176"><ele>148.0</ele><time>2026-04-04T07:22:02.999Z</time></trkpt><trkpt lat="44.98586392855197" lon="8.406405016060377"><ele>148.0</ele><time>2026-04-04T07:22:03.999Z</time></trkpt><trkpt lat="44.98585436849833" lon="8.406279981430048"><ele>148.0</ele><time>2026-04-04T07:22:04.999Z</time></trkpt><trkpt lat="44.98583173494021" lon="8.40614226213987"><ele>148.0</ele><time>2026-04-04T07:22:05.999Z</time></trkpt><trkpt lat="44.985803138672466" lon="8.405978835872174"><ele>149.4</ele><time>2026-04-04T07:22:06.999Z</time></trkpt><trkpt lat="44.9857831398865" lon="8.405817800073345"><ele>150.8</ele><time>2026-04-04T07:22:07.999Z</time></trkpt><trkpt lat="44.985761811152614" lon="8.405699901009173"><ele>152.2</ele><time>2026-04-04T07:22:08.999Z</time></trkpt><trkpt lat="44.98572355997858" lon="8.405476535912484"><ele>153.6</ele><time>2026-04-04T07:22:10.999Z</time></trkpt><trkpt lat="44.98570276454262" lon="8.405381004953068"><ele>155.0</ele><time>2026-04-04T07:22:11.999Z</time></trkpt><trkpt lat="44.985683969397506" lon="8.405246262515517"><ele>155.4</ele><time>2026-04-04T07:22:13.999Z</time></trkpt><trkpt lat="44.98570149478151" lon="8.405141090936786"><ele>155.8</ele><time>2026-04-04T07:22:16.999Z</time></trkpt><trkpt lat="44.98578877046572" lon="8.405051531525704"><ele>156.2</ele><time>2026-04-04T07:22:19.999Z</time></trkpt><trkpt lat="44.9858714059145" lon="8.40505200394516"><ele>156.6</ele><time>2026-04-04T07:22:20.999Z</time></trkpt><trkpt lat="44.985972493436684" lon="8.405074261592087"><ele>157.0</ele><time>2026-04-04T07:22:21.999Z</time></trkpt><trkpt lat="44.98608181495943" lon="8.405074220596891"><ele>157.0</ele><time>2026-04-04T07:22:22.999Z</time></trkpt><trkpt lat="44.98620060181634" lon="8.405054063457767"><ele>157.0</ele><time>2026-04-04T07:22:23.999Z</time></trkpt><trkpt lat="44.986330162918684" lon="8.405041525462362"><ele>157.0</ele><time>2026-04-04T07:22:24.999Z</time></trkpt><trkpt lat="44.98646095574" lon="8.405036422585882"><ele>157.0</ele><time>2026-04-04T07:22:25.999Z</time></trkpt><trkpt lat="44.986578418220454" lon="8.405026145284577"><ele>156.0</ele><time>2026-04-04T07:22:26.999Z</time></trkpt><trkpt lat="44.98668686515668" lon="8.405013399879921"><ele>155.0</ele><time>2026-04-04T07:22:27.999Z</time></trkpt><trkpt lat="44.98678975580104" lon="8.405008289689894"><ele>154.0</ele><time>2026-04-04T07:22:28.999Z</time></trkpt><trkpt lat="44.98690326920025" lon="8.405003586185726"><ele>153.0</ele><time>2026-04-04T07:22:29.999Z</time></trkpt><trkpt lat="44.987030974945675" lon="8.404986234729018"><ele>153.0</ele><time>2026-04-04T07:22:30.999Z</time></trkpt><trkpt lat="44.987140945899725" lon="8.404973251805396"><ele>153.0</ele><time>2026-04-04T07:22:31.999Z</time></trkpt><trkpt lat="44.98723966762559" lon="8.404963696354578"><ele>153.0</ele><time>2026-04-04T07:22:32.999Z</time></trkpt><trkpt lat="44.98731768505971" lon="8.40494988634845"><ele>153.0</ele><time>2026-04-04T07:22:33.999Z</time></trkpt><trkpt lat="44.9873950500275" lon="8.404950703631188"><ele>153.0</ele><time>2026-04-04T07:22:34.999Z</time></trkpt><trkpt lat="44.98746021536604" lon="8.404937208924155"><ele>153.0</ele><time>2026-04-04T07:22:35.999Z</time></trkpt><trkpt lat="44.987470116700614" lon="8.404737033055952"><ele>155.2</ele><time>2026-04-04T07:22:39.999Z</time></trkpt><trkpt lat="44.98744141293241" lon="8.404650066947921"><ele>157.4</ele><time>2026-04-04T07:22:40.998Z</time></trkpt><trkpt lat="44.98742178748449" lon="8.404540496945069"><ele>159.6</ele><time>2026-04-04T07:22:41.998Z</time></trkpt><trkpt lat="44.98743522239388" lon="8.404418105587919"><ele>161.79999999999998</ele><time>2026-04-04T07:22:42.998Z</time></trkpt><trkpt lat="44.98744454871569" lon="8.40427517886406"><ele>164.0</ele><time>2026-04-04T07:22:43.998Z</time></trkpt><trkpt lat="44.98745235728274" lon="8.404090318843695"><ele>164.0</ele><time>2026-04-04T07:22:44.998Z</time></trkpt><trkpt lat="44.987435214698536" lon="8.40390656932963"><ele>164.0</ele><time>2026-04-04T07:22:45.998Z</time></trkpt><trkpt lat="44.98740258429113" lon="8.403749898986694"><ele>164.0</ele><time>2026-04-04T07:22:46.998Z</time></trkpt><trkpt lat="44.98734346869624" lon="8.403595671269438"><ele>164.0</ele><time>2026-04-04T07:22:47.998Z</time></trkpt><trkpt lat="44.98727903897357" lon="8.403409308052035"><ele>166.0</ele><time>2026-04-04T07:22:48.998Z</time></trkpt><trkpt lat="44.98725481226174" lon="8.403250066555296"><ele>168.0</ele><time>2026-04-04T07:22:50Z</time></trkpt><trkpt lat="44.98721617690328" lon="8.403132660624484"><ele>170.0</ele><time>2026-04-04T07:22:51Z</time></trkpt><trkpt lat="44.98719505556843" lon="8.403021496882934"><ele>172.0</ele><time>2026-04-04T07:22:52Z</time></trkpt><trkpt lat="44.98718598729803" lon="8.402884285943077"><ele>174.0</ele><time>2026-04-04T07:22:53Z</time></trkpt><trkpt lat="44.987166836671484" lon="8.402777403758614"><ele>175.6</ele><time>2026-04-04T07:22:54Z</time></trkpt><trkpt lat="44.9871541761251" lon="8.402681918533053"><ele>177.2</ele><time>2026-04-04T07:22:55Z</time></trkpt><trkpt lat="44.98714015227126" lon="8.402531098255242"><ele>178.79999999999998</ele><time>2026-04-04T07:22:57Z</time></trkpt><trkpt lat="44.98717875820115" lon="8.402388274721293"><ele>180.39999999999998</ele><time>2026-04-04T07:22:59Z</time></trkpt><trkpt lat="44.987239938626935" lon="8.40229087709713"><ele>182.0</ele><time>2026-04-04T07:23:00Z</time></trkpt><trkpt lat="44.987320185086254" lon="8.402174254475739"><ele>181.39999999999998</ele><time>2026-04-04T07:23:01Z</time></trkpt><trkpt lat="44.98739669616676" lon="8.402068026847182"><ele>180.79999999999998</ele><time>2026-04-04T07:23:02Z</time></trkpt><trkpt lat="44.98747178683447" lon="8.401967784034888"><ele>180.2</ele><time>2026-04-04T07:23:03Z</time></trkpt><trkpt lat="44.98753228065594" lon="8.401861465718648"><ele>179.6</ele><time>2026-04-04T07:23:04Z</time></trkpt><trkpt lat="44.98758019907568" lon="8.401798168986156"><ele>179.0</ele><time>2026-04-04T07:23:05Z</time></trkpt><trkpt lat="44.98759494449921" lon="8.401683483489615"><ele>179.0</ele><time>2026-04-04T07:23:07Z</time></trkpt><trkpt lat="44.98755228751442" lon="8.401596375627776"><ele>179.0</ele><time>2026-04-04T07:23:08Z</time></trkpt><trkpt lat="44.98748229119125" lon="8.40152386316876"><ele>179.0</ele><time>2026-04-04T07:23:09Z</time></trkpt><trkpt lat="44.987405759058454" lon="8.401431599911906"><ele>179.0</ele><time>2026-04-04T07:23:10Z</time></trkpt><trkpt lat="44.98731873103746" lon="8.4013436793732"><ele>179.0</ele><time>2026-04-04T07:23:11Z</time></trkpt><trkpt lat="44.98722648645948" lon="8.401257196794914"><ele>182.6</ele><time>2026-04-04T07:23:12Z</time></trkpt><trkpt lat="44.987131395310094" lon="8.401169943838255"><ele>186.2</ele><time>2026-04-04T07:23:13Z</time></trkpt><trkpt lat="44.98705266831413" lon="8.401094742828924"><ele>189.79999999999998</ele><time>2026-04-04T07:23:14Z</time></trkpt><trkpt lat="44.98698307226753" lon="8.40101594837423"><ele>193.39999999999998</ele><time>2026-04-04T07:23:15Z</time></trkpt><trkpt lat="44.986910557032076" lon="8.400927182042096"><ele>197.0</ele><time>2026-04-04T07:23:16Z</time></trkpt><trkpt lat="44.98684257302029" lon="8.400846254075656"><ele>197.0</ele><time>2026-04-04T07:23:17Z</time></trkpt><trkpt lat="44.986774830214976" lon="8.400782096444223"><ele>197.0</ele><time>2026-04-04T07:23:18Z</time></trkpt><trkpt lat="44.98668449142129" lon="8.400692918022783"><ele>197.0</ele><time>2026-04-04T07:23:20Z</time></trkpt><trkpt lat="44.98666736819468" lon="8.40058484973045"><ele>197.0</ele><time>2026-04-04T07:23:22Z</time></trkpt><trkpt lat="44.986721149605145" lon="8.40042658106556"><ele>197.0</ele><time>2026-04-04T07:23:23.999Z</time></trkpt><trkpt lat="44.98679777743678" lon="8.400311088999826"><ele>198.0</ele><time>2026-04-04T07:23:25.999Z</time></trkpt><trkpt lat="44.98685059273901" lon="8.40021595581761"><ele>199.0</ele><time>2026-04-04T07:23:26.999Z</time></trkpt><trkpt lat="44.98691169376606" lon="8.400109112444762"><ele>200.0</ele><time>2026-04-04T07:23:27.999Z</time></trkpt><trkpt lat="44.98697115399827" lon="8.400005138284245"><ele>201.0</ele><time>2026-04-04T07:23:28.999Z</time></trkpt><trkpt lat="44.98703838220763" lon="8.399887580800138"><ele>202.0</ele><time>2026-04-04T07:23:29.999Z</time></trkpt><trkpt lat="44.987106400079966" lon="8.399768720354277"><ele>203.2</ele><time>2026-04-04T07:23:30.999Z</time></trkpt><trkpt lat="44.98717346362484" lon="8.399650378716435"><ele>204.39999999999998</ele><time>2026-04-04T07:23:31.999Z</time></trkpt><trkpt lat="44.98722532493517" lon="8.399555361347849"><ele>205.60000000000002</ele><time>2026-04-04T07:23:32.999Z</time></trkpt><trkpt lat="44.98727737055701" lon="8.399459756170943"><ele>206.8</ele><time>2026-04-04T07:23:33.999Z</time></trkpt><trkpt lat="44.98731774302184" lon="8.399346961733189"><ele>208.0</ele><time>2026-04-04T07:23:34.999Z</time></trkpt><trkpt lat="44.987369124120306" lon="8.399242208448936"><ele>207.99999999999997</ele><time>2026-04-04T07:23:35.999Z</time></trkpt><trkpt lat="44.98739889875528" lon="8.399128810036368"><ele>208.0</ele><time>2026-04-04T07:23:36.999Z</time></trkpt><trkpt lat="44.98742052504017" lon="8.3990390101743"><ele>208.0</ele><time>2026-04-04T07:23:37.999Z</time></trkpt><trkpt lat="44.987427128432024" lon="8.398934816713918"><ele>208.0</ele><time>2026-04-04T07:23:38.999Z</time></trkpt><trkpt lat="44.98741446712606" lon="8.398822524806807"><ele>207.99999999999997</ele><time>2026-04-04T07:23:39.999Z</time></trkpt><trkpt lat="44.98735774248518" lon="8.398719768367425"><ele>208.0</ele><time>2026-04-04T07:23:41.999Z</time></trkpt><trkpt lat="44.98729377854153" lon="8.398603108456404"><ele>208.60000000000002</ele><time>2026-04-04T07:23:43.999Z</time></trkpt><trkpt lat="44.98724322314338" lon="8.398518954929303"><ele>209.20000000000002</ele><time>2026-04-04T07:23:44.999Z</time></trkpt><trkpt lat="44.987133998377914" lon="8.39845460032764"><ele>209.8</ele><time>2026-04-04T07:23:46.999Z</time></trkpt><trkpt lat="44.98714231718006" lon="8.3982911663415"><ele>210.4</ele><time>2026-04-04T07:23:47.999Z</time></trkpt><trkpt lat="44.987107623572065" lon="8.398195057125887"><ele>211.0</ele><time>2026-04-04T07:23:48.999Z</time></trkpt><trkpt lat="44.98707921682161" lon="8.398109102658413"><ele>210.99999999999997</ele><time>2026-04-04T07:23:49.999Z</time></trkpt><trkpt lat="44.98704191492099" lon="8.39802862747047"><ele>211.0</ele><time>2026-04-04T07:23:50.999Z</time></trkpt><trkpt lat="44.98701136336244" lon="8.397945014011585"><ele>211.0</ele><time>2026-04-04T07:23:51.999Z</time></trkpt><trkpt lat="44.98698386961201" lon="8.397860775194498"><ele>211.0</ele><time>2026-04-04T07:23:52.999Z</time></trkpt><trkpt lat="44.98694850046369" lon="8.397755343428095"><ele>210.99999999999997</ele><time>2026-04-04T07:23:53.999Z</time></trkpt><trkpt lat="44.98690720630241" lon="8.397639011104287"><ele>211.0</ele><time>2026-04-04T07:23:54.999Z</time></trkpt><trkpt lat="44.986881999564936" lon="8.397527940208654"><ele>211.33333333333331</ele><time>2026-04-04T07:23:55.999Z</time></trkpt><trkpt lat="44.986853805396414" lon="8.397419998834758"><ele>211.66666666666666</ele><time>2026-04-04T07:23:56.999Z</time></trkpt><trkpt lat="44.98682671831776" lon="8.397295831868211"><ele>212.0</ele><time>2026-04-04T07:23:57.999Z</time></trkpt><trkpt lat="44.98680837976814" lon="8.39719555606865"><ele>212.33333333333331</ele><time>2026-04-04T07:23:58.999Z</time></trkpt><trkpt lat="44.9867897036425" lon="8.397022546123273"><ele>212.66666666666666</ele><time>2026-04-04T07:24:00.999Z</time></trkpt><trkpt lat="44.98678044594711" lon="8.396914120331125"><ele>213.0</ele><time>2026-04-04T07:24:01.999Z</time></trkpt><trkpt lat="44.98677184197966" lon="8.39678901741331"><ele>213.4</ele><time>2026-04-04T07:24:02.999Z</time></trkpt><trkpt lat="44.9867664742508" lon="8.396670388225935"><ele>213.8</ele><time>2026-04-04T07:24:03.999Z</time></trkpt><trkpt lat="44.9867594913346" lon="8.396565253162807"><ele>214.2</ele><time>2026-04-04T07:24:04.999Z</time></trkpt><trkpt lat="44.98672249517681" lon="8.396398463817583"><ele>214.6</ele><time>2026-04-04T07:24:06.999Z</time></trkpt><trkpt lat="44.986678363281456" lon="8.396290625377402"><ele>215.0</ele><time>2026-04-04T07:24:07.999Z</time></trkpt><trkpt lat="44.98661371466991" lon="8.396199175424012"><ele>214.0</ele><time>2026-04-04T07:24:08.999Z</time></trkpt><trkpt lat="44.98653381544026" lon="8.396115280310545"><ele>213.0</ele><time>2026-04-04T07:24:09.999Z</time></trkpt><trkpt lat="44.98646175021273" lon="8.396046434240509"><ele>212.0</ele><time>2026-04-04T07:24:10.999Z</time></trkpt><trkpt lat="44.986393478365905" lon="8.395970209655484"><ele>211.0</ele><time>2026-04-04T07:24:11.999Z</time></trkpt><trkpt lat="44.98634908973409" lon="8.395890574388243"><ele>210.0</ele><time>2026-04-04T07:24:12.999Z</time></trkpt><trkpt lat="44.98628359936268" lon="8.395714225352215"><ele>210.0</ele><time>2026-04-04T07:24:14.999Z</time></trkpt><trkpt lat="44.98625249754307" lon="8.395590385176707"><ele>210.0</ele><time>2026-04-04T07:24:15.999Z</time></trkpt><trkpt lat="44.986210364500394" lon="8.395463565071685"><ele>210.0</ele><time>2026-04-04T07:24:16.999Z</time></trkpt><trkpt lat="44.986169740508636" lon="8.395323245807898"><ele>210.0</ele><time>2026-04-04T07:24:17.999Z</time></trkpt><trkpt lat="44.98612581023523" lon="8.395181522663274"><ele>210.0</ele><time>2026-04-04T07:24:18.999Z</time></trkpt><trkpt lat="44.98608744726431" lon="8.395052160668511"><ele>211.4</ele><time>2026-04-04T07:24:19.999Z</time></trkpt><trkpt lat="44.986052674652484" lon="8.394936991826256"><ele>212.8</ele><time>2026-04-04T07:24:20.999Z</time></trkpt><trkpt lat="44.98602435989389" lon="8.394808813572652"><ele>214.2</ele><time>2026-04-04T07:24:21.999Z</time></trkpt><trkpt lat="44.98598887681603" lon="8.394686728421597"><ele>215.6</ele><time>2026-04-04T07:24:22.999Z</time></trkpt><trkpt lat="44.985942361352016" lon="8.394556179712133"><ele>217.0</ele><time>2026-04-04T07:24:23.999Z</time></trkpt><trkpt lat="44.98589811698557" lon="8.394430283626178"><ele>217.2</ele><time>2026-04-04T07:24:24.999Z</time></trkpt><trkpt lat="44.98584270064647" lon="8.394294859152037"><ele>217.39999999999998</ele><time>2026-04-04T07:24:25.999Z</time></trkpt><trkpt lat="44.985793404515654" lon="8.394170386212727"><ele>217.60000000000002</ele><time>2026-04-04T07:24:26.999Z</time></trkpt><trkpt lat="44.98574411133614" lon="8.39407434791311"><ele>217.8</ele><time>2026-04-04T07:24:27.999Z</time></trkpt><trkpt lat="44.98568762256329" lon="8.393957099260982"><ele>218.0</ele><time>2026-04-04T07:24:28.999Z</time></trkpt><trkpt lat="44.98560718803081" lon="8.393797045764249"><ele>221.60000000000002</ele><time>2026-04-04T07:24:29.999Z</time></trkpt><trkpt lat="44.98553533425225" lon="8.393691247519898"><ele>225.20000000000002</ele><time>2026-04-04T07:24:30.999Z</time></trkpt><trkpt lat="44.98546813250389" lon="8.393593838809064"><ele>228.8</ele><time>2026-04-04T07:24:31.999Z</time></trkpt><trkpt lat="44.985415253138385" lon="8.393524751202182"><ele>232.4</ele><time>2026-04-04T07:24:32.999Z</time></trkpt><trkpt lat="44.98535588582059" lon="8.393361797331634"><ele>236.0</ele><time>2026-04-04T07:24:34.999Z</time></trkpt><trkpt lat="44.98532172502929" lon="8.393239269318425"><ele>236.0</ele><time>2026-04-04T07:24:35.999Z</time></trkpt><trkpt lat="44.985292190244984" lon="8.393103479045482"><ele>236.00000000000003</ele><time>2026-04-04T07:24:36.999Z</time></trkpt><trkpt lat="44.98525063398637" lon="8.392991720853068"><ele>236.00000000000003</ele><time>2026-04-04T07:24:37.999Z</time></trkpt><trkpt lat="44.985224120051804" lon="8.392869513025126"><ele>236.0</ele><time>2026-04-04T07:24:38.999Z</time></trkpt><trkpt lat="44.985291883321516" lon="8.392768672029051"><ele>236.0</ele><time>2026-04-04T07:24:39.999Z</time></trkpt><trkpt lat="44.98526117689605" lon="8.392663487123547"><ele>235.50000000000003</ele><time>2026-04-04T07:24:42.999Z</time></trkpt><trkpt lat="44.98523691366897" lon="8.39253460489131"><ele>235.0</ele><time>2026-04-04T07:24:45.998Z</time></trkpt><trkpt lat="44.98525069729085" lon="8.39240931650098"><ele>234.5</ele><time>2026-04-04T07:24:47.998Z</time></trkpt><trkpt lat="44.985275384748654" lon="8.392287662470334"><ele>234.0</ele><time>2026-04-04T07:24:49.998Z</time></trkpt><trkpt lat="44.98529796977229" lon="8.392193534388626"><ele>233.50000000000003</ele><time>2026-04-04T07:24:51.998Z</time></trkpt><trkpt lat="44.98532150308603" lon="8.392097960727284"><ele>233.0</ele><time>2026-04-04T07:25:02Z</time></trkpt><trkpt lat="44.985400646940825" lon="8.392106627915975"><ele>233.0</ele><time>2026-04-04T07:25:03Z</time></trkpt><trkpt lat="44.98549288143071" lon="8.3920351179067"><ele>233.0</ele><time>2026-04-04T07:25:04Z</time></trkpt><trkpt lat="44.98557115131404" lon="8.391949574037312"><ele>233.0</ele><time>2026-04-04T07:25:05Z</time></trkpt><trkpt lat="44.985622468890796" lon="8.391851076606685"><ele>233.0</ele><time>2026-04-04T07:25:06Z</time></trkpt><trkpt lat="44.985629304344315" lon="8.39173767513429"><ele>233.0</ele><time>2026-04-04T07:25:07Z</time></trkpt><trkpt lat="44.9856230951286" lon="8.39156994744287"><ele>233.00000000000003</ele><time>2026-04-04T07:25:09Z</time></trkpt><trkpt lat="44.9855756319012" lon="8.391491905049707"><ele>233.0</ele><time>2026-04-04T07:25:10Z</time></trkpt><trkpt lat="44.98551283080778" lon="8.391438794921575"><ele>233.0</ele><time>2026-04-04T07:25:11Z</time></trkpt><trkpt lat="44.98543230230142" lon="8.391429617807649"><ele>233.0</ele><time>2026-04-04T07:27:11Z</time></trkpt><trkpt lat="44.98533615800664" lon="8.391432374151348"><ele>233.00000000000003</ele><time>2026-04-04T07:27:14Z</time></trkpt><trkpt lat="44.985263794347674" lon="8.391441886086428"><ele>233.0</ele><time>2026-04-04T07:27:16Z</time></trkpt><trkpt lat="44.98519761213244" lon="8.391453275158913"><ele>233.00000000000003</ele><time>2026-04-04T07:27:18Z</time></trkpt><trkpt lat="44.98513090633559" lon="8.391457316486216"><ele>233.0</ele><time>2026-04-04T07:27:20Z</time></trkpt><trkpt lat="44.98506691296161" lon="8.391458189378977"><ele>233.0</ele><time>2026-04-04T07:27:22Z</time></trkpt><trkpt lat="44.98499592786485" lon="8.39146398923906"><ele>233.0</ele><time>2026-04-04T07:27:24Z</time></trkpt><trkpt lat="44.98490715047509" lon="8.391471305978273"><ele>233.00000000000003</ele><time>2026-04-04T07:27:26Z</time></trkpt><trkpt lat="44.98482344627965" lon="8.39146715456673"><ele>233.0</ele><time>2026-04-04T07:27:28Z</time></trkpt><trkpt lat="44.984742455964465" lon="8.391465632142868"><ele>231.33333333333334</ele><time>2026-04-04T07:27:30Z</time></trkpt><trkpt lat="44.984659274238126" lon="8.391472127248464"><ele>229.66666666666669</ele><time>2026-04-04T07:27:32Z</time></trkpt><trkpt lat="44.98458380116141" lon="8.391464775837246"><ele>228.0</ele><time>2026-04-04T07:27:33.999Z</time></trkpt><trkpt lat="44.984507344514036" lon="8.391468984761106"><ele>226.33333333333331</ele><time>2026-04-04T07:27:35.999Z</time></trkpt><trkpt lat="44.98443303263504" lon="8.39146021416552"><ele>224.66666666666666</ele><time>2026-04-04T07:27:37.999Z</time></trkpt><trkpt lat="44.984361778905615" lon="8.39145732495082"><ele>223.0</ele><time>2026-04-04T07:27:39.999Z</time></trkpt><trkpt lat="44.984286407017805" lon="8.391449948644441"><ele>222.99999999999997</ele><time>2026-04-04T07:27:41.999Z</time></trkpt><trkpt lat="44.98418015883833" lon="8.391441074790418"><ele>223.0</ele><time>2026-04-04T07:27:43.999Z</time></trkpt><trkpt lat="44.98411714606507" lon="8.391438301936354"><ele>223.0</ele><time>2026-04-04T07:27:44.999Z</time></trkpt><trkpt lat="44.98404715138148" lon="8.391438025349489"><ele>223.0</ele><time>2026-04-04T07:27:45.999Z</time></trkpt><trkpt lat="44.98397386147136" lon="8.391429413797413"><ele>222.99999999999997</ele><time>2026-04-04T07:27:46.999Z</time></trkpt><trkpt lat="44.983897553052145" lon="8.39141596731539"><ele>223.0</ele><time>2026-04-04T07:27:47.999Z</time></trkpt><trkpt lat="44.98382585708419" lon="8.391400741515703"><ele>221.99999999999997</ele><time>2026-04-04T07:27:48.999Z</time></trkpt><trkpt lat="44.98375637077628" lon="8.391387484466557"><ele>221.0</ele><time>2026-04-04T07:27:49.999Z</time></trkpt><trkpt lat="44.983635438453724" lon="8.391368726253218"><ele>220.0</ele><time>2026-04-04T07:27:51.999Z</time></trkpt><trkpt lat="44.9835719843685" lon="8.391355734778573"><ele>219.0</ele><time>2026-04-04T07:27:52.999Z</time></trkpt><trkpt lat="44.98350099186456" lon="8.391344116467245"><ele>217.99999999999997</ele><time>2026-04-04T07:27:53.999Z</time></trkpt><trkpt lat="44.98343126225199" lon="8.39133052147482"><ele>217.0</ele><time>2026-04-04T07:27:54.999Z</time></trkpt><trkpt lat="44.983356797144936" lon="8.391319013306498"><ele>213.99999999999997</ele><time>2026-04-04T07:27:55.999Z</time></trkpt><trkpt lat="44.98328017704328" lon="8.391300922467494"><ele>211.0</ele><time>2026-04-04T07:27:56.999Z</time></trkpt><trkpt lat="44.983201299009686" lon="8.391272002424419"><ele>208.0</ele><time>2026-04-04T07:27:57.999Z</time></trkpt><trkpt lat="44.98311837960025" lon="8.391232531619629"><ele>205.0</ele><time>2026-04-04T07:27:58.999Z</time></trkpt><trkpt lat="44.98304031467835" lon="8.391195657880603"><ele>201.99999999999997</ele><time>2026-04-04T07:27:59.999Z</time></trkpt><trkpt lat="44.982958787163994" lon="8.391157480216282"><ele>199.0</ele><time>2026-04-04T07:28:00.999Z</time></trkpt><trkpt lat="44.982888282542135" lon="8.391123784604487"><ele>198.99999999999997</ele><time>2026-04-04T07:28:01.999Z</time></trkpt><trkpt lat="44.98282024346839" lon="8.391091785275536"><ele>199.0</ele><time>2026-04-04T07:28:02.999Z</time></trkpt><trkpt lat="44.98269106497507" lon="8.391033562263798"><ele>199.0</ele><time>2026-04-04T07:28:04.999Z</time></trkpt><trkpt lat="44.98262463369635" lon="8.391007432340619"><ele>199.0</ele><time>2026-04-04T07:28:05.999Z</time></trkpt><trkpt lat="44.98256191181765" lon="8.390978691420543"><ele>198.99999999999997</ele><time>2026-04-04T07:28:06.999Z</time></trkpt><trkpt lat="44.98250535884426" lon="8.390930455657914"><ele>199.0</ele><time>2026-04-04T07:28:07.999Z</time></trkpt><trkpt lat="44.982383413619324" lon="8.390896567063288"><ele>198.16666666666666</ele><time>2026-04-04T07:28:09.999Z</time></trkpt><trkpt lat="44.982293878970545" lon="8.390829383491333"><ele>197.33333333333331</ele><time>2026-04-04T07:28:11.999Z</time></trkpt><trkpt lat="44.98221399948688" lon="8.39087975874001"><ele>196.5</ele><time>2026-04-04T07:28:13.999Z</time></trkpt><trkpt lat="44.9822383980584" lon="8.390761488511869"><ele>195.66666666666669</ele><time>2026-04-04T07:28:16.999Z</time></trkpt><trkpt lat="44.98218096283075" lon="8.390689244381505"><ele>194.83333333333334</ele><time>2026-04-04T07:38:39.999Z</time></trkpt><trkpt lat="44.98209712829777" lon="8.390664044402374"><ele>194.0</ele><time>2026-04-04T07:38:40.999Z</time></trkpt><trkpt lat="44.98199620864595" lon="8.390653197697345"><ele>194.0</ele><time>2026-04-04T07:38:43.999Z</time></trkpt><trkpt lat="44.981796362171295" lon="8.390989001235408"><ele>194.0</ele><time>2026-04-04T07:38:44.999Z</time></trkpt><trkpt lat="44.98173581919053" lon="8.391036200687342"><ele>194.0</ele><time>2026-04-04T07:38:45.999Z</time></trkpt><trkpt lat="44.98167750029711" lon="8.391088550128181"><ele>194.0</ele><time>2026-04-04T07:38:46.999Z</time></trkpt><trkpt lat="44.98160652104619" lon="8.391143918404914"><ele>194.00000000000003</ele><time>2026-04-04T07:38:47.999Z</time></trkpt><trkpt lat="44.98154610596425" lon="8.39120841035159"><ele>194.0</ele><time>2026-04-04T07:38:48.999Z</time></trkpt><trkpt lat="44.98144394879716" lon="8.391281889822817"><ele>194.0</ele><time>2026-04-04T07:38:50.999Z</time></trkpt><trkpt lat="44.98138228594407" lon="8.391336802750518"><ele>194.0</ele><time>2026-04-04T07:38:51.999Z</time></trkpt><trkpt lat="44.98131882920077" lon="8.391392183318947"><ele>194.00000000000003</ele><time>2026-04-04T07:38:52.999Z</time></trkpt><trkpt lat="44.98124448662341" lon="8.391451423576783"><ele>194.0</ele><time>2026-04-04T07:38:53.999Z</time></trkpt><trkpt lat="44.98116949676615" lon="8.391500151031893"><ele>194.00000000000003</ele><time>2026-04-04T07:38:54.999Z</time></trkpt><trkpt lat="44.981092192449694" lon="8.391571165890477"><ele>194.0</ele><time>2026-04-04T07:38:55.999Z</time></trkpt><trkpt lat="44.98102433009126" lon="8.391635077436481"><ele>194.0</ele><time>2026-04-04T07:38:56.999Z</time></trkpt><trkpt lat="44.98095539411097" lon="8.391706049123044"><ele>194.0</ele><time>2026-04-04T07:38:57.999Z</time></trkpt><trkpt lat="44.98088998820895" lon="8.391781878396237"><ele>194.00000000000003</ele><time>2026-04-04T07:38:58.999Z</time></trkpt><trkpt lat="44.98080760274817" lon="8.3918615588008"><ele>194.0</ele><time>2026-04-04T07:38:59.999Z</time></trkpt><trkpt lat="44.98073799757752" lon="8.391933516046413"><ele>193.2</ele><time>2026-04-04T07:39:00.999Z</time></trkpt><trkpt lat="44.980671074012406" lon="8.391997198770094"><ele>192.39999999999998</ele><time>2026-04-04T07:39:01.999Z</time></trkpt><trkpt lat="44.98059861801401" lon="8.392067483312157"><ele>191.6</ele><time>2026-04-04T07:39:02.999Z</time></trkpt><trkpt lat="44.98053699007446" lon="8.392128544441674"><ele>190.8</ele><time>2026-04-04T07:39:03.999Z</time></trkpt><trkpt lat="44.98042316904709" lon="8.392220044351845"><ele>190.0</ele><time>2026-04-04T07:39:05.999Z</time></trkpt><trkpt lat="44.98036514930687" lon="8.392287977978626"><ele>190.0</ele><time>2026-04-04T07:39:06.999Z</time></trkpt><trkpt lat="44.98029875892882" lon="8.392355662952896"><ele>190.0</ele><time>2026-04-04T07:39:07.999Z</time></trkpt><trkpt lat="44.98022597647139" lon="8.3924251842997"><ele>190.0</ele><time>2026-04-04T07:39:08.999Z</time></trkpt><trkpt lat="44.98015472970309" lon="8.392506950942638"><ele>190.0</ele><time>2026-04-04T07:39:09.999Z</time></trkpt><trkpt lat="44.980080971076795" lon="8.392579929764782"><ele>190.0</ele><time>2026-04-04T07:39:10.999Z</time></trkpt><trkpt lat="44.980002178315495" lon="8.392656513347438"><ele>190.0</ele><time>2026-04-04T07:39:11.999Z</time></trkpt><trkpt lat="44.979933647878674" lon="8.392717580171507"><ele>190.66666666666669</ele><time>2026-04-04T07:39:12.999Z</time></trkpt><trkpt lat="44.97987405544434" lon="8.392793624363835"><ele>191.33333333333334</ele><time>2026-04-04T07:39:14.999Z</time></trkpt><trkpt lat="44.9798077516218" lon="8.392849123009539"><ele>192.0</ele><time>2026-04-04T07:39:16.999Z</time></trkpt><trkpt lat="44.97974321502679" lon="8.392889718785085"><ele>192.66666666666669</ele><time>2026-04-04T07:39:17.999Z</time></trkpt><trkpt lat="44.97966841253244" lon="8.392955967856167"><ele>193.33333333333334</ele><time>2026-04-04T07:39:18.999Z</time></trkpt><trkpt lat="44.97959111198644" lon="8.393045523869615"><ele>194.0</ele><time>2026-04-04T07:39:19.999Z</time></trkpt><trkpt lat="44.97951618907781" lon="8.393126560099958"><ele>194.0</ele><time>2026-04-04T07:39:20.999Z</time></trkpt><trkpt lat="44.97945132882083" lon="8.393209477579628"><ele>194.0</ele><time>2026-04-04T07:39:21.999Z</time></trkpt><trkpt lat="44.979367225027865" lon="8.39332903147533"><ele>194.0</ele><time>2026-04-04T07:39:23.999Z</time></trkpt><trkpt lat="44.97930453658707" lon="8.393405171732383"><ele>194.0</ele><time>2026-04-04T07:39:25.998Z</time></trkpt><trkpt lat="44.979219433367554" lon="8.393533943088467"><ele>194.0</ele><time>2026-04-04T07:39:27.998Z</time></trkpt><trkpt lat="44.97916145226811" lon="8.393625660193429"><ele>193.00000000000003</ele><time>2026-04-04T07:39:28.998Z</time></trkpt><trkpt lat="44.979114383716194" lon="8.39370069392345"><ele>192.0</ele><time>2026-04-04T07:39:29.998Z</time></trkpt><trkpt lat="44.979072197805834" lon="8.393769866245023"><ele>191.0</ele><time>2026-04-04T07:39:30.998Z</time></trkpt><trkpt lat="44.97901337198116" lon="8.393851015140953"><ele>190.0</ele><time>2026-04-04T07:39:31.998Z</time></trkpt><trkpt lat="44.978963542542104" lon="8.393926799755036"><ele>189.0</ele><time>2026-04-04T07:39:32.998Z</time></trkpt><trkpt lat="44.97889433662771" lon="8.394074705020053"><ele>188.0</ele><time>2026-04-04T07:39:34.998Z</time></trkpt><trkpt lat="44.97885865966887" lon="8.394164505096256"><ele>188.0</ele><time>2026-04-04T07:39:35.998Z</time></trkpt><trkpt lat="44.9788359433899" lon="8.394248097361505"><ele>188.0</ele><time>2026-04-04T07:39:36.998Z</time></trkpt><trkpt lat="44.97879991904564" lon="8.394381731830528"><ele>188.0</ele><time>2026-04-04T07:39:39Z</time></trkpt><trkpt lat="44.97878845759871" lon="8.394479264346291"><ele>188.0</ele><time>2026-04-04T07:39:43Z</time></trkpt><trkpt lat="44.978821248420765" lon="8.394613567262605"><ele>188.0</ele><time>2026-04-04T07:39:46Z</time></trkpt><trkpt lat="44.97883007954384" lon="8.394714986762887"><ele>188.0</ele><time>2026-04-04T07:39:48Z</time></trkpt><trkpt lat="44.97881919986695" lon="8.394854916862649"><ele>187.5</ele><time>2026-04-04T07:39:50Z</time></trkpt><trkpt lat="44.97881837336246" lon="8.395003423167031"><ele>187.0</ele><time>2026-04-04T07:39:52Z</time></trkpt><trkpt lat="44.97883116702447" lon="8.395093269840523"><ele>186.5</ele><time>2026-04-04T07:39:53Z</time></trkpt><trkpt lat="44.97884809380565" lon="8.395191487861313"><ele>186.0</ele><time>2026-04-04T07:39:54Z</time></trkpt><trkpt lat="44.97885583495684" lon="8.395348018042421"><ele>185.5</ele><time>2026-04-04T07:39:56Z</time></trkpt><trkpt lat="44.97888066154339" lon="8.395455927643207"><ele>185.0</ele><time>2026-04-04T07:39:57Z</time></trkpt><trkpt lat="44.978881680184344" lon="8.395555089742452"><ele>183.83333333333331</ele><time>2026-04-04T07:39:58Z</time></trkpt><trkpt lat="44.97889739113188" lon="8.395654409968744"><ele>182.66666666666666</ele><time>2026-04-04T07:39:59Z</time></trkpt><trkpt lat="44.9788972156862" lon="8.395764943861733"><ele>181.5</ele><time>2026-04-04T07:40:00Z</time></trkpt><trkpt lat="44.97888596321836" lon="8.395864176831862"><ele>180.33333333333334</ele><time>2026-04-04T07:40:01Z</time></trkpt><trkpt lat="44.97889888954887" lon="8.396002045448503"><ele>179.16666666666669</ele><time>2026-04-04T07:40:03Z</time></trkpt><trkpt lat="44.978901337664695" lon="8.396110098339037"><ele>178.0</ele><time>2026-04-04T07:40:05Z</time></trkpt><trkpt lat="44.97889381173554" lon="8.396273984695826"><ele>177.83333333333334</ele><time>2026-04-04T07:40:07Z</time></trkpt><trkpt lat="44.978894239028875" lon="8.396372016897148"><ele>177.66666666666669</ele><time>2026-04-04T07:40:08Z</time></trkpt><trkpt lat="44.97889328985929" lon="8.396467786827944"><ele>177.5</ele><time>2026-04-04T07:40:09Z</time></trkpt><trkpt lat="44.97888479342637" lon="8.39664650941057"><ele>177.33333333333334</ele><time>2026-04-04T07:40:11Z</time></trkpt><trkpt lat="44.978882043268506" lon="8.396752877052439"><ele>177.16666666666666</ele><time>2026-04-04T07:40:12Z</time></trkpt><trkpt lat="44.978878982334486" lon="8.39685666816609"><ele>177.0</ele><time>2026-04-04T07:40:13Z</time></trkpt><trkpt lat="44.97888654585213" lon="8.396967125234053"><ele>177.0</ele><time>2026-04-04T07:40:14Z</time></trkpt><trkpt lat="44.97888355001767" lon="8.397065857174734"><ele>177.0</ele><time>2026-04-04T07:40:15Z</time></trkpt><trkpt lat="44.97887468977958" lon="8.397174457025525"><ele>177.0</ele><time>2026-04-04T07:40:16Z</time></trkpt><trkpt lat="44.978859844026985" lon="8.397285317810281"><ele>177.0</ele><time>2026-04-04T07:40:17Z</time></trkpt><trkpt lat="44.97885067483358" lon="8.397385483466701"><ele>177.0</ele><time>2026-04-04T07:40:17.999Z</time></trkpt><trkpt lat="44.97883591737501" lon="8.397527362187327"><ele>177.0</ele><time>2026-04-04T07:40:19.999Z</time></trkpt><trkpt lat="44.97883300180234" lon="8.397665710821945"><ele>177.0</ele><time>2026-04-04T07:40:22.999Z</time></trkpt><trkpt lat="44.97881343711982" lon="8.397765242603318"><ele>177.0</ele><time>2026-04-04T07:40:24.999Z</time></trkpt><trkpt lat="44.978795063773624" lon="8.397873403006527"><ele>177.0</ele><time>2026-04-04T07:40:26.999Z</time></trkpt><trkpt lat="44.978776276985265" lon="8.397958865552473"><ele>177.0</ele><time>2026-04-04T07:40:28.999Z</time></trkpt><trkpt lat="44.97874431158549" lon="8.398078302692818"><ele>177.0</ele><time>2026-04-04T07:40:31.999Z</time></trkpt><trkpt lat="44.97870958085868" lon="8.398202081858875"><ele>177.0</ele><time>2026-04-04T07:40:34.999Z</time></trkpt><trkpt lat="44.97868253826814" lon="8.398321947056417"><ele>177.0</ele><time>2026-04-04T07:40:37.999Z</time></trkpt><trkpt lat="44.97863940965445" lon="8.398434312661797"><ele>177.0</ele><time>2026-04-04T07:40:40.999Z</time></trkpt><trkpt lat="44.97857213772374" lon="8.398542999161918"><ele>177.0</ele><time>2026-04-04T07:40:42.999Z</time></trkpt><trkpt lat="44.978483687358086" lon="8.398633998747442"><ele>177.0</ele><time>2026-04-04T07:40:44.999Z</time></trkpt><trkpt lat="44.97839523350523" lon="8.39869955875721"><ele>177.0</ele><time>2026-04-04T07:40:46.999Z</time></trkpt><trkpt lat="44.978306038008185" lon="8.398778797866944"><ele>177.5</ele><time>2026-04-04T07:40:48.999Z</time></trkpt><trkpt lat="44.97820680846836" lon="8.398874826454826"><ele>178.0</ele><time>2026-04-04T07:40:50.999Z</time></trkpt><trkpt lat="44.97814884022057" lon="8.398928719767248"><ele>178.5</ele><time>2026-04-04T07:40:51.999Z</time></trkpt><trkpt lat="44.97808783339383" lon="8.39898691795889"><ele>179.0</ele><time>2026-04-04T07:40:52.999Z</time></trkpt><trkpt lat="44.97802228699044" lon="8.39903557859848"><ele>179.5</ele><time>2026-04-04T07:40:53.999Z</time></trkpt><trkpt lat="44.97796114039052" lon="8.399076453020943"><ele>180.0</ele><time>2026-04-04T07:40:54.999Z</time></trkpt><trkpt lat="44.97789386008962" lon="8.399127658433018"><ele>180.0</ele><time>2026-04-04T07:40:55.999Z</time></trkpt><trkpt lat="44.977747281193196" lon="8.399186673162635"><ele>180.0</ele><time>2026-04-04T07:40:58.999Z</time></trkpt><trkpt lat="44.9776352658341" lon="8.399195197515922"><ele>180.0</ele><time>2026-04-04T07:41:00.999Z</time></trkpt><trkpt lat="44.977536780218976" lon="8.399239115515133"><ele>180.0</ele><time>2026-04-04T07:41:02.999Z</time></trkpt><trkpt lat="44.97747412616566" lon="8.399274473866951"><ele>180.0</ele><time>2026-04-04T07:41:03.999Z</time></trkpt><trkpt lat="44.97739916308112" lon="8.399300349983065"><ele>179.28571428571428</ele><time>2026-04-04T07:41:04.999Z</time></trkpt><trkpt lat="44.97732730954045" lon="8.399325512805666"><ele>178.57142857142858</ele><time>2026-04-04T07:41:05.999Z</time></trkpt><trkpt lat="44.97725914812688" lon="8.399341074820827"><ele>177.85714285714286</ele><time>2026-04-04T07:41:06.999Z</time></trkpt><trkpt lat="44.97717575838099" lon="8.39937460829471"><ele>177.14285714285714</ele><time>2026-04-04T07:41:07.999Z</time></trkpt><trkpt lat="44.97710757374836" lon="8.399397711449987"><ele>176.42857142857144</ele><time>2026-04-04T07:41:08.999Z</time></trkpt><trkpt lat="44.97704404284725" lon="8.399431015082028"><ele>175.71428571428572</ele><time>2026-04-04T07:41:09.999Z</time></trkpt><trkpt lat="44.976969191928085" lon="8.399444649120253"><ele>175.0</ele><time>2026-04-04T07:41:10.999Z</time></trkpt><trkpt lat="44.97690619733298" lon="8.399466926887236"><ele>175.0</ele><time>2026-04-04T07:41:11.999Z</time></trkpt><trkpt lat="44.97682787303518" lon="8.399502782699255"><ele>175.0</ele><time>2026-04-04T07:41:12.999Z</time></trkpt><trkpt lat="44.9767501955246" lon="8.399515602529304"><ele>175.0</ele><time>2026-04-04T07:41:13.999Z</time></trkpt><trkpt lat="44.976674748004605" lon="8.399547532105267"><ele>175.0</ele><time>2026-04-04T07:41:14.999Z</time></trkpt><trkpt lat="44.97658317562529" lon="8.399598664929488"><ele>175.0</ele><time>2026-04-04T07:41:15.999Z</time></trkpt><trkpt lat="44.97650051117217" lon="8.399624334319352"><ele>175.0</ele><time>2026-04-04T07:41:16.999Z</time></trkpt><trkpt lat="44.97640066127175" lon="8.399633002193692"><ele>175.33333333333334</ele><time>2026-04-04T07:41:18.999Z</time></trkpt><trkpt lat="44.97631470944404" lon="8.399651520219875"><ele>175.66666666666669</ele><time>2026-04-04T07:41:20.999Z</time></trkpt><trkpt lat="44.97623717987086" lon="8.399696005873878"><ele>176.0</ele><time>2026-04-04T07:41:22.999Z</time></trkpt><trkpt lat="44.97617362716163" lon="8.399730099264692"><ele>176.33333333333334</ele><time>2026-04-04T07:41:24.999Z</time></trkpt><trkpt lat="44.97611002850936" lon="8.39978214515862"><ele>176.66666666666666</ele><time>2026-04-04T07:41:26.999Z</time></trkpt><trkpt lat="44.976001442004765" lon="8.399857675647196"><ele>177.0</ele><time>2026-04-04T07:41:28.999Z</time></trkpt><trkpt lat="44.97593535639203" lon="8.399899558035145"><ele>177.16666666666666</ele><time>2026-04-04T07:41:29.999Z</time></trkpt><trkpt lat="44.975868392340026" lon="8.39992819814485"><ele>177.33333333333334</ele><time>2026-04-04T07:41:30.999Z</time></trkpt><trkpt lat="44.97578344256781" lon="8.399963392481435"><ele>177.5</ele><time>2026-04-04T07:41:33.999Z</time></trkpt><trkpt lat="44.9756819224012" lon="8.399997630797275"><ele>177.66666666666669</ele><time>2026-04-04T07:41:35.999Z</time></trkpt><trkpt lat="44.97560821270313" lon="8.400032213018022"><ele>177.83333333333334</ele><time>2026-04-04T07:41:37.999Z</time></trkpt><trkpt lat="44.97550794609591" lon="8.400090285660122"><ele>178.0</ele><time>2026-04-04T07:41:39.999Z</time></trkpt><trkpt lat="44.975407866874" lon="8.400150260843475"><ele>178.0</ele><time>2026-04-04T07:41:41.999Z</time></trkpt><trkpt lat="44.97534091430128" lon="8.400182594688154"><ele>178.0</ele><time>2026-04-04T07:41:43Z</time></trkpt><trkpt lat="44.975277283304" lon="8.400210854753661"><ele>178.0</ele><time>2026-04-04T07:41:44Z</time></trkpt><trkpt lat="44.975166502355094" lon="8.400244695724698"><ele>178.0</ele><time>2026-04-04T07:41:46Z</time></trkpt><trkpt lat="44.975091769554055" lon="8.400269418780745"><ele>178.0</ele><time>2026-04-04T07:41:47Z</time></trkpt><trkpt lat="44.97498216304526" lon="8.400305133479526"><ele>178.0</ele><time>2026-04-04T07:41:49Z</time></trkpt><trkpt lat="44.97486519430469" lon="8.400297365305128"><ele>177.4</ele><time>2026-04-04T07:41:51Z</time></trkpt><trkpt lat="44.974798966243604" lon="8.400288954292522"><ele>176.8</ele><time>2026-04-04T07:41:52Z</time></trkpt><trkpt lat="44.974680744057736" lon="8.400261350097335"><ele>176.2</ele><time>2026-04-04T07:41:54Z</time></trkpt><trkpt lat="44.97455452201969" lon="8.400211181878591"><ele>175.6</ele><time>2026-04-04T07:41:56Z</time></trkpt><trkpt lat="44.974430658825085" lon="8.400238274823316"><ele>175.0</ele><time>2026-04-04T07:41:58Z</time></trkpt><trkpt lat="44.97436493191793" lon="8.400236208314467"><ele>175.0</ele><time>2026-04-04T07:41:59Z</time></trkpt><trkpt lat="44.97428340528658" lon="8.400236544746463"><ele>175.0</ele><time>2026-04-04T07:42:00Z</time></trkpt><trkpt lat="44.97421317404038" lon="8.400238186009759"><ele>175.0</ele><time>2026-04-04T07:42:01Z</time></trkpt><trkpt lat="44.974080559513645" lon="8.400267940614954"><ele>175.0</ele><time>2026-04-04T07:42:03Z</time></trkpt><trkpt lat="44.97400383358902" lon="8.40027727113227"><ele>175.0</ele><time>2026-04-04T07:42:04Z</time></trkpt><trkpt lat="44.97392386310345" lon="8.400294758920191"><ele>175.0</ele><time>2026-04-04T07:42:05Z</time></trkpt><trkpt lat="44.97383994466477" lon="8.400298673329576"><ele>174.66666666666669</ele><time>2026-04-04T07:42:06Z</time></trkpt><trkpt lat="44.97375149281723" lon="8.40030514821674"><ele>174.33333333333334</ele><time>2026-04-04T07:42:07Z</time></trkpt><trkpt lat="44.97367166136567" lon="8.400300076306102"><ele>174.0</ele><time>2026-04-04T07:42:08Z</time></trkpt><trkpt lat="44.97359002646278" lon="8.400298533225461"><ele>173.66666666666666</ele><time>2026-04-04T07:42:09Z</time></trkpt><trkpt lat="44.973526839833234" lon="8.400294763879078"><ele>173.33333333333331</ele><time>2026-04-04T07:42:10Z</time></trkpt><trkpt lat="44.973424233473615" lon="8.40032417449923"><ele>173.0</ele><time>2026-04-04T07:42:11.999Z</time></trkpt><trkpt lat="44.973351574451065" lon="8.40029974275474"><ele>173.0</ele><time>2026-04-04T07:42:12.999Z</time></trkpt><trkpt lat="44.97328128655239" lon="8.400311670184276"><ele>173.0</ele><time>2026-04-04T07:42:13.999Z</time></trkpt><trkpt lat="44.973202096690635" lon="8.400329929469276"><ele>173.0</ele><time>2026-04-04T07:42:14.999Z</time></trkpt><trkpt lat="44.973130253214784" lon="8.400340511279081"><ele>173.0</ele><time>2026-04-04T07:42:15.999Z</time></trkpt><trkpt lat="44.97306253838521" lon="8.400351303339876"><ele>173.0</ele><time>2026-04-04T07:42:16.999Z</time></trkpt><trkpt lat="44.97294574302196" lon="8.400349242347316"><ele>173.0</ele><time>2026-04-04T07:42:18.999Z</time></trkpt><trkpt lat="44.97287306260544" lon="8.40035627350708"><ele>173.0</ele><time>2026-04-04T07:42:19.999Z</time></trkpt><trkpt lat="44.97278715110878" lon="8.400370161786453"><ele>173.0</ele><time>2026-04-04T07:42:20.999Z</time></trkpt><trkpt lat="44.97268851483094" lon="8.40038044796728"><ele>173.0</ele><time>2026-04-04T07:42:21.999Z</time></trkpt><trkpt lat="44.97258415476005" lon="8.400387799155316"><ele>173.0</ele><time>2026-04-04T07:42:22.999Z</time></trkpt><trkpt lat="44.97249272242722" lon="8.400389105607553"><ele>173.0</ele><time>2026-04-04T07:42:23.999Z</time></trkpt><trkpt lat="44.97240871491488" lon="8.400395413393317"><ele>173.2</ele><time>2026-04-04T07:42:24.999Z</time></trkpt><trkpt lat="44.9723151647521" lon="8.400389166064569"><ele>173.4</ele><time>2026-04-04T07:42:25.999Z</time></trkpt><trkpt lat="44.972216981573084" lon="8.400383622058165"><ele>173.6</ele><time>2026-04-04T07:42:26.999Z</time></trkpt><trkpt lat="44.97212777269892" lon="8.400369476747155"><ele>173.79999999999998</ele><time>2026-04-04T07:42:27.999Z</time></trkpt><trkpt lat="44.97204605689116" lon="8.400355049569326"><ele>174.0</ele><time>2026-04-04T07:42:28.999Z</time></trkpt><trkpt lat="44.97195077519601" lon="8.400336311204994"><ele>174.0</ele><time>2026-04-04T07:42:29.999Z</time></trkpt><trkpt lat="44.971865033338936" lon="8.400282164319938"><ele>174.0</ele><time>2026-04-04T07:42:30.999Z</time></trkpt><trkpt lat="44.971775030812246" lon="8.40022836262112"><ele>174.0</ele><time>2026-04-04T07:42:31.999Z</time></trkpt><trkpt lat="44.97168242483226" lon="8.400171574457644"><ele>174.0</ele><time>2026-04-04T07:42:32.999Z</time></trkpt><trkpt lat="44.97160695416372" lon="8.400115244973787"><ele>174.0</ele><time>2026-04-04T07:42:33.999Z</time></trkpt><trkpt lat="44.97154298006809" lon="8.400083814047889"><ele>174.0</ele><time>2026-04-04T07:42:34.999Z</time></trkpt><trkpt lat="44.971422785862245" lon="8.400016642260073"><ele>174.33333333333334</ele><time>2026-04-04T07:42:36.999Z</time></trkpt><trkpt lat="44.971317905539976" lon="8.39992738383161"><ele>174.66666666666666</ele><time>2026-04-04T07:42:38.999Z</time></trkpt><trkpt lat="44.971248472139884" lon="8.399874509206834"><ele>175.0</ele><time>2026-04-04T07:42:39.999Z</time></trkpt><trkpt lat="44.971175042105735" lon="8.399850299889929"><ele>175.33333333333331</ele><time>2026-04-04T07:42:40.999Z</time></trkpt><trkpt lat="44.97111371691147" lon="8.39980540317598"><ele>175.66666666666666</ele><time>2026-04-04T07:42:41.999Z</time></trkpt><trkpt lat="44.97103862069529" lon="8.399752267927864"><ele>176.0</ele><time>2026-04-04T07:42:42.999Z</time></trkpt><trkpt lat="44.970972835224025" lon="8.399701026734673"><ele>175.66666666666666</ele><time>2026-04-04T07:42:43.999Z</time></trkpt><trkpt lat="44.97089663401031" lon="8.399663890838015"><ele>175.33333333333331</ele><time>2026-04-04T07:42:44.999Z</time></trkpt><trkpt lat="44.97081580883125" lon="8.399613185400101"><ele>175.0</ele><time>2026-04-04T07:42:45.999Z</time></trkpt><trkpt lat="44.9707380967272" lon="8.399556189905928"><ele>174.66666666666666</ele><time>2026-04-04T07:42:46.999Z</time></trkpt><trkpt lat="44.970670054764284" lon="8.399506061768578"><ele>174.33333333333334</ele><time>2026-04-04T07:42:47.999Z</time></trkpt><trkpt lat="44.97058922993566" lon="8.399473696489189"><ele>174.0</ele><time>2026-04-04T07:42:48.999Z</time></trkpt><trkpt lat="44.97050659581512" lon="8.399442222305145"><ele>173.5</ele><time>2026-04-04T07:42:49.999Z</time></trkpt><trkpt lat="44.97044343568495" lon="8.399408201750983"><ele>173.0</ele><time>2026-04-04T07:42:50.999Z</time></trkpt><trkpt lat="44.970340310141395" lon="8.399344595323862"><ele>172.5</ele><time>2026-04-04T07:42:52.999Z</time></trkpt><trkpt lat="44.97026388502718" lon="8.399334723544431"><ele>172.0</ele><time>2026-04-04T07:42:54.999Z</time></trkpt><trkpt lat="44.970154127200765" lon="8.399287118694893"><ele>171.5</ele><time>2026-04-04T07:42:56.999Z</time></trkpt><trkpt lat="44.97010842399515" lon="8.399198124009152"><ele>171.0</ele><time>2026-04-04T07:42:58.999Z</time></trkpt><trkpt lat="44.97011506627134" lon="8.399104139999928"><ele>171.0</ele><time>2026-04-04T07:42:59.999Z</time></trkpt><trkpt lat="44.97014183655752" lon="8.398975957536688"><ele>171.0</ele><time>2026-04-04T07:43:00.999Z</time></trkpt><trkpt lat="44.97015704980028" lon="8.398832077019811"><ele>171.0</ele><time>2026-04-04T07:43:01.999Z</time></trkpt><trkpt lat="44.97017607174856" lon="8.398720076684718"><ele>171.0</ele><time>2026-04-04T07:43:02.999Z</time></trkpt><trkpt lat="44.97018908976609" lon="8.398631290089286"><ele>171.0</ele><time>2026-04-04T07:43:03.999Z</time></trkpt><trkpt lat="44.97021742621794" lon="8.398456975791431"><ele>170.83333333333334</ele><time>2026-04-04T07:43:05.999Z</time></trkpt><trkpt lat="44.97022291675224" lon="8.398333899009296"><ele>170.66666666666666</ele><time>2026-04-04T07:43:07.999Z</time></trkpt><trkpt lat="44.97016061428829" lon="8.398266202478771"><ele>170.5</ele><time>2026-04-04T07:43:10.999Z</time></trkpt><trkpt lat="44.970071024337265" lon="8.39825736892146"><ele>170.33333333333331</ele><time>2026-04-04T07:43:12.999Z</time></trkpt><trkpt lat="44.97000475288402" lon="8.398250115920153"><ele>170.16666666666666</ele><time>2026-04-04T07:43:13.999Z</time></trkpt><trkpt lat="44.96992995841675" lon="8.398245167493274"><ele>170.0</ele><time>2026-04-04T07:43:14.999Z</time></trkpt><trkpt lat="44.96985778933369" lon="8.398236674092962"><ele>169.25</ele><time>2026-04-04T07:43:15.999Z</time></trkpt><trkpt lat="44.969754366841016" lon="8.398231104165383"><ele>168.5</ele><time>2026-04-04T07:43:17.999Z</time></trkpt><trkpt lat="44.96956362103757" lon="8.39817276689562"><ele>167.75</ele><time>2026-04-04T07:43:19.999Z</time></trkpt><trkpt lat="44.96948238617867" lon="8.398140941740555"><ele>167.0</ele><time>2026-04-04T07:43:20.999Z</time></trkpt><trkpt lat="44.96940932106597" lon="8.398119106960603"><ele>167.0</ele><time>2026-04-04T07:43:21.999Z</time></trkpt><trkpt lat="44.96933251368524" lon="8.398095450414619"><ele>167.0</ele><time>2026-04-04T07:43:22.999Z</time></trkpt><trkpt lat="44.969251771871065" lon="8.398076899182602"><ele>167.0</ele><time>2026-04-04T07:43:23.999Z</time></trkpt><trkpt lat="44.96917205945012" lon="8.398057764766198"><ele>167.0</ele><time>2026-04-04T07:43:24.999Z</time></trkpt><trkpt lat="44.96910167420245" lon="8.398037541456436"><ele>167.0</ele><time>2026-04-04T07:43:25.999Z</time></trkpt><trkpt lat="44.96902485754908" lon="8.398027270209266"><ele>167.0</ele><time>2026-04-04T07:43:26.999Z</time></trkpt><trkpt lat="44.96893312403672" lon="8.39799987881862"><ele>167.66666666666666</ele><time>2026-04-04T07:43:27.999Z</time></trkpt><trkpt lat="44.96885297589569" lon="8.397968449405193"><ele>168.33333333333331</ele><time>2026-04-04T07:43:28.999Z</time></trkpt><trkpt lat="44.96876265138238" lon="8.397933641400522"><ele>169.0</ele><time>2026-04-04T07:43:29.999Z</time></trkpt><trkpt lat="44.96869779270265" lon="8.397915976184898"><ele>169.66666666666666</ele><time>2026-04-04T07:43:30.999Z</time></trkpt><trkpt lat="44.96861977755765" lon="8.39788383776434"><ele>170.33333333333334</ele><time>2026-04-04T07:43:33.998Z</time></trkpt><trkpt lat="44.968557354370006" lon="8.397857063735465"><ele>171.0</ele><time>2026-04-04T07:43:34.998Z</time></trkpt><trkpt lat="44.96848382061319" lon="8.397820573160432"><ele>171.0</ele><time>2026-04-04T07:43:35.998Z</time></trkpt><trkpt lat="44.96840859922236" lon="8.397774530547553"><ele>171.0</ele><time>2026-04-04T07:43:36.998Z</time></trkpt><trkpt lat="44.96832739448534" lon="8.397703093528456"><ele>171.0</ele><time>2026-04-04T07:43:37.998Z</time></trkpt><trkpt lat="44.968270404395945" lon="8.397655884915265"><ele>171.0</ele><time>2026-04-04T07:43:38.998Z</time></trkpt><trkpt lat="44.968206267399594" lon="8.397616434346697"><ele>171.0</ele><time>2026-04-04T07:43:39.998Z</time></trkpt><trkpt lat="44.968124509765524" lon="8.397555162733207"><ele>171.0</ele><time>2026-04-04T07:43:40.998Z</time></trkpt><trkpt lat="44.968032469192494" lon="8.39748645327873"><ele>171.60000000000002</ele><time>2026-04-04T07:43:41.998Z</time></trkpt><trkpt lat="44.9679648010882" lon="8.397417509745418"><ele>172.2</ele><time>2026-04-04T07:43:42.998Z</time></trkpt><trkpt lat="44.967886916989706" lon="8.397340083756657"><ele>172.8</ele><time>2026-04-04T07:43:43.998Z</time></trkpt><trkpt lat="44.96779934241237" lon="8.397259771561064"><ele>173.39999999999998</ele><time>2026-04-04T07:43:44.998Z</time></trkpt><trkpt lat="44.96772119280903" lon="8.397196600122484"><ele>174.0</ele><time>2026-04-04T07:43:45.998Z</time></trkpt><trkpt lat="44.96763788092281" lon="8.397117949243004"><ele>174.0</ele><time>2026-04-04T07:43:46.998Z</time></trkpt><trkpt lat="44.96754906897026" lon="8.397053939902955"><ele>174.0</ele><time>2026-04-04T07:43:47.998Z</time></trkpt><trkpt lat="44.967475831055715" lon="8.396993220295561"><ele>174.0</ele><time>2026-04-04T07:43:49Z</time></trkpt><trkpt lat="44.96739529124157" lon="8.396943694106588"><ele>174.0</ele><time>2026-04-04T07:43:50Z</time></trkpt><trkpt lat="44.967303197891354" lon="8.396881850376563"><ele>174.0</ele><time>2026-04-04T07:43:51Z</time></trkpt><trkpt lat="44.967202738381324" lon="8.39683086964672"><ele>173.0</ele><time>2026-04-04T07:43:52Z</time></trkpt><trkpt lat="44.967101671043984" lon="8.396791107492353"><ele>172.0</ele><time>2026-04-04T07:43:53Z</time></trkpt><trkpt lat="44.966985019509075" lon="8.396720503194254"><ele>171.0</ele><time>2026-04-04T07:43:54Z</time></trkpt><trkpt lat="44.96691989025786" lon="8.396672909601946"><ele>170.0</ele><time>2026-04-04T07:43:55Z</time></trkpt><trkpt lat="44.96684606917378" lon="8.396617240621861"><ele>169.0</ele><time>2026-04-04T07:43:56Z</time></trkpt><trkpt lat="44.96676082365582" lon="8.39655741674142"><ele>169.2</ele><time>2026-04-04T07:43:57Z</time></trkpt><trkpt lat="44.96668576150763" lon="8.396496122161992"><ele>169.39999999999998</ele><time>2026-04-04T07:43:58Z</time></trkpt><trkpt lat="44.9666050011178" lon="8.396432252005683"><ele>169.6</ele><time>2026-04-04T07:43:59Z</time></trkpt><trkpt lat="44.96651510110231" lon="8.396363399956135"><ele>169.8</ele><time>2026-04-04T07:44:00Z</time></trkpt><trkpt lat="44.96641960685219" lon="8.396319382683803"><ele>170.0</ele><time>2026-04-04T07:44:01Z</time></trkpt><trkpt lat="44.96634072252322" lon="8.396265928409164"><ele>170.0</ele><time>2026-04-04T07:44:02Z</time></trkpt><trkpt lat="44.96625009598609" lon="8.396209959786061"><ele>170.0</ele><time>2026-04-04T07:44:03Z</time></trkpt><trkpt lat="44.966137262164956" lon="8.396142030160057"><ele>170.0</ele><time>2026-04-04T07:44:04Z</time></trkpt><trkpt lat="44.966032121993635" lon="8.396083277501297"><ele>170.0</ele><time>2026-04-04T07:44:05Z</time></trkpt><trkpt lat="44.96592418908749" lon="8.396021518123371"><ele>169.4</ele><time>2026-04-04T07:44:06Z</time></trkpt><trkpt lat="44.96581800335694" lon="8.395983683325326"><ele>168.8</ele><time>2026-04-04T07:44:07Z</time></trkpt><trkpt lat="44.96571154254212" lon="8.395939702712896"><ele>168.2</ele><time>2026-04-04T07:44:08Z</time></trkpt><trkpt lat="44.96560357001468" lon="8.395893126468357"><ele>167.6</ele><time>2026-04-04T07:44:09Z</time></trkpt><trkpt lat="44.965505848865064" lon="8.39585740959827"><ele>167.0</ele><time>2026-04-04T07:44:10Z</time></trkpt><trkpt lat="44.96543098637505" lon="8.395801206117293"><ele>167.0</ele><time>2026-04-04T07:44:11Z</time></trkpt><trkpt lat="44.96533963652646" lon="8.395751948928599"><ele>167.0</ele><time>2026-04-04T07:44:12Z</time></trkpt><trkpt lat="44.96525171423811" lon="8.395703764964681"><ele>167.0</ele><time>2026-04-04T07:44:13Z</time></trkpt><trkpt lat="44.9651630809289" lon="8.395651417573086"><ele>167.0</ele><time>2026-04-04T07:44:14Z</time></trkpt><trkpt lat="44.965068238641415" lon="8.395605102514715"><ele>167.0</ele><time>2026-04-04T07:44:15Z</time></trkpt><trkpt lat="44.96497913623662" lon="8.39555931744995"><ele>167.2</ele><time>2026-04-04T07:44:16Z</time></trkpt><trkpt lat="44.96488663992761" lon="8.395521794234652"><ele>167.39999999999998</ele><time>2026-04-04T07:44:17Z</time></trkpt><trkpt lat="44.96478796979088" lon="8.395474197345123"><ele>167.60000000000002</ele><time>2026-04-04T07:44:18Z</time></trkpt><trkpt lat="44.964680016527126" lon="8.395419348259258"><ele>167.8</ele><time>2026-04-04T07:44:19Z</time></trkpt><trkpt lat="44.96457379993277" lon="8.395356143761079"><ele>168.0</ele><time>2026-04-04T07:44:20Z</time></trkpt><trkpt lat="44.964460343147266" lon="8.395296518135236"><ele>168.0</ele><time>2026-04-04T07:44:21Z</time></trkpt><trkpt lat="44.96434169108724" lon="8.395224034020757"><ele>168.0</ele><time>2026-04-04T07:44:22Z</time></trkpt><trkpt lat="44.964213623709085" lon="8.395150832084342"><ele>168.0</ele><time>2026-04-04T07:44:22.999Z</time></trkpt><trkpt lat="44.964108461353575" lon="8.395092560568973"><ele>168.0</ele><time>2026-04-04T07:44:23.999Z</time></trkpt><trkpt lat="44.964000776794855" lon="8.395022947302994"><ele>166.75</ele><time>2026-04-04T07:44:24.999Z</time></trkpt><trkpt lat="44.96388376158662" lon="8.394950022010294"><ele>165.5</ele><time>2026-04-04T07:44:25.999Z</time></trkpt><trkpt lat="44.96376003836921" lon="8.394862874655537"><ele>164.25</ele><time>2026-04-04T07:44:26.999Z</time></trkpt><trkpt lat="44.96364366720635" lon="8.394788271977475"><ele>163.0</ele><time>2026-04-04T07:44:27.999Z</time></trkpt><trkpt lat="44.963529967234145" lon="8.394721523261966"><ele>163.0</ele><time>2026-04-04T07:44:28.999Z</time></trkpt><trkpt lat="44.96341102710795" lon="8.394673888332022"><ele>163.0</ele><time>2026-04-04T07:44:29.999Z</time></trkpt><trkpt lat="44.963276598098346" lon="8.394613458098597"><ele>163.0</ele><time>2026-04-04T07:44:30.999Z</time></trkpt><trkpt lat="44.96314475887638" lon="8.39454559630093"><ele>163.0</ele><time>2026-04-04T07:44:31.999Z</time></trkpt><trkpt lat="44.96302641272551" lon="8.394487477198215"><ele>162.60000000000002</ele><time>2026-04-04T07:44:32.999Z</time></trkpt><trkpt lat="44.962905914465026" lon="8.394418516747923"><ele>162.20000000000002</ele><time>2026-04-04T07:44:33.999Z</time></trkpt><trkpt lat="44.96280136961874" lon="8.394368215949697"><ele>161.8</ele><time>2026-04-04T07:44:34.999Z</time></trkpt><trkpt lat="44.96271808084013" lon="8.3943249943043"><ele>161.4</ele><time>2026-04-04T07:44:35.999Z</time></trkpt><trkpt lat="44.96263994550158" lon="8.394284890696849"><ele>161.0</ele><time>2026-04-04T07:44:36.999Z</time></trkpt><trkpt lat="44.96256586657055" lon="8.394232321585344"><ele>160.60000000000002</ele><time>2026-04-04T07:44:37.999Z</time></trkpt><trkpt lat="44.96244426876559" lon="8.394172401004722"><ele>160.20000000000002</ele><time>2026-04-04T07:44:38.999Z</time></trkpt><trkpt lat="44.96235176665786" lon="8.394125551193135"><ele>159.8</ele><time>2026-04-04T07:44:39.999Z</time></trkpt><trkpt lat="44.96225560171374" lon="8.394086536693713"><ele>159.4</ele><time>2026-04-04T07:44:40.999Z</time></trkpt><trkpt lat="44.96214840014055" lon="8.39407661585951"><ele>159.0</ele><time>2026-04-04T07:44:41.999Z</time></trkpt><trkpt lat="44.96203767150877" lon="8.39406781661607"><ele>159.0</ele><time>2026-04-04T07:44:42.999Z</time></trkpt><trkpt lat="44.961917199421" lon="8.394081085399248"><ele>159.0</ele><time>2026-04-04T07:44:43.999Z</time></trkpt><trkpt lat="44.96180159876108" lon="8.394078749439661"><ele>159.0</ele><time>2026-04-04T07:44:44.999Z</time></trkpt><trkpt lat="44.961690503084874" lon="8.394074565446884"><ele>159.0</ele><time>2026-04-04T07:44:45.999Z</time></trkpt><trkpt lat="44.96158100038495" lon="8.394078689854457"><ele>159.2</ele><time>2026-04-04T07:44:46.999Z</time></trkpt><trkpt lat="44.96147583712046" lon="8.394068497873615"><ele>159.4</ele><time>2026-04-04T07:44:47.999Z</time></trkpt><trkpt lat="44.96136482467701" lon="8.39407063021098"><ele>159.6</ele><time>2026-04-04T07:44:48.999Z</time></trkpt><trkpt lat="44.96127505761246" lon="8.394073591631672"><ele>159.8</ele><time>2026-04-04T07:44:49.999Z</time></trkpt><trkpt lat="44.961166707910415" lon="8.394069284391437"><ele>160.0</ele><time>2026-04-04T07:44:50.999Z</time></trkpt><trkpt lat="44.96106890403551" lon="8.394064898007723"><ele>160.0</ele><time>2026-04-04T07:44:51.999Z</time></trkpt><trkpt lat="44.960971978068045" lon="8.39405990252499"><ele>160.0</ele><time>2026-04-04T07:44:52.999Z</time></trkpt><trkpt lat="44.960885910125256" lon="8.394048511232352"><ele>160.0</ele><time>2026-04-04T07:44:53.999Z</time></trkpt><trkpt lat="44.960797752007096" lon="8.394032967142284"><ele>160.0</ele><time>2026-04-04T07:44:54.999Z</time></trkpt><trkpt lat="44.96073448121397" lon="8.394060176197698"><ele>160.0</ele><time>2026-04-04T07:44:55.999Z</time></trkpt><trkpt lat="44.96067678717012" lon="8.394102793312907"><ele>160.0</ele><time>2026-04-04T07:44:56.999Z</time></trkpt><trkpt lat="44.96060537632584" lon="8.39415930317905"><ele>160.33333333333334</ele><time>2026-04-04T07:44:57.999Z</time></trkpt><trkpt lat="44.960518886678244" lon="8.394189420135676"><ele>160.66666666666669</ele><time>2026-04-04T07:44:58.999Z</time></trkpt><trkpt lat="44.96044207629192" lon="8.394211816206711"><ele>161.0</ele><time>2026-04-04T07:44:59.999Z</time></trkpt><trkpt lat="44.96035845990964" lon="8.394221927712987"><ele>161.33333333333334</ele><time>2026-04-04T07:45:00.999Z</time></trkpt><trkpt lat="44.96024859950057" lon="8.394244954614031"><ele>161.66666666666666</ele><time>2026-04-04T07:45:01.999Z</time></trkpt><trkpt lat="44.96017163016841" lon="8.39424905582"><ele>162.0</ele><time>2026-04-04T07:45:02.999Z</time></trkpt><trkpt lat="44.9600968270418" lon="8.394294645636634"><ele>161.6</ele><time>2026-04-04T07:45:03.999Z</time></trkpt><trkpt lat="44.96003214795411" lon="8.394359184867746"><ele>161.2</ele><time>2026-04-04T07:45:04.999Z</time></trkpt><trkpt lat="44.959958978181334" lon="8.39448171698666"><ele>160.8</ele><time>2026-04-04T07:45:05.999Z</time></trkpt><trkpt lat="44.9598737289859" lon="8.394592927266126"><ele>160.4</ele><time>2026-04-04T07:45:06.999Z</time></trkpt><trkpt lat="44.959811539148546" lon="8.394667058955207"><ele>160.0</ele><time>2026-04-04T07:45:07.999Z</time></trkpt><trkpt lat="44.95976568947089" lon="8.39473095854964"><ele>160.0</ele><time>2026-04-04T07:45:08.999Z</time></trkpt><trkpt lat="44.95972770330637" lon="8.394816101223165"><ele>160.0</ele><time>2026-04-04T07:45:09.999Z</time></trkpt><trkpt lat="44.9596439241443" lon="8.394952620624133"><ele>160.0</ele><time>2026-04-04T07:45:11.999Z</time></trkpt><trkpt lat="44.95959906832106" lon="8.39501775318636"><ele>160.0</ele><time>2026-04-04T07:45:12.999Z</time></trkpt><trkpt lat="44.95954404991285" lon="8.395108327355507"><ele>160.0</ele><time>2026-04-04T07:45:13.999Z</time></trkpt><trkpt lat="44.959493396478436" lon="8.395174190005832"><ele>160.0</ele><time>2026-04-04T07:45:14.999Z</time></trkpt><trkpt lat="44.95943222036626" lon="8.395264152868897"><ele>160.0</ele><time>2026-04-04T07:45:15.999Z</time></trkpt><trkpt lat="44.95939108288176" lon="8.395348395028572"><ele>160.0</ele><time>2026-04-04T07:45:16.999Z</time></trkpt><trkpt lat="44.959342290801594" lon="8.39547956335071"><ele>160.0</ele><time>2026-04-04T07:45:17.999Z</time></trkpt><trkpt lat="44.959305936985096" lon="8.39561898004381"><ele>160.0</ele><time>2026-04-04T07:45:18.999Z</time></trkpt><trkpt lat="44.95925873430332" lon="8.395721441704675"><ele>160.0</ele><time>2026-04-04T07:45:19.999Z</time></trkpt><trkpt lat="44.95921364646808" lon="8.395853884408018"><ele>159.8</ele><time>2026-04-04T07:45:20.999Z</time></trkpt><trkpt lat="44.95915596430148" lon="8.396016773470832"><ele>159.6</ele><time>2026-04-04T07:45:21.999Z</time></trkpt><trkpt lat="44.95910298452726" lon="8.396156413900595"><ele>159.4</ele><time>2026-04-04T07:45:22.999Z</time></trkpt><trkpt lat="44.959060344408506" lon="8.396295497418944"><ele>159.2</ele><time>2026-04-04T07:45:23.999Z</time></trkpt><trkpt lat="44.9590105676193" lon="8.396408792803413"><ele>159.0</ele><time>2026-04-04T07:45:24.999Z</time></trkpt><trkpt lat="44.95896182700735" lon="8.396492194256377"><ele>159.0</ele><time>2026-04-04T07:45:25.999Z</time></trkpt><trkpt lat="44.95892529532926" lon="8.396656893738475"><ele>159.0</ele><time>2026-04-04T07:45:26.999Z</time></trkpt><trkpt lat="44.9588912099964" lon="8.396849333597595"><ele>159.0</ele><time>2026-04-04T07:45:27.999Z</time></trkpt><trkpt lat="44.958857443427554" lon="8.39697158421975"><ele>159.0</ele><time>2026-04-04T07:45:28.999Z</time></trkpt><trkpt lat="44.958768019079045" lon="8.397091004465306"><ele>158.33333333333334</ele><time>2026-04-04T07:45:29.999Z</time></trkpt><trkpt lat="44.95870695766142" lon="8.397205509348884"><ele>157.66666666666666</ele><time>2026-04-04T07:45:30.999Z</time></trkpt><trkpt lat="44.95865844949618" lon="8.3972898521548"><ele>157.0</ele><time>2026-04-04T07:45:31.999Z</time></trkpt><trkpt lat="44.95861500834058" lon="8.3973659480623"><ele>156.33333333333331</ele><time>2026-04-04T07:45:32.999Z</time></trkpt><trkpt lat="44.95858017146027" lon="8.397445938938194"><ele>155.66666666666666</ele><time>2026-04-04T07:45:33.999Z</time></trkpt><trkpt lat="44.95848732818537" lon="8.397435041713665"><ele>155.0</ele><time>2026-04-04T07:45:34.999Z</time></trkpt><trkpt lat="44.95841054520232" lon="8.397444853205505"><ele>155.0</ele><time>2026-04-04T07:45:37.999Z</time></trkpt><trkpt lat="44.95835969111551" lon="8.39752781128571"><ele>155.0</ele><time>2026-04-04T07:45:40.999Z</time></trkpt><trkpt lat="44.9583078955425" lon="8.39760670854839"><ele>155.0</ele><time>2026-04-04T07:45:43.999Z</time></trkpt><trkpt lat="44.9582313589678" lon="8.397653450270353"><ele>155.0</ele><time>2026-04-04T07:46:29Z</time></trkpt><trkpt lat="44.95811227414382" lon="8.397743884958334"><ele>155.0</ele><time>2026-04-04T07:46:31Z</time></trkpt><trkpt lat="44.95803599987419" lon="8.3977937374676"><ele>155.0</ele><time>2026-04-04T07:46:32Z</time></trkpt><trkpt lat="44.95795091875033" lon="8.397863387116663"><ele>155.0</ele><time>2026-04-04T07:46:32.999Z</time></trkpt><trkpt lat="44.957872849878314" lon="8.397925420109601"><ele>155.0</ele><time>2026-04-04T07:46:33.999Z</time></trkpt><trkpt lat="44.95779474404163" lon="8.397983949387822"><ele>155.0</ele><time>2026-04-04T07:46:34.999Z</time></trkpt><trkpt lat="44.95772143259139" lon="8.398046357851635"><ele>155.0</ele><time>2026-04-04T07:46:35.999Z</time></trkpt><trkpt lat="44.957648220239975" lon="8.398139944176114"><ele>155.0</ele><time>2026-04-04T07:46:36.999Z</time></trkpt><trkpt lat="44.957587759195455" lon="8.398215496373851"><ele>155.0</ele><time>2026-04-04T07:46:37.999Z</time></trkpt><trkpt lat="44.95750567223025" lon="8.398299047364413"><ele>155.0</ele><time>2026-04-04T07:46:39.999Z</time></trkpt><trkpt lat="44.957456431071435" lon="8.398359162950287"><ele>155.0</ele><time>2026-04-04T07:46:41.999Z</time></trkpt><trkpt lat="44.95739042806678" lon="8.398445673888745"><ele>155.0</ele><time>2026-04-04T07:46:43.999Z</time></trkpt><trkpt lat="44.957295258815606" lon="8.398539594552153"><ele>155.0</ele><time>2026-04-04T07:46:45.999Z</time></trkpt><trkpt lat="44.957209400601016" lon="8.398630217671109"><ele>155.0</ele><time>2026-04-04T07:46:47.999Z</time></trkpt><trkpt lat="44.95713123944912" lon="8.398715595911145"><ele>155.0</ele><time>2026-04-04T07:46:49.999Z</time></trkpt><trkpt lat="44.957089059025776" lon="8.398788892271002"><ele>155.0</ele><time>2026-04-04T07:46:50.999Z</time></trkpt><trkpt lat="44.95698396601511" lon="8.398887926329213"><ele>155.0</ele><time>2026-04-04T07:46:52.999Z</time></trkpt><trkpt lat="44.95690514766621" lon="8.398944062679822"><ele>155.0</ele><time>2026-04-04T07:46:53.999Z</time></trkpt><trkpt lat="44.95682807387082" lon="8.399008337810452"><ele>155.0</ele><time>2026-04-04T07:46:54.999Z</time></trkpt><trkpt lat="44.95675695094854" lon="8.399040039062763"><ele>155.0</ele><time>2026-04-04T07:46:55.999Z</time></trkpt><trkpt lat="44.95665737209293" lon="8.399106290655672"><ele>155.0</ele><time>2026-04-04T07:46:57.999Z</time></trkpt><trkpt lat="44.95657852046119" lon="8.399164039565386"><ele>155.0</ele><time>2026-04-04T07:46:58.999Z</time></trkpt><trkpt lat="44.95651950622643" lon="8.399230615034579"><ele>155.0</ele><time>2026-04-04T07:46:59.999Z</time></trkpt><trkpt lat="44.9564839210788" lon="8.399311119888377"><ele>155.0</ele><time>2026-04-04T07:47:00.999Z</time></trkpt><trkpt lat="44.95645499068299" lon="8.399400121741403"><ele>155.0</ele><time>2026-04-04T07:47:01.999Z</time></trkpt><trkpt lat="44.9563997473999" lon="8.399517540787473"><ele>155.0</ele><time>2026-04-04T07:47:02.999Z</time></trkpt><trkpt lat="44.95635306941734" lon="8.399651168842398"><ele>155.0</ele><time>2026-04-04T07:47:03.999Z</time></trkpt><trkpt lat="44.95635757234202" lon="8.399741916762347"><ele>155.0</ele><time>2026-04-04T07:47:04.999Z</time></trkpt><trkpt lat="44.95635746298475" lon="8.399873406055844"><ele>155.0</ele><time>2026-04-04T07:47:05.999Z</time></trkpt><trkpt lat="44.95636045277532" lon="8.399966760375092"><ele>155.0</ele><time>2026-04-04T07:47:06.999Z</time></trkpt><trkpt lat="44.95634842003076" lon="8.400076814822519"><ele>155.0</ele><time>2026-04-04T07:47:07.999Z</time></trkpt><trkpt lat="44.95632510552948" lon="8.400180165598657"><ele>155.0</ele><time>2026-04-04T07:47:08.999Z</time></trkpt><trkpt lat="44.95627234927826" lon="8.400296581338333"><ele>155.0</ele><time>2026-04-04T07:47:09.999Z</time></trkpt><trkpt lat="44.956207605136015" lon="8.400422842964527"><ele>155.0</ele><time>2026-04-04T07:47:10.999Z</time></trkpt><trkpt lat="44.95613445865961" lon="8.400532857773515"><ele>155.0</ele><time>2026-04-04T07:47:11.999Z</time></trkpt><trkpt lat="44.95605826902135" lon="8.400661247064898"><ele>155.0</ele><time>2026-04-04T07:47:12.999Z</time></trkpt><trkpt lat="44.95595499981843" lon="8.400832989017836"><ele>155.0</ele><time>2026-04-04T07:47:13.999Z</time></trkpt><trkpt lat="44.95587674620251" lon="8.40094358698799"><ele>155.0</ele><time>2026-04-04T07:47:14.999Z</time></trkpt><trkpt lat="44.95581756171237" lon="8.40102826852644"><ele>154.83333333333331</ele><time>2026-04-04T07:47:15.999Z</time></trkpt><trkpt lat="44.95576422676172" lon="8.401101357457339"><ele>154.66666666666666</ele><time>2026-04-04T07:47:16.999Z</time></trkpt><trkpt lat="44.955717997995635" lon="8.401173631778079"><ele>154.5</ele><time>2026-04-04T07:47:17.999Z</time></trkpt><trkpt lat="44.95566229968331" lon="8.401247792455235"><ele>154.33333333333334</ele><time>2026-04-04T07:47:18.999Z</time></trkpt><trkpt lat="44.955595555306076" lon="8.401318673243797"><ele>154.16666666666669</ele><time>2026-04-04T07:47:19.999Z</time></trkpt><trkpt lat="44.95552145683871" lon="8.401386806496236"><ele>154.0</ele><time>2026-04-04T07:47:20.999Z</time></trkpt><trkpt lat="44.95544216490722" lon="8.401461942505252"><ele>153.83333333333334</ele><time>2026-04-04T07:47:21.999Z</time></trkpt><trkpt lat="44.95536724127" lon="8.401547186564398"><ele>153.66666666666669</ele><time>2026-04-04T07:47:22.999Z</time></trkpt><trkpt lat="44.955299149335445" lon="8.401642846171706"><ele>153.5</ele><time>2026-04-04T07:47:23.999Z</time></trkpt><trkpt lat="44.95523316620494" lon="8.40172715223037"><ele>153.33333333333334</ele><time>2026-04-04T07:47:24.999Z</time></trkpt><trkpt lat="44.95518894994117" lon="8.401801139029216"><ele>153.16666666666666</ele><time>2026-04-04T07:47:25.999Z</time></trkpt><trkpt lat="44.95511608367285" lon="8.40188843089181"><ele>153.0</ele><time>2026-04-04T07:47:27.999Z</time></trkpt><trkpt lat="44.955062147829466" lon="8.401971798769711"><ele>152.83333333333334</ele><time>2026-04-04T07:47:30.999Z</time></trkpt><trkpt lat="44.95503046869356" lon="8.402057887998932"><ele>152.66666666666666</ele><time>2026-04-04T07:47:33.999Z</time></trkpt><trkpt lat="44.95497521922123" lon="8.402152135460398"><ele>152.5</ele><time>2026-04-04T07:47:36.999Z</time></trkpt><trkpt lat="44.954893121729256" lon="8.40221990453621"><ele>152.33333333333331</ele><time>2026-04-04T07:47:39.999Z</time></trkpt><trkpt lat="44.95485193590319" lon="8.402301758716977"><ele>152.16666666666666</ele><time>2026-04-04T07:47:42.999Z</time></trkpt><trkpt lat="44.954811710655704" lon="8.402402259003116"><ele>152.0</ele><time>2026-04-04T07:47:45.999Z</time></trkpt><trkpt lat="44.95477636084015" lon="8.402502919745018"><ele>152.0</ele><time>2026-04-04T07:47:48.999Z</time></trkpt><trkpt lat="44.954846598577554" lon="8.402591852161692"><ele>152.0</ele><time>2026-04-04T07:47:51.999Z</time></trkpt><trkpt lat="44.95478751701319" lon="8.402486606930312"><ele>152.0</ele><time>2026-04-04T07:48:47.999Z</time></trkpt><trkpt lat="44.95481438903875" lon="8.402354951201744"><ele>152.0</ele><time>2026-04-04T07:48:49.999Z</time></trkpt><trkpt lat="44.95482902517469" lon="8.402257402740121"><ele>152.0</ele><time>2026-04-04T07:48:51.999Z</time></trkpt><trkpt lat="44.95488992425763" lon="8.402201655432158"><ele>152.0</ele><time>2026-04-04T07:48:53.999Z</time></trkpt><trkpt lat="44.954957585497716" lon="8.402098161410969"><ele>152.0</ele><time>2026-04-04T07:48:55.999Z</time></trkpt><trkpt lat="44.955029147827915" lon="8.401994948687781"><ele>152.0</ele><time>2026-04-04T07:48:57.999Z</time></trkpt><trkpt lat="44.95507820518201" lon="8.401929147175709"><ele>152.0</ele><time>2026-04-04T07:48:58.999Z</time></trkpt><trkpt lat="44.95515299481407" lon="8.401818435451263"><ele>152.0</ele><time>2026-04-04T07:48:59.999Z</time></trkpt><trkpt lat="44.95520290571431" lon="8.40174789249816"><ele>152.0</ele><time>2026-04-04T07:49:00.999Z</time></trkpt><trkpt lat="44.955271766383476" lon="8.40164528693228"><ele>152.0</ele><time>2026-04-04T07:49:02.999Z</time></trkpt><trkpt lat="44.955326884384576" lon="8.401562956278102"><ele>152.16666666666666</ele><time>2026-04-04T07:49:04.999Z</time></trkpt><trkpt lat="44.95540218684726" lon="8.40151351778481"><ele>152.33333333333331</ele><time>2026-04-04T07:49:06.999Z</time></trkpt><trkpt lat="44.955482400733395" lon="8.401622051092954"><ele>152.5</ele><time>2026-04-04T07:49:08.999Z</time></trkpt><trkpt lat="44.955522816455925" lon="8.401702771141208"><ele>152.66666666666666</ele><time>2026-04-04T07:49:09.999Z</time></trkpt><trkpt lat="44.95558127076665" lon="8.401770995494259"><ele>152.83333333333334</ele><time>2026-04-04T07:49:10.999Z</time></trkpt><trkpt lat="44.95564102388386" lon="8.40183859814288"><ele>153.0</ele><time>2026-04-04T07:49:11.999Z</time></trkpt><trkpt lat="44.95574399541496" lon="8.40194407271836"><ele>153.0</ele><time>2026-04-04T07:49:13.999Z</time></trkpt><trkpt lat="44.95581612023934" lon="8.402015382315685"><ele>153.0</ele><time>2026-04-04T07:49:15.999Z</time></trkpt><trkpt lat="44.9558997189382" lon="8.40207670370316"><ele>153.0</ele><time>2026-04-04T07:49:17.999Z</time></trkpt><trkpt lat="44.95599731677508" lon="8.402160337446354"><ele>153.0</ele><time>2026-04-04T07:49:19.999Z</time></trkpt><trkpt lat="44.95605751541224" lon="8.402224952079848"><ele>153.0</ele><time>2026-04-04T07:49:21.999Z</time></trkpt><trkpt lat="44.95611502943662" lon="8.402287281643426"><ele>153.0</ele><time>2026-04-04T07:49:22.999Z</time></trkpt><trkpt lat="44.9561823839274" lon="8.40233503090788"><ele>153.42857142857142</ele><time>2026-04-04T07:49:23.999Z</time></trkpt><trkpt lat="44.95625816651087" lon="8.40235910485148"><ele>153.85714285714286</ele><time>2026-04-04T07:49:24.999Z</time></trkpt><trkpt lat="44.95633738362936" lon="8.402385230116517"><ele>154.28571428571428</ele><time>2026-04-04T07:49:25.999Z</time></trkpt><trkpt lat="44.956398358052006" lon="8.402414131427868"><ele>154.71428571428572</ele><time>2026-04-04T07:49:26.999Z</time></trkpt><trkpt lat="44.95645938767411" lon="8.402451193699374"><ele>155.14285714285714</ele><time>2026-04-04T07:49:27.999Z</time></trkpt><trkpt lat="44.956529618538426" lon="8.402491702078725"><ele>155.57142857142858</ele><time>2026-04-04T07:49:28.999Z</time></trkpt><trkpt lat="44.95659472393342" lon="8.402542533508967"><ele>156.0</ele><time>2026-04-04T07:49:29.999Z</time></trkpt><trkpt lat="44.95665927990945" lon="8.402590936049492"><ele>157.83333333333334</ele><time>2026-04-04T07:49:30.999Z</time></trkpt><trkpt lat="44.95675495165179" lon="8.402647611343031"><ele>159.66666666666666</ele><time>2026-04-04T07:49:32.999Z</time></trkpt><trkpt lat="44.95682583765099" lon="8.402629098210348"><ele>161.5</ele><time>2026-04-04T07:49:34.999Z</time></trkpt><trkpt lat="44.956895482349054" lon="8.40267239402534"><ele>163.33333333333331</ele><time>2026-04-04T07:49:37.999Z</time></trkpt><trkpt lat="44.95696432267502" lon="8.40271109873623"><ele>165.16666666666666</ele><time>2026-04-04T07:49:40.999Z</time></trkpt><trkpt lat="44.95704159329828" lon="8.402700063532704"><ele>167.0</ele><time>2026-04-04T07:49:45.999Z</time></trkpt><trkpt lat="44.95709110129615" lon="8.402623777400038"><ele>167.0</ele><time>2026-04-04T07:49:48.999Z</time></trkpt><trkpt lat="44.95712906916096" lon="8.402481983613319"><ele>167.0</ele><time>2026-04-04T07:49:51.999Z</time></trkpt><trkpt lat="44.957167012267895" lon="8.402356690036154"><ele>167.0</ele><time>2026-04-04T07:49:53.999Z</time></trkpt><trkpt lat="44.95720258810031" lon="8.40227057034643"><ele>167.0</ele><time>2026-04-04T07:49:57.999Z</time></trkpt><trkpt lat="44.95715180502322" lon="8.402180052313609"><ele>167.0</ele><time>2026-04-04T07:49:59.999Z</time></trkpt><trkpt lat="44.95708343662035" lon="8.402268086676182"><ele>167.0</ele><time>2026-04-04T07:50:01.998Z</time></trkpt><trkpt lat="44.95706754455679" lon="8.402372689233765"><ele>167.0</ele><time>2026-04-04T07:50:02.998Z</time></trkpt><trkpt lat="44.957097191510975" lon="8.402490225727037"><ele>167.0</ele><time>2026-04-04T07:50:04.998Z</time></trkpt><trkpt lat="44.95710727531964" lon="8.402597329253146"><ele>167.0</ele><time>2026-04-04T07:50:07Z</time></trkpt><trkpt lat="44.9570492617656" lon="8.402705596170533"><ele>167.0</ele><time>2026-04-04T07:50:09Z</time></trkpt><trkpt lat="44.956951372523946" lon="8.402742611730753"><ele>167.0</ele><time>2026-04-04T07:50:11Z</time></trkpt><trkpt lat="44.95684786196671" lon="8.402716700327328"><ele>167.0</ele><time>2026-04-04T07:50:13Z</time></trkpt><trkpt lat="44.95675809477411" lon="8.402666644521373"><ele>167.0</ele><time>2026-04-04T07:50:15Z</time></trkpt><trkpt lat="44.956673358398064" lon="8.402651751381617"><ele>167.0</ele><time>2026-04-04T07:50:52.999Z</time></trkpt><trkpt lat="44.95661676789352" lon="8.402711988583572"><ele>167.0</ele><time>2026-04-04T07:50:55.999Z</time></trkpt><trkpt lat="44.9565768563696" lon="8.402797431896648"><ele>167.0</ele><time>2026-04-04T07:50:57.999Z</time></trkpt><trkpt lat="44.95653860447592" lon="8.40287515375542"><ele>167.0</ele><time>2026-04-04T07:50:58.999Z</time></trkpt><trkpt lat="44.956481697522484" lon="8.402969370966114"><ele>165.83333333333331</ele><time>2026-04-04T07:51:00.999Z</time></trkpt><trkpt lat="44.95643870239327" lon="8.403035313304054"><ele>164.66666666666666</ele><time>2026-04-04T07:51:01.999Z</time></trkpt><trkpt lat="44.95636071633003" lon="8.403180640422798"><ele>163.5</ele><time>2026-04-04T07:51:03.999Z</time></trkpt><trkpt lat="44.95630308089371" lon="8.403267084900106"><ele>162.33333333333334</ele><time>2026-04-04T07:51:04.999Z</time></trkpt><trkpt lat="44.9562516279315" lon="8.403319594024259"><ele>161.16666666666669</ele><time>2026-04-04T07:51:05.999Z</time></trkpt><trkpt lat="44.95619762121334" lon="8.403387990478343"><ele>160.0</ele><time>2026-04-04T07:51:06.999Z</time></trkpt><trkpt lat="44.95611092871496" lon="8.403528253867957"><ele>160.0</ele><time>2026-04-04T07:51:08.999Z</time></trkpt><trkpt lat="44.95607694048613" lon="8.403603177826652"><ele>160.0</ele><time>2026-04-04T07:51:09.999Z</time></trkpt><trkpt lat="44.95601565083016" lon="8.40371392598276"><ele>160.0</ele><time>2026-04-04T07:51:10.999Z</time></trkpt><trkpt lat="44.955958302161285" lon="8.403839754257216"><ele>160.0</ele><time>2026-04-04T07:51:11.999Z</time></trkpt><trkpt lat="44.95591681978151" lon="8.403922703318477"><ele>160.0</ele><time>2026-04-04T07:51:12.999Z</time></trkpt><trkpt lat="44.955882068256216" lon="8.404014523320454"><ele>160.0</ele><time>2026-04-04T07:51:13.999Z</time></trkpt><trkpt lat="44.955835482335246" lon="8.40409113084619"><ele>159.33333333333334</ele><time>2026-04-04T07:51:14.999Z</time></trkpt><trkpt lat="44.95578498848821" lon="8.404186614520668"><ele>158.66666666666669</ele><time>2026-04-04T07:51:15.999Z</time></trkpt><trkpt lat="44.9557292401796" lon="8.404281232162175"><ele>158.0</ele><time>2026-04-04T07:51:16.999Z</time></trkpt><trkpt lat="44.95568739304981" lon="8.404399597232288"><ele>157.33333333333334</ele><time>2026-04-04T07:51:17.999Z</time></trkpt><trkpt lat="44.95563612966964" lon="8.404506083210283"><ele>156.66666666666666</ele><time>2026-04-04T07:51:18.999Z</time></trkpt><trkpt lat="44.95560152691771" lon="8.404584226191401"><ele>156.0</ele><time>2026-04-04T07:51:19.999Z</time></trkpt><trkpt lat="44.955553225668304" lon="8.4046901560407"><ele>156.0</ele><time>2026-04-04T07:51:20.999Z</time></trkpt><trkpt lat="44.95551348351873" lon="8.404793653680084"><ele>156.0</ele><time>2026-04-04T07:51:21.999Z</time></trkpt><trkpt lat="44.955488816975624" lon="8.40489137110223"><ele>156.0</ele><time>2026-04-04T07:51:22.999Z</time></trkpt><trkpt lat="44.95546940218659" lon="8.404995407770462"><ele>156.0</ele><time>2026-04-04T07:51:23.999Z</time></trkpt><trkpt lat="44.955448534104114" lon="8.405096207885265"><ele>156.0</ele><time>2026-04-04T07:51:24.999Z</time></trkpt><trkpt lat="44.955447753671244" lon="8.405217162997559"><ele>156.0</ele><time>2026-04-04T07:51:25.999Z</time></trkpt><trkpt lat="44.95543473444051" lon="8.40533385588"><ele>156.0</ele><time>2026-04-04T07:51:26.999Z</time></trkpt><trkpt lat="44.95544233872585" lon="8.405431519283455"><ele>156.0</ele><time>2026-04-04T07:51:27.999Z</time></trkpt><trkpt lat="44.95549733577849" lon="8.405538099815379"><ele>156.0</ele><time>2026-04-04T07:51:29.999Z</time></trkpt><trkpt lat="44.95542492818515" lon="8.4054945638174"><ele>156.0</ele><time>2026-04-04T07:51:30.999Z</time></trkpt><trkpt lat="44.9555008867195" lon="8.405501567200643"><ele>156.0</ele><time>2026-04-04T07:51:32.999Z</time></trkpt><trkpt lat="44.95560963187797" lon="8.405566350682518"><ele>156.0</ele><time>2026-04-04T07:51:34.999Z</time></trkpt><trkpt lat="44.955673497118745" lon="8.405631632345678"><ele>156.33333333333334</ele><time>2026-04-04T07:51:35.999Z</time></trkpt><trkpt lat="44.95574683117536" lon="8.405708646893812"><ele>156.66666666666666</ele><time>2026-04-04T07:51:36.999Z</time></trkpt><trkpt lat="44.95582815775919" lon="8.405787120618767"><ele>157.0</ele><time>2026-04-04T07:51:37.999Z</time></trkpt><trkpt lat="44.95588468837581" lon="8.405865004532043"><ele>157.33333333333331</ele><time>2026-04-04T07:51:38.999Z</time></trkpt><trkpt lat="44.95593898085707" lon="8.405950278732407"><ele>157.66666666666666</ele><time>2026-04-04T07:51:39.999Z</time></trkpt><trkpt lat="44.95598360529925" lon="8.406029290524197"><ele>158.0</ele><time>2026-04-04T07:51:40.999Z</time></trkpt><trkpt lat="44.95603287000097" lon="8.406104328752324"><ele>161.0</ele><time>2026-04-04T07:51:41.999Z</time></trkpt><trkpt lat="44.95609150995775" lon="8.406199367907554"><ele>164.0</ele><time>2026-04-04T07:51:42.999Z</time></trkpt><trkpt lat="44.95617122267618" lon="8.406313070794884"><ele>167.0</ele><time>2026-04-04T07:51:43.999Z</time></trkpt><trkpt lat="44.956257425620926" lon="8.406401325232482"><ele>170.0</ele><time>2026-04-04T07:51:44.999Z</time></trkpt><trkpt lat="44.956335795212176" lon="8.406461029727577"><ele>173.0</ele><time>2026-04-04T07:51:45.999Z</time></trkpt><trkpt lat="44.956425060688396" lon="8.406513917411553"><ele>173.8</ele><time>2026-04-04T07:51:46.999Z</time></trkpt><trkpt lat="44.95652269342921" lon="8.406574758085508"><ele>174.60000000000002</ele><time>2026-04-04T07:51:47.999Z</time></trkpt><trkpt lat="44.95661844154381" lon="8.406634686088806"><ele>175.39999999999998</ele><time>2026-04-04T07:51:48.999Z</time></trkpt><trkpt lat="44.95671228150309" lon="8.406698024033075"><ele>176.2</ele><time>2026-04-04T07:51:49.999Z</time></trkpt><trkpt lat="44.95681839310404" lon="8.406763682795992"><ele>177.0</ele><time>2026-04-04T07:51:50.999Z</time></trkpt><trkpt lat="44.95691964453945" lon="8.406832831888819"><ele>178.71428571428572</ele><time>2026-04-04T07:51:51.999Z</time></trkpt><trkpt lat="44.95698645938157" lon="8.406868050454069"><ele>180.42857142857142</ele><time>2026-04-04T07:51:52.999Z</time></trkpt><trkpt lat="44.957044035351" lon="8.406925680005084"><ele>182.14285714285714</ele><time>2026-04-04T07:51:53.999Z</time></trkpt><trkpt lat="44.957098144687116" lon="8.40698557702833"><ele>183.85714285714286</ele><time>2026-04-04T07:51:54.999Z</time></trkpt><trkpt lat="44.95717382459798" lon="8.407045080606817"><ele>185.57142857142856</ele><time>2026-04-04T07:51:56.999Z</time></trkpt><trkpt lat="44.957252154998" lon="8.407060425003184"><ele>187.28571428571428</ele><time>2026-04-04T07:51:58.999Z</time></trkpt><trkpt lat="44.95730664520808" lon="8.407122791281594"><ele>189.0</ele><time>2026-04-04T07:52:01.999Z</time></trkpt><trkpt lat="44.957373366015695" lon="8.407138678903333"><ele>189.0</ele><time>2026-04-04T07:52:05.998Z</time></trkpt><trkpt lat="44.95726043102284" lon="8.407111094983527"><ele>189.0</ele><time>2026-04-04T07:53:17.999Z</time></trkpt><trkpt lat="44.95719354194554" lon="8.407052355762723"><ele>189.0</ele><time>2026-04-04T07:53:19.999Z</time></trkpt><trkpt lat="44.95709921022291" lon="8.406999580351718"><ele>189.0</ele><time>2026-04-04T07:53:21.999Z</time></trkpt><trkpt lat="44.95702911998134" lon="8.406947627658491"><ele>189.0</ele><time>2026-04-04T07:53:23.999Z</time></trkpt><trkpt lat="44.95696086512462" lon="8.406897464738295"><ele>189.0</ele><time>2026-04-04T07:53:25.999Z</time></trkpt><trkpt lat="44.95687144253171" lon="8.406826558095334"><ele>189.0</ele><time>2026-04-04T07:53:27.999Z</time></trkpt><trkpt lat="44.9567773907756" lon="8.406749760255101"><ele>189.0</ele><time>2026-04-04T07:53:29.999Z</time></trkpt><trkpt lat="44.95669508566796" lon="8.406686828702778"><ele>189.0</ele><time>2026-04-04T07:53:31.999Z</time></trkpt><trkpt lat="44.95660888545901" lon="8.406630313835972"><ele>189.0</ele><time>2026-04-04T07:53:33.999Z</time></trkpt><trkpt lat="44.956505719559836" lon="8.406578470434535"><ele>186.6</ele><time>2026-04-04T07:53:35.999Z</time></trkpt><trkpt lat="44.9564388901341" lon="8.406547459189207"><ele>184.2</ele><time>2026-04-04T07:53:36.999Z</time></trkpt><trkpt lat="44.95633688203014" lon="8.40645866923389"><ele>181.79999999999998</ele><time>2026-04-04T07:53:38.999Z</time></trkpt><trkpt lat="44.95628157940609" lon="8.406414828261362"><ele>179.39999999999998</ele><time>2026-04-04T07:53:39.999Z</time></trkpt><trkpt lat="44.956173320404496" lon="8.40633545475645"><ele>177.0</ele><time>2026-04-04T07:53:41.999Z</time></trkpt><trkpt lat="44.956084174378105" lon="8.406249471438217"><ele>176.33333333333334</ele><time>2026-04-04T07:53:43.999Z</time></trkpt><trkpt lat="44.956014072902185" lon="8.406133346115974"><ele>175.66666666666666</ele><time>2026-04-04T07:53:45.999Z</time></trkpt><trkpt lat="44.95597028676305" lon="8.406068553932117"><ele>175.0</ele><time>2026-04-04T07:53:46.999Z</time></trkpt><trkpt lat="44.95589890063982" lon="8.405966640775674"><ele>174.33333333333331</ele><time>2026-04-04T07:53:48.999Z</time></trkpt><trkpt lat="44.95584622751875" lon="8.405885498052953"><ele>173.66666666666666</ele><time>2026-04-04T07:53:50.999Z</time></trkpt><trkpt lat="44.95577897192272" lon="8.405863710399652"><ele>173.0</ele><time>2026-04-04T07:53:52.999Z</time></trkpt><trkpt lat="44.95571526585142" lon="8.405832649105694"><ele>170.5</ele><time>2026-04-04T07:53:53.999Z</time></trkpt><trkpt lat="44.955622435059446" lon="8.405765626871629"><ele>168.0</ele><time>2026-04-04T07:53:55.999Z</time></trkpt><trkpt lat="44.955567949827504" lon="8.405693900998628"><ele>165.5</ele><time>2026-04-04T07:53:57.999Z</time></trkpt><trkpt lat="44.95551875691189" lon="8.405606424210895"><ele>163.0</ele><time>2026-04-04T07:53:59.999Z</time></trkpt><trkpt lat="44.95548195884194" lon="8.405484404012057"><ele>160.5</ele><time>2026-04-04T07:54:01.999Z</time></trkpt><trkpt lat="44.955417456729045" lon="8.405472897636256"><ele>158.0</ele><time>2026-04-04T07:54:04.999Z</time></trkpt><trkpt lat="44.95538127349248" lon="8.405565798910482"><ele>158.0</ele><time>2026-04-04T07:54:06.999Z</time></trkpt><trkpt lat="44.95536631055351" lon="8.405657874212658"><ele>158.0</ele><time>2026-04-04T07:54:07.999Z</time></trkpt><trkpt lat="44.95536079139075" lon="8.405764138319041"><ele>158.0</ele><time>2026-04-04T07:54:08.999Z</time></trkpt><trkpt lat="44.95535082342752" lon="8.40587957590004"><ele>158.0</ele><time>2026-04-04T07:54:09.999Z</time></trkpt><trkpt lat="44.9553426892957" lon="8.405989816345134"><ele>158.0</ele><time>2026-04-04T07:54:10.999Z</time></trkpt><trkpt lat="44.95533686868127" lon="8.406092690124774"><ele>158.0</ele><time>2026-04-04T07:54:11.999Z</time></trkpt><trkpt lat="44.955350482605" lon="8.406195795245944"><ele>158.0</ele><time>2026-04-04T07:54:12.998Z</time></trkpt><trkpt lat="44.95536180217749" lon="8.406300164382616"><ele>158.0</ele><time>2026-04-04T07:54:13.998Z</time></trkpt><trkpt lat="44.95538584867624" lon="8.406402958933045"><ele>158.0</ele><time>2026-04-04T07:54:14.998Z</time></trkpt><trkpt lat="44.95540945341221" lon="8.406501239127092"><ele>158.0</ele><time>2026-04-04T07:54:15.998Z</time></trkpt><trkpt lat="44.9554273130065" lon="8.406612481396289"><ele>158.0</ele><time>2026-04-04T07:54:16.998Z</time></trkpt><trkpt lat="44.95544142999491" lon="8.406724993971865"><ele>158.0</ele><time>2026-04-04T07:54:18Z</time></trkpt><trkpt lat="44.955446399013624" lon="8.406851610762013"><ele>158.83333333333331</ele><time>2026-04-04T07:54:19Z</time></trkpt><trkpt lat="44.95544293252319" lon="8.406981812457225"><ele>159.66666666666666</ele><time>2026-04-04T07:54:20Z</time></trkpt><trkpt lat="44.955437635246035" lon="8.40710435654165"><ele>160.5</ele><time>2026-04-04T07:54:21Z</time></trkpt><trkpt lat="44.95542244693129" lon="8.407222695613529"><ele>161.33333333333334</ele><time>2026-04-04T07:54:22Z</time></trkpt><trkpt lat="44.95540476541006" lon="8.407330053208005"><ele>162.16666666666669</ele><time>2026-04-04T07:54:23Z</time></trkpt><trkpt lat="44.95537449326504" lon="8.40742808451499"><ele>163.0</ele><time>2026-04-04T07:54:24Z</time></trkpt><trkpt lat="44.95533401959683" lon="8.40758390116676"><ele>163.83333333333334</ele><time>2026-04-04T07:54:26Z</time></trkpt><trkpt lat="44.955291495994295" lon="8.407739010480464"><ele>164.66666666666669</ele><time>2026-04-04T07:54:28Z</time></trkpt><trkpt lat="44.95527647744822" lon="8.407839472156382"><ele>165.5</ele><time>2026-04-04T07:54:29Z</time></trkpt><trkpt lat="44.955281054745925" lon="8.407950427297658"><ele>166.33333333333334</ele><time>2026-04-04T07:54:30Z</time></trkpt><trkpt lat="44.9552911085935" lon="8.408068489351145"><ele>167.16666666666666</ele><time>2026-04-04T07:54:31Z</time></trkpt><trkpt lat="44.95530685263516" lon="8.408201765402023"><ele>168.0</ele><time>2026-04-04T07:54:32Z</time></trkpt><trkpt lat="44.95532653683504" lon="8.408323018869286"><ele>168.0</ele><time>2026-04-04T07:54:33Z</time></trkpt><trkpt lat="44.95533214495282" lon="8.408425345795216"><ele>168.0</ele><time>2026-04-04T07:54:34Z</time></trkpt><trkpt lat="44.95531730378772" lon="8.408530340114071"><ele>168.0</ele><time>2026-04-04T07:54:35Z</time></trkpt><trkpt lat="44.95527938008924" lon="8.408634845100018"><ele>168.0</ele><time>2026-04-04T07:54:36Z</time></trkpt><trkpt lat="44.95522920884042" lon="8.408740337227801"><ele>168.0</ele><time>2026-04-04T07:54:37Z</time></trkpt><trkpt lat="44.95517793247796" lon="8.408843363797816"><ele>168.0</ele><time>2026-04-04T07:54:38Z</time></trkpt><trkpt lat="44.95513047997838" lon="8.4089396432217"><ele>166.5</ele><time>2026-04-04T07:54:39Z</time></trkpt><trkpt lat="44.95508392653896" lon="8.409024295343162"><ele>165.0</ele><time>2026-04-04T07:54:40Z</time></trkpt><trkpt lat="44.95503945564595" lon="8.409122114585356"><ele>163.5</ele><time>2026-04-04T07:54:41Z</time></trkpt><trkpt lat="44.955005650165326" lon="8.409220701349367"><ele>162.0</ele><time>2026-04-04T07:54:42Z</time></trkpt><trkpt lat="44.954974934236354" lon="8.409307966741604"><ele>160.5</ele><time>2026-04-04T07:54:43Z</time></trkpt><trkpt lat="44.9549527012843" lon="8.409413811647278"><ele>159.0</ele><time>2026-04-04T07:54:44Z</time></trkpt><trkpt lat="44.95494360943921" lon="8.409517378304546"><ele>157.8</ele><time>2026-04-04T07:54:45Z</time></trkpt><trkpt lat="44.95495043899536" lon="8.40964228253835"><ele>156.60000000000002</ele><time>2026-04-04T07:54:46Z</time></trkpt><trkpt lat="44.95498097930847" lon="8.409786238794055"><ele>155.4</ele><time>2026-04-04T07:54:47Z</time></trkpt><trkpt lat="44.9550173173151" lon="8.409915531010022"><ele>154.20000000000002</ele><time>2026-04-04T07:54:48Z</time></trkpt><trkpt lat="44.95504861534593" lon="8.410025105251991"><ele>153.0</ele><time>2026-04-04T07:54:49Z</time></trkpt><trkpt lat="44.95506087096078" lon="8.410145740502248"><ele>153.0</ele><time>2026-04-04T07:54:49.999Z</time></trkpt><trkpt lat="44.95506291406039" lon="8.410258882819159"><ele>153.0</ele><time>2026-04-04T07:54:50.999Z</time></trkpt><trkpt lat="44.955072269325235" lon="8.410375771318918"><ele>153.0</ele><time>2026-04-04T07:54:51.999Z</time></trkpt><trkpt lat="44.95507823493694" lon="8.41049060566291"><ele>153.0</ele><time>2026-04-04T07:54:52.999Z</time></trkpt><trkpt lat="44.95505828698613" lon="8.410613924224522"><ele>153.0</ele><time>2026-04-04T07:54:53.999Z</time></trkpt><trkpt lat="44.95501476733591" lon="8.410732440897226"><ele>153.0</ele><time>2026-04-04T07:54:54.999Z</time></trkpt><trkpt lat="44.95496329880072" lon="8.410860907916907"><ele>152.75</ele><time>2026-04-04T07:54:55.999Z</time></trkpt><trkpt lat="44.95490224236667" lon="8.41101938418506"><ele>152.5</ele><time>2026-04-04T07:54:56.999Z</time></trkpt><trkpt lat="44.95482941891016" lon="8.411201609758322"><ele>152.25</ele><time>2026-04-04T07:54:57.999Z</time></trkpt><trkpt lat="44.95478890270952" lon="8.411334477115037"><ele>152.0</ele><time>2026-04-04T07:54:58.999Z</time></trkpt><trkpt lat="44.954760656093164" lon="8.411459558338258"><ele>153.5</ele><time>2026-04-04T07:54:59.999Z</time></trkpt><trkpt lat="44.95472912641423" lon="8.41162785932394"><ele>155.0</ele><time>2026-04-04T07:55:00.999Z</time></trkpt><trkpt lat="44.9546889550062" lon="8.411808706882667"><ele>156.5</ele><time>2026-04-04T07:55:01.999Z</time></trkpt><trkpt lat="44.95465836467224" lon="8.411985480802503"><ele>158.0</ele><time>2026-04-04T07:55:02.999Z</time></trkpt><trkpt lat="44.95461151136645" lon="8.412179289855125"><ele>158.25</ele><time>2026-04-04T07:55:03.999Z</time></trkpt><trkpt lat="44.95456104368844" lon="8.412388955591176"><ele>158.5</ele><time>2026-04-04T07:55:04.999Z</time></trkpt><trkpt lat="44.9545225206805" lon="8.412542698999308"><ele>158.75</ele><time>2026-04-04T07:55:05.999Z</time></trkpt><trkpt lat="44.9544925032114" lon="8.41269713736643"><ele>159.0</ele><time>2026-04-04T07:55:06.999Z</time></trkpt><trkpt lat="44.95446850215605" lon="8.412841132729222"><ele>159.75</ele><time>2026-04-04T07:55:07.999Z</time></trkpt><trkpt lat="44.954442928329456" lon="8.412998135117553"><ele>160.5</ele><time>2026-04-04T07:55:08.999Z</time></trkpt><trkpt lat="44.95440441604774" lon="8.413160666900039"><ele>161.25</ele><time>2026-04-04T07:55:09.999Z</time></trkpt><trkpt lat="44.95436816342794" lon="8.413316254063481"><ele>162.0</ele><time>2026-04-04T07:55:10.999Z</time></trkpt><trkpt lat="44.954330218805396" lon="8.413453101538739"><ele>162.0</ele><time>2026-04-04T07:55:11.999Z</time></trkpt><trkpt lat="44.95429419294169" lon="8.413591041792273"><ele>162.0</ele><time>2026-04-04T07:55:12.999Z</time></trkpt><trkpt lat="44.954251596089364" lon="8.413730424630145"><ele>162.0</ele><time>2026-04-04T07:55:13.999Z</time></trkpt><trkpt lat="44.95421285445838" lon="8.41384458777585"><ele>162.0</ele><time>2026-04-04T07:55:14.999Z</time></trkpt><trkpt lat="44.95417844292611" lon="8.413957190199797"><ele>162.0</ele><time>2026-04-04T07:55:15.999Z</time></trkpt><trkpt lat="44.95413789270137" lon="8.414055318119104"><ele>161.0</ele><time>2026-04-04T07:55:16.999Z</time></trkpt><trkpt lat="44.95409369744454" lon="8.414139114174052"><ele>160.0</ele><time>2026-04-04T07:55:17.999Z</time></trkpt><trkpt lat="44.95404777846905" lon="8.4142148124413"><ele>159.0</ele><time>2026-04-04T07:55:18.999Z</time></trkpt><trkpt lat="44.95397656022235" lon="8.414269911563776"><ele>158.0</ele><time>2026-04-04T07:55:19.999Z</time></trkpt><trkpt lat="44.9538939309958" lon="8.414316253557432"><ele>157.0</ele><time>2026-04-04T07:55:20.999Z</time></trkpt><trkpt lat="44.953840779865914" lon="8.414429013283101"><ele>156.0</ele><time>2026-04-04T07:55:21.999Z</time></trkpt><trkpt lat="44.95375952625432" lon="8.414430933455947"><ele>156.0</ele><time>2026-04-04T07:55:22.999Z</time></trkpt><trkpt lat="44.953693320722365" lon="8.414464779650801"><ele>156.0</ele><time>2026-04-04T07:55:23.999Z</time></trkpt><trkpt lat="44.95364467456488" lon="8.414521959866484"><ele>156.0</ele><time>2026-04-04T07:55:24.999Z</time></trkpt><trkpt lat="44.953511448621086" lon="8.414600673495224"><ele>156.0</ele><time>2026-04-04T07:55:26.999Z</time></trkpt><trkpt lat="44.95348277471469" lon="8.414680620342512"><ele>156.0</ele><time>2026-04-04T07:55:29.999Z</time></trkpt><trkpt lat="44.953441610639935" lon="8.414796608836824"><ele>156.0</ele><time>2026-04-04T07:59:55.999Z</time></trkpt><trkpt lat="44.95340809096175" lon="8.414915340476805"><ele>156.8</ele><time>2026-04-04T07:59:57.999Z</time></trkpt><trkpt lat="44.9533786532258" lon="8.41500980263175"><ele>157.6</ele><time>2026-04-04T07:59:58.999Z</time></trkpt><trkpt lat="44.95334711506643" lon="8.415107611428107"><ele>158.4</ele><time>2026-04-04T07:59:59.999Z</time></trkpt><trkpt lat="44.95329266927372" lon="8.415216282667794"><ele>159.2</ele><time>2026-04-04T08:00:00.999Z</time></trkpt><trkpt lat="44.95324705229807" lon="8.415344818151107"><ele>160.0</ele><time>2026-04-04T08:00:01.999Z</time></trkpt><trkpt lat="44.953209441212095" lon="8.415485467678005"><ele>157.2</ele><time>2026-04-04T08:00:02.999Z</time></trkpt><trkpt lat="44.9531621646797" lon="8.41561981925151"><ele>154.4</ele><time>2026-04-04T08:00:03.999Z</time></trkpt><trkpt lat="44.95310536902395" lon="8.415770349468414"><ele>151.6</ele><time>2026-04-04T08:00:04.999Z</time></trkpt><trkpt lat="44.9530576432106" lon="8.415919752363536"><ele>148.8</ele><time>2026-04-04T08:00:05.999Z</time></trkpt><trkpt lat="44.95302081210618" lon="8.41605403520164"><ele>146.0</ele><time>2026-04-04T08:00:06.999Z</time></trkpt><trkpt lat="44.952994455055396" lon="8.41618290071271"><ele>146.0</ele><time>2026-04-04T08:00:07.999Z</time></trkpt><trkpt lat="44.95299370900731" lon="8.416308379741636"><ele>146.0</ele><time>2026-04-04T08:00:08.999Z</time></trkpt><trkpt lat="44.95301833174146" lon="8.41642743760418"><ele>146.0</ele><time>2026-04-04T08:00:09.999Z</time></trkpt><trkpt lat="44.9530728720239" lon="8.41651525000628"><ele>146.0</ele><time>2026-04-04T08:00:10.999Z</time></trkpt><trkpt lat="44.95313563755614" lon="8.41657677621911"><ele>146.0</ele><time>2026-04-04T08:00:11.999Z</time></trkpt><trkpt lat="44.95319412316963" lon="8.416634316953543"><ele>146.0</ele><time>2026-04-04T08:00:12.999Z</time></trkpt><trkpt lat="44.953279673375754" lon="8.416671675300037"><ele>146.2</ele><time>2026-04-04T08:00:13.999Z</time></trkpt><trkpt lat="44.953375281034376" lon="8.416738537954394"><ele>146.39999999999998</ele><time>2026-04-04T08:00:14.999Z</time></trkpt><trkpt lat="44.953467336698445" lon="8.416782081268451"><ele>146.6</ele><time>2026-04-04T08:00:15.999Z</time></trkpt><trkpt lat="44.953572872990776" lon="8.416826328821758"><ele>146.79999999999998</ele><time>2026-04-04T08:00:16.999Z</time></trkpt><trkpt lat="44.95368466631088" lon="8.416879936392233"><ele>147.0</ele><time>2026-04-04T08:00:17.999Z</time></trkpt><trkpt lat="44.95380214509203" lon="8.416953374444391"><ele>147.0</ele><time>2026-04-04T08:00:18.999Z</time></trkpt><trkpt lat="44.95393125762798" lon="8.4170205109082"><ele>147.0</ele><time>2026-04-04T08:00:19.999Z</time></trkpt><trkpt lat="44.95406990422512" lon="8.417095929346933"><ele>147.0</ele><time>2026-04-04T08:00:20.999Z</time></trkpt><trkpt lat="44.95420683431163" lon="8.417186377914765"><ele>147.0</ele><time>2026-04-04T08:00:21.999Z</time></trkpt><trkpt lat="44.954346690517006" lon="8.417265334809537"><ele>147.33333333333334</ele><time>2026-04-04T08:00:22.999Z</time></trkpt><trkpt lat="44.95449402243849" lon="8.41734844965739"><ele>147.66666666666669</ele><time>2026-04-04T08:00:23.999Z</time></trkpt><trkpt lat="44.954640062739585" lon="8.417429808427736"><ele>148.0</ele><time>2026-04-04T08:00:24.999Z</time></trkpt><trkpt lat="44.954789659548446" lon="8.417513148522666"><ele>148.0</ele><time>2026-04-04T08:00:25.999Z</time></trkpt><trkpt lat="44.95493744158639" lon="8.41759547760988"><ele>148.0</ele><time>2026-04-04T08:00:26.999Z</time></trkpt><trkpt lat="44.95509105168455" lon="8.417681053500274"><ele>148.0</ele><time>2026-04-04T08:00:27.999Z</time></trkpt><trkpt lat="44.95524791562789" lon="8.4177684421006"><ele>148.66666666666669</ele><time>2026-04-04T08:00:28.999Z</time></trkpt><trkpt lat="44.955403383917904" lon="8.417854620382805"><ele>149.33333333333334</ele><time>2026-04-04T08:00:29.999Z</time></trkpt><trkpt lat="44.95556121031122" lon="8.417939679058962"><ele>150.0</ele><time>2026-04-04T08:00:30.999Z</time></trkpt><trkpt lat="44.95571745705984" lon="8.418022025316851"><ele>151.66666666666666</ele><time>2026-04-04T08:00:31.999Z</time></trkpt><trkpt lat="44.955879798232566" lon="8.41808530312881"><ele>153.33333333333331</ele><time>2026-04-04T08:00:32.999Z</time></trkpt><trkpt lat="44.956035299365574" lon="8.418169375861208"><ele>155.0</ele><time>2026-04-04T08:00:33.999Z</time></trkpt><trkpt lat="44.9561870652905" lon="8.418251433849386"><ele>155.0</ele><time>2026-04-04T08:00:34.999Z</time></trkpt><trkpt lat="44.95633897602076" lon="8.418361966236068"><ele>155.0</ele><time>2026-04-04T08:00:36Z</time></trkpt><trkpt lat="44.95648711099895" lon="8.41844792364885"><ele>155.0</ele><time>2026-04-04T08:00:37Z</time></trkpt><trkpt lat="44.95663642347329" lon="8.418540008832085"><ele>154.33333333333331</ele><time>2026-04-04T08:00:38Z</time></trkpt><trkpt lat="44.956784111027844" lon="8.41864699207842"><ele>153.66666666666666</ele><time>2026-04-04T08:00:39Z</time></trkpt><trkpt lat="44.95692326697422" lon="8.418767409318122"><ele>153.0</ele><time>2026-04-04T08:00:40Z</time></trkpt><trkpt lat="44.9570600150941" lon="8.418892182947259"><ele>153.0</ele><time>2026-04-04T08:00:41Z</time></trkpt><trkpt lat="44.957203758808134" lon="8.41900346009465"><ele>153.0</ele><time>2026-04-04T08:00:42Z</time></trkpt><trkpt lat="44.95732229310887" lon="8.419152100630908"><ele>153.0</ele><time>2026-04-04T08:00:43Z</time></trkpt><trkpt lat="44.95745002877658" lon="8.419282979755591"><ele>154.33333333333334</ele><time>2026-04-04T08:00:44Z</time></trkpt><trkpt lat="44.95758733897319" lon="8.419398163560889"><ele>155.66666666666669</ele><time>2026-04-04T08:00:45Z</time></trkpt><trkpt lat="44.95770257410813" lon="8.419544075956475"><ele>157.0</ele><time>2026-04-04T08:00:46Z</time></trkpt><trkpt lat="44.95783720602201" lon="8.419662896215373"><ele>157.0</ele><time>2026-04-04T08:00:47Z</time></trkpt><trkpt lat="44.95796096701831" lon="8.419815239069836"><ele>157.0</ele><time>2026-04-04T08:00:48Z</time></trkpt><trkpt lat="44.95808354456869" lon="8.419943874610343"><ele>157.0</ele><time>2026-04-04T08:00:49Z</time></trkpt><trkpt lat="44.95820020507106" lon="8.42007430573963"><ele>157.0</ele><time>2026-04-04T08:00:50Z</time></trkpt><trkpt lat="44.95831175934495" lon="8.420216870475649"><ele>157.0</ele><time>2026-04-04T08:00:51Z</time></trkpt><trkpt lat="44.95841399907428" lon="8.420367782513155"><ele>157.0</ele><time>2026-04-04T08:00:52Z</time></trkpt><trkpt lat="44.95850122285346" lon="8.420522747560652"><ele>157.0</ele><time>2026-04-04T08:00:53Z</time></trkpt><trkpt lat="44.958559042580475" lon="8.420651412099815"><ele>158.5</ele><time>2026-04-04T08:00:54Z</time></trkpt><trkpt lat="44.95859169760488" lon="8.420807040338369"><ele>160.0</ele><time>2026-04-04T08:00:55Z</time></trkpt><trkpt lat="44.95860160885637" lon="8.420983764263422"><ele>161.5</ele><time>2026-04-04T08:00:56Z</time></trkpt><trkpt lat="44.9585892643898" lon="8.421180887054541"><ele>163.0</ele><time>2026-04-04T08:00:57Z</time></trkpt><trkpt lat="44.958567802900006" lon="8.421390900022676"><ele>163.5</ele><time>2026-04-04T08:00:58Z</time></trkpt><trkpt lat="44.95854247211248" lon="8.421585071189016"><ele>164.0</ele><time>2026-04-04T08:00:59Z</time></trkpt><trkpt lat="44.95850940469437" lon="8.421778745949792"><ele>164.5</ele><time>2026-04-04T08:01:00Z</time></trkpt><trkpt lat="44.95846797883425" lon="8.421965045230774"><ele>165.0</ele><time>2026-04-04T08:01:01Z</time></trkpt><trkpt lat="44.95842082590596" lon="8.422124099190702"><ele>165.25</ele><time>2026-04-04T08:01:02Z</time></trkpt><trkpt lat="44.9583753724777" lon="8.422264061645754"><ele>165.5</ele><time>2026-04-04T08:01:03Z</time></trkpt><trkpt lat="44.95832450685143" lon="8.422422649369274"><ele>165.75</ele><time>2026-04-04T08:01:03.999Z</time></trkpt><trkpt lat="44.95827681153872" lon="8.42257135277186"><ele>166.0</ele><time>2026-04-04T08:01:04.999Z</time></trkpt><trkpt lat="44.9582235927624" lon="8.422737277104257"><ele>166.0</ele><time>2026-04-04T08:01:05.999Z</time></trkpt><trkpt lat="44.95815541253373" lon="8.42294984790969"><ele>166.0</ele><time>2026-04-04T08:01:06.999Z</time></trkpt><trkpt lat="44.95811770160681" lon="8.423158559750604"><ele>166.0</ele><time>2026-04-04T08:01:07.999Z</time></trkpt><trkpt lat="44.958084234834054" lon="8.423310169576098"><ele>166.0</ele><time>2026-04-04T08:01:08.999Z</time></trkpt><trkpt lat="44.95807814628425" lon="8.42345708067653"><ele>166.60000000000002</ele><time>2026-04-04T08:01:09.999Z</time></trkpt><trkpt lat="44.95808871569409" lon="8.423582147230716"><ele>167.2</ele><time>2026-04-04T08:01:10.999Z</time></trkpt><trkpt lat="44.95808200681231" lon="8.423688111903365"><ele>167.8</ele><time>2026-04-04T08:01:11.999Z</time></trkpt><trkpt lat="44.95809357898447" lon="8.423826977993519"><ele>168.39999999999998</ele><time>2026-04-04T08:01:12.999Z</time></trkpt><trkpt lat="44.958105243260796" lon="8.423984526416934"><ele>169.0</ele><time>2026-04-04T08:01:13.999Z</time></trkpt><trkpt lat="44.95811660131401" lon="8.424137615657905"><ele>169.0</ele><time>2026-04-04T08:01:14.999Z</time></trkpt><trkpt lat="44.958155742946246" lon="8.424309139274836"><ele>169.0</ele><time>2026-04-04T08:01:15.999Z</time></trkpt><trkpt lat="44.95821496097613" lon="8.424438624047383"><ele>169.0</ele><time>2026-04-04T08:01:16.999Z</time></trkpt><trkpt lat="44.95828337554505" lon="8.424565177916854"><ele>169.0</ele><time>2026-04-04T08:01:17.999Z</time></trkpt><trkpt lat="44.95836083784153" lon="8.424704823900099"><ele>168.33333333333334</ele><time>2026-04-04T08:01:18.999Z</time></trkpt><trkpt lat="44.9584481427645" lon="8.42486221378402"><ele>167.66666666666666</ele><time>2026-04-04T08:01:19.999Z</time></trkpt><trkpt lat="44.95854494242682" lon="8.425036834452941"><ele>167.0</ele><time>2026-04-04T08:01:20.999Z</time></trkpt><trkpt lat="44.958642130268416" lon="8.425213674700476"><ele>167.0</ele><time>2026-04-04T08:01:21.999Z</time></trkpt><trkpt lat="44.95874394730123" lon="8.425398937965134"><ele>167.0</ele><time>2026-04-04T08:01:22.999Z</time></trkpt><trkpt lat="44.958845325904704" lon="8.425551331745332"><ele>167.0</ele><time>2026-04-04T08:01:23.999Z</time></trkpt><trkpt lat="44.958926337721294" lon="8.425730072665932"><ele>164.75</ele><time>2026-04-04T08:01:24.999Z</time></trkpt><trkpt lat="44.95902272939924" lon="8.425902961232413"><ele>162.5</ele><time>2026-04-04T08:01:25.999Z</time></trkpt><trkpt lat="44.95910586973061" lon="8.426052082122562"><ele>160.25</ele><time>2026-04-04T08:01:26.999Z</time></trkpt><trkpt lat="44.959186397506265" lon="8.426200279121966"><ele>158.0</ele><time>2026-04-04T08:01:27.999Z</time></trkpt><trkpt lat="44.959253286561086" lon="8.426351328532343"><ele>156.5</ele><time>2026-04-04T08:01:28.999Z</time></trkpt><trkpt lat="44.95930875786676" lon="8.426533449822516"><ele>155.0</ele><time>2026-04-04T08:01:29.999Z</time></trkpt><trkpt lat="44.95935387241361" lon="8.426721909969633"><ele>153.5</ele><time>2026-04-04T08:01:30.999Z</time></trkpt><trkpt lat="44.95939373681909" lon="8.42690125903617"><ele>152.0</ele><time>2026-04-04T08:01:31.999Z</time></trkpt><trkpt lat="44.95942999769554" lon="8.427064395917203"><ele>151.5</ele><time>2026-04-04T08:01:32.999Z</time></trkpt><trkpt lat="44.95946632459607" lon="8.427216884998348"><ele>151.0</ele><time>2026-04-04T08:01:33.999Z</time></trkpt><trkpt lat="44.95953208649562" lon="8.427347344928652"><ele>150.5</ele><time>2026-04-04T08:01:34.999Z</time></trkpt><trkpt lat="44.95961166096542" lon="8.427475597498056"><ele>150.0</ele><time>2026-04-04T08:01:35.999Z</time></trkpt><trkpt lat="44.95970123318844" lon="8.42761466507519"><ele>150.0</ele><time>2026-04-04T08:01:36.999Z</time></trkpt><trkpt lat="44.95980634864495" lon="8.427755989969272"><ele>150.0</ele><time>2026-04-04T08:01:37.999Z</time></trkpt><trkpt lat="44.95992321171364" lon="8.427910055944094"><ele>150.0</ele><time>2026-04-04T08:01:38.999Z</time></trkpt><trkpt lat="44.960057042586996" lon="8.428085750638248"><ele>150.25</ele><time>2026-04-04T08:01:39.999Z</time></trkpt><trkpt lat="44.960175377513245" lon="8.428239476102588"><ele>150.5</ele><time>2026-04-04T08:01:40.999Z</time></trkpt><trkpt lat="44.96027700808418" lon="8.42837044870875"><ele>150.75</ele><time>2026-04-04T08:01:41.999Z</time></trkpt><trkpt lat="44.9603662137233" lon="8.42848540915729"><ele>151.0</ele><time>2026-04-04T08:01:42.999Z</time></trkpt><trkpt lat="44.96044565887521" lon="8.428592683064613"><ele>151.0</ele><time>2026-04-04T08:01:43.999Z</time></trkpt><trkpt lat="44.960521660342664" lon="8.428694688286392"><ele>151.0</ele><time>2026-04-04T08:01:44.999Z</time></trkpt><trkpt lat="44.96060881449073" lon="8.428811662060896"><ele>151.0</ele><time>2026-04-04T08:01:45.999Z</time></trkpt><trkpt lat="44.9606876592445" lon="8.428917131248017"><ele>151.0</ele><time>2026-04-04T08:01:46.999Z</time></trkpt><trkpt lat="44.960761131483565" lon="8.42901508847964"><ele>151.0</ele><time>2026-04-04T08:01:47.999Z</time></trkpt><trkpt lat="44.9608236715789" lon="8.429095562387456"><ele>151.66666666666669</ele><time>2026-04-04T08:01:48.999Z</time></trkpt><trkpt lat="44.9608770961454" lon="8.429164306828891"><ele>152.33333333333334</ele><time>2026-04-04T08:01:49.999Z</time></trkpt><trkpt lat="44.960922150242446" lon="8.429245023880561"><ele>153.0</ele><time>2026-04-04T08:01:50.999Z</time></trkpt><trkpt lat="44.96096875335394" lon="8.429337655278522"><ele>153.66666666666666</ele><time>2026-04-04T08:01:51.999Z</time></trkpt><trkpt lat="44.96100430578566" lon="8.429444135444465"><ele>154.33333333333331</ele><time>2026-04-04T08:01:52.999Z</time></trkpt><trkpt lat="44.961028593502654" lon="8.42953516941651"><ele>155.0</ele><time>2026-04-04T08:01:54.999Z</time></trkpt><trkpt lat="44.96115003693141" lon="8.429577614918669"><ele>155.0</ele><time>2026-04-04T08:02:03.999Z</time></trkpt><trkpt lat="44.96122759839022" lon="8.429589985830422"><ele>155.0</ele><time>2026-04-04T08:02:04.999Z</time></trkpt><trkpt lat="44.96132495468828" lon="8.429581946359582"><ele>155.0</ele><time>2026-04-04T08:02:05.999Z</time></trkpt><trkpt lat="44.96142539985588" lon="8.429575380323636"><ele>155.0</ele><time>2026-04-04T08:02:06.999Z</time></trkpt><trkpt lat="44.961533176028226" lon="8.429568694283441"><ele>155.0</ele><time>2026-04-04T08:02:07.999Z</time></trkpt><trkpt lat="44.96164014715804" lon="8.429561460265205"><ele>154.6</ele><time>2026-04-04T08:02:08.999Z</time></trkpt><trkpt lat="44.96174866965681" lon="8.429554121333542"><ele>154.2</ele><time>2026-04-04T08:02:09.999Z</time></trkpt><trkpt lat="44.96185898700182" lon="8.429545086359884"><ele>153.8</ele><time>2026-04-04T08:02:10.999Z</time></trkpt><trkpt lat="44.961966589028265" lon="8.429514414022838"><ele>153.4</ele><time>2026-04-04T08:02:11.999Z</time></trkpt><trkpt lat="44.96207554119175" lon="8.429504378118393"><ele>153.0</ele><time>2026-04-04T08:02:12.999Z</time></trkpt><trkpt lat="44.96217967019716" lon="8.429495584004574"><ele>153.0</ele><time>2026-04-04T08:02:13.999Z</time></trkpt><trkpt lat="44.96229758296804" lon="8.429481729376485"><ele>153.0</ele><time>2026-04-04T08:02:14.999Z</time></trkpt><trkpt lat="44.96240866835419" lon="8.42945128491082"><ele>153.0</ele><time>2026-04-04T08:02:15.999Z</time></trkpt><trkpt lat="44.96253035678138" lon="8.429420623149824"><ele>153.0</ele><time>2026-04-04T08:02:16.999Z</time></trkpt><trkpt lat="44.96265671549458" lon="8.429407413120883"><ele>152.5</ele><time>2026-04-04T08:02:17.999Z</time></trkpt><trkpt lat="44.9627850759797" lon="8.429376186516283"><ele>152.0</ele><time>2026-04-04T08:02:18.999Z</time></trkpt><trkpt lat="44.96291588826188" lon="8.429343267834277"><ele>151.5</ele><time>2026-04-04T08:02:19.999Z</time></trkpt><trkpt lat="44.9630553815917" lon="8.429304065786853"><ele>151.0</ele><time>2026-04-04T08:02:20.999Z</time></trkpt><trkpt lat="44.96320046358667" lon="8.429256822127188"><ele>151.0</ele><time>2026-04-04T08:02:21.999Z</time></trkpt><trkpt lat="44.96334876952872" lon="8.429175470788174"><ele>151.0</ele><time>2026-04-04T08:02:22.999Z</time></trkpt><trkpt lat="44.96351981532259" lon="8.429127775237053"><ele>151.0</ele><time>2026-04-04T08:02:23.999Z</time></trkpt><trkpt lat="44.963680542330884" lon="8.429054742747866"><ele>150.33333333333334</ele><time>2026-04-04T08:02:24.999Z</time></trkpt><trkpt lat="44.96384103256489" lon="8.42895463407289"><ele>149.66666666666666</ele><time>2026-04-04T08:02:25.999Z</time></trkpt><trkpt lat="44.964030281493976" lon="8.428879380335404"><ele>149.0</ele><time>2026-04-04T08:02:26.999Z</time></trkpt><trkpt lat="44.964180284882936" lon="8.428773299734031"><ele>149.66666666666666</ele><time>2026-04-04T08:02:27.999Z</time></trkpt><trkpt lat="44.964348108935255" lon="8.428681486585205"><ele>150.33333333333334</ele><time>2026-04-04T08:02:28.999Z</time></trkpt><trkpt lat="44.96451104825228" lon="8.42857969230364"><ele>151.0</ele><time>2026-04-04T08:02:29.999Z</time></trkpt><trkpt lat="44.964675092346944" lon="8.428489757769801"><ele>151.0</ele><time>2026-04-04T08:02:30.999Z</time></trkpt><trkpt lat="44.964841765947064" lon="8.42839210764354"><ele>151.0</ele><time>2026-04-04T08:02:31.999Z</time></trkpt><trkpt lat="44.96499573269319" lon="8.428303281219899"><ele>151.0</ele><time>2026-04-04T08:02:32.999Z</time></trkpt><trkpt lat="44.96515335589444" lon="8.42820741145439"><ele>150.5</ele><time>2026-04-04T08:02:33.999Z</time></trkpt><trkpt lat="44.96529907379654" lon="8.428118133196463"><ele>150.0</ele><time>2026-04-04T08:02:34.999Z</time></trkpt><trkpt lat="44.965443256359094" lon="8.428058992527921"><ele>149.5</ele><time>2026-04-04T08:02:35.999Z</time></trkpt><trkpt lat="44.965565079443174" lon="8.427987893171752"><ele>149.0</ele><time>2026-04-04T08:02:36.999Z</time></trkpt><trkpt lat="44.9656750178258" lon="8.427923730055966"><ele>149.4</ele><time>2026-04-04T08:02:37.999Z</time></trkpt><trkpt lat="44.965763050842" lon="8.427872351526991"><ele>149.8</ele><time>2026-04-04T08:02:38.999Z</time></trkpt><trkpt lat="44.96583310824647" lon="8.427831464066127"><ele>150.2</ele><time>2026-04-04T08:02:39.999Z</time></trkpt><trkpt lat="44.96589673719348" lon="8.42779432843519"><ele>150.6</ele><time>2026-04-04T08:02:40.999Z</time></trkpt><trkpt lat="44.96600919894193" lon="8.427728901813321"><ele>151.0</ele><time>2026-04-04T08:02:43Z</time></trkpt><trkpt lat="44.96607325700929" lon="8.427895751830562"><ele>150.5</ele><time>2026-04-04T08:02:45Z</time></trkpt><trkpt lat="44.96612122899691" lon="8.428035990966922"><ele>150.0</ele><time>2026-04-04T08:02:46Z</time></trkpt><trkpt lat="44.96617958792537" lon="8.428206593829342"><ele>149.5</ele><time>2026-04-04T08:02:47Z</time></trkpt><trkpt lat="44.96626226497453" lon="8.428439365923706"><ele>149.0</ele><time>2026-04-04T08:02:48Z</time></trkpt><trkpt lat="44.9663668430714" lon="8.428658124149107"><ele>149.66666666666666</ele><time>2026-04-04T08:02:49Z</time></trkpt><trkpt lat="44.966457414879144" lon="8.428884064291358"><ele>150.33333333333334</ele><time>2026-04-04T08:02:50Z</time></trkpt><trkpt lat="44.966556710627444" lon="8.429106434218607"><ele>151.0</ele><time>2026-04-04T08:02:51Z</time></trkpt><trkpt lat="44.96668810657917" lon="8.429318910473372"><ele>152.33333333333334</ele><time>2026-04-04T08:02:52Z</time></trkpt><trkpt lat="44.96683776262107" lon="8.429525552172114"><ele>153.66666666666666</ele><time>2026-04-04T08:02:53Z</time></trkpt><trkpt lat="44.96701779693394" lon="8.429690811525376"><ele>155.0</ele><time>2026-04-04T08:02:54Z</time></trkpt><trkpt lat="44.967192215207255" lon="8.42984084417046"><ele>155.0</ele><time>2026-04-04T08:02:55Z</time></trkpt><trkpt lat="44.96736384315386" lon="8.429986617109043"><ele>155.0</ele><time>2026-04-04T08:02:56Z</time></trkpt><trkpt lat="44.967542297935054" lon="8.430137581726084"><ele>155.0</ele><time>2026-04-04T08:02:57Z</time></trkpt><trkpt lat="44.967708542023814" lon="8.430279939645711"><ele>157.0</ele><time>2026-04-04T08:02:58Z</time></trkpt><trkpt lat="44.96786249786053" lon="8.430410081803736"><ele>159.0</ele><time>2026-04-04T08:02:59Z</time></trkpt><trkpt lat="44.96799769768369" lon="8.430518331415358"><ele>161.0</ele><time>2026-04-04T08:03:00Z</time></trkpt><trkpt lat="44.96813492567173" lon="8.430617242846395"><ele>161.0</ele><time>2026-04-04T08:03:01Z</time></trkpt><trkpt lat="44.96829959711065" lon="8.430673051255972"><ele>161.0</ele><time>2026-04-04T08:03:02Z</time></trkpt><trkpt lat="44.96846403013664" lon="8.43075617289373"><ele>161.0</ele><time>2026-04-04T08:03:03Z</time></trkpt><trkpt lat="44.96863255241551" lon="8.430824155257794"><ele>164.0</ele><time>2026-04-04T08:03:04Z</time></trkpt><trkpt lat="44.96881163583934" lon="8.430895427655887"><ele>167.0</ele><time>2026-04-04T08:03:05Z</time></trkpt><trkpt lat="44.96899893064759" lon="8.430968474526566"><ele>170.0</ele><time>2026-04-04T08:03:06Z</time></trkpt><trkpt lat="44.9691773182504" lon="8.431038982202196"><ele>172.66666666666666</ele><time>2026-04-04T08:03:07Z</time></trkpt><trkpt lat="44.96936463014222" lon="8.431113236679293"><ele>175.33333333333334</ele><time>2026-04-04T08:03:08Z</time></trkpt><trkpt lat="44.969548210282795" lon="8.431186011805126"><ele>178.0</ele><time>2026-04-04T08:03:09Z</time></trkpt><trkpt lat="44.969711609231005" lon="8.431253636077864"><ele>179.0</ele><time>2026-04-04T08:03:10Z</time></trkpt><trkpt lat="44.96986248531416" lon="8.431341556334178"><ele>180.0</ele><time>2026-04-04T08:03:11Z</time></trkpt><trkpt lat="44.97000035401166" lon="8.431465497912182"><ele>181.0</ele><time>2026-04-04T08:03:12Z</time></trkpt><trkpt lat="44.9701307315588" lon="8.431610024585865"><ele>181.0</ele><time>2026-04-04T08:03:13Z</time></trkpt><trkpt lat="44.97025976293761" lon="8.431775496564832"><ele>181.0</ele><time>2026-04-04T08:03:14Z</time></trkpt><trkpt lat="44.97040450254848" lon="8.431957915035905"><ele>181.0</ele><time>2026-04-04T08:03:15Z</time></trkpt><trkpt lat="44.970529618868014" lon="8.43207453084401"><ele>180.0</ele><time>2026-04-04T08:03:16Z</time></trkpt><trkpt lat="44.97066855603021" lon="8.432171204008709"><ele>179.0</ele><time>2026-04-04T08:03:17Z</time></trkpt><trkpt lat="44.970835610178234" lon="8.432211920679396"><ele>178.0</ele><time>2026-04-04T08:03:18Z</time></trkpt><trkpt lat="44.97100766059042" lon="8.43223658225766"><ele>181.33333333333334</ele><time>2026-04-04T08:03:19Z</time></trkpt><trkpt lat="44.97117046743216" lon="8.432389085207488"><ele>184.66666666666666</ele><time>2026-04-04T08:03:19.999Z</time></trkpt><trkpt lat="44.971325615798314" lon="8.432570324122523"><ele>188.0</ele><time>2026-04-04T08:03:20.999Z</time></trkpt><trkpt lat="44.971511349715705" lon="8.432801781724399"><ele>191.0</ele><time>2026-04-04T08:03:21.999Z</time></trkpt><trkpt lat="44.97171376972815" lon="8.433057248332492"><ele>194.0</ele><time>2026-04-04T08:03:22.999Z</time></trkpt><trkpt lat="44.97192927928789" lon="8.433329855419014"><ele>194.0</ele><time>2026-04-04T08:03:23.999Z</time></trkpt><trkpt lat="44.972109635398915" lon="8.433557995465925"><ele>194.0</ele><time>2026-04-04T08:03:24.999Z</time></trkpt><trkpt lat="44.972261047336794" lon="8.433748249543273"><ele>194.0</ele><time>2026-04-04T08:03:25.999Z</time></trkpt><trkpt lat="44.97238688327163" lon="8.43392019305369"><ele>195.5</ele><time>2026-04-04T08:03:26.999Z</time></trkpt><trkpt lat="44.97248494810159" lon="8.434075576377062"><ele>197.0</ele><time>2026-04-04T08:03:27.999Z</time></trkpt><trkpt lat="44.972577722478164" lon="8.434227401298081"><ele>198.5</ele><time>2026-04-04T08:03:28.999Z</time></trkpt><trkpt lat="44.9726604252671" lon="8.434366789540508"><ele>200.0</ele><time>2026-04-04T08:03:29.999Z</time></trkpt><trkpt lat="44.97272947347418" lon="8.434491197616307"><ele>200.0</ele><time>2026-04-04T08:03:30.999Z</time></trkpt><trkpt lat="44.97278687750165" lon="8.434607787194869"><ele>200.0</ele><time>2026-04-04T08:03:31.999Z</time></trkpt><trkpt lat="44.97284026086811" lon="8.43471689972891"><ele>200.0</ele><time>2026-04-04T08:03:32.999Z</time></trkpt><trkpt lat="44.97288515002984" lon="8.434814712730404"><ele>200.0</ele><time>2026-04-04T08:03:33.999Z</time></trkpt><trkpt lat="44.97293239978612" lon="8.434915650650217"><ele>200.0</ele><time>2026-04-04T08:03:34.999Z</time></trkpt><trkpt lat="44.97299675890363" lon="8.435028375259884"><ele>200.0</ele><time>2026-04-04T08:03:35.999Z</time></trkpt><trkpt lat="44.97306423434128" lon="8.435124263339734"><ele>200.0</ele><time>2026-04-04T08:03:36.999Z</time></trkpt><trkpt lat="44.97312921832397" lon="8.435198073924397"><ele>200.0</ele><time>2026-04-04T08:03:37.999Z</time></trkpt><trkpt lat="44.97320582890686" lon="8.435269944333514"><ele>200.0</ele><time>2026-04-04T08:03:38.999Z</time></trkpt><trkpt lat="44.97330237243802" lon="8.435320672870033"><ele>200.0</ele><time>2026-04-04T08:03:39.999Z</time></trkpt><trkpt lat="44.97341189541768" lon="8.435369384610365"><ele>200.5</ele><time>2026-04-04T08:03:40.999Z</time></trkpt><trkpt lat="44.97353928695741" lon="8.435413208062053"><ele>201.0</ele><time>2026-04-04T08:03:41.999Z</time></trkpt><trkpt lat="44.97367812706248" lon="8.43543526005181"><ele>201.5</ele><time>2026-04-04T08:03:42.999Z</time></trkpt><trkpt lat="44.973813285594815" lon="8.435420859951721"><ele>202.0</ele><time>2026-04-04T08:03:43.999Z</time></trkpt><trkpt lat="44.973963989568716" lon="8.435410089860193"><ele>202.0</ele><time>2026-04-04T08:03:44.999Z</time></trkpt><trkpt lat="44.97411813446687" lon="8.435378865716674"><ele>202.0</ele><time>2026-04-04T08:03:45.999Z</time></trkpt><trkpt lat="44.97427205697737" lon="8.435336088010063"><ele>202.0</ele><time>2026-04-04T08:03:46.999Z</time></trkpt><trkpt lat="44.97443104946963" lon="8.435296888152722"><ele>203.66666666666666</ele><time>2026-04-04T08:03:47.999Z</time></trkpt><trkpt lat="44.97458854124982" lon="8.435260396309323"><ele>205.33333333333331</ele><time>2026-04-04T08:03:48.999Z</time></trkpt><trkpt lat="44.97475038978217" lon="8.435221277308129"><ele>207.0</ele><time>2026-04-04T08:03:49.999Z</time></trkpt><trkpt lat="44.974916279603995" lon="8.435204181598198"><ele>206.75</ele><time>2026-04-04T08:03:50.999Z</time></trkpt><trkpt lat="44.97505339634254" lon="8.43514960701201"><ele>206.5</ele><time>2026-04-04T08:03:51.999Z</time></trkpt><trkpt lat="44.975172718996355" lon="8.435123100136359"><ele>206.25</ele><time>2026-04-04T08:03:52.999Z</time></trkpt><trkpt lat="44.97527536114262" lon="8.435098926632435"><ele>206.0</ele><time>2026-04-04T08:03:53.999Z</time></trkpt><trkpt lat="44.975387676113584" lon="8.435070971287113"><ele>206.0</ele><time>2026-04-04T08:03:54.999Z</time></trkpt><trkpt lat="44.97550148400541" lon="8.43503294705936"><ele>206.0</ele><time>2026-04-04T08:03:55.999Z</time></trkpt><trkpt lat="44.97562491423846" lon="8.434971550364939"><ele>206.0</ele><time>2026-04-04T08:03:56.999Z</time></trkpt><trkpt lat="44.97575823046361" lon="8.43488280606568"><ele>206.0</ele><time>2026-04-04T08:03:57.999Z</time></trkpt><trkpt lat="44.975877069709185" lon="8.434790735940107"><ele>204.75</ele><time>2026-04-04T08:03:58.999Z</time></trkpt><trkpt lat="44.97599297269554" lon="8.434675412960999"><ele>203.5</ele><time>2026-04-04T08:03:59.999Z</time></trkpt><trkpt lat="44.97611263814134" lon="8.434557909910863"><ele>202.25</ele><time>2026-04-04T08:04:00.999Z</time></trkpt><trkpt lat="44.976245673344074" lon="8.434488330205605"><ele>201.0</ele><time>2026-04-04T08:04:01.999Z</time></trkpt><trkpt lat="44.976377040610984" lon="8.434443520751918"><ele>201.0</ele><time>2026-04-04T08:04:02.999Z</time></trkpt><trkpt lat="44.97652287803953" lon="8.434453470761818"><ele>201.0</ele><time>2026-04-04T08:04:03.999Z</time></trkpt><trkpt lat="44.9766800752808" lon="8.43448667773341"><ele>201.0</ele><time>2026-04-04T08:04:04.999Z</time></trkpt><trkpt lat="44.97684539456032" lon="8.434518742567017"><ele>200.33333333333331</ele><time>2026-04-04T08:04:05.999Z</time></trkpt><trkpt lat="44.977016491643454" lon="8.434530894876586"><ele>199.66666666666666</ele><time>2026-04-04T08:04:06.999Z</time></trkpt><trkpt lat="44.97719598291611" lon="8.434603888207116"><ele>199.0</ele><time>2026-04-04T08:04:07.999Z</time></trkpt><trkpt lat="44.977354742910826" lon="8.434704555957824"><ele>199.0</ele><time>2026-04-04T08:04:08.999Z</time></trkpt><trkpt lat="44.977513838688246" lon="8.434828887252838"><ele>199.0</ele><time>2026-04-04T08:04:09.999Z</time></trkpt><trkpt lat="44.977660733090495" lon="8.434960648403152"><ele>199.0</ele><time>2026-04-04T08:04:10.999Z</time></trkpt><trkpt lat="44.97779497185679" lon="8.435080393501474"><ele>198.0</ele><time>2026-04-04T08:04:11.999Z</time></trkpt><trkpt lat="44.977925550793756" lon="8.435195600174001"><ele>197.0</ele><time>2026-04-04T08:04:12.999Z</time></trkpt><trkpt lat="44.97804726009997" lon="8.43530279550448"><ele>196.0</ele><time>2026-04-04T08:04:13.999Z</time></trkpt><trkpt lat="44.97816247979001" lon="8.435401009511617"><ele>195.0</ele><time>2026-04-04T08:04:14.999Z</time></trkpt><trkpt lat="44.97826887698832" lon="8.435488955944233"><ele>194.33333333333331</ele><time>2026-04-04T08:04:15.999Z</time></trkpt><trkpt lat="44.978374873919996" lon="8.435567421994914"><ele>193.66666666666666</ele><time>2026-04-04T08:04:16.999Z</time></trkpt><trkpt lat="44.97848915965606" lon="8.43561903569353"><ele>193.0</ele><time>2026-04-04T08:04:17.999Z</time></trkpt><trkpt lat="44.9786916442774" lon="8.435718713640314"><ele>193.0</ele><time>2026-04-04T08:04:19.999Z</time></trkpt><trkpt lat="44.97879105078458" lon="8.43573372667905"><ele>193.0</ele><time>2026-04-04T08:04:20.999Z</time></trkpt><trkpt lat="44.97890884650709" lon="8.435738130759185"><ele>193.0</ele><time>2026-04-04T08:04:21.999Z</time></trkpt><trkpt lat="44.97903870749677" lon="8.435730992168661"><ele>193.0</ele><time>2026-04-04T08:04:22.999Z</time></trkpt><trkpt lat="44.97918303382463" lon="8.435716544748324"><ele>191.0</ele><time>2026-04-04T08:04:23.999Z</time></trkpt><trkpt lat="44.97933946152406" lon="8.435694008921857"><ele>189.0</ele><time>2026-04-04T08:04:24.999Z</time></trkpt><trkpt lat="44.97950198184415" lon="8.435664992647348"><ele>187.0</ele><time>2026-04-04T08:04:25.999Z</time></trkpt><trkpt lat="44.97966031049322" lon="8.43564062465142"><ele>187.0</ele><time>2026-04-04T08:04:26.999Z</time></trkpt><trkpt lat="44.979810066025976" lon="8.43561752003984"><ele>187.0</ele><time>2026-04-04T08:04:27.999Z</time></trkpt><trkpt lat="44.97995216302762" lon="8.435593801026215"><ele>187.0</ele><time>2026-04-04T08:04:28.999Z</time></trkpt><trkpt lat="44.98007955152163" lon="8.435592923662883"><ele>187.0</ele><time>2026-04-04T08:04:29.999Z</time></trkpt><trkpt lat="44.980210675285875" lon="8.435593335415073"><ele>187.75</ele><time>2026-04-04T08:04:30.999Z</time></trkpt><trkpt lat="44.98033822295562" lon="8.435614304914878"><ele>188.5</ele><time>2026-04-04T08:04:31.999Z</time></trkpt><trkpt lat="44.980454243149666" lon="8.43572999089548"><ele>189.25</ele><time>2026-04-04T08:04:32.999Z</time></trkpt><trkpt lat="44.98055206988266" lon="8.435877734501275"><ele>190.0</ele><time>2026-04-04T08:04:33.999Z</time></trkpt><trkpt lat="44.98064079066223" lon="8.436050746783787"><ele>190.0</ele><time>2026-04-04T08:04:34.999Z</time></trkpt><trkpt lat="44.98071730341211" lon="8.43623800399133"><ele>190.0</ele><time>2026-04-04T08:04:35.999Z</time></trkpt><trkpt lat="44.98080376747105" lon="8.436443119776"><ele>190.0</ele><time>2026-04-04T08:04:36.999Z</time></trkpt><trkpt lat="44.980877806658604" lon="8.436618238432386"><ele>189.75</ele><time>2026-04-04T08:04:37.999Z</time></trkpt><trkpt lat="44.980947188711596" lon="8.436782342212597"><ele>189.5</ele><time>2026-04-04T08:04:38.999Z</time></trkpt><trkpt lat="44.98101228521173" lon="8.436936309540563"><ele>189.25</ele><time>2026-04-04T08:04:39.999Z</time></trkpt><trkpt lat="44.98109203511871" lon="8.437069880800856"><ele>189.0</ele><time>2026-04-04T08:04:40.999Z</time></trkpt><trkpt lat="44.981161156611" lon="8.437202187062736"><ele>187.0</ele><time>2026-04-04T08:04:41.999Z</time></trkpt><trkpt lat="44.981251858721386" lon="8.437319165832768"><ele>185.0</ele><time>2026-04-04T08:04:42.999Z</time></trkpt><trkpt lat="44.981361006699565" lon="8.43743072601826"><ele>183.0</ele><time>2026-04-04T08:04:43.999Z</time></trkpt><trkpt lat="44.981482767909675" lon="8.43754080319438"><ele>181.0</ele><time>2026-04-04T08:04:44.999Z</time></trkpt><trkpt lat="44.981610909382766" lon="8.437652369846035"><ele>180.25</ele><time>2026-04-04T08:04:45.999Z</time></trkpt><trkpt lat="44.98173081218296" lon="8.437741328098022"><ele>179.5</ele><time>2026-04-04T08:04:46.999Z</time></trkpt><trkpt lat="44.98184804494018" lon="8.4378135761977"><ele>178.75</ele><time>2026-04-04T08:04:48Z</time></trkpt><trkpt lat="44.98196083446826" lon="8.437860196231341"><ele>178.0</ele><time>2026-04-04T08:04:49Z</time></trkpt><trkpt lat="44.98206884373545" lon="8.437893480123126"><ele>178.0</ele><time>2026-04-04T08:04:50Z</time></trkpt><trkpt lat="44.98217291780614" lon="8.437913719741992"><ele>178.0</ele><time>2026-04-04T08:04:51Z</time></trkpt><trkpt lat="44.98226474661495" lon="8.437934481113858"><ele>178.0</ele><time>2026-04-04T08:04:52Z</time></trkpt><trkpt lat="44.982341593333416" lon="8.437956276677848"><ele>178.0</ele><time>2026-04-04T08:04:53Z</time></trkpt><trkpt lat="44.982430076914326" lon="8.438023093157346"><ele>178.0</ele><time>2026-04-04T08:04:55Z</time></trkpt><trkpt lat="44.98249788084606" lon="8.438056518469796"><ele>178.0</ele><time>2026-04-04T08:04:57Z</time></trkpt><trkpt lat="44.982575301285664" lon="8.438143716481779"><ele>175.33333333333334</ele><time>2026-04-04T08:05:00Z</time></trkpt><trkpt lat="44.982611704264485" lon="8.438230695153798"><ele>172.66666666666666</ele><time>2026-04-04T08:05:02Z</time></trkpt><trkpt lat="44.98294518626855" lon="8.438067450262265"><ele>170.0</ele><time>2026-04-04T08:05:07Z</time></trkpt><trkpt lat="44.983051564727845" lon="8.438068196074413"><ele>170.0</ele><time>2026-04-04T08:05:09Z</time></trkpt><trkpt lat="44.983159826988874" lon="8.438089234770011"><ele>170.0</ele><time>2026-04-04T08:05:11Z</time></trkpt><trkpt lat="44.98324934550317" lon="8.438147402130037"><ele>170.0</ele><time>2026-04-04T08:05:13Z</time></trkpt><trkpt lat="44.98333976805421" lon="8.438113997004896"><ele>170.0</ele><time>2026-04-04T08:05:15Z</time></trkpt><trkpt lat="44.983407693579174" lon="8.437991913084131"><ele>170.0</ele><time>2026-04-04T08:05:17Z</time></trkpt><trkpt lat="44.98346434444942" lon="8.437917500223056"><ele>168.33333333333331</ele><time>2026-04-04T08:05:18Z</time></trkpt><trkpt lat="44.98351543975443" lon="8.437836048709096"><ele>166.66666666666666</ele><time>2026-04-04T08:05:19Z</time></trkpt><trkpt lat="44.98357622410471" lon="8.437766693702207"><ele>165.0</ele><time>2026-04-04T08:05:20Z</time></trkpt><trkpt lat="44.98365208827829" lon="8.43769526292824"><ele>163.33333333333334</ele><time>2026-04-04T08:05:21Z</time></trkpt><trkpt lat="44.98372440637623" lon="8.437646855415279"><ele>161.66666666666669</ele><time>2026-04-04T08:05:22Z</time></trkpt><trkpt lat="44.983781583707774" lon="8.437597724102252"><ele>160.0</ele><time>2026-04-04T08:05:23Z</time></trkpt><trkpt lat="44.983879529998234" lon="8.437513503136064"><ele>160.0</ele><time>2026-04-04T08:05:25Z</time></trkpt><trkpt lat="44.98399951826217" lon="8.437476773765137"><ele>160.0</ele><time>2026-04-04T08:05:27Z</time></trkpt><trkpt lat="44.98412453597172" lon="8.437472593951345"><ele>160.0</ele><time>2026-04-04T08:05:29Z</time></trkpt><trkpt lat="44.98419211453594" lon="8.437498056573151"><ele>160.0</ele><time>2026-04-04T08:05:30Z</time></trkpt><trkpt lat="44.98425126235823" lon="8.437533752027978"><ele>160.0</ele><time>2026-04-04T08:05:31Z</time></trkpt><trkpt lat="44.98430979227552" lon="8.437571661696273"><ele>160.0</ele><time>2026-04-04T08:05:32Z</time></trkpt><trkpt lat="44.98442222663325" lon="8.437615714943373"><ele>158.71428571428572</ele><time>2026-04-04T08:05:33.999Z</time></trkpt><trkpt lat="44.98449219604272" lon="8.437652779441908"><ele>157.42857142857144</ele><time>2026-04-04T08:05:34.999Z</time></trkpt><trkpt lat="44.9845591757985" lon="8.437672096587855"><ele>156.14285714285717</ele><time>2026-04-04T08:05:35.999Z</time></trkpt><trkpt lat="44.984622342001465" lon="8.437685742095866"><ele>154.85714285714286</ele><time>2026-04-04T08:05:36.999Z</time></trkpt><trkpt lat="44.98468885457388" lon="8.437684062636633"><ele>153.57142857142858</ele><time>2026-04-04T08:05:37.999Z</time></trkpt><trkpt lat="44.98474965633586" lon="8.437658424194277"><ele>152.2857142857143</ele><time>2026-04-04T08:05:38.999Z</time></trkpt><trkpt lat="44.984815262991305" lon="8.437603858929247"><ele>151.0</ele><time>2026-04-04T08:05:39.999Z</time></trkpt><trkpt lat="44.98488220536771" lon="8.437551609813058"><ele>151.0</ele><time>2026-04-04T08:05:40.999Z</time></trkpt><trkpt lat="44.98494567355301" lon="8.437480110598209"><ele>151.0</ele><time>2026-04-04T08:05:41.999Z</time></trkpt><trkpt lat="44.98499919470207" lon="8.437412698304472"><ele>151.0</ele><time>2026-04-04T08:05:42.999Z</time></trkpt><trkpt lat="44.98506245496797" lon="8.437333176438777"><ele>151.0</ele><time>2026-04-04T08:05:43.999Z</time></trkpt><trkpt lat="44.985129792295375" lon="8.43722663770447"><ele>151.0</ele><time>2026-04-04T08:05:45.999Z</time></trkpt><trkpt lat="44.985218828566005" lon="8.437126717543954"><ele>150.0</ele><time>2026-04-04T08:05:46.999Z</time></trkpt><trkpt lat="44.98527625965973" lon="8.437054808940868"><ele>149.0</ele><time>2026-04-04T08:05:47.999Z</time></trkpt><trkpt lat="44.985340660359775" lon="8.436972856819434"><ele>148.0</ele><time>2026-04-04T08:05:48.999Z</time></trkpt><trkpt lat="44.98539641966568" lon="8.436895907096698"><ele>147.0</ele><time>2026-04-04T08:05:49.999Z</time></trkpt><trkpt lat="44.9854590681632" lon="8.436809781072423"><ele>146.0</ele><time>2026-04-04T08:05:50.999Z</time></trkpt><trkpt lat="44.98551404979716" lon="8.436751425160368"><ele>145.0</ele><time>2026-04-04T08:05:51.999Z</time></trkpt><trkpt lat="44.98556727682321" lon="8.436692536222777"><ele>145.0</ele><time>2026-04-04T08:05:52.999Z</time></trkpt><trkpt lat="44.985629340093865" lon="8.436646345173564"><ele>145.0</ele><time>2026-04-04T08:05:53.999Z</time></trkpt><trkpt lat="44.98570263874802" lon="8.436619430053462"><ele>145.0</ele><time>2026-04-04T08:05:54.999Z</time></trkpt><trkpt lat="44.98577976432659" lon="8.436616673482128"><ele>145.0</ele><time>2026-04-04T08:05:55.999Z</time></trkpt><trkpt lat="44.98584364403383" lon="8.436601997865406"><ele>145.0</ele><time>2026-04-04T08:05:56.999Z</time></trkpt><trkpt lat="44.98594604482858" lon="8.436465934989418"><ele>145.0</ele><time>2026-04-04T08:05:58.999Z</time></trkpt><trkpt lat="44.985997208767394" lon="8.43636272742195"><ele>144.16666666666669</ele><time>2026-04-04T08:05:59.999Z</time></trkpt><trkpt lat="44.98603465360225" lon="8.436290735222025"><ele>143.33333333333334</ele><time>2026-04-04T08:06:00.999Z</time></trkpt><trkpt lat="44.986064157318545" lon="8.436135623805924"><ele>142.5</ele><time>2026-04-04T08:06:02.999Z</time></trkpt><trkpt lat="44.98605725082739" lon="8.436044002159845"><ele>141.66666666666666</ele><time>2026-04-04T08:06:03.999Z</time></trkpt><trkpt lat="44.98604784610862" lon="8.43594055734977"><ele>140.83333333333331</ele><time>2026-04-04T08:06:04.999Z</time></trkpt><trkpt lat="44.986024035427185" lon="8.435845860757155"><ele>140.0</ele><time>2026-04-04T08:06:05.999Z</time></trkpt><trkpt lat="44.986004096729886" lon="8.435713724031409"><ele>140.0</ele><time>2026-04-04T08:06:07.999Z</time></trkpt><trkpt lat="44.98603875145894" lon="8.435627422247892"><ele>140.0</ele><time>2026-04-04T08:06:09.999Z</time></trkpt><trkpt lat="44.98614695212421" lon="8.435610551282895"><ele>140.0</ele><time>2026-04-04T08:06:11.999Z</time></trkpt><trkpt lat="44.98621400580375" lon="8.435616656578224"><ele>140.0</ele><time>2026-04-04T08:06:12.999Z</time></trkpt><trkpt lat="44.98628187622721" lon="8.435631662278121"><ele>140.0</ele><time>2026-04-04T08:06:13.999Z</time></trkpt><trkpt lat="44.9863590033564" lon="8.43564912535559"><ele>140.0</ele><time>2026-04-04T08:06:14.999Z</time></trkpt><trkpt lat="44.98644786434824" lon="8.43565230222076"><ele>140.0</ele><time>2026-04-04T08:06:15.999Z</time></trkpt><trkpt lat="44.98652662823798" lon="8.435657095059996"><ele>140.0</ele><time>2026-04-04T08:06:16.999Z</time></trkpt><trkpt lat="44.98660518483707" lon="8.435650579777707"><ele>140.0</ele><time>2026-04-04T08:06:17.999Z</time></trkpt><trkpt lat="44.986758449566935" lon="8.435650609194987"><ele>140.0</ele><time>2026-04-04T08:06:19.999Z</time></trkpt><trkpt lat="44.98682683774113" lon="8.435649621518792"><ele>140.0</ele><time>2026-04-04T08:06:20.999Z</time></trkpt><trkpt lat="44.98689006340914" lon="8.435639802319136"><ele>140.0</ele><time>2026-04-04T08:06:21.999Z</time></trkpt><trkpt lat="44.986962897824625" lon="8.435621525805029"><ele>140.0</ele><time>2026-04-04T08:06:22.999Z</time></trkpt><trkpt lat="44.987050140426035" lon="8.435645500152837"><ele>140.0</ele><time>2026-04-04T08:06:23.999Z</time></trkpt><trkpt lat="44.98714720732388" lon="8.435602948253196"><ele>140.0</ele><time>2026-04-04T08:06:25.999Z</time></trkpt><trkpt lat="44.98713704212717" lon="8.4356958735953"><ele>140.0</ele><time>2026-04-04T08:06:36.999Z</time></trkpt><trkpt lat="44.987072746261305" lon="8.435720978847085"><ele>140.0</ele><time>2026-04-04T08:06:37.999Z</time></trkpt><trkpt lat="44.987007924202025" lon="8.43571612797101"><ele>140.0</ele><time>2026-04-04T08:06:38.999Z</time></trkpt><trkpt lat="44.98692964017622" lon="8.435694698737782"><ele>140.0</ele><time>2026-04-04T08:06:39.999Z</time></trkpt><trkpt lat="44.98685758150406" lon="8.435679970528447"><ele>140.0</ele><time>2026-04-04T08:06:40.999Z</time></trkpt><trkpt lat="44.98676416134163" lon="8.435669904719816"><ele>140.0</ele><time>2026-04-04T08:06:41.999Z</time></trkpt><trkpt lat="44.98666949009084" lon="8.435678037950037"><ele>140.0</ele><time>2026-04-04T08:06:42.999Z</time></trkpt><trkpt lat="44.98658265956887" lon="8.435695009264903"><ele>140.0</ele><time>2026-04-04T08:06:43.999Z</time></trkpt><trkpt lat="44.98649525208711" lon="8.435705264228035"><ele>140.0</ele><time>2026-04-04T08:06:44.999Z</time></trkpt><trkpt lat="44.98640671914369" lon="8.435689933470544"><ele>140.0</ele><time>2026-04-04T08:06:45.999Z</time></trkpt><trkpt lat="44.98632708372724" lon="8.435703569539514"><ele>140.0</ele><time>2026-04-04T08:06:46.999Z</time></trkpt><trkpt lat="44.98626300396659" lon="8.435715703628402"><ele>140.0</ele><time>2026-04-04T08:06:47.999Z</time></trkpt><trkpt lat="44.98615731266936" lon="8.43569252835149"><ele>140.0</ele><time>2026-04-04T08:06:49.999Z</time></trkpt><trkpt lat="44.98606930201934" lon="8.435669078607589"><ele>140.0</ele><time>2026-04-04T08:06:51.999Z</time></trkpt><trkpt lat="44.986040593275156" lon="8.435565641011854"><ele>140.0</ele><time>2026-04-04T08:06:54Z</time></trkpt><trkpt lat="44.986061823492975" lon="8.43548010962322"><ele>140.83333333333331</ele><time>2026-04-04T08:07:02Z</time></trkpt><trkpt lat="44.98605232726183" lon="8.435371662659808"><ele>141.66666666666666</ele><time>2026-04-04T08:07:04Z</time></trkpt><trkpt lat="44.986076949411334" lon="8.435265571600269"><ele>142.5</ele><time>2026-04-04T08:07:06Z</time></trkpt><trkpt lat="44.98609961053847" lon="8.43513807059023"><ele>143.33333333333334</ele><time>2026-04-04T08:07:08Z</time></trkpt><trkpt lat="44.98612003940797" lon="8.4350402529927"><ele>144.16666666666669</ele><time>2026-04-04T08:07:11Z</time></trkpt><trkpt lat="44.986165570001496" lon="8.434945896235915"><ele>145.0</ele><time>2026-04-04T08:07:14Z</time></trkpt><trkpt lat="44.98625595467529" lon="8.43495432385529"><ele>145.0</ele><time>2026-04-04T08:07:16Z</time></trkpt><trkpt lat="44.986356972021795" lon="8.434964808150717"><ele>145.0</ele><time>2026-04-04T08:07:18Z</time></trkpt><trkpt lat="44.986422287445166" lon="8.434966816381838"><ele>145.0</ele><time>2026-04-04T08:07:19Z</time></trkpt><trkpt lat="44.9864909620326" lon="8.43497285572588"><ele>145.0</ele><time>2026-04-04T08:07:20Z</time></trkpt><trkpt lat="44.986614241370226" lon="8.434990679436362"><ele>145.0</ele><time>2026-04-04T08:07:22Z</time></trkpt><trkpt lat="44.98668607792786" lon="8.434998740875212"><ele>145.0</ele><time>2026-04-04T08:07:23Z</time></trkpt><trkpt lat="44.98678691004452" lon="8.435001419881972"><ele>144.33333333333334</ele><time>2026-04-04T08:07:25Z</time></trkpt><trkpt lat="44.98685283004254" lon="8.434996990743167"><ele>143.66666666666669</ele><time>2026-04-04T08:07:26Z</time></trkpt><trkpt lat="44.9869157696233" lon="8.434989852987366"><ele>143.0</ele><time>2026-04-04T08:07:27Z</time></trkpt><trkpt lat="44.9870397418838" lon="8.435010121234617"><ele>142.33333333333334</ele><time>2026-04-04T08:07:29Z</time></trkpt><trkpt lat="44.98714550715655" lon="8.435037013910247"><ele>141.66666666666666</ele><time>2026-04-04T08:07:32Z</time></trkpt><trkpt lat="44.98722419497985" lon="8.435072073421912"><ele>141.0</ele><time>2026-04-04T08:07:34Z</time></trkpt><trkpt lat="44.98726565917425" lon="8.435200965469994"><ele>141.0</ele><time>2026-04-04T08:07:37Z</time></trkpt><trkpt lat="44.98726249472561" lon="8.43529296362942"><ele>141.0</ele><time>2026-04-04T08:07:38Z</time></trkpt><trkpt lat="44.987249745291486" lon="8.43539179226436"><ele>141.0</ele><time>2026-04-04T08:07:39Z</time></trkpt><trkpt lat="44.98723708682763" lon="8.435485505487666"><ele>141.0</ele><time>2026-04-04T08:07:40Z</time></trkpt><trkpt lat="44.98722533086879" lon="8.435641694223152"><ele>141.0</ele><time>2026-04-04T08:07:41.999Z</time></trkpt><trkpt lat="44.98719536591932" lon="8.435802737102122"><ele>141.0</ele><time>2026-04-04T08:07:43.999Z</time></trkpt><trkpt lat="44.98712415297781" lon="8.43589283940237"><ele>141.0</ele><time>2026-04-04T08:07:45.999Z</time></trkpt><trkpt lat="44.98706655108977" lon="8.435960150656667"><ele>141.0</ele><time>2026-04-04T08:07:46.999Z</time></trkpt><trkpt lat="44.98701974781054" lon="8.436020132299301"><ele>141.0</ele><time>2026-04-04T08:07:47.999Z</time></trkpt><trkpt lat="44.98699088718968" lon="8.43611712300889"><ele>141.0</ele><time>2026-04-04T08:07:48.999Z</time></trkpt><trkpt lat="44.98697352154458" lon="8.43626412321925"><ele>141.0</ele><time>2026-04-04T08:07:49.999Z</time></trkpt><trkpt lat="44.98696640594425" lon="8.436432604635963"><ele>141.0</ele><time>2026-04-04T08:07:50.999Z</time></trkpt><trkpt lat="44.98695313412616" lon="8.43657770810871"><ele>141.0</ele><time>2026-04-04T08:07:51.999Z</time></trkpt><trkpt lat="44.98693618912714" lon="8.436705603678007"><ele>141.0</ele><time>2026-04-04T08:07:52.999Z</time></trkpt><trkpt lat="44.9869356674609" lon="8.43685179799868"><ele>141.0</ele><time>2026-04-04T08:07:53.999Z</time></trkpt><trkpt lat="44.9869192088027" lon="8.436977743691983"><ele>141.0</ele><time>2026-04-04T08:07:54.999Z</time></trkpt><trkpt lat="44.986902539838496" lon="8.43710743552951"><ele>141.0</ele><time>2026-04-04T08:07:55.999Z</time></trkpt><trkpt lat="44.98688129206274" lon="8.437251104862906"><ele>141.0</ele><time>2026-04-04T08:07:56.999Z</time></trkpt><trkpt lat="44.98686107867817" lon="8.437397668344504"><ele>141.0</ele><time>2026-04-04T08:07:57.999Z</time></trkpt><trkpt lat="44.98684740552914" lon="8.43752142435571"><ele>141.0</ele><time>2026-04-04T08:07:58.999Z</time></trkpt><trkpt lat="44.98683453812732" lon="8.4376323101985"><ele>141.0</ele><time>2026-04-04T08:07:59.999Z</time></trkpt><trkpt lat="44.98682958340968" lon="8.437772745241572"><ele>141.0</ele><time>2026-04-04T08:08:01.999Z</time></trkpt><trkpt lat="44.986858768664504" lon="8.437860228828766"><ele>141.0</ele><time>2026-04-04T08:08:03.999Z</time></trkpt><trkpt lat="44.98692021321367" lon="8.437889727040753"><ele>141.0</ele><time>2026-04-04T08:08:04.999Z</time></trkpt><trkpt lat="44.98698601773657" lon="8.437884233260577"><ele>141.0</ele><time>2026-04-04T08:08:05.999Z</time></trkpt><trkpt lat="44.987096232674176" lon="8.437854642945586"><ele>141.0</ele><time>2026-04-04T08:08:06.999Z</time></trkpt><trkpt lat="44.987177242731775" lon="8.43783071491966"><ele>141.0</ele><time>2026-04-04T08:08:07.999Z</time></trkpt><trkpt lat="44.98725126323757" lon="8.437821160808252"><ele>141.0</ele><time>2026-04-04T08:08:08.999Z</time></trkpt><trkpt lat="44.98733601863697" lon="8.43782918679915"><ele>141.0</ele><time>2026-04-04T08:08:09.999Z</time></trkpt><trkpt lat="44.98740032981754" lon="8.437834548847073"><ele>141.0</ele><time>2026-04-04T08:08:10.999Z</time></trkpt><trkpt lat="44.98750724914931" lon="8.43784403592633"><ele>141.0</ele><time>2026-04-04T08:08:12.999Z</time></trkpt><trkpt lat="44.98759549044317" lon="8.437847477704018"><ele>141.0</ele><time>2026-04-04T08:08:14.999Z</time></trkpt><trkpt lat="44.98768711418527" lon="8.437950756897289"><ele>141.0</ele><time>2026-04-04T08:08:16.999Z</time></trkpt><trkpt lat="44.98774339213109" lon="8.438045647824357"><ele>141.0</ele><time>2026-04-04T08:08:17.999Z</time></trkpt><trkpt lat="44.98780876117699" lon="8.438169766449038"><ele>142.4</ele><time>2026-04-04T08:08:18.999Z</time></trkpt><trkpt lat="44.987857287271936" lon="8.438313434670901"><ele>143.8</ele><time>2026-04-04T08:08:19.999Z</time></trkpt><trkpt lat="44.98790094078141" lon="8.438470524815243"><ele>145.20000000000002</ele><time>2026-04-04T08:08:20.999Z</time></trkpt><trkpt lat="44.98794240231709" lon="8.438611194923611"><ele>146.6</ele><time>2026-04-04T08:08:21.999Z</time></trkpt><trkpt lat="44.98798355349759" lon="8.438743807980078"><ele>148.0</ele><time>2026-04-04T08:08:22.999Z</time></trkpt><trkpt lat="44.988032356445245" lon="8.438870131550626"><ele>149.5</ele><time>2026-04-04T08:08:23.999Z</time></trkpt><trkpt lat="44.988096913799616" lon="8.439027440058378"><ele>151.0</ele><time>2026-04-04T08:08:24.999Z</time></trkpt><trkpt lat="44.98815915082466" lon="8.439197927670305"><ele>152.5</ele><time>2026-04-04T08:08:25.999Z</time></trkpt><trkpt lat="44.988232433986944" lon="8.439383183554467"><ele>154.0</ele><time>2026-04-04T08:08:26.999Z</time></trkpt><trkpt lat="44.98822650331302" lon="8.439585910314317"><ele>155.0</ele><time>2026-04-04T08:08:28.999Z</time></trkpt><trkpt lat="44.988261286073296" lon="8.439768361017293"><ele>156.0</ele><time>2026-04-04T08:08:29.999Z</time></trkpt><trkpt lat="44.98831795084714" lon="8.439940608486776"><ele>157.0</ele><time>2026-04-04T08:08:30.999Z</time></trkpt><trkpt lat="44.98831708217008" lon="8.440088288597892"><ele>158.0</ele><time>2026-04-04T08:08:31.999Z</time></trkpt><trkpt lat="44.98832028445818" lon="8.44021857988859"><ele>158.0</ele><time>2026-04-04T08:08:32.999Z</time></trkpt><trkpt lat="44.98834127879627" lon="8.440308991654693"><ele>158.0</ele><time>2026-04-04T08:08:33.999Z</time></trkpt><trkpt lat="44.98836149162916" lon="8.44045510784172"><ele>158.0</ele><time>2026-04-04T08:08:34.999Z</time></trkpt><trkpt lat="44.98837840058849" lon="8.44061754283948"><ele>158.0</ele><time>2026-04-04T08:08:35.999Z</time></trkpt><trkpt lat="44.988389170479486" lon="8.440736938951229"><ele>158.0</ele><time>2026-04-04T08:08:36.999Z</time></trkpt><trkpt lat="44.98839863805125" lon="8.440827843553164"><ele>158.0</ele><time>2026-04-04T08:08:37.999Z</time></trkpt><trkpt lat="44.98841363670395" lon="8.440920375547694"><ele>157.83333333333331</ele><time>2026-04-04T08:08:38.999Z</time></trkpt><trkpt lat="44.98842786399674" lon="8.441007676132259"><ele>157.66666666666666</ele><time>2026-04-04T08:08:39.999Z</time></trkpt><trkpt lat="44.988452841327494" lon="8.441132592596468"><ele>157.5</ele><time>2026-04-04T08:08:41.999Z</time></trkpt><trkpt lat="44.98846524281553" lon="8.441263985539544"><ele>157.33333333333334</ele><time>2026-04-04T08:08:43.999Z</time></trkpt><trkpt lat="44.98838825546754" lon="8.44133793967069"><ele>157.16666666666669</ele><time>2026-04-04T08:08:44.999Z</time></trkpt><trkpt lat="44.98839976703536" lon="8.441470688545833"><ele>157.0</ele><time>2026-04-04T08:08:46.999Z</time></trkpt><trkpt lat="44.98841320715853" lon="8.441625681148714"><ele>156.79999999999998</ele><time>2026-04-04T08:08:48.999Z</time></trkpt><trkpt lat="44.988421569589114" lon="8.44172513842544"><ele>156.6</ele><time>2026-04-04T08:08:49.999Z</time></trkpt><trkpt lat="44.98842867714746" lon="8.441835157840586"><ele>156.39999999999998</ele><time>2026-04-04T08:08:50.999Z</time></trkpt><trkpt lat="44.9884343586312" lon="8.441982439432808"><ele>156.2</ele><time>2026-04-04T08:08:51.999Z</time></trkpt><trkpt lat="44.98844230659599" lon="8.442151118657309"><ele>156.0</ele><time>2026-04-04T08:08:52.999Z</time></trkpt><trkpt lat="44.9884544511144" lon="8.442308865031958"><ele>157.25</ele><time>2026-04-04T08:08:53.999Z</time></trkpt><trkpt lat="44.988490598915114" lon="8.442484855927269"><ele>158.5</ele><time>2026-04-04T08:08:54.999Z</time></trkpt><trkpt lat="44.98855145979393" lon="8.442656979578388"><ele>159.75</ele><time>2026-04-04T08:08:55.999Z</time></trkpt><trkpt lat="44.98859295647871" lon="8.442825914069338"><ele>161.0</ele><time>2026-04-04T08:08:56.999Z</time></trkpt><trkpt lat="44.98865871121982" lon="8.443009999962301"><ele>162.75</ele><time>2026-04-04T08:08:57.999Z</time></trkpt><trkpt lat="44.988718142080835" lon="8.443184300630877"><ele>164.5</ele><time>2026-04-04T08:08:58.999Z</time></trkpt><trkpt lat="44.98876604167279" lon="8.443347078037107"><ele>166.25</ele><time>2026-04-04T08:09:00Z</time></trkpt><trkpt lat="44.98881006933964" lon="8.443510601589068"><ele>168.0</ele><time>2026-04-04T08:09:01Z</time></trkpt><trkpt lat="44.988849460397056" lon="8.44365299620844"><ele>169.4</ele><time>2026-04-04T08:09:02Z</time></trkpt><trkpt lat="44.98889136102788" lon="8.443802886945925"><ele>170.8</ele><time>2026-04-04T08:09:03Z</time></trkpt><trkpt lat="44.98892849645622" lon="8.443964164714076"><ele>172.2</ele><time>2026-04-04T08:09:04Z</time></trkpt><trkpt lat="44.98895688561547" lon="8.444115709292253"><ele>173.6</ele><time>2026-04-04T08:09:05Z</time></trkpt><trkpt lat="44.98897950745988" lon="8.444256713320337"><ele>175.0</ele><time>2026-04-04T08:09:06Z</time></trkpt><trkpt lat="44.989003135675354" lon="8.444408631928818"><ele>175.0</ele><time>2026-04-04T08:09:07Z</time></trkpt><trkpt lat="44.98902456441063" lon="8.444570757854807"><ele>175.0</ele><time>2026-04-04T08:09:08Z</time></trkpt><trkpt lat="44.989040669315685" lon="8.444761717449916"><ele>175.0</ele><time>2026-04-04T08:09:09Z</time></trkpt><trkpt lat="44.989055272148626" lon="8.444994512467831"><ele>175.0</ele><time>2026-04-04T08:09:10Z</time></trkpt><trkpt lat="44.98907221628268" lon="8.445176582881302"><ele>177.0</ele><time>2026-04-04T08:09:11Z</time></trkpt><trkpt lat="44.98908929304511" lon="8.445352505421718"><ele>179.0</ele><time>2026-04-04T08:09:12Z</time></trkpt><trkpt lat="44.989103861289834" lon="8.445517441150376"><ele>181.0</ele><time>2026-04-04T08:09:13Z</time></trkpt><trkpt lat="44.989112280116665" lon="8.445676248268816"><ele>183.0</ele><time>2026-04-04T08:09:14Z</time></trkpt><trkpt lat="44.98911175751097" lon="8.445839306665443"><ele>185.25</ele><time>2026-04-04T08:09:15Z</time></trkpt><trkpt lat="44.989103905591335" lon="8.446010876871322"><ele>187.5</ele><time>2026-04-04T08:09:16Z</time></trkpt><trkpt lat="44.98909015936735" lon="8.446165120304077"><ele>189.75</ele><time>2026-04-04T08:09:17Z</time></trkpt><trkpt lat="44.989072414675725" lon="8.446337687315621"><ele>192.0</ele><time>2026-04-04T08:09:18Z</time></trkpt><trkpt lat="44.989050311203954" lon="8.44652670706124"><ele>192.75</ele><time>2026-04-04T08:09:19Z</time></trkpt><trkpt lat="44.98903375282353" lon="8.446716640942835"><ele>193.5</ele><time>2026-04-04T08:09:20Z</time></trkpt><trkpt lat="44.989026454880765" lon="8.446909793181042"><ele>194.25</ele><time>2026-04-04T08:09:21Z</time></trkpt><trkpt lat="44.989023149385226" lon="8.447069285051802"><ele>195.0</ele><time>2026-04-04T08:09:22Z</time></trkpt><trkpt lat="44.989022399209475" lon="8.44720790174074"><ele>197.0</ele><time>2026-04-04T08:09:23Z</time></trkpt><trkpt lat="44.98902313812766" lon="8.447341870205262"><ele>199.0</ele><time>2026-04-04T08:09:24Z</time></trkpt><trkpt lat="44.98903023610057" lon="8.447508050886555"><ele>201.0</ele><time>2026-04-04T08:09:25Z</time></trkpt><trkpt lat="44.98904280645949" lon="8.44769652867076"><ele>203.0</ele><time>2026-04-04T08:09:26Z</time></trkpt><trkpt lat="44.98906417268697" lon="8.447907717546709"><ele>205.75</ele><time>2026-04-04T08:09:27Z</time></trkpt><trkpt lat="44.98908834478564" lon="8.448113045801716"><ele>208.5</ele><time>2026-04-04T08:09:28Z</time></trkpt><trkpt lat="44.98910856666217" lon="8.448292608724712"><ele>211.25</ele><time>2026-04-04T08:09:29Z</time></trkpt><trkpt lat="44.98912804259067" lon="8.44848380060732"><ele>214.0</ele><time>2026-04-04T08:09:30Z</time></trkpt><trkpt lat="44.98914342539856" lon="8.448674996888435"><ele>215.5</ele><time>2026-04-04T08:09:31Z</time></trkpt><trkpt lat="44.98915338585669" lon="8.44883867897387"><ele>217.0</ele><time>2026-04-04T08:09:32Z</time></trkpt><trkpt lat="44.98916234153679" lon="8.44899465066702"><ele>218.5</ele><time>2026-04-04T08:09:33Z</time></trkpt><trkpt lat="44.98917262138748" lon="8.44918051174386"><ele>220.0</ele><time>2026-04-04T08:09:34Z</time></trkpt><trkpt lat="44.98917688940455" lon="8.4493096743753"><ele>220.0</ele><time>2026-04-04T08:09:35Z</time></trkpt><trkpt lat="44.98917454623771" lon="8.44943585329617"><ele>220.0</ele><time>2026-04-04T08:09:36Z</time></trkpt><trkpt lat="44.989173851664766" lon="8.44954115044791"><ele>220.0</ele><time>2026-04-04T08:09:40Z</time></trkpt><trkpt lat="44.98917317800372" lon="8.449643274401337"><ele>220.0</ele><time>2026-04-04T08:09:41Z</time></trkpt><trkpt lat="44.989268791963916" lon="8.449756230769037"><ele>220.0</ele><time>2026-04-04T08:09:42Z</time></trkpt><trkpt lat="44.989336326662894" lon="8.449895165533766"><ele>221.0</ele><time>2026-04-04T08:09:43Z</time></trkpt><trkpt lat="44.989407998754864" lon="8.4500345647386"><ele>222.0</ele><time>2026-04-04T08:09:43.999Z</time></trkpt><trkpt lat="44.98949850037058" lon="8.450113307981699"><ele>223.0</ele><time>2026-04-04T08:09:44.999Z</time></trkpt><trkpt lat="44.98961958343544" lon="8.450156258181693"><ele>224.0</ele><time>2026-04-04T08:09:45.999Z</time></trkpt><trkpt lat="44.98976589333078" lon="8.450162023189414"><ele>224.0</ele><time>2026-04-04T08:09:46.999Z</time></trkpt><trkpt lat="44.989882440934366" lon="8.450218901822248"><ele>224.0</ele><time>2026-04-04T08:09:47.999Z</time></trkpt><trkpt lat="44.98997355191096" lon="8.450289849596142"><ele>224.0</ele><time>2026-04-04T08:09:48.999Z</time></trkpt><trkpt lat="44.990056531002814" lon="8.45040967009019"><ele>224.0</ele><time>2026-04-04T08:09:49.999Z</time></trkpt><trkpt lat="44.990113746029586" lon="8.450573624902683"><ele>224.0</ele><time>2026-04-04T08:09:50.999Z</time></trkpt><trkpt lat="44.99015968960641" lon="8.450773181179441"><ele>224.0</ele><time>2026-04-04T08:09:51.999Z</time></trkpt><trkpt lat="44.99021410197205" lon="8.451009087181236"><ele>224.0</ele><time>2026-04-04T08:09:52.999Z</time></trkpt><trkpt lat="44.99027092445347" lon="8.451299120966807"><ele>227.0</ele><time>2026-04-04T08:09:53.999Z</time></trkpt><trkpt lat="44.99030275139444" lon="8.4515636567235"><ele>230.0</ele><time>2026-04-04T08:09:54.999Z</time></trkpt><trkpt lat="44.99033003802299" lon="8.451845663136803"><ele>233.0</ele><time>2026-04-04T08:09:55.999Z</time></trkpt><trkpt lat="44.99035591795095" lon="8.452175540615912"><ele>233.66666666666669</ele><time>2026-04-04T08:09:56.999Z</time></trkpt><trkpt lat="44.990376135830324" lon="8.452468863929104"><ele>234.33333333333331</ele><time>2026-04-04T08:09:57.999Z</time></trkpt><trkpt lat="44.99039251320497" lon="8.452742800147208"><ele>235.0</ele><time>2026-04-04T08:09:58.999Z</time></trkpt><trkpt lat="44.99040533221081" lon="8.453003806565878"><ele>235.0</ele><time>2026-04-04T08:09:59.999Z</time></trkpt><trkpt lat="44.99041697813146" lon="8.453256026770404"><ele>235.0</ele><time>2026-04-04T08:10:00.999Z</time></trkpt><trkpt lat="44.99042947207679" lon="8.453484110580861"><ele>235.0</ele><time>2026-04-04T08:10:01.999Z</time></trkpt><trkpt lat="44.99044187777473" lon="8.45372418973671"><ele>234.66666666666666</ele><time>2026-04-04T08:10:02.999Z</time></trkpt><trkpt lat="44.99045478776028" lon="8.453985265265686"><ele>234.33333333333331</ele><time>2026-04-04T08:10:03.999Z</time></trkpt><trkpt lat="44.990465173666465" lon="8.454242567589391"><ele>234.0</ele><time>2026-04-04T08:10:04.999Z</time></trkpt><trkpt lat="44.99047831193501" lon="8.454495246476723"><ele>235.5</ele><time>2026-04-04T08:10:05.999Z</time></trkpt><trkpt lat="44.99049217278652" lon="8.454749499397028"><ele>237.0</ele><time>2026-04-04T08:10:06.999Z</time></trkpt><trkpt lat="44.990502869164416" lon="8.454945705588665"><ele>238.5</ele><time>2026-04-04T08:10:07.999Z</time></trkpt><trkpt lat="44.99051202615975" lon="8.455126570825744"><ele>240.0</ele><time>2026-04-04T08:10:08.999Z</time></trkpt><trkpt lat="44.99052028077393" lon="8.455291248292157"><ele>240.0</ele><time>2026-04-04T08:10:09.999Z</time></trkpt><trkpt lat="44.99053804981905" lon="8.455436854559576"><ele>240.0</ele><time>2026-04-04T08:10:10.999Z</time></trkpt><trkpt lat="44.99054463283666" lon="8.45555896424982"><ele>240.0</ele><time>2026-04-04T08:10:11.999Z</time></trkpt><trkpt lat="44.99057082841801" lon="8.455649689365163"><ele>240.0</ele><time>2026-04-04T08:10:12.999Z</time></trkpt><trkpt lat="44.9906717760095" lon="8.455716061610861"><ele>240.0</ele><time>2026-04-04T08:10:14.999Z</time></trkpt><trkpt lat="44.99077923415608" lon="8.455673286660272"><ele>239.66666666666666</ele><time>2026-04-04T08:10:16.999Z</time></trkpt><trkpt lat="44.990901058388665" lon="8.455669600826386"><ele>239.33333333333331</ele><time>2026-04-04T08:10:18.999Z</time></trkpt><trkpt lat="44.99096954432639" lon="8.455683303659733"><ele>239.0</ele><time>2026-04-04T08:10:19.999Z</time></trkpt><trkpt lat="44.99103569323152" lon="8.455698138716063"><ele>238.66666666666666</ele><time>2026-04-04T08:10:20.999Z</time></trkpt><trkpt lat="44.991120262097716" lon="8.455706809929675"><ele>238.33333333333331</ele><time>2026-04-04T08:10:21.999Z</time></trkpt><trkpt lat="44.991185896488446" lon="8.455735270179673"><ele>238.0</ele><time>2026-04-04T08:10:22.999Z</time></trkpt><trkpt lat="44.99125030226908" lon="8.455757988493712"><ele>238.0</ele><time>2026-04-04T08:10:23.999Z</time></trkpt><trkpt lat="44.99137360623008" lon="8.455826357698918"><ele>238.0</ele><time>2026-04-04T08:10:25.999Z</time></trkpt><trkpt lat="44.99144625153613" lon="8.455884112896882"><ele>238.0</ele><time>2026-04-04T08:10:26.999Z</time></trkpt><trkpt lat="44.991512840355675" lon="8.455955473978037"><ele>238.0</ele><time>2026-04-04T08:10:27.999Z</time></trkpt><trkpt lat="44.99156341302665" lon="8.456048235169723"><ele>238.0</ele><time>2026-04-04T08:10:28.999Z</time></trkpt><trkpt lat="44.991624207500934" lon="8.456118934948746"><ele>237.99999999999997</ele><time>2026-04-04T08:10:29.999Z</time></trkpt><trkpt lat="44.991648180664" lon="8.456203040193419"><ele>238.0</ele><time>2026-04-04T08:10:30.999Z</time></trkpt><trkpt lat="44.99169769178017" lon="8.456299631119895"><ele>238.0</ele><time>2026-04-04T08:10:31.999Z</time></trkpt><trkpt lat="44.99177065542918" lon="8.45645168007208"><ele>238.0</ele><time>2026-04-04T08:10:33.999Z</time></trkpt><trkpt lat="44.99181343838617" lon="8.456525647827913"><ele>237.99999999999997</ele><time>2026-04-04T08:10:34.999Z</time></trkpt><trkpt lat="44.991871193655314" lon="8.456570050780224"><ele>238.0</ele><time>2026-04-04T08:10:35.999Z</time></trkpt><trkpt lat="44.99198257912959" lon="8.456631133340471"><ele>237.99999999999997</ele><time>2026-04-04T08:10:37.999Z</time></trkpt><trkpt lat="44.99204506977333" lon="8.456657639938433"><ele>238.0</ele><time>2026-04-04T08:10:38.999Z</time></trkpt><trkpt lat="44.9921673375689" lon="8.456683158989968"><ele>238.0</ele><time>2026-04-04T08:10:40.999Z</time></trkpt><trkpt lat="44.99223466057175" lon="8.456666761635189"><ele>238.0</ele><time>2026-04-04T08:10:41.999Z</time></trkpt><trkpt lat="44.99229986725565" lon="8.456679572930266"><ele>237.99999999999997</ele><time>2026-04-04T08:10:42.999Z</time></trkpt><trkpt lat="44.992361613594355" lon="8.456659767966904"><ele>238.0</ele><time>2026-04-04T08:10:43.999Z</time></trkpt><trkpt lat="44.99243275884264" lon="8.456657521176448"><ele>237.0</ele><time>2026-04-04T08:10:44.999Z</time></trkpt><trkpt lat="44.99255546435396" lon="8.456604696124193"><ele>236.0</ele><time>2026-04-04T08:10:46.999Z</time></trkpt><trkpt lat="44.9926720807877" lon="8.456550683127283"><ele>235.0</ele><time>2026-04-04T08:10:48.999Z</time></trkpt><trkpt lat="44.99279306417743" lon="8.456497976223018"><ele>234.0</ele><time>2026-04-04T08:10:50.999Z</time></trkpt><trkpt lat="44.99290201255814" lon="8.456500259370687"><ele>234.0</ele><time>2026-04-04T08:10:52.999Z</time></trkpt><trkpt lat="44.99297922265067" lon="8.45655750956046"><ele>234.0</ele><time>2026-04-04T08:10:55.999Z</time></trkpt><trkpt lat="44.99304224771195" lon="8.456493908225251"><ele>234.0</ele><time>2026-04-04T08:12:15.999Z</time></trkpt><trkpt lat="44.99310277246058" lon="8.456457782868581"><ele>234.0</ele><time>2026-04-04T08:12:22.999Z</time></trkpt><trkpt lat="44.99312243542631" lon="8.456333429626056"><ele>234.0</ele><time>2026-04-04T08:12:55.999Z</time></trkpt><trkpt lat="44.99311557822375" lon="8.456441713259107"><ele>234.0</ele><time>2026-04-04T08:15:46Z</time></trkpt><trkpt lat="44.99301027452139" lon="8.456479694330563"><ele>234.0</ele><time>2026-04-04T08:17:05.017Z</time></trkpt><trkpt lat="44.9930763346618" lon="8.456440020415997"><ele>234.00000000000003</ele><time>2026-04-04T08:19:16.997Z</time></trkpt><trkpt lat="44.99310263738676" lon="8.45635405335615"><ele>234.0</ele><time>2026-04-04T08:19:21.997Z</time></trkpt><trkpt lat="44.99317573274425" lon="8.45634650755277"><ele>234.0</ele><time>2026-04-04T08:19:46Z</time></trkpt><trkpt lat="44.9931395870757" lon="8.456434573361296"><ele>234.00000000000003</ele><time>2026-04-04T08:20:39.999Z</time></trkpt><trkpt lat="44.99308563938062" lon="8.456496733549526"><ele>234.0</ele><time>2026-04-04T08:20:50.999Z</time></trkpt><trkpt lat="44.99302479620028" lon="8.45654441002194"><ele>234.0</ele><time>2026-04-04T08:20:58.999Z</time></trkpt><trkpt lat="44.99310498352568" lon="8.456624457802835"><ele>234.0</ele><time>2026-04-04T08:24:42.999Z</time></trkpt><trkpt lat="44.99315421084246" lon="8.456708525061948"><ele>234.0</ele><time>2026-04-04T08:24:44.999Z</time></trkpt><trkpt lat="44.99321580972483" lon="8.456766855621847"><ele>234.0</ele><time>2026-04-04T08:24:46.999Z</time></trkpt><trkpt lat="44.99329576412745" lon="8.456787294570884"><ele>234.0</ele><time>2026-04-04T08:24:48.999Z</time></trkpt><trkpt lat="44.99336899286544" lon="8.456790012302188"><ele>234.0</ele><time>2026-04-04T08:24:49.999Z</time></trkpt><trkpt lat="44.99344300268778" lon="8.456796264933725"><ele>234.0</ele><time>2026-04-04T08:24:50.999Z</time></trkpt><trkpt lat="44.993528308227965" lon="8.456791445515016"><ele>234.0</ele><time>2026-04-04T08:24:51.999Z</time></trkpt><trkpt lat="44.99362045634211" lon="8.456799340830536"><ele>233.99999999999997</ele><time>2026-04-04T08:24:52.999Z</time></trkpt><trkpt lat="44.99372036065462" lon="8.456812964891773"><ele>233.99999999999997</ele><time>2026-04-04T08:24:53.999Z</time></trkpt><trkpt lat="44.99382338056972" lon="8.45681817862354"><ele>234.0</ele><time>2026-04-04T08:24:54.999Z</time></trkpt><trkpt lat="44.99391304488261" lon="8.456820937071427"><ele>234.0</ele><time>2026-04-04T08:24:55.999Z</time></trkpt><trkpt lat="44.9940018673413" lon="8.456815236584792"><ele>234.0</ele><time>2026-04-04T08:24:56.999Z</time></trkpt><trkpt lat="44.99408248128862" lon="8.456802881246059"><ele>234.0</ele><time>2026-04-04T08:24:57.999Z</time></trkpt><trkpt lat="44.9941740167965" lon="8.4567790587881"><ele>234.0</ele><time>2026-04-04T08:24:58.999Z</time></trkpt><trkpt lat="44.99424609235339" lon="8.456766249491922"><ele>234.0</ele><time>2026-04-04T08:24:59.999Z</time></trkpt><trkpt lat="44.994314566144745" lon="8.456747925284887"><ele>234.0</ele><time>2026-04-04T08:25:00.999Z</time></trkpt><trkpt lat="44.99439169878595" lon="8.45674324060262"><ele>234.0</ele><time>2026-04-04T08:25:01.999Z</time></trkpt><trkpt lat="44.99448032032541" lon="8.456711526694432"><ele>236.0</ele><time>2026-04-04T08:25:02.999Z</time></trkpt><trkpt lat="44.99456804492594" lon="8.456677796216894"><ele>237.99999999999997</ele><time>2026-04-04T08:25:03.999Z</time></trkpt><trkpt lat="44.99465581550075" lon="8.456643733228809"><ele>239.99999999999997</ele><time>2026-04-04T08:25:04.999Z</time></trkpt><trkpt lat="44.99474578392715" lon="8.456619699467423"><ele>242.0</ele><time>2026-04-04T08:25:05.999Z</time></trkpt><trkpt lat="44.994842615351665" lon="8.456650945696305"><ele>244.0</ele><time>2026-04-04T08:25:06.999Z</time></trkpt><trkpt lat="44.99491751529988" lon="8.456716167589725"><ele>244.0</ele><time>2026-04-04T08:25:07.999Z</time></trkpt><trkpt lat="44.99497804521719" lon="8.456741378663612"><ele>243.99999999999997</ele><time>2026-04-04T08:25:08.999Z</time></trkpt><trkpt lat="44.995058598306365" lon="8.456785163435526"><ele>243.99999999999997</ele><time>2026-04-04T08:25:10.999Z</time></trkpt><trkpt lat="44.995182019620316" lon="8.456836633237907"><ele>244.0</ele><time>2026-04-04T08:25:12.999Z</time></trkpt><trkpt lat="44.99526083401016" lon="8.4568712898074"><ele>244.0</ele><time>2026-04-04T08:25:13.999Z</time></trkpt><trkpt lat="44.99535035299021" lon="8.45689124955678"><ele>245.39999999999998</ele><time>2026-04-04T08:25:14.999Z</time></trkpt><trkpt lat="44.99545674799742" lon="8.456901603571255"><ele>246.79999999999998</ele><time>2026-04-04T08:25:15.999Z</time></trkpt><trkpt lat="44.995552531759195" lon="8.456950529309255"><ele>248.20000000000002</ele><time>2026-04-04T08:25:16.999Z</time></trkpt><trkpt lat="44.995626895571114" lon="8.456970934221806"><ele>249.60000000000002</ele><time>2026-04-04T08:25:17.999Z</time></trkpt><trkpt lat="44.99574219961804" lon="8.45705277027726"><ele>251.0</ele><time>2026-04-04T08:25:19.999Z</time></trkpt><trkpt lat="44.99580701504132" lon="8.457114235329236"><ele>252.50000000000003</ele><time>2026-04-04T08:25:20.999Z</time></trkpt><trkpt lat="44.995877757150666" lon="8.457149966197004"><ele>254.0</ele><time>2026-04-04T08:25:21.999Z</time></trkpt><trkpt lat="44.99594306790346" lon="8.457188860419937"><ele>255.5</ele><time>2026-04-04T08:25:22.999Z</time></trkpt><trkpt lat="44.996023399625685" lon="8.457241646089289"><ele>257.0</ele><time>2026-04-04T08:25:23.999Z</time></trkpt><trkpt lat="44.99608971237569" lon="8.457307589193304"><ele>258.5</ele><time>2026-04-04T08:25:24.999Z</time></trkpt><trkpt lat="44.99615785753922" lon="8.457401721521483"><ele>260.0</ele><time>2026-04-04T08:25:25.999Z</time></trkpt><trkpt lat="44.996235538684275" lon="8.457511137256136"><ele>260.0</ele><time>2026-04-04T08:25:26.999Z</time></trkpt><trkpt lat="44.99631488669599" lon="8.45761686135263"><ele>260.0</ele><time>2026-04-04T08:25:27.998Z</time></trkpt><trkpt lat="44.99639257397849" lon="8.457720974482877"><ele>260.0</ele><time>2026-04-04T08:25:28.998Z</time></trkpt><trkpt lat="44.996467621185865" lon="8.457830066910336"><ele>260.0</ele><time>2026-04-04T08:25:29.998Z</time></trkpt><trkpt lat="44.996551025600766" lon="8.457938813227663"><ele>260.0</ele><time>2026-04-04T08:25:30.998Z</time></trkpt><trkpt lat="44.99662720974583" lon="8.458052401462984"><ele>256.8</ele><time>2026-04-04T08:25:31.998Z</time></trkpt><trkpt lat="44.996700678252346" lon="8.458161957135726"><ele>253.6</ele><time>2026-04-04T08:25:32.998Z</time></trkpt><trkpt lat="44.99677713170034" lon="8.458256157981845"><ele>250.39999999999998</ele><time>2026-04-04T08:25:33.998Z</time></trkpt><trkpt lat="44.99684323775773" lon="8.458320285374997"><ele>247.2</ele><time>2026-04-04T08:25:34.998Z</time></trkpt><trkpt lat="44.99692259042628" lon="8.458386566430834"><ele>244.0</ele><time>2026-04-04T08:25:35.998Z</time></trkpt><trkpt lat="44.99700001310031" lon="8.458476957938485"><ele>244.0</ele><time>2026-04-04T08:25:36.998Z</time></trkpt><trkpt lat="44.99708328536395" lon="8.458574978340721"><ele>243.99999999999997</ele><time>2026-04-04T08:25:37.998Z</time></trkpt><trkpt lat="44.99715404403959" lon="8.458671641105086"><ele>243.99999999999997</ele><time>2026-04-04T08:25:38.998Z</time></trkpt><trkpt lat="44.997229269376376" lon="8.45878208769953"><ele>244.0</ele><time>2026-04-04T08:25:39.998Z</time></trkpt><trkpt lat="44.99730068809876" lon="8.458898001341698"><ele>244.0</ele><time>2026-04-04T08:25:40.998Z</time></trkpt><trkpt lat="44.997368057770274" lon="8.459033171254857"><ele>244.75</ele><time>2026-04-04T08:25:42Z</time></trkpt><trkpt lat="44.99740382013832" lon="8.459196125418446"><ele>245.5</ele><time>2026-04-04T08:25:43Z</time></trkpt><trkpt lat="44.997438351856616" lon="8.459350472145838"><ele>246.25</ele><time>2026-04-04T08:25:44Z</time></trkpt><trkpt lat="44.99746644020605" lon="8.459512762031013"><ele>247.0</ele><time>2026-04-04T08:25:45Z</time></trkpt><trkpt lat="44.99749327927127" lon="8.459680243458488"><ele>246.25</ele><time>2026-04-04T08:25:46Z</time></trkpt><trkpt lat="44.997531849181534" lon="8.459846825542327"><ele>245.5</ele><time>2026-04-04T08:25:47Z</time></trkpt><trkpt lat="44.99758483829305" lon="8.460017504656756"><ele>244.75</ele><time>2026-04-04T08:25:48Z</time></trkpt><trkpt lat="44.99764818496145" lon="8.460172287501987"><ele>244.0</ele><time>2026-04-04T08:25:49Z</time></trkpt><trkpt lat="44.99771419155418" lon="8.460314780528035"><ele>246.2</ele><time>2026-04-04T08:25:50Z</time></trkpt><trkpt lat="44.997776575750905" lon="8.460452831921605"><ele>248.39999999999998</ele><time>2026-04-04T08:25:51Z</time></trkpt><trkpt lat="44.99783955380758" lon="8.460581095203985"><ele>250.6</ele><time>2026-04-04T08:25:52Z</time></trkpt><trkpt lat="44.99790541047118" lon="8.460698645215029"><ele>252.8</ele><time>2026-04-04T08:25:53Z</time></trkpt><trkpt lat="44.99795819127493" lon="8.46083752122563"><ele>255.0</ele><time>2026-04-04T08:25:54Z</time></trkpt><trkpt lat="44.99801759550329" lon="8.460961999924244"><ele>255.0</ele><time>2026-04-04T08:25:55Z</time></trkpt><trkpt lat="44.99807831592123" lon="8.461095352804787"><ele>255.0</ele><time>2026-04-04T08:25:56Z</time></trkpt><trkpt lat="44.998135790698946" lon="8.461244215970874"><ele>255.0</ele><time>2026-04-04T08:25:57Z</time></trkpt><trkpt lat="44.998184496663676" lon="8.461399253033855"><ele>255.0</ele><time>2026-04-04T08:25:58Z</time></trkpt><trkpt lat="44.998237729340936" lon="8.461566105841804"><ele>255.66666666666669</ele><time>2026-04-04T08:25:59Z</time></trkpt><trkpt lat="44.99828055840461" lon="8.46175826263832"><ele>256.33333333333337</ele><time>2026-04-04T08:26:00Z</time></trkpt><trkpt lat="44.99831206789092" lon="8.461967328948898"><ele>257.0</ele><time>2026-04-04T08:26:01Z</time></trkpt><trkpt lat="44.99835605253624" lon="8.462179169670964"><ele>257.0</ele><time>2026-04-04T08:26:02Z</time></trkpt><trkpt lat="44.99839117624866" lon="8.462369175138281"><ele>257.0</ele><time>2026-04-04T08:26:03Z</time></trkpt><trkpt lat="44.99842117132122" lon="8.462521789053921"><ele>257.0</ele><time>2026-04-04T08:26:04Z</time></trkpt><trkpt lat="44.99844279363233" lon="8.462665458887901"><ele>257.0</ele><time>2026-04-04T08:26:05Z</time></trkpt><trkpt lat="44.99846386679054" lon="8.462827026824794"><ele>257.0</ele><time>2026-04-04T08:26:06Z</time></trkpt><trkpt lat="44.99846046691217" lon="8.46300320017025"><ele>257.0</ele><time>2026-04-04T08:26:07Z</time></trkpt><trkpt lat="44.99848304106807" lon="8.463187186178553"><ele>257.0</ele><time>2026-04-04T08:26:08Z</time></trkpt><trkpt lat="44.99848473576514" lon="8.463372544845235"><ele>257.0</ele><time>2026-04-04T08:26:09Z</time></trkpt><trkpt lat="44.9984781801236" lon="8.463553505321665"><ele>257.0</ele><time>2026-04-04T08:26:10Z</time></trkpt><trkpt lat="44.99847098067367" lon="8.4637249926614"><ele>257.0</ele><time>2026-04-04T08:26:11Z</time></trkpt><trkpt lat="44.99846819373754" lon="8.463890759316987"><ele>257.0</ele><time>2026-04-04T08:26:12Z</time></trkpt><trkpt lat="44.998460105967595" lon="8.464074854434758"><ele>257.0</ele><time>2026-04-04T08:26:13Z</time></trkpt><trkpt lat="44.99845519191132" lon="8.464278939566045"><ele>258.0</ele><time>2026-04-04T08:26:14Z</time></trkpt><trkpt lat="44.998461755319546" lon="8.46448742104442"><ele>259.0</ele><time>2026-04-04T08:26:15Z</time></trkpt><trkpt lat="44.99847041731133" lon="8.464707845181161"><ele>260.0</ele><time>2026-04-04T08:26:16Z</time></trkpt><trkpt lat="44.998483044116334" lon="8.464925900080688"><ele>262.5</ele><time>2026-04-04T08:26:17Z</time></trkpt><trkpt lat="44.9985052155541" lon="8.465136858711444"><ele>265.0</ele><time>2026-04-04T08:26:18Z</time></trkpt><trkpt lat="44.99853153419018" lon="8.465342629028356"><ele>267.5</ele><time>2026-04-04T08:26:18.999Z</time></trkpt><trkpt lat="44.998555061498465" lon="8.46553560652011"><ele>270.0</ele><time>2026-04-04T08:26:19.999Z</time></trkpt><trkpt lat="44.99857779739342" lon="8.465722169851215"><ele>270.0</ele><time>2026-04-04T08:26:20.999Z</time></trkpt><trkpt lat="44.99858721020719" lon="8.465901383265342"><ele>270.0</ele><time>2026-04-04T08:26:21.999Z</time></trkpt><trkpt lat="44.99859596188779" lon="8.466056491209898"><ele>270.0</ele><time>2026-04-04T08:26:22.999Z</time></trkpt><trkpt lat="44.998596254006976" lon="8.46620024341079"><ele>270.0</ele><time>2026-04-04T08:26:23.999Z</time></trkpt><trkpt lat="44.9986046157479" lon="8.466334953876968"><ele>270.0</ele><time>2026-04-04T08:26:24.999Z</time></trkpt><trkpt lat="44.99862331110614" lon="8.466484748849858"><ele>270.0</ele><time>2026-04-04T08:26:25.999Z</time></trkpt><trkpt lat="44.99864506683838" lon="8.466656081587185"><ele>270.0</ele><time>2026-04-04T08:26:26.999Z</time></trkpt><trkpt lat="44.99868157766311" lon="8.466840982581314"><ele>270.0</ele><time>2026-04-04T08:26:27.999Z</time></trkpt><trkpt lat="44.99873582684979" lon="8.46702650923083"><ele>270.0</ele><time>2026-04-04T08:26:28.999Z</time></trkpt><trkpt lat="44.9987909552686" lon="8.46720474222866"><ele>268.0</ele><time>2026-04-04T08:26:29.999Z</time></trkpt><trkpt lat="44.99882227141613" lon="8.467395689060666"><ele>266.0</ele><time>2026-04-04T08:26:30.999Z</time></trkpt><trkpt lat="44.99887240568105" lon="8.467600800386775"><ele>264.0</ele><time>2026-04-04T08:26:31.999Z</time></trkpt><trkpt lat="44.998873002107864" lon="8.467803024619926"><ele>262.0</ele><time>2026-04-04T08:26:32.999Z</time></trkpt><trkpt lat="44.998865449806345" lon="8.467997073180054"><ele>260.25</ele><time>2026-04-04T08:26:33.999Z</time></trkpt><trkpt lat="44.99883786592008" lon="8.468191139052069"><ele>258.5</ele><time>2026-04-04T08:26:34.999Z</time></trkpt><trkpt lat="44.99880428777903" lon="8.468380175234188"><ele>256.75</ele><time>2026-04-04T08:26:35.999Z</time></trkpt><trkpt lat="44.99875194152989" lon="8.468564420925395"><ele>255.0</ele><time>2026-04-04T08:26:36.999Z</time></trkpt><trkpt lat="44.99868153789269" lon="8.468739190885865"><ele>254.0</ele><time>2026-04-04T08:26:37.999Z</time></trkpt><trkpt lat="44.99859894103013" lon="8.468912038368519"><ele>253.0</ele><time>2026-04-04T08:26:38.999Z</time></trkpt><trkpt lat="44.99850020090298" lon="8.469060546366322"><ele>252.0</ele><time>2026-04-04T08:26:39.999Z</time></trkpt><trkpt lat="44.99839773386249" lon="8.469197960843573"><ele>251.0</ele><time>2026-04-04T08:26:40.999Z</time></trkpt><trkpt lat="44.99828776302449" lon="8.46933980242031"><ele>253.75</ele><time>2026-04-04T08:26:41.999Z</time></trkpt><trkpt lat="44.9981909007505" lon="8.46949573270236"><ele>256.5</ele><time>2026-04-04T08:26:42.999Z</time></trkpt><trkpt lat="44.9980797827425" lon="8.469604363076659"><ele>259.25</ele><time>2026-04-04T08:26:43.999Z</time></trkpt><trkpt lat="44.99798478675158" lon="8.469723692041963"><ele>262.0</ele><time>2026-04-04T08:26:44.999Z</time></trkpt><trkpt lat="44.99788374796963" lon="8.469850612168276"><ele>263.3333333333333</ele><time>2026-04-04T08:26:45.999Z</time></trkpt><trkpt lat="44.99776217984258" lon="8.47000331991509"><ele>264.6666666666667</ele><time>2026-04-04T08:26:46.999Z</time></trkpt><trkpt lat="44.99764664380191" lon="8.470149030116058"><ele>266.0</ele><time>2026-04-04T08:26:47.999Z</time></trkpt><trkpt lat="44.99753071735552" lon="8.47029578525239"><ele>263.6666666666667</ele><time>2026-04-04T08:26:48.999Z</time></trkpt><trkpt lat="44.99741493830732" lon="8.470442353396061"><ele>261.3333333333333</ele><time>2026-04-04T08:26:49.999Z</time></trkpt><trkpt lat="44.99729383613577" lon="8.47059867670883"><ele>259.0</ele><time>2026-04-04T08:26:50.999Z</time></trkpt><trkpt lat="44.99718241207933" lon="8.47074299832868"><ele>259.0</ele><time>2026-04-04T08:26:51.999Z</time></trkpt><trkpt lat="44.99707390681883" lon="8.470883539325484"><ele>259.0</ele><time>2026-04-04T08:26:52.999Z</time></trkpt><trkpt lat="44.9969622627945" lon="8.47102915842837"><ele>259.0</ele><time>2026-04-04T08:26:53.999Z</time></trkpt><trkpt lat="44.996850644562116" lon="8.471175058690354"><ele>258.0</ele><time>2026-04-04T08:26:54.999Z</time></trkpt><trkpt lat="44.99674491699257" lon="8.47131684975416"><ele>257.0</ele><time>2026-04-04T08:26:55.999Z</time></trkpt><trkpt lat="44.99664301802861" lon="8.47147051299329"><ele>256.0</ele><time>2026-04-04T08:26:56.999Z</time></trkpt><trkpt lat="44.99655030163623" lon="8.471660081959616"><ele>256.0</ele><time>2026-04-04T08:26:57.999Z</time></trkpt><trkpt lat="44.996448063147895" lon="8.471837128200336"><ele>256.0</ele><time>2026-04-04T08:26:58.999Z</time></trkpt><trkpt lat="44.99634246441601" lon="8.47199508153996"><ele>256.0</ele><time>2026-04-04T08:26:59.999Z</time></trkpt><trkpt lat="44.99625719718764" lon="8.47214888880441"><ele>253.5</ele><time>2026-04-04T08:27:00.999Z</time></trkpt><trkpt lat="44.99618458198515" lon="8.47229138249984"><ele>251.0</ele><time>2026-04-04T08:27:01.999Z</time></trkpt><trkpt lat="44.99612434862117" lon="8.472440874795192"><ele>248.5</ele><time>2026-04-04T08:27:02.999Z</time></trkpt><trkpt lat="44.99610919779874" lon="8.472633475253717"><ele>246.0</ele><time>2026-04-04T08:27:03.999Z</time></trkpt><trkpt lat="44.99610162104506" lon="8.472839168918444"><ele>246.0</ele><time>2026-04-04T08:27:04.999Z</time></trkpt><trkpt lat="44.996107715612574" lon="8.473078701576329"><ele>246.0</ele><time>2026-04-04T08:27:05.999Z</time></trkpt><trkpt lat="44.99611134793274" lon="8.473333715316365"><ele>246.0</ele><time>2026-04-04T08:27:06.999Z</time></trkpt><trkpt lat="44.996107094618985" lon="8.47354736558303"><ele>246.0</ele><time>2026-04-04T08:27:07.999Z</time></trkpt><trkpt lat="44.99608111422173" lon="8.47371918230948"><ele>246.0</ele><time>2026-04-04T08:27:08.999Z</time></trkpt><trkpt lat="44.996082401245125" lon="8.473889023331393"><ele>246.0</ele><time>2026-04-04T08:27:09.999Z</time></trkpt><trkpt lat="44.99605966725676" lon="8.474071600976577"><ele>246.0</ele><time>2026-04-04T08:27:10.999Z</time></trkpt><trkpt lat="44.99603983654334" lon="8.474246588780796"><ele>246.25</ele><time>2026-04-04T08:27:11.999Z</time></trkpt><trkpt lat="44.996003766383254" lon="8.47441773704946"><ele>246.5</ele><time>2026-04-04T08:27:12.999Z</time></trkpt><trkpt lat="44.996004567432415" lon="8.474601170745776"><ele>246.75</ele><time>2026-04-04T08:27:13.999Z</time></trkpt><trkpt lat="44.99598890744012" lon="8.474789142167728"><ele>247.0</ele><time>2026-04-04T08:27:14.999Z</time></trkpt><trkpt lat="44.995970824969646" lon="8.474975493239473"><ele>247.0</ele><time>2026-04-04T08:27:15.999Z</time></trkpt><trkpt lat="44.99596153305877" lon="8.475161395447047"><ele>247.0</ele><time>2026-04-04T08:27:16.999Z</time></trkpt><trkpt lat="44.995947119989594" lon="8.475337108736015"><ele>247.0</ele><time>2026-04-04T08:27:17.999Z</time></trkpt><trkpt lat="44.99593933210964" lon="8.475503754938453"><ele>247.0</ele><time>2026-04-04T08:27:18.999Z</time></trkpt><trkpt lat="44.995945247010305" lon="8.475664522277818"><ele>246.25</ele><time>2026-04-04T08:27:19.999Z</time></trkpt><trkpt lat="44.99596580748525" lon="8.475832842253533"><ele>245.5</ele><time>2026-04-04T08:27:20.999Z</time></trkpt><trkpt lat="44.9960130820195" lon="8.476009209178239"><ele>244.75</ele><time>2026-04-04T08:27:21.999Z</time></trkpt><trkpt lat="44.99608630064312" lon="8.476182012234148"><ele>244.0</ele><time>2026-04-04T08:27:22.999Z</time></trkpt><trkpt lat="44.996176363084906" lon="8.476337953850349"><ele>246.0</ele><time>2026-04-04T08:27:23.999Z</time></trkpt><trkpt lat="44.99625902531297" lon="8.476487221271828"><ele>248.0</ele><time>2026-04-04T08:27:24.999Z</time></trkpt><trkpt lat="44.996329734416456" lon="8.476636547609953"><ele>250.0</ele><time>2026-04-04T08:27:25.999Z</time></trkpt><trkpt lat="44.99640124364935" lon="8.476799156185878"><ele>252.0</ele><time>2026-04-04T08:27:26.999Z</time></trkpt><trkpt lat="44.996458316048276" lon="8.476970831761195"><ele>252.75</ele><time>2026-04-04T08:27:27.999Z</time></trkpt><trkpt lat="44.99647666494243" lon="8.477159924278402"><ele>253.5</ele><time>2026-04-04T08:27:28.999Z</time></trkpt><trkpt lat="44.99649518614158" lon="8.477345258699183"><ele>254.25</ele><time>2026-04-04T08:27:29.999Z</time></trkpt><trkpt lat="44.99652200155376" lon="8.477526995872374"><ele>255.0</ele><time>2026-04-04T08:27:30.999Z</time></trkpt><trkpt lat="44.996526172640856" lon="8.47769878839414"><ele>255.0</ele><time>2026-04-04T08:27:31.999Z</time></trkpt><trkpt lat="44.996539485673935" lon="8.477877099245811"><ele>255.0</ele><time>2026-04-04T08:27:32.999Z</time></trkpt><trkpt lat="44.996554573141395" lon="8.478067420306534"><ele>255.0</ele><time>2026-04-04T08:27:33.999Z</time></trkpt><trkpt lat="44.996570089166" lon="8.478264929817897"><ele>255.0</ele><time>2026-04-04T08:27:34.999Z</time></trkpt><trkpt lat="44.99658832009507" lon="8.478466259758951"><ele>255.25</ele><time>2026-04-04T08:27:35.999Z</time></trkpt><trkpt lat="44.996602492440026" lon="8.478670923319813"><ele>255.5</ele><time>2026-04-04T08:27:36.999Z</time></trkpt><trkpt lat="44.99661843502025" lon="8.478860080995693"><ele>255.75</ele><time>2026-04-04T08:27:37.999Z</time></trkpt><trkpt lat="44.99663367758955" lon="8.479054450142991"><ele>256.0</ele><time>2026-04-04T08:27:38.999Z</time></trkpt><trkpt lat="44.99664903970425" lon="8.47924186722201"><ele>257.0</ele><time>2026-04-04T08:27:39.999Z</time></trkpt><trkpt lat="44.99666475917565" lon="8.479423713007224"><ele>258.0</ele><time>2026-04-04T08:27:40.999Z</time></trkpt><trkpt lat="44.99664859251766" lon="8.479613000567616"><ele>259.0</ele><time>2026-04-04T08:27:41.999Z</time></trkpt><trkpt lat="44.99663755144107" lon="8.479794021528704"><ele>260.0</ele><time>2026-04-04T08:27:42.999Z</time></trkpt><trkpt lat="44.996614099099055" lon="8.479979150373387"><ele>261.25</ele><time>2026-04-04T08:27:43.999Z</time></trkpt><trkpt lat="44.99658988526971" lon="8.48015461891745"><ele>262.5</ele><time>2026-04-04T08:27:44.999Z</time></trkpt><trkpt lat="44.996569955300494" lon="8.48034877939055"><ele>263.75</ele><time>2026-04-04T08:27:45.998Z</time></trkpt><trkpt lat="44.996551129159315" lon="8.48051907663385"><ele>265.0</ele><time>2026-04-04T08:27:46.998Z</time></trkpt><trkpt lat="44.996526748579555" lon="8.48070158368741"><ele>266.75</ele><time>2026-04-04T08:27:48Z</time></trkpt><trkpt lat="44.996510083443475" lon="8.480868663746929"><ele>268.5</ele><time>2026-04-04T08:27:49Z</time></trkpt><trkpt lat="44.99648794850887" lon="8.481026770522535"><ele>270.25</ele><time>2026-04-04T08:27:50Z</time></trkpt><trkpt lat="44.996472348664284" lon="8.481178538515282"><ele>272.0</ele><time>2026-04-04T08:27:51Z</time></trkpt><trkpt lat="44.996457066194004" lon="8.481334357779183"><ele>272.8</ele><time>2026-04-04T08:27:52Z</time></trkpt><trkpt lat="44.99643324274452" lon="8.481477496952516"><ele>273.6</ele><time>2026-04-04T08:27:53Z</time></trkpt><trkpt lat="44.99642825039456" lon="8.481625819912667"><ele>274.40000000000003</ele><time>2026-04-04T08:27:54Z</time></trkpt><trkpt lat="44.996441848223455" lon="8.481765232118649"><ele>275.2</ele><time>2026-04-04T08:27:55Z</time></trkpt><trkpt lat="44.996451003850524" lon="8.481908519655484"><ele>276.0</ele><time>2026-04-04T08:27:56Z</time></trkpt><trkpt lat="44.99647265009119" lon="8.482072746814517"><ele>276.8</ele><time>2026-04-04T08:27:57Z</time></trkpt><trkpt lat="44.996515152360054" lon="8.482249622854942"><ele>277.6</ele><time>2026-04-04T08:27:58Z</time></trkpt><trkpt lat="44.99657327273581" lon="8.482394469246113"><ele>278.4</ele><time>2026-04-04T08:27:59Z</time></trkpt><trkpt lat="44.9966328671048" lon="8.482507474770607"><ele>279.2</ele><time>2026-04-04T08:28:00Z</time></trkpt><trkpt lat="44.996699641102765" lon="8.482606332989148"><ele>280.0</ele><time>2026-04-04T08:28:01Z</time></trkpt><trkpt lat="44.99676379975181" lon="8.482696754754294"><ele>279.0</ele><time>2026-04-04T08:28:02Z</time></trkpt><trkpt lat="44.99683892080541" lon="8.482768762578443"><ele>278.0</ele><time>2026-04-04T08:28:03Z</time></trkpt><trkpt lat="44.99690865200945" lon="8.482841671232526"><ele>277.0</ele><time>2026-04-04T08:28:04Z</time></trkpt><trkpt lat="44.99698324551515" lon="8.482893617849365"><ele>276.0</ele><time>2026-04-04T08:28:05Z</time></trkpt><trkpt lat="44.99705245216723" lon="8.482949357078436"><ele>275.0</ele><time>2026-04-04T08:28:06Z</time></trkpt><trkpt lat="44.997121407479256" lon="8.483010112942818"><ele>274.0</ele><time>2026-04-04T08:28:07Z</time></trkpt><trkpt lat="44.997199814589436" lon="8.483072516594495"><ele>274.0</ele><time>2026-04-04T08:28:08Z</time></trkpt><trkpt lat="44.997267189796986" lon="8.483137599058747"><ele>274.0</ele><time>2026-04-04T08:28:09Z</time></trkpt><trkpt lat="44.997332748837614" lon="8.483191784272126"><ele>274.0</ele><time>2026-04-04T08:28:10Z</time></trkpt><trkpt lat="44.997408643973394" lon="8.483250164138077"><ele>274.0</ele><time>2026-04-04T08:28:11Z</time></trkpt><trkpt lat="44.99748807104592" lon="8.483318750479693"><ele>274.0</ele><time>2026-04-04T08:28:12Z</time></trkpt><trkpt lat="44.99756472561671" lon="8.483383981288315"><ele>274.0</ele><time>2026-04-04T08:28:13Z</time></trkpt><trkpt lat="44.99764570271462" lon="8.483448520010922"><ele>273.66666666666663</ele><time>2026-04-04T08:28:14Z</time></trkpt><trkpt lat="44.997730385107396" lon="8.483514429123309"><ele>273.3333333333333</ele><time>2026-04-04T08:28:15Z</time></trkpt><trkpt lat="44.99780433333571" lon="8.48358561316897"><ele>273.0</ele><time>2026-04-04T08:28:16Z</time></trkpt><trkpt lat="44.9978723202601" lon="8.48364869713404"><ele>272.6666666666667</ele><time>2026-04-04T08:28:17Z</time></trkpt><trkpt lat="44.997946700306485" lon="8.483698358660098"><ele>272.33333333333337</ele><time>2026-04-04T08:28:18Z</time></trkpt><trkpt lat="44.99801254245881" lon="8.483754869992708"><ele>272.0</ele><time>2026-04-04T08:28:19Z</time></trkpt><trkpt lat="44.998086325392414" lon="8.483792869947212"><ele>272.0</ele><time>2026-04-04T08:28:20Z</time></trkpt><trkpt lat="44.998153830835534" lon="8.483821637513094"><ele>272.0</ele><time>2026-04-04T08:28:21Z</time></trkpt><trkpt lat="44.99822471132486" lon="8.483824118245984"><ele>272.0</ele><time>2026-04-04T08:28:22Z</time></trkpt><trkpt lat="44.998331805328824" lon="8.483833165446903"><ele>272.0</ele><time>2026-04-04T08:28:24Z</time></trkpt><trkpt lat="44.99839203504356" lon="8.483907670069122"><ele>272.0</ele><time>2026-04-04T08:28:27Z</time></trkpt><trkpt lat="44.998460351512705" lon="8.484027020205653"><ele>272.0</ele><time>2026-04-04T08:28:29Z</time></trkpt><trkpt lat="44.99852909878714" lon="8.484093968073696"><ele>273.4</ele><time>2026-04-04T08:28:30Z</time></trkpt><trkpt lat="44.998610684564234" lon="8.484155043766911"><ele>274.79999999999995</ele><time>2026-04-04T08:28:31Z</time></trkpt><trkpt lat="44.99869129525566" lon="8.484230904380142"><ele>276.2</ele><time>2026-04-04T08:28:31.999Z</time></trkpt><trkpt lat="44.99878067166385" lon="8.484300723544811"><ele>277.59999999999997</ele><time>2026-04-04T08:28:32.999Z</time></trkpt><trkpt lat="44.99887912859244" lon="8.484369354260497"><ele>279.0</ele><time>2026-04-04T08:28:33.999Z</time></trkpt><trkpt lat="44.998967373760095" lon="8.484434659671905"><ele>279.0</ele><time>2026-04-04T08:28:34.999Z</time></trkpt><trkpt lat="44.999043735256656" lon="8.484479656841946"><ele>279.0</ele><time>2026-04-04T08:28:35.999Z</time></trkpt><trkpt lat="44.99913558749313" lon="8.484482919064908"><ele>279.0</ele><time>2026-04-04T08:28:36.999Z</time></trkpt><trkpt lat="44.999250924057044" lon="8.484450060116322"><ele>279.0</ele><time>2026-04-04T08:28:37.999Z</time></trkpt><trkpt lat="44.99936860250326" lon="8.484411929124187"><ele>279.0</ele><time>2026-04-04T08:28:38.999Z</time></trkpt><trkpt lat="44.99949071098859" lon="8.484389939393493"><ele>278.4</ele><time>2026-04-04T08:28:39.999Z</time></trkpt><trkpt lat="44.99960515363748" lon="8.48436296493097"><ele>277.79999999999995</ele><time>2026-04-04T08:28:40.999Z</time></trkpt><trkpt lat="44.99970979077141" lon="8.484337625545233"><ele>277.20000000000005</ele><time>2026-04-04T08:28:41.999Z</time></trkpt><trkpt lat="44.999817748427276" lon="8.484296807660451"><ele>276.6</ele><time>2026-04-04T08:28:42.999Z</time></trkpt><trkpt lat="44.99991766648213" lon="8.484256610573873"><ele>276.0</ele><time>2026-04-04T08:28:43.999Z</time></trkpt><trkpt lat="45.00001491333206" lon="8.48421884533612"><ele>276.0</ele><time>2026-04-04T08:28:44.999Z</time></trkpt><trkpt lat="45.00011403346947" lon="8.484201966432074"><ele>276.0</ele><time>2026-04-04T08:28:45.999Z</time></trkpt><trkpt lat="45.00020253670232" lon="8.48421683006458"><ele>276.0</ele><time>2026-04-04T08:28:46.999Z</time></trkpt><trkpt lat="45.00030140509905" lon="8.484248491707078"><ele>276.0</ele><time>2026-04-04T08:28:47.999Z</time></trkpt><trkpt lat="45.00040507433704" lon="8.48430651569961"><ele>276.0</ele><time>2026-04-04T08:28:48.999Z</time></trkpt><trkpt lat="45.0004898457022" lon="8.484405653962428"><ele>276.0</ele><time>2026-04-04T08:28:49.999Z</time></trkpt><trkpt lat="45.00055991920283" lon="8.484519686727356"><ele>276.0</ele><time>2026-04-04T08:28:50.999Z</time></trkpt><trkpt lat="45.000626603735704" lon="8.484655940191372"><ele>276.0</ele><time>2026-04-04T08:28:51.999Z</time></trkpt><trkpt lat="45.000697570891305" lon="8.48479998933258"><ele>276.0</ele><time>2026-04-04T08:28:52.999Z</time></trkpt><trkpt lat="45.000751303499804" lon="8.484947971371431"><ele>275.0</ele><time>2026-04-04T08:28:53.999Z</time></trkpt><trkpt lat="45.00082676633293" lon="8.48506834156382"><ele>274.0</ele><time>2026-04-04T08:28:54.999Z</time></trkpt><trkpt lat="45.00087378540235" lon="8.485214327126808"><ele>273.0</ele><time>2026-04-04T08:28:55.999Z</time></trkpt><trkpt lat="45.00094612837471" lon="8.485337848362816"><ele>272.0</ele><time>2026-04-04T08:28:56.999Z</time></trkpt><trkpt lat="45.00100553703498" lon="8.485465782104095"><ele>271.0</ele><time>2026-04-04T08:28:57.999Z</time></trkpt><trkpt lat="45.00105213155756" lon="8.485610516766178"><ele>268.6</ele><time>2026-04-04T08:28:58.999Z</time></trkpt><trkpt lat="45.00111042814714" lon="8.485738074455368"><ele>266.20000000000005</ele><time>2026-04-04T08:28:59.999Z</time></trkpt><trkpt lat="45.00116965047082" lon="8.485867657904002"><ele>263.79999999999995</ele><time>2026-04-04T08:29:00.999Z</time></trkpt><trkpt lat="45.00122747688821" lon="8.485994187257958"><ele>261.4</ele><time>2026-04-04T08:29:01.999Z</time></trkpt><trkpt lat="45.00128610459052" lon="8.48610538231752"><ele>259.0</ele><time>2026-04-04T08:29:02.999Z</time></trkpt><trkpt lat="45.0013422386708" lon="8.486220313924376"><ele>257.0</ele><time>2026-04-04T08:29:03.999Z</time></trkpt><trkpt lat="45.00138707706288" lon="8.486329812715855"><ele>254.99999999999997</ele><time>2026-04-04T08:29:04.999Z</time></trkpt><trkpt lat="45.00144203163098" lon="8.48643664659318"><ele>252.99999999999997</ele><time>2026-04-04T08:29:05.999Z</time></trkpt><trkpt lat="45.001497336689816" lon="8.486549695826955"><ele>251.0</ele><time>2026-04-04T08:29:06.999Z</time></trkpt><trkpt lat="45.00156180632614" lon="8.486647177312326"><ele>249.0</ele><time>2026-04-04T08:29:07.999Z</time></trkpt><trkpt lat="45.00164045093897" lon="8.486745121478153"><ele>249.0</ele><time>2026-04-04T08:29:08.999Z</time></trkpt><trkpt lat="45.00174327657414" lon="8.486837541418234"><ele>248.99999999999997</ele><time>2026-04-04T08:29:09.999Z</time></trkpt><trkpt lat="45.00184418693258" lon="8.486907298752293"><ele>248.99999999999997</ele><time>2026-04-04T08:29:10.999Z</time></trkpt><trkpt lat="45.00193679547307" lon="8.486973256115201"><ele>249.0</ele><time>2026-04-04T08:29:11.999Z</time></trkpt><trkpt lat="45.00202852466278" lon="8.487041544617693"><ele>249.0</ele><time>2026-04-04T08:29:12.999Z</time></trkpt><trkpt lat="45.0021140718882" lon="8.487104543909384"><ele>249.0</ele><time>2026-04-04T08:29:13.999Z</time></trkpt><trkpt lat="45.0022053840628" lon="8.487162727369114"><ele>249.0</ele><time>2026-04-04T08:29:14.999Z</time></trkpt><trkpt lat="45.002279531763435" lon="8.487228042027025"><ele>249.0</ele><time>2026-04-04T08:29:15.999Z</time></trkpt><trkpt lat="45.00234272011389" lon="8.487275380475111"><ele>249.0</ele><time>2026-04-04T08:29:16.999Z</time></trkpt><trkpt lat="45.002411756459246" lon="8.487337816336426"><ele>249.0</ele><time>2026-04-04T08:29:19.999Z</time></trkpt><trkpt lat="45.002493497502705" lon="8.48737978003622"><ele>249.0</ele><time>2026-04-04T08:29:21.999Z</time></trkpt><trkpt lat="45.00258685274208" lon="8.487443058434925"><ele>251.16666666666666</ele><time>2026-04-04T08:29:23.999Z</time></trkpt><trkpt lat="45.00268229283519" lon="8.487512657815273"><ele>253.33333333333331</ele><time>2026-04-04T08:29:25.999Z</time></trkpt><trkpt lat="45.002753129508" lon="8.487539920629436"><ele>255.5</ele><time>2026-04-04T08:29:27.999Z</time></trkpt><trkpt lat="45.00282326761161" lon="8.487545603606156"><ele>257.66666666666663</ele><time>2026-04-04T08:29:30.999Z</time></trkpt><trkpt lat="45.002900892192706" lon="8.487524783067542"><ele>259.8333333333333</ele><time>2026-04-04T08:29:34.999Z</time></trkpt><trkpt lat="45.002883767349545" lon="8.48765760429134"><ele>262.0</ele><time>2026-04-04T08:29:36.999Z</time></trkpt><trkpt lat="45.00292487745944" lon="8.48789696267889"><ele>260.0</ele><time>2026-04-04T08:29:38.999Z</time></trkpt><trkpt lat="45.002949136069" lon="8.488076937273384"><ele>258.0</ele><time>2026-04-04T08:29:39.999Z</time></trkpt><trkpt lat="45.00298022035017" lon="8.488255278522038"><ele>256.0</ele><time>2026-04-04T08:29:40.999Z</time></trkpt><trkpt lat="45.00302938776857" lon="8.488442118226777"><ele>254.0</ele><time>2026-04-04T08:29:41.999Z</time></trkpt><trkpt lat="45.003061618492985" lon="8.488637095578826"><ele>252.5</ele><time>2026-04-04T08:29:42.999Z</time></trkpt><trkpt lat="45.003105985636175" lon="8.488836281500818"><ele>251.0</ele><time>2026-04-04T08:29:43.999Z</time></trkpt><trkpt lat="45.003144201811004" lon="8.489031772320315"><ele>249.5</ele><time>2026-04-04T08:29:44.999Z</time></trkpt><trkpt lat="45.003183787297395" lon="8.489222581654705"><ele>248.0</ele><time>2026-04-04T08:29:45.999Z</time></trkpt><trkpt lat="45.003227127344495" lon="8.48941607979108"><ele>246.75</ele><time>2026-04-04T08:29:46.999Z</time></trkpt><trkpt lat="45.00327300663932" lon="8.489610869597218"><ele>245.5</ele><time>2026-04-04T08:29:47.999Z</time></trkpt><trkpt lat="45.003337648116" lon="8.489796717640703"><ele>244.25</ele><time>2026-04-04T08:29:48.999Z</time></trkpt><trkpt lat="45.00342131192418" lon="8.489977029749769"><ele>243.0</ele><time>2026-04-04T08:29:49.999Z</time></trkpt><trkpt lat="45.00349793661561" lon="8.490155553842113"><ele>247.66666666666669</ele><time>2026-04-04T08:29:50.999Z</time></trkpt><trkpt lat="45.00356357670904" lon="8.490348708450059"><ele>252.33333333333334</ele><time>2026-04-04T08:29:51.999Z</time></trkpt><trkpt lat="45.003621224909935" lon="8.490554393823578"><ele>257.0</ele><time>2026-04-04T08:29:52.999Z</time></trkpt><trkpt lat="45.0036701173642" lon="8.490770500166587"><ele>257.0</ele><time>2026-04-04T08:29:54Z</time></trkpt><trkpt lat="45.00371639101879" lon="8.490990871879355"><ele>257.0</ele><time>2026-04-04T08:29:55Z</time></trkpt><trkpt lat="45.00375264375545" lon="8.491204684201149"><ele>257.0</ele><time>2026-04-04T08:29:56Z</time></trkpt><trkpt lat="45.003779374626106" lon="8.491410469787546"><ele>257.0</ele><time>2026-04-04T08:29:57Z</time></trkpt><trkpt lat="45.003780553793106" lon="8.491624121089693"><ele>257.0</ele><time>2026-04-04T08:29:58Z</time></trkpt><trkpt lat="45.00377076877446" lon="8.491797477206873"><ele>257.0</ele><time>2026-04-04T08:29:59Z</time></trkpt><trkpt lat="45.00375384927605" lon="8.491970060861656"><ele>257.0</ele><time>2026-04-04T08:30:00Z</time></trkpt><trkpt lat="45.00373282842072" lon="8.492132515148095"><ele>257.83333333333337</ele><time>2026-04-04T08:30:01Z</time></trkpt><trkpt lat="45.00370836658253" lon="8.492286543058931"><ele>258.6666666666667</ele><time>2026-04-04T08:30:02Z</time></trkpt><trkpt lat="45.00368929857773" lon="8.492432612604407"><ele>259.5</ele><time>2026-04-04T08:30:03Z</time></trkpt><trkpt lat="45.00367832967072" lon="8.492551679071841"><ele>260.3333333333333</ele><time>2026-04-04T08:30:04Z</time></trkpt><trkpt lat="45.00365138728055" lon="8.49264905465009"><ele>261.16666666666663</ele><time>2026-04-04T08:30:05Z</time></trkpt><trkpt lat="45.0036561457976" lon="8.492743669125918"><ele>262.0</ele><time>2026-04-04T08:30:06Z</time></trkpt><trkpt lat="45.00354607963488" lon="8.492918065363916"><ele>261.8333333333333</ele><time>2026-04-04T08:30:08Z</time></trkpt><trkpt lat="45.00350755540404" lon="8.493015278009572"><ele>261.66666666666663</ele><time>2026-04-04T08:30:09Z</time></trkpt><trkpt lat="45.00346489083332" lon="8.493138142188698"><ele>261.5</ele><time>2026-04-04T08:30:10Z</time></trkpt><trkpt lat="45.003438549038634" lon="8.493219354604419"><ele>261.3333333333333</ele><time>2026-04-04T08:30:11Z</time></trkpt><trkpt lat="45.003434957656125" lon="8.493308704850504"><ele>261.1666666666667</ele><time>2026-04-04T08:30:12Z</time></trkpt><trkpt lat="45.003474766604285" lon="8.493478866216703"><ele>261.0</ele><time>2026-04-04T08:30:14Z</time></trkpt><trkpt lat="45.00351941872486" lon="8.493564991788064"><ele>261.0</ele><time>2026-04-04T08:30:15Z</time></trkpt><trkpt lat="45.00357065993545" lon="8.493633370689455"><ele>261.0</ele><time>2026-04-04T08:30:16Z</time></trkpt><trkpt lat="45.00363262916244" lon="8.493699469932176"><ele>261.0</ele><time>2026-04-04T08:30:17Z</time></trkpt><trkpt lat="45.003698838967935" lon="8.493754247458485"><ele>261.0</ele><time>2026-04-04T08:30:18Z</time></trkpt><trkpt lat="45.00377039099454" lon="8.493792747942807"><ele>261.0</ele><time>2026-04-04T08:30:19Z</time></trkpt><trkpt lat="45.0038500434117" lon="8.49381134466018"><ele>261.0</ele><time>2026-04-04T08:30:20Z</time></trkpt><trkpt lat="45.003929179685926" lon="8.493838468237117"><ele>259.5</ele><time>2026-04-04T08:30:21Z</time></trkpt><trkpt lat="45.00399296550978" lon="8.49389627629998"><ele>258.0</ele><time>2026-04-04T08:30:22Z</time></trkpt><trkpt lat="45.00402229867053" lon="8.493994881492702"><ele>256.5</ele><time>2026-04-04T08:30:23Z</time></trkpt><trkpt lat="45.00403890294981" lon="8.494180528146707"><ele>255.0</ele><time>2026-04-04T08:30:25Z</time></trkpt><trkpt lat="45.0040670350879" lon="8.494285879918047"><ele>253.5</ele><time>2026-04-04T08:30:26Z</time></trkpt><trkpt lat="45.00408432698063" lon="8.494398679766636"><ele>252.0</ele><time>2026-04-04T08:30:27Z</time></trkpt><trkpt lat="45.00409848291886" lon="8.494513770478676"><ele>249.83333333333334</ele><time>2026-04-04T08:30:28Z</time></trkpt><trkpt lat="45.004120548797786" lon="8.494626337091766"><ele>247.66666666666669</ele><time>2026-04-04T08:30:29Z</time></trkpt><trkpt lat="45.00415899939589" lon="8.494699260601955"><ele>245.5</ele><time>2026-04-04T08:30:30Z</time></trkpt><trkpt lat="45.00423295994911" lon="8.49476685964665"><ele>243.33333333333334</ele><time>2026-04-04T08:30:32Z</time></trkpt><trkpt lat="45.00429665950122" lon="8.494822051431305"><ele>241.16666666666669</ele><time>2026-04-04T08:30:34.999Z</time></trkpt><trkpt lat="45.004410782469705" lon="8.494878866411314"><ele>239.0</ele><time>2026-04-04T08:31:04.999Z</time></trkpt><trkpt lat="45.0044906677255" lon="8.494934234620235"><ele>239.00000000000003</ele><time>2026-04-04T08:31:05.999Z</time></trkpt><trkpt lat="45.00456604922028" lon="8.495040036789074"><ele>239.0</ele><time>2026-04-04T08:31:06.999Z</time></trkpt><trkpt lat="45.00463021694149" lon="8.495136609541355"><ele>239.0</ele><time>2026-04-04T08:31:07.999Z</time></trkpt><trkpt lat="45.004678447186016" lon="8.49523378013685"><ele>239.0</ele><time>2026-04-04T08:31:08.999Z</time></trkpt><trkpt lat="45.00470623859331" lon="8.495341059219244"><ele>239.00000000000003</ele><time>2026-04-04T08:31:09.999Z</time></trkpt><trkpt lat="45.00471383572361" lon="8.49545839482684"><ele>239.0</ele><time>2026-04-04T08:31:10.999Z</time></trkpt><trkpt lat="45.00471375370331" lon="8.495583031686856"><ele>237.0</ele><time>2026-04-04T08:31:11.999Z</time></trkpt><trkpt lat="45.00469166281265" lon="8.495760343839308"><ele>234.99999999999997</ele><time>2026-04-04T08:31:12.999Z</time></trkpt><trkpt lat="45.0046617731837" lon="8.49592684212986"><ele>232.99999999999997</ele><time>2026-04-04T08:31:13.999Z</time></trkpt><trkpt lat="45.004630491330744" lon="8.496058255490622"><ele>231.0</ele><time>2026-04-04T08:31:14.999Z</time></trkpt><trkpt lat="45.004592601929794" lon="8.496183805552935"><ele>229.0</ele><time>2026-04-04T08:31:15.999Z</time></trkpt><trkpt lat="45.00455316040884" lon="8.496311136400722"><ele>227.0</ele><time>2026-04-04T08:31:16.999Z</time></trkpt><trkpt lat="45.004508652627194" lon="8.496448509962558"><ele>225.0</ele><time>2026-04-04T08:31:17.999Z</time></trkpt><trkpt lat="45.00447231230381" lon="8.496589372520205"><ele>223.0</ele><time>2026-04-04T08:31:18.999Z</time></trkpt><trkpt lat="45.00444764622166" lon="8.496762800784852"><ele>221.0</ele><time>2026-04-04T08:31:19.999Z</time></trkpt><trkpt lat="45.004444336912066" lon="8.496994196574787"><ele>219.25</ele><time>2026-04-04T08:31:20.999Z</time></trkpt><trkpt lat="45.00441392314587" lon="8.497199598490823"><ele>217.5</ele><time>2026-04-04T08:31:21.999Z</time></trkpt><trkpt lat="45.00440223774005" lon="8.497379244841454"><ele>215.75</ele><time>2026-04-04T08:31:22.999Z</time></trkpt><trkpt lat="45.00439395589841" lon="8.49752788203477"><ele>214.0</ele><time>2026-04-04T08:31:23.999Z</time></trkpt><trkpt lat="45.00438928730482" lon="8.49765604979791"><ele>214.0</ele><time>2026-04-04T08:31:24.999Z</time></trkpt><trkpt lat="45.004383738787894" lon="8.497818805867748"><ele>214.0</ele><time>2026-04-04T08:31:25.999Z</time></trkpt><trkpt lat="45.004378890437664" lon="8.497988819217131"><ele>214.0</ele><time>2026-04-04T08:31:26.999Z</time></trkpt><trkpt lat="45.00437508989787" lon="8.498153756193787"><ele>214.0</ele><time>2026-04-04T08:31:27.999Z</time></trkpt><trkpt lat="45.00437146366034" lon="8.498311129214557"><ele>213.0</ele><time>2026-04-04T08:31:28.999Z</time></trkpt><trkpt lat="45.00436791915686" lon="8.498458906599451"><ele>211.99999999999997</ele><time>2026-04-04T08:31:29.999Z</time></trkpt><trkpt lat="45.00436395402963" lon="8.498593846177613"><ele>211.0</ele><time>2026-04-04T08:31:30.999Z</time></trkpt><trkpt lat="45.00436021646724" lon="8.498721041202696"><ele>210.0</ele><time>2026-04-04T08:31:31.999Z</time></trkpt><trkpt lat="45.00435415617244" lon="8.498850094533262"><ele>209.0</ele><time>2026-04-04T08:31:32.999Z</time></trkpt><trkpt lat="45.004345296952415" lon="8.498974839079734"><ele>208.6</ele><time>2026-04-04T08:31:33.999Z</time></trkpt><trkpt lat="45.00432313341008" lon="8.499085443974339"><ele>208.2</ele><time>2026-04-04T08:31:34.999Z</time></trkpt><trkpt lat="45.00429605509269" lon="8.499178404195613"><ele>207.79999999999998</ele><time>2026-04-04T08:31:35.999Z</time></trkpt><trkpt lat="45.00426023579369" lon="8.49928210450189"><ele>207.39999999999998</ele><time>2026-04-04T08:31:36.999Z</time></trkpt><trkpt lat="45.004184580870806" lon="8.4994450920784"><ele>207.0</ele><time>2026-04-04T08:31:38.999Z</time></trkpt><trkpt lat="45.004137598198746" lon="8.499534485693415"><ele>205.66666666666666</ele><time>2026-04-04T08:31:39.999Z</time></trkpt><trkpt lat="45.00410041725095" lon="8.499607355072412"><ele>204.33333333333331</ele><time>2026-04-04T08:31:40.999Z</time></trkpt><trkpt lat="45.00405001931596" lon="8.49971195260291"><ele>203.0</ele><time>2026-04-04T08:31:41.999Z</time></trkpt><trkpt lat="45.00399702117433" lon="8.49982395735988"><ele>201.66666666666666</ele><time>2026-04-04T08:31:42.999Z</time></trkpt><trkpt lat="45.00394521125753" lon="8.499945242330519"><ele>200.33333333333331</ele><time>2026-04-04T08:31:43.999Z</time></trkpt><trkpt lat="45.00390255587755" lon="8.500057657157376"><ele>199.0</ele><time>2026-04-04T08:31:44.999Z</time></trkpt><trkpt lat="45.003864011680115" lon="8.500166585126621"><ele>199.0</ele><time>2026-04-04T08:31:45.999Z</time></trkpt><trkpt lat="45.00382594340563" lon="8.500277157080347"><ele>199.0</ele><time>2026-04-04T08:31:46.999Z</time></trkpt><trkpt lat="45.003796315628556" lon="8.500367917497355"><ele>199.0</ele><time>2026-04-04T08:31:47.999Z</time></trkpt><trkpt lat="45.00375360166263" lon="8.500507565573717"><ele>199.0</ele><time>2026-04-04T08:31:48.999Z</time></trkpt><trkpt lat="45.00370020405746" lon="8.50070343616673"><ele>199.0</ele><time>2026-04-04T08:31:49.999Z</time></trkpt><trkpt lat="45.00365033867073" lon="8.500912700944667"><ele>198.0</ele><time>2026-04-04T08:31:50.999Z</time></trkpt><trkpt lat="45.00362620653341" lon="8.501031444649895"><ele>197.0</ele><time>2026-04-04T08:31:52.999Z</time></trkpt><trkpt lat="45.00359840558528" lon="8.50119522275287"><ele>196.0</ele><time>2026-04-04T08:31:53.999Z</time></trkpt><trkpt lat="45.003579734324255" lon="8.501364962293893"><ele>195.0</ele><time>2026-04-04T08:31:54.998Z</time></trkpt><trkpt lat="45.00356459897878" lon="8.501537990529666"><ele>193.75</ele><time>2026-04-04T08:31:55.998Z</time></trkpt><trkpt lat="45.00354633117396" lon="8.501700213622604"><ele>192.5</ele><time>2026-04-04T08:31:56.998Z</time></trkpt><trkpt lat="45.00353022033958" lon="8.501856802686161"><ele>191.25</ele><time>2026-04-04T08:31:57.998Z</time></trkpt><trkpt lat="45.00351880298708" lon="8.502013278157595"><ele>190.0</ele><time>2026-04-04T08:31:58.998Z</time></trkpt><trkpt lat="45.00351154468954" lon="8.502185868517246"><ele>189.5</ele><time>2026-04-04T08:32:00Z</time></trkpt><trkpt lat="45.003516400066815" lon="8.502357090057723"><ele>189.0</ele><time>2026-04-04T08:32:01Z</time></trkpt><trkpt lat="45.003529982572765" lon="8.50252949740901"><ele>188.5</ele><time>2026-04-04T08:32:02Z</time></trkpt><trkpt lat="45.00354681759051" lon="8.50270736477125"><ele>188.0</ele><time>2026-04-04T08:32:03Z</time></trkpt><trkpt lat="45.00356194314217" lon="8.502889857688237"><ele>186.5</ele><time>2026-04-04T08:32:04Z</time></trkpt><trkpt lat="45.00357200081215" lon="8.503055320290175"><ele>185.0</ele><time>2026-04-04T08:32:05Z</time></trkpt><trkpt lat="45.003582317192794" lon="8.503226955371554"><ele>183.5</ele><time>2026-04-04T08:32:06Z</time></trkpt><trkpt lat="45.00359412869375" lon="8.50339189150855"><ele>182.0</ele><time>2026-04-04T08:32:07Z</time></trkpt><trkpt lat="45.00363189897916" lon="8.503562760120358"><ele>182.0</ele><time>2026-04-04T08:32:08Z</time></trkpt><trkpt lat="45.003649420741716" lon="8.503745850600943"><ele>182.0</ele><time>2026-04-04T08:32:09Z</time></trkpt><trkpt lat="45.00370660589948" lon="8.503925232571222"><ele>182.0</ele><time>2026-04-04T08:32:10Z</time></trkpt><trkpt lat="45.00375170097627" lon="8.504132310758237"><ele>182.0</ele><time>2026-04-04T08:32:11Z</time></trkpt><trkpt lat="45.00379654202166" lon="8.504305230505352"><ele>180.8</ele><time>2026-04-04T08:32:12Z</time></trkpt><trkpt lat="45.00383692659646" lon="8.504462281981493"><ele>179.6</ele><time>2026-04-04T08:32:13Z</time></trkpt><trkpt lat="45.00387937129941" lon="8.50459853276803"><ele>178.4</ele><time>2026-04-04T08:32:14Z</time></trkpt><trkpt lat="45.0038884748112" lon="8.504748540830487"><ele>177.20000000000002</ele><time>2026-04-04T08:32:15Z</time></trkpt><trkpt lat="45.00388994753395" lon="8.504879557521763"><ele>176.0</ele><time>2026-04-04T08:32:16Z</time></trkpt><trkpt lat="45.0038703690931" lon="8.505004542988154"><ele>175.75</ele><time>2026-04-04T08:32:17Z</time></trkpt><trkpt lat="45.003840810152866" lon="8.505135124250835"><ele>175.5</ele><time>2026-04-04T08:32:18Z</time></trkpt><trkpt lat="45.00379763554483" lon="8.50529764702002"><ele>175.25</ele><time>2026-04-04T08:32:19Z</time></trkpt><trkpt lat="45.00375128748353" lon="8.50546069232134"><ele>175.0</ele><time>2026-04-04T08:32:20Z</time></trkpt><trkpt lat="45.0037005579074" lon="8.505628011537464"><ele>176.0</ele><time>2026-04-04T08:32:21Z</time></trkpt><trkpt lat="45.00365167047073" lon="8.505795257391684"><ele>177.0</ele><time>2026-04-04T08:32:22Z</time></trkpt><trkpt lat="45.00360869951128" lon="8.505952800857234"><ele>178.0</ele><time>2026-04-04T08:32:23Z</time></trkpt><trkpt lat="45.00359161542931" lon="8.5061217371775"><ele>179.0</ele><time>2026-04-04T08:32:24Z</time></trkpt><trkpt lat="45.00356054758845" lon="8.50630039307852"><ele>180.75</ele><time>2026-04-04T08:32:25Z</time></trkpt><trkpt lat="45.003573087691116" lon="8.50650320774004"><ele>182.5</ele><time>2026-04-04T08:32:26Z</time></trkpt><trkpt lat="45.00359221531809" lon="8.506697163762581"><ele>184.25</ele><time>2026-04-04T08:32:27Z</time></trkpt><trkpt lat="45.00358984006545" lon="8.506881105144595"><ele>186.0</ele><time>2026-04-04T08:32:28Z</time></trkpt><trkpt lat="45.00358717921549" lon="8.507043348884437"><ele>189.66666666666669</ele><time>2026-04-04T08:32:29Z</time></trkpt><trkpt lat="45.00358283159401" lon="8.507281152815763"><ele>193.33333333333334</ele><time>2026-04-04T08:32:30Z</time></trkpt><trkpt lat="45.00357577693181" lon="8.50752772441402"><ele>197.0</ele><time>2026-04-04T08:32:31Z</time></trkpt><trkpt lat="45.003576445460666" lon="8.507724873708932"><ele>199.5</ele><time>2026-04-04T08:32:32Z</time></trkpt><trkpt lat="45.00356546580144" lon="8.5079122580664"><ele>202.0</ele><time>2026-04-04T08:32:33Z</time></trkpt><trkpt lat="45.00352975111536" lon="8.50811316350705"><ele>204.5</ele><time>2026-04-04T08:32:34Z</time></trkpt><trkpt lat="45.003500521604074" lon="8.508302111420857"><ele>207.0</ele><time>2026-04-04T08:32:35Z</time></trkpt><trkpt lat="45.0034729601031" lon="8.508472028314651"><ele>207.0</ele><time>2026-04-04T08:32:35.999Z</time></trkpt><trkpt lat="45.003438068231105" lon="8.508682569952828"><ele>207.0</ele><time>2026-04-04T08:32:36.999Z</time></trkpt><trkpt lat="45.0034130061926" lon="8.508822507598603"><ele>207.0</ele><time>2026-04-04T08:32:37.999Z</time></trkpt><trkpt lat="45.003389684030275" lon="8.508952729745742"><ele>207.0</ele><time>2026-04-04T08:32:38.999Z</time></trkpt><trkpt lat="45.00336849470106" lon="8.509063661032068"><ele>207.0</ele><time>2026-04-04T08:32:39.999Z</time></trkpt><trkpt lat="45.00336316475985" lon="8.50915856487422"><ele>207.5</ele><time>2026-04-04T08:32:41.999Z</time></trkpt><trkpt lat="45.00332891265736" lon="8.509258731772965"><ele>208.0</ele><time>2026-04-04T08:32:42.999Z</time></trkpt><trkpt lat="45.00330990560504" lon="8.509347296176642"><ele>208.5</ele><time>2026-04-04T08:32:45.999Z</time></trkpt><trkpt lat="45.003305071934676" lon="8.509440873925925"><ele>209.0</ele><time>2026-04-04T08:32:46.999Z</time></trkpt><trkpt lat="45.003296843625265" lon="8.509561662897854"><ele>209.5</ele><time>2026-04-04T08:32:47.999Z</time></trkpt><trkpt lat="45.00329272687925" lon="8.509718608904546"><ele>210.0</ele><time>2026-04-04T08:32:48.999Z</time></trkpt><trkpt lat="45.00329139252614" lon="8.509932129303916"><ele>210.0</ele><time>2026-04-04T08:32:49.999Z</time></trkpt><trkpt lat="45.00328990944151" lon="8.510208286148181"><ele>210.0</ele><time>2026-04-04T08:32:50.999Z</time></trkpt><trkpt lat="45.00328364383708" lon="8.510498482300354"><ele>210.0</ele><time>2026-04-04T08:32:51.999Z</time></trkpt><trkpt lat="45.00327827294436" lon="8.510769516739805"><ele>206.66666666666669</ele><time>2026-04-04T08:32:52.999Z</time></trkpt><trkpt lat="45.0032741732593" lon="8.510996117059163"><ele>203.33333333333334</ele><time>2026-04-04T08:32:53.999Z</time></trkpt><trkpt lat="45.003277068035544" lon="8.51120637619866"><ele>200.0</ele><time>2026-04-04T08:32:54.999Z</time></trkpt><trkpt lat="45.00331262184342" lon="8.511418066493093"><ele>200.33333333333334</ele><time>2026-04-04T08:32:55.999Z</time></trkpt><trkpt lat="45.003361047653506" lon="8.511661808941609"><ele>200.66666666666669</ele><time>2026-04-04T08:32:56.999Z</time></trkpt><trkpt lat="45.00338411938472" lon="8.511907338068868"><ele>201.0</ele><time>2026-04-04T08:32:57.999Z</time></trkpt><trkpt lat="45.00339769568303" lon="8.512105275917296"><ele>201.0</ele><time>2026-04-04T08:32:58.999Z</time></trkpt><trkpt lat="45.003412947823826" lon="8.512311911399589"><ele>201.0</ele><time>2026-04-04T08:32:59.999Z</time></trkpt><trkpt lat="45.00343044232639" lon="8.512509368607835"><ele>201.0</ele><time>2026-04-04T08:33:00.999Z</time></trkpt><trkpt lat="45.0034631509895" lon="8.512690718721622"><ele>201.0</ele><time>2026-04-04T08:33:01.999Z</time></trkpt><trkpt lat="45.00348240821854" lon="8.512860121427842"><ele>200.25</ele><time>2026-04-04T08:33:02.999Z</time></trkpt><trkpt lat="45.00351986844459" lon="8.51302471636649"><ele>199.5</ele><time>2026-04-04T08:33:03.999Z</time></trkpt><trkpt lat="45.00358753070679" lon="8.513191838305465"><ele>198.75</ele><time>2026-04-04T08:33:04.999Z</time></trkpt><trkpt lat="45.00370975842098" lon="8.513357607978726"><ele>198.0</ele><time>2026-04-04T08:33:05.999Z</time></trkpt><trkpt lat="45.0038300450557" lon="8.513522748221007"><ele>198.0</ele><time>2026-04-04T08:33:06.999Z</time></trkpt><trkpt lat="45.00392789468414" lon="8.513664349577077"><ele>198.0</ele><time>2026-04-04T08:33:07.999Z</time></trkpt><trkpt lat="45.0040239426532" lon="8.513814543888186"><ele>198.0</ele><time>2026-04-04T08:33:08.999Z</time></trkpt><trkpt lat="45.00410282302153" lon="8.513983467607716"><ele>198.0</ele><time>2026-04-04T08:33:09.999Z</time></trkpt><trkpt lat="45.00417956429989" lon="8.514135548245521"><ele>196.25</ele><time>2026-04-04T08:33:10.999Z</time></trkpt><trkpt lat="45.00423441855871" lon="8.514292329306862"><ele>194.5</ele><time>2026-04-04T08:33:11.999Z</time></trkpt><trkpt lat="45.004261665653026" lon="8.514489215914233"><ele>192.75</ele><time>2026-04-04T08:33:12.999Z</time></trkpt><trkpt lat="45.004256704218214" lon="8.514713992811204"><ele>191.0</ele><time>2026-04-04T08:33:13.999Z</time></trkpt><trkpt lat="45.004251698118594" lon="8.514960856983675"><ele>190.75</ele><time>2026-04-04T08:33:14.999Z</time></trkpt><trkpt lat="45.0042437719001" lon="8.515190435253553"><ele>190.5</ele><time>2026-04-04T08:33:15.999Z</time></trkpt><trkpt lat="45.00423171604369" lon="8.51539738868321"><ele>190.25</ele><time>2026-04-04T08:33:16.999Z</time></trkpt><trkpt lat="45.00421469016265" lon="8.515590207348417"><ele>190.0</ele><time>2026-04-04T08:33:17.999Z</time></trkpt><trkpt lat="45.00418508274936" lon="8.51578674835497"><ele>186.25</ele><time>2026-04-04T08:33:18.999Z</time></trkpt><trkpt lat="45.0041476867243" lon="8.515968064919223"><ele>182.5</ele><time>2026-04-04T08:33:19.999Z</time></trkpt><trkpt lat="45.004097083886755" lon="8.516147508112425"><ele>178.75</ele><time>2026-04-04T08:33:20.999Z</time></trkpt><trkpt lat="45.00403124205081" lon="8.51631192242942"><ele>175.0</ele><time>2026-04-04T08:33:21.999Z</time></trkpt><trkpt lat="45.00396004874849" lon="8.516476203186958"><ele>173.75</ele><time>2026-04-04T08:33:22.999Z</time></trkpt><trkpt lat="45.00388924682539" lon="8.516651916087708"><ele>172.5</ele><time>2026-04-04T08:33:23.999Z</time></trkpt><trkpt lat="45.00384666390557" lon="8.516843985581767"><ele>171.25</ele><time>2026-04-04T08:33:24.999Z</time></trkpt><trkpt lat="45.00383965347743" lon="8.517049912044552"><ele>170.0</ele><time>2026-04-04T08:33:25.999Z</time></trkpt><trkpt lat="45.00383237724991" lon="8.517240900529579"><ele>169.0</ele><time>2026-04-04T08:33:26.999Z</time></trkpt><trkpt lat="45.003819952702386" lon="8.517423416464547"><ele>168.0</ele><time>2026-04-04T08:33:27.999Z</time></trkpt><trkpt lat="45.00382452687103" lon="8.51760619058289"><ele>167.0</ele><time>2026-04-04T08:33:28.999Z</time></trkpt><trkpt lat="45.003827953554016" lon="8.517780019565814"><ele>166.0</ele><time>2026-04-04T08:33:29.999Z</time></trkpt><trkpt lat="45.00382795355056" lon="8.517964683880146"><ele>164.0</ele><time>2026-04-04T08:33:30.999Z</time></trkpt><trkpt lat="45.00385104975216" lon="8.518136371610955"><ele>162.0</ele><time>2026-04-04T08:33:31.999Z</time></trkpt><trkpt lat="45.00387583310415" lon="8.518301963329757"><ele>160.0</ele><time>2026-04-04T08:33:32.999Z</time></trkpt><trkpt lat="45.003923803456836" lon="8.518475204327988"><ele>158.0</ele><time>2026-04-04T08:33:33.999Z</time></trkpt><trkpt lat="45.00396711453486" lon="8.518694431259823"><ele>156.75</ele><time>2026-04-04T08:33:34.999Z</time></trkpt><trkpt lat="45.00402170742798" lon="8.518889094379364"><ele>155.5</ele><time>2026-04-04T08:33:35.999Z</time></trkpt><trkpt lat="45.004071757624715" lon="8.519064429261622"><ele>154.25</ele><time>2026-04-04T08:33:36.999Z</time></trkpt><trkpt lat="45.00412033163032" lon="8.519234593485116"><ele>153.0</ele><time>2026-04-04T08:33:37.999Z</time></trkpt><trkpt lat="45.00416333967028" lon="8.519393833364903"><ele>154.4</ele><time>2026-04-04T08:33:38.999Z</time></trkpt><trkpt lat="45.00420507185152" lon="8.519549363633555"><ele>155.8</ele><time>2026-04-04T08:33:39.999Z</time></trkpt><trkpt lat="45.00424311809634" lon="8.519674584560951"><ele>157.2</ele><time>2026-04-04T08:33:40.999Z</time></trkpt><trkpt lat="45.00426544010651" lon="8.519764474872098"><ele>158.6</ele><time>2026-04-04T08:33:41.999Z</time></trkpt><trkpt lat="45.00428410888705" lon="8.519898954179933"><ele>160.0</ele><time>2026-04-04T08:33:43.999Z</time></trkpt><trkpt lat="45.004189534673905" lon="8.51996179879901"><ele>158.0</ele><time>2026-04-04T08:33:46.999Z</time></trkpt><trkpt lat="45.004049875680984" lon="8.519958322195562"><ele>156.0</ele><time>2026-04-04T08:33:48.999Z</time></trkpt><trkpt lat="45.003961585408184" lon="8.519982401915094"><ele>154.0</ele><time>2026-04-04T08:33:49.999Z</time></trkpt><trkpt lat="45.003892167035225" lon="8.520001324756933"><ele>152.0</ele><time>2026-04-04T08:33:50.999Z</time></trkpt><trkpt lat="45.00380294840566" lon="8.52002564493706"><ele>150.0</ele><time>2026-04-04T08:33:51.999Z</time></trkpt><trkpt lat="45.003718521275225" lon="8.520048170754386"><ele>150.0</ele><time>2026-04-04T08:33:52.999Z</time></trkpt><trkpt lat="45.003634791924576" lon="8.520070742983764"><ele>150.0</ele><time>2026-04-04T08:33:53.999Z</time></trkpt><trkpt lat="45.00355268531342" lon="8.520094804802435"><ele>150.0</ele><time>2026-04-04T08:33:54.999Z</time></trkpt><trkpt lat="45.003458630866014" lon="8.520156630911433"><ele>150.0</ele><time>2026-04-04T08:33:56.999Z</time></trkpt><trkpt lat="45.0034304059416" lon="8.520241582377796"><ele>150.0</ele><time>2026-04-04T08:33:57.999Z</time></trkpt><trkpt lat="45.00345425973517" lon="8.520351204260441"><ele>150.0</ele><time>2026-04-04T08:33:58.999Z</time></trkpt><trkpt lat="45.00348702711729" lon="8.520462783989528"><ele>151.0</ele><time>2026-04-04T08:33:59.999Z</time></trkpt><trkpt lat="45.003561103234205" lon="8.520566247601572"><ele>152.0</ele><time>2026-04-04T08:34:00.999Z</time></trkpt><trkpt lat="45.00364162908003" lon="8.520704713531032"><ele>153.0</ele><time>2026-04-04T08:34:01.998Z</time></trkpt><trkpt lat="45.003691701319546" lon="8.52084880883789"><ele>154.0</ele><time>2026-04-04T08:34:02.998Z</time></trkpt><trkpt lat="45.003773430072535" lon="8.520965373497773"><ele>154.0</ele><time>2026-04-04T08:34:03.998Z</time></trkpt><trkpt lat="45.003830237768916" lon="8.521087907957554"><ele>154.0</ele><time>2026-04-04T08:34:04.998Z</time></trkpt><trkpt lat="45.003921342111944" lon="8.521148106889079"><ele>154.0</ele><time>2026-04-04T08:34:06Z</time></trkpt><trkpt lat="45.00402885243877" lon="8.521214127200016"><ele>154.0</ele><time>2026-04-04T08:34:07Z</time></trkpt><trkpt lat="45.004176263597735" lon="8.521253051534142"><ele>151.0</ele><time>2026-04-04T08:34:08Z</time></trkpt><trkpt lat="45.00437498316495" lon="8.52127584135071"><ele>148.0</ele><time>2026-04-04T08:34:09Z</time></trkpt><trkpt lat="45.004601442064605" lon="8.52128386331531"><ele>145.0</ele><time>2026-04-04T08:34:10Z</time></trkpt><trkpt lat="45.00482385337532" lon="8.521329393809284"><ele>145.66666666666669</ele><time>2026-04-04T08:34:11Z</time></trkpt><trkpt lat="45.00500184965368" lon="8.52133439259059"><ele>146.33333333333334</ele><time>2026-04-04T08:34:12Z</time></trkpt><trkpt lat="45.00515810310062" lon="8.521379999566655"><ele>147.0</ele><time>2026-04-04T08:34:13Z</time></trkpt><trkpt lat="45.005303647170145" lon="8.521400665771655"><ele>147.0</ele><time>2026-04-04T08:34:14Z</time></trkpt><trkpt lat="45.00544300564356" lon="8.5214204536284"><ele>147.0</ele><time>2026-04-04T08:34:15Z</time></trkpt><trkpt lat="45.00558833786201" lon="8.521441089744531"><ele>147.0</ele><time>2026-04-04T08:34:16Z</time></trkpt><trkpt lat="45.00574360645564" lon="8.521463136718232"><ele>147.0</ele><time>2026-04-04T08:34:17Z</time></trkpt><trkpt lat="45.00590103432908" lon="8.521485490300424"><ele>147.33333333333334</ele><time>2026-04-04T08:34:18Z</time></trkpt><trkpt lat="45.006058815984716" lon="8.521507373819436"><ele>147.66666666666669</ele><time>2026-04-04T08:34:19Z</time></trkpt><trkpt lat="45.006221634832904" lon="8.52152934101019"><ele>148.0</ele><time>2026-04-04T08:34:20Z</time></trkpt><trkpt lat="45.00638714936549" lon="8.521550458204109"><ele>148.0</ele><time>2026-04-04T08:34:21Z</time></trkpt><trkpt lat="45.006556588860875" lon="8.5215450547934"><ele>148.0</ele><time>2026-04-04T08:34:22Z</time></trkpt><trkpt lat="45.006736976760514" lon="8.521561628931925"><ele>148.0</ele><time>2026-04-04T08:34:23Z</time></trkpt><trkpt lat="45.00692027127676" lon="8.521561853604464"><ele>146.66666666666669</ele><time>2026-04-04T08:34:24Z</time></trkpt><trkpt lat="45.00710078992113" lon="8.521549115499234"><ele>145.33333333333334</ele><time>2026-04-04T08:34:25Z</time></trkpt><trkpt lat="45.007262984115634" lon="8.521542731162134"><ele>144.0</ele><time>2026-04-04T08:34:26Z</time></trkpt><trkpt lat="45.007407388586834" lon="8.521577681482752"><ele>143.33333333333334</ele><time>2026-04-04T08:34:27Z</time></trkpt><trkpt lat="45.00755974788131" lon="8.521606554524247"><ele>142.66666666666669</ele><time>2026-04-04T08:34:28Z</time></trkpt><trkpt lat="45.00775611928706" lon="8.521651719750515"><ele>142.0</ele><time>2026-04-04T08:34:29Z</time></trkpt><trkpt lat="45.00795149630747" lon="8.52169930542714"><ele>142.0</ele><time>2026-04-04T08:34:30Z</time></trkpt><trkpt lat="45.00813901280742" lon="8.521746969088142"><ele>142.0</ele><time>2026-04-04T08:34:31Z</time></trkpt><trkpt lat="45.00831353792148" lon="8.521791330558534"><ele>142.0</ele><time>2026-04-04T08:34:32Z</time></trkpt><trkpt lat="45.00848103341553" lon="8.521833905275772"><ele>141.66666666666669</ele><time>2026-04-04T08:34:33Z</time></trkpt><trkpt lat="45.00864714408416" lon="8.521874414694773"><ele>141.33333333333334</ele><time>2026-04-04T08:34:34Z</time></trkpt><trkpt lat="45.008814044342714" lon="8.521914791783756"><ele>141.0</ele><time>2026-04-04T08:34:35Z</time></trkpt><trkpt lat="45.008983129864866" lon="8.521957748570792"><ele>141.0</ele><time>2026-04-04T08:34:36Z</time></trkpt><trkpt lat="45.00913741709179" lon="8.521999918609888"><ele>141.0</ele><time>2026-04-04T08:34:37Z</time></trkpt><trkpt lat="45.009281731154495" lon="8.522044696617083"><ele>141.0</ele><time>2026-04-04T08:34:38Z</time></trkpt><trkpt lat="45.00939150202043" lon="8.52208955273729"><ele>141.0</ele><time>2026-04-04T08:34:39Z</time></trkpt><trkpt lat="45.00950112402468" lon="8.522159120161525"><ele>140.66666666666666</ele><time>2026-04-04T08:34:39.999Z</time></trkpt><trkpt lat="45.00963317306937" lon="8.522266941806736"><ele>140.33333333333331</ele><time>2026-04-04T08:34:40.999Z</time></trkpt><trkpt lat="45.00979152080611" lon="8.522407096335124"><ele>140.0</ele><time>2026-04-04T08:34:41.999Z</time></trkpt><trkpt lat="45.009963283083586" lon="8.522543432577008"><ele>139.66666666666666</ele><time>2026-04-04T08:34:42.999Z</time></trkpt><trkpt lat="45.010091919769486" lon="8.522677060888729"><ele>139.33333333333334</ele><time>2026-04-04T08:34:43.999Z</time></trkpt><trkpt lat="45.01018350751043" lon="8.522830506659012"><ele>139.0</ele><time>2026-04-04T08:34:44.999Z</time></trkpt><trkpt lat="45.01028029742633" lon="8.522996743539517"><ele>139.0</ele><time>2026-04-04T08:34:45.999Z</time></trkpt><trkpt lat="45.01038875129529" lon="8.523196239076654"><ele>139.0</ele><time>2026-04-04T08:34:46.999Z</time></trkpt><trkpt lat="45.010485219124305" lon="8.523372029428776"><ele>139.0</ele><time>2026-04-04T08:34:47.999Z</time></trkpt><trkpt lat="45.01059364279941" lon="8.52352503065781"><ele>139.0</ele><time>2026-04-04T08:34:48.999Z</time></trkpt><trkpt lat="45.01071616476359" lon="8.523692236063672"><ele>139.0</ele><time>2026-04-04T08:34:49.999Z</time></trkpt><trkpt lat="45.01085925129659" lon="8.523869997017867"><ele>139.0</ele><time>2026-04-04T08:34:50.999Z</time></trkpt><trkpt lat="45.01102904433718" lon="8.52403928736038"><ele>138.0</ele><time>2026-04-04T08:34:51.999Z</time></trkpt><trkpt lat="45.011201901396596" lon="8.524200605231684"><ele>137.0</ele><time>2026-04-04T08:34:52.999Z</time></trkpt><trkpt lat="45.011338600122755" lon="8.524341780350593"><ele>136.0</ele><time>2026-04-04T08:34:53.999Z</time></trkpt><trkpt lat="45.01144740824633" lon="8.524480756496597"><ele>135.66666666666669</ele><time>2026-04-04T08:34:54.999Z</time></trkpt><trkpt lat="45.011601798666995" lon="8.524624540197882"><ele>135.33333333333334</ele><time>2026-04-04T08:34:55.999Z</time></trkpt><trkpt lat="45.011728065887574" lon="8.524759456250354"><ele>135.0</ele><time>2026-04-04T08:34:56.999Z</time></trkpt><trkpt lat="45.0118599575292" lon="8.524892301177792"><ele>135.0</ele><time>2026-04-04T08:34:57.999Z</time></trkpt><trkpt lat="45.01197650474864" lon="8.525010869739463"><ele>135.0</ele><time>2026-04-04T08:34:58.999Z</time></trkpt><trkpt lat="45.01212300711483" lon="8.525109048258017"><ele>135.0</ele><time>2026-04-04T08:34:59.999Z</time></trkpt><trkpt lat="45.012249106327396" lon="8.525209768759503"><ele>135.0</ele><time>2026-04-04T08:35:00.999Z</time></trkpt><trkpt lat="45.01236493961093" lon="8.525298558854873"><ele>135.0</ele><time>2026-04-04T08:35:01.999Z</time></trkpt><trkpt lat="45.01248902070114" lon="8.525378026742347"><ele>135.0</ele><time>2026-04-04T08:35:02.999Z</time></trkpt><trkpt lat="45.012600678202986" lon="8.525454907152625"><ele>135.0</ele><time>2026-04-04T08:35:03.999Z</time></trkpt><trkpt lat="45.0127038582942" lon="8.525522593296873"><ele>134.5</ele><time>2026-04-04T08:35:04.999Z</time></trkpt><trkpt lat="45.01280197183261" lon="8.525598192657995"><ele>134.0</ele><time>2026-04-04T08:35:05.999Z</time></trkpt><trkpt lat="45.01290169238618" lon="8.525672019370198"><ele>133.5</ele><time>2026-04-04T08:35:06.999Z</time></trkpt><trkpt lat="45.01301104596024" lon="8.525752181518236"><ele>133.0</ele><time>2026-04-04T08:35:07.999Z</time></trkpt><trkpt lat="45.01313569169757" lon="8.525841193581233"><ele>133.0</ele><time>2026-04-04T08:35:08.999Z</time></trkpt><trkpt lat="45.013274697192145" lon="8.525925465610309"><ele>133.0</ele><time>2026-04-04T08:35:09.999Z</time></trkpt><trkpt lat="45.01344388928302" lon="8.526010465038881"><ele>133.0</ele><time>2026-04-04T08:35:10.999Z</time></trkpt><trkpt lat="45.0136195110374" lon="8.526111806766494"><ele>132.66666666666669</ele><time>2026-04-04T08:35:11.999Z</time></trkpt><trkpt lat="45.01377701013921" lon="8.526220838273069"><ele>132.33333333333334</ele><time>2026-04-04T08:35:12.999Z</time></trkpt><trkpt lat="45.0139053253261" lon="8.526311764667556"><ele>132.0</ele><time>2026-04-04T08:35:13.999Z</time></trkpt><trkpt lat="45.01403876346995" lon="8.526419050955361"><ele>131.33333333333334</ele><time>2026-04-04T08:35:14.999Z</time></trkpt><trkpt lat="45.01417922522314" lon="8.526543479893823"><ele>130.66666666666669</ele><time>2026-04-04T08:35:15.999Z</time></trkpt><trkpt lat="45.01433140296545" lon="8.52667620406213"><ele>130.0</ele><time>2026-04-04T08:35:16.999Z</time></trkpt><trkpt lat="45.01450143607449" lon="8.526818291428189"><ele>130.0</ele><time>2026-04-04T08:35:17.999Z</time></trkpt><trkpt lat="45.014664433442846" lon="8.526962083913354"><ele>130.0</ele><time>2026-04-04T08:35:18.999Z</time></trkpt><trkpt lat="45.01483996103184" lon="8.527124990137525"><ele>130.0</ele><time>2026-04-04T08:35:19.999Z</time></trkpt><trkpt lat="45.0150019252104" lon="8.527292051004737"><ele>130.25</ele><time>2026-04-04T08:35:20.999Z</time></trkpt><trkpt lat="45.01513686083387" lon="8.527362586624783"><ele>130.5</ele><time>2026-04-04T08:35:21.999Z</time></trkpt><trkpt lat="45.01523324680982" lon="8.527441425523003"><ele>130.75</ele><time>2026-04-04T08:35:22.999Z</time></trkpt><trkpt lat="45.01532441834394" lon="8.527512503403525"><ele>131.0</ele><time>2026-04-04T08:35:23.999Z</time></trkpt><trkpt lat="45.01541232369129" lon="8.52758412457435"><ele>131.0</ele><time>2026-04-04T08:35:24.999Z</time></trkpt><trkpt lat="45.015513878553165" lon="8.527661892795926"><ele>131.0</ele><time>2026-04-04T08:35:25.999Z</time></trkpt><trkpt lat="45.015604163978225" lon="8.527737022733021"><ele>131.0</ele><time>2026-04-04T08:35:26.999Z</time></trkpt><trkpt lat="45.01569719389357" lon="8.527812275589428"><ele>131.0</ele><time>2026-04-04T08:35:27.999Z</time></trkpt><trkpt lat="45.01578358355496" lon="8.527884622384272"><ele>131.0</ele><time>2026-04-04T08:35:28.999Z</time></trkpt><trkpt lat="45.015858036043234" lon="8.527954438593518"><ele>130.83333333333331</ele><time>2026-04-04T08:35:29.999Z</time></trkpt><trkpt lat="45.01594050580132" lon="8.52802633405068"><ele>130.66666666666666</ele><time>2026-04-04T08:35:30.999Z</time></trkpt><trkpt lat="45.01602266061921" lon="8.528100980608892"><ele>130.5</ele><time>2026-04-04T08:35:31.999Z</time></trkpt><trkpt lat="45.01609184224973" lon="8.528165701916285"><ele>130.33333333333334</ele><time>2026-04-04T08:35:32.999Z</time></trkpt><trkpt lat="45.016149961484444" lon="8.528227073658488"><ele>130.16666666666669</ele><time>2026-04-04T08:35:33.999Z</time></trkpt><trkpt lat="45.016226570193666" lon="8.528305728550535"><ele>130.0</ele><time>2026-04-04T08:35:35.999Z</time></trkpt><trkpt lat="45.01627207699641" lon="8.528383805574302"><ele>130.0</ele><time>2026-04-04T08:35:37.999Z</time></trkpt><trkpt lat="45.01619640685016" lon="8.528406145273614"><ele>130.0</ele><time>2026-04-04T08:35:39.999Z</time></trkpt><trkpt lat="45.01609671339653" lon="8.528517672698996"><ele>130.0</ele><time>2026-04-04T08:35:41.999Z</time></trkpt><trkpt lat="45.0160308254249" lon="8.528584827615997"><ele>130.0</ele><time>2026-04-04T08:35:42.999Z</time></trkpt><trkpt lat="45.01596835741199" lon="8.52864464648955"><ele>130.0</ele><time>2026-04-04T08:35:43.999Z</time></trkpt><trkpt lat="45.015885329209134" lon="8.528722959214644"><ele>130.6</ele><time>2026-04-04T08:35:44.999Z</time></trkpt><trkpt lat="45.01580229602694" lon="8.52879174620878"><ele>131.2</ele><time>2026-04-04T08:35:45.999Z</time></trkpt><trkpt lat="45.0157099797132" lon="8.528868801814506"><ele>131.8</ele><time>2026-04-04T08:35:46.999Z</time></trkpt><trkpt lat="45.0156224935008" lon="8.528963630989853"><ele>132.4</ele><time>2026-04-04T08:35:47.999Z</time></trkpt><trkpt lat="45.01553170338084" lon="8.529076761102196"><ele>133.0</ele><time>2026-04-04T08:35:48.999Z</time></trkpt><trkpt lat="45.01543166579682" lon="8.529205973120442"><ele>133.0</ele><time>2026-04-04T08:35:49.999Z</time></trkpt><trkpt lat="45.01532526803303" lon="8.529343222827206"><ele>133.0</ele><time>2026-04-04T08:35:50.999Z</time></trkpt><trkpt lat="45.015224429288644" lon="8.529469849008452"><ele>133.0</ele><time>2026-04-04T08:35:51.999Z</time></trkpt><trkpt lat="45.01513737521052" lon="8.529590857403173"><ele>133.0</ele><time>2026-04-04T08:35:52.999Z</time></trkpt><trkpt lat="45.01505723295872" lon="8.529733426121211"><ele>133.33333333333334</ele><time>2026-04-04T08:35:53.999Z</time></trkpt><trkpt lat="45.01499691228168" lon="8.529852485303747"><ele>133.66666666666669</ele><time>2026-04-04T08:35:54.999Z</time></trkpt><trkpt lat="45.01495285957626" lon="8.529942584641466"><ele>134.0</ele><time>2026-04-04T08:35:56.999Z</time></trkpt><trkpt lat="45.014912625605575" lon="8.530027583833563"><ele>134.33333333333334</ele><time>2026-04-04T08:35:58.999Z</time></trkpt><trkpt lat="45.01486748489934" lon="8.530122948882653"><ele>134.66666666666666</ele><time>2026-04-04T08:36:00.999Z</time></trkpt><trkpt lat="45.014809788399624" lon="8.530244837120556"><ele>135.0</ele><time>2026-04-04T08:36:01.999Z</time></trkpt><trkpt lat="45.01475554305573" lon="8.530367978970403"><ele>136.75</ele><time>2026-04-04T08:36:02.999Z</time></trkpt><trkpt lat="45.0146988981857" lon="8.530503592013636"><ele>138.5</ele><time>2026-04-04T08:36:03.999Z</time></trkpt><trkpt lat="45.01465061453255" lon="8.53063063906965"><ele>140.25</ele><time>2026-04-04T08:36:04.998Z</time></trkpt><trkpt lat="45.01459516176806" lon="8.530845130455264"><ele>142.0</ele><time>2026-04-04T08:36:05.998Z</time></trkpt><trkpt lat="45.01456625397943" lon="8.531031495066996"><ele>142.0</ele><time>2026-04-04T08:36:06.998Z</time></trkpt><trkpt lat="45.01456515243375" lon="8.531217691646319"><ele>142.0</ele><time>2026-04-04T08:36:07.998Z</time></trkpt><trkpt lat="45.01452697580364" lon="8.53142619388645"><ele>142.0</ele><time>2026-04-04T08:36:08.998Z</time></trkpt><trkpt lat="45.01450291684804" lon="8.531680869304349"><ele>142.0</ele><time>2026-04-04T08:36:09.998Z</time></trkpt><trkpt lat="45.01448066758238" lon="8.531916388904728"><ele>142.0</ele><time>2026-04-04T08:36:10.998Z</time></trkpt><trkpt lat="45.01446219607129" lon="8.532111919085656"><ele>142.0</ele><time>2026-04-04T08:36:12Z</time></trkpt><trkpt lat="45.01444488815949" lon="8.532296128182207"><ele>142.0</ele><time>2026-04-04T08:36:13Z</time></trkpt><trkpt lat="45.01442507217273" lon="8.532516266399607"><ele>141.66666666666669</ele><time>2026-04-04T08:36:14Z</time></trkpt><trkpt lat="45.01440358909554" lon="8.532754924928025"><ele>141.33333333333334</ele><time>2026-04-04T08:36:15Z</time></trkpt><trkpt lat="45.014383803530514" lon="8.532978100647185"><ele>141.0</ele><time>2026-04-04T08:36:16Z</time></trkpt><trkpt lat="45.01436789953972" lon="8.533162366326776"><ele>140.8</ele><time>2026-04-04T08:36:17Z</time></trkpt><trkpt lat="45.014353459201466" lon="8.533329673381694"><ele>140.6</ele><time>2026-04-04T08:36:18Z</time></trkpt><trkpt lat="45.014343114034716" lon="8.533453166365547"><ele>140.4</ele><time>2026-04-04T08:36:19Z</time></trkpt><trkpt lat="45.014329772106294" lon="8.533613219248583"><ele>140.2</ele><time>2026-04-04T08:36:21Z</time></trkpt><trkpt lat="45.01432773500748" lon="8.533708366684015"><ele>140.0</ele><time>2026-04-04T08:36:23Z</time></trkpt><trkpt lat="45.01424719957535" lon="8.53359621172754"><ele>140.0</ele><time>2026-04-04T08:36:25Z</time></trkpt><trkpt lat="45.01416788278745" lon="8.533557274352296"><ele>140.0</ele><time>2026-04-04T08:36:26Z</time></trkpt><trkpt lat="45.014075158976276" lon="8.533511755435153"><ele>140.0</ele><time>2026-04-04T08:36:27Z</time></trkpt><trkpt lat="45.01397110429683" lon="8.533460673968548"><ele>140.0</ele><time>2026-04-04T08:36:28Z</time></trkpt><trkpt lat="45.013877494325925" lon="8.53341828902747"><ele>140.0</ele><time>2026-04-04T08:36:29Z</time></trkpt><trkpt lat="45.01379521202936" lon="8.533398383801924"><ele>140.6</ele><time>2026-04-04T08:36:30Z</time></trkpt><trkpt lat="45.01369434328264" lon="8.533426640102814"><ele>141.2</ele><time>2026-04-04T08:36:31Z</time></trkpt><trkpt lat="45.01359081834806" lon="8.533403782124354"><ele>141.8</ele><time>2026-04-04T08:36:32Z</time></trkpt><trkpt lat="45.013486374232286" lon="8.53339141941026"><ele>142.4</ele><time>2026-04-04T08:36:33Z</time></trkpt><trkpt lat="45.01338359457618" lon="8.533386104749717"><ele>143.0</ele><time>2026-04-04T08:36:34Z</time></trkpt><trkpt lat="45.01327249137723" lon="8.5333805831621"><ele>144.25</ele><time>2026-04-04T08:36:35Z</time></trkpt><trkpt lat="45.013148395083974" lon="8.533374116834858"><ele>145.5</ele><time>2026-04-04T08:36:36Z</time></trkpt><trkpt lat="45.01300351501884" lon="8.533365415138217"><ele>146.75</ele><time>2026-04-04T08:36:37Z</time></trkpt><trkpt lat="45.01282733227084" lon="8.533354833346069"><ele>148.0</ele><time>2026-04-04T08:36:38Z</time></trkpt><trkpt lat="45.01266008574906" lon="8.533347534077478"><ele>148.0</ele><time>2026-04-04T08:36:39Z</time></trkpt><trkpt lat="45.01251854727893" lon="8.533346332173998"><ele>148.0</ele><time>2026-04-04T08:36:40Z</time></trkpt><trkpt lat="45.012404373174746" lon="8.533343607241864"><ele>148.0</ele><time>2026-04-04T08:36:41Z</time></trkpt><trkpt lat="45.012285176660974" lon="8.5333366092378"><ele>148.0</ele><time>2026-04-04T08:36:42Z</time></trkpt><trkpt lat="45.01217152939736" lon="8.533312095742913"><ele>148.5</ele><time>2026-04-04T08:36:43Z</time></trkpt><trkpt lat="45.01206468551659" lon="8.533265975897065"><ele>149.0</ele><time>2026-04-04T08:36:44Z</time></trkpt><trkpt lat="45.01194275076433" lon="8.533196394682406"><ele>149.5</ele><time>2026-04-04T08:36:45Z</time></trkpt><trkpt lat="45.011813423809635" lon="8.533115890502824"><ele>150.0</ele><time>2026-04-04T08:36:46Z</time></trkpt><trkpt lat="45.011691435674344" lon="8.533033992132237"><ele>151.0</ele><time>2026-04-04T08:36:47Z</time></trkpt><trkpt lat="45.0115580128949" lon="8.532943514629935"><ele>152.0</ele><time>2026-04-04T08:36:47.999Z</time></trkpt><trkpt lat="45.01141971920726" lon="8.532863603788083"><ele>153.0</ele><time>2026-04-04T08:36:48.999Z</time></trkpt><trkpt lat="45.01127772842302" lon="8.532788192101368"><ele>154.0</ele><time>2026-04-04T08:36:49.999Z</time></trkpt><trkpt lat="45.01115363588703" lon="8.532724889796548"><ele>155.75</ele><time>2026-04-04T08:36:50.999Z</time></trkpt><trkpt lat="45.011024610143494" lon="8.532659801587199"><ele>157.5</ele><time>2026-04-04T08:36:51.999Z</time></trkpt><trkpt lat="45.010897185211064" lon="8.532597361553627"><ele>159.25</ele><time>2026-04-04T08:36:52.999Z</time></trkpt><trkpt lat="45.01077022321995" lon="8.532535148310094"><ele>161.0</ele><time>2026-04-04T08:36:53.999Z</time></trkpt><trkpt lat="45.01065506704495" lon="8.53247872009331"><ele>161.0</ele><time>2026-04-04T08:36:54.999Z</time></trkpt><trkpt lat="45.01055699973873" lon="8.532431266015418"><ele>161.0</ele><time>2026-04-04T08:36:55.999Z</time></trkpt><trkpt lat="45.010472814106905" lon="8.532390597254864"><ele>161.0</ele><time>2026-04-04T08:36:56.999Z</time></trkpt><trkpt lat="45.01040489472691" lon="8.532357786422914"><ele>161.0</ele><time>2026-04-04T08:36:57.999Z</time></trkpt><trkpt lat="45.01033245435369" lon="8.532321561583908"><ele>161.0</ele><time>2026-04-04T08:36:58.999Z</time></trkpt><trkpt lat="45.01024705042272" lon="8.532277419009986"><ele>161.0</ele><time>2026-04-04T08:36:59.999Z</time></trkpt><trkpt lat="45.010172718793946" lon="8.532238998914867"><ele>161.0</ele><time>2026-04-04T08:37:00.999Z</time></trkpt><trkpt lat="45.01010994583818" lon="8.53220655266078"><ele>161.0</ele><time>2026-04-04T08:37:01.999Z</time></trkpt><trkpt lat="45.010034368228084" lon="8.532167487802266"><ele>161.0</ele><time>2026-04-04T08:37:02.999Z</time></trkpt><trkpt lat="45.00995382857362" lon="8.532125858176128"><ele>161.0</ele><time>2026-04-04T08:37:03.999Z</time></trkpt><trkpt lat="45.00986198621197" lon="8.53207838629289"><ele>161.0</ele><time>2026-04-04T08:37:04.999Z</time></trkpt><trkpt lat="45.00977685714777" lon="8.532064168099458"><ele>161.0</ele><time>2026-04-04T08:37:05.999Z</time></trkpt><trkpt lat="45.00971708315352" lon="8.53198611072068"><ele>162.83333333333331</ele><time>2026-04-04T08:37:06.999Z</time></trkpt><trkpt lat="45.009678525172006" lon="8.531891454605582"><ele>164.66666666666666</ele><time>2026-04-04T08:37:07.999Z</time></trkpt><trkpt lat="45.009642422119754" lon="8.531799271938294"><ele>166.5</ele><time>2026-04-04T08:37:08.999Z</time></trkpt><trkpt lat="45.00958201564036" lon="8.53169402850789"><ele>168.33333333333334</ele><time>2026-04-04T08:37:09.999Z</time></trkpt><trkpt lat="45.00952003708455" lon="8.531614186799754"><ele>170.16666666666669</ele><time>2026-04-04T08:37:10.999Z</time></trkpt><trkpt lat="45.0094469861397" lon="8.53156100340509"><ele>172.0</ele><time>2026-04-04T08:37:11.999Z</time></trkpt><trkpt lat="45.00934637050405" lon="8.531510588995532"><ele>172.0</ele><time>2026-04-04T08:37:12.999Z</time></trkpt><trkpt lat="45.00923585664245" lon="8.531456578962851"><ele>172.0</ele><time>2026-04-04T08:37:13.999Z</time></trkpt><trkpt lat="45.009138991806196" lon="8.531410366010714"><ele>172.0</ele><time>2026-04-04T08:37:14.999Z</time></trkpt><trkpt lat="45.0090489970007" lon="8.531378666782892"><ele>172.0</ele><time>2026-04-04T08:37:15.999Z</time></trkpt><trkpt lat="45.0089621509312" lon="8.531362772278545"><ele>172.0</ele><time>2026-04-04T08:37:16.999Z</time></trkpt><trkpt lat="45.008861216025174" lon="8.5313451535941"><ele>173.25</ele><time>2026-04-04T08:37:17.999Z</time></trkpt><trkpt lat="45.00875960187399" lon="8.531338414711254"><ele>174.5</ele><time>2026-04-04T08:37:18.999Z</time></trkpt><trkpt lat="45.00864982478724" lon="8.53134017051266"><ele>175.75</ele><time>2026-04-04T08:37:19.999Z</time></trkpt><trkpt lat="45.008530407330284" lon="8.53136323903295"><ele>177.0</ele><time>2026-04-04T08:37:20.999Z</time></trkpt><trkpt lat="45.00839558791498" lon="8.531370203258998"><ele>178.0</ele><time>2026-04-04T08:37:21.999Z</time></trkpt><trkpt lat="45.00827227796368" lon="8.531375053884137"><ele>179.0</ele><time>2026-04-04T08:37:22.999Z</time></trkpt><trkpt lat="45.008158130645924" lon="8.531374706370277"><ele>180.0</ele><time>2026-04-04T08:37:23.999Z</time></trkpt><trkpt lat="45.0080569898541" lon="8.531389210859965"><ele>181.0</ele><time>2026-04-04T08:37:24.999Z</time></trkpt><trkpt lat="45.00794791025214" lon="8.5313958016425"><ele>182.0</ele><time>2026-04-04T08:37:25.999Z</time></trkpt><trkpt lat="45.00785022914152" lon="8.531404384946454"><ele>182.0</ele><time>2026-04-04T08:37:26.999Z</time></trkpt><trkpt lat="45.00776141703857" lon="8.531407148687732"><ele>182.0</ele><time>2026-04-04T08:37:27.999Z</time></trkpt><trkpt lat="45.00769332379556" lon="8.531398948826574"><ele>182.0</ele><time>2026-04-04T08:37:28.999Z</time></trkpt><trkpt lat="45.00761027161521" lon="8.531398757383343"><ele>182.0</ele><time>2026-04-04T08:37:29.999Z</time></trkpt><trkpt lat="45.007522815310104" lon="8.531414932922752"><ele>182.0</ele><time>2026-04-04T08:37:30.999Z</time></trkpt><trkpt lat="45.007430553894544" lon="8.531443744673746"><ele>182.0</ele><time>2026-04-04T08:37:31.999Z</time></trkpt><trkpt lat="45.00733189900689" lon="8.531487755023347"><ele>182.25</ele><time>2026-04-04T08:37:32.999Z</time></trkpt><trkpt lat="45.00723385566613" lon="8.531541691898124"><ele>182.5</ele><time>2026-04-04T08:37:33.999Z</time></trkpt><trkpt lat="45.007147272740575" lon="8.531589341999476"><ele>182.75</ele><time>2026-04-04T08:37:34.999Z</time></trkpt><trkpt lat="45.00702184108203" lon="8.531612754140276"><ele>183.0</ele><time>2026-04-04T08:37:35.999Z</time></trkpt><trkpt lat="45.00688689479385" lon="8.531606890948236"><ele>183.0</ele><time>2026-04-04T08:37:36.999Z</time></trkpt><trkpt lat="45.006743204494" lon="8.531605964220999"><ele>183.0</ele><time>2026-04-04T08:37:37.999Z</time></trkpt><trkpt lat="45.006605628370984" lon="8.531613642324828"><ele>183.0</ele><time>2026-04-04T08:37:38.999Z</time></trkpt><trkpt lat="45.006466931786726" lon="8.531637282063466"><ele>183.0</ele><time>2026-04-04T08:37:39.999Z</time></trkpt><trkpt lat="45.00634614197778" lon="8.531659394987257"><ele>184.4</ele><time>2026-04-04T08:37:40.999Z</time></trkpt><trkpt lat="45.00623135678335" lon="8.531681798966055"><ele>185.8</ele><time>2026-04-04T08:37:41.999Z</time></trkpt><trkpt lat="45.006138392103296" lon="8.53170436674062"><ele>187.2</ele><time>2026-04-04T08:37:42.999Z</time></trkpt><trkpt lat="45.006045594700716" lon="8.531732575120738"><ele>188.6</ele><time>2026-04-04T08:37:43.999Z</time></trkpt><trkpt lat="45.00597285781671" lon="8.531754815683016"><ele>190.0</ele><time>2026-04-04T08:37:44.999Z</time></trkpt><trkpt lat="45.00587417773875" lon="8.531767166232688"><ele>189.33333333333334</ele><time>2026-04-04T08:37:46.999Z</time></trkpt><trkpt lat="45.00581585624936" lon="8.531728194585892"><ele>188.66666666666669</ele><time>2026-04-04T08:37:48.999Z</time></trkpt><trkpt lat="45.005751177282924" lon="8.531686217616864"><ele>188.0</ele><time>2026-04-04T08:37:52.999Z</time></trkpt><trkpt lat="45.005662325910635" lon="8.531639632428686"><ele>187.33333333333334</ele><time>2026-04-04T08:37:55.999Z</time></trkpt><trkpt lat="45.00556624310802" lon="8.531600606954369"><ele>186.66666666666666</ele><time>2026-04-04T08:37:57.999Z</time></trkpt><trkpt lat="45.005500357626154" lon="8.531555655380675"><ele>186.0</ele><time>2026-04-04T08:37:58.999Z</time></trkpt><trkpt lat="45.00543272991381" lon="8.531522314332118"><ele>186.0</ele><time>2026-04-04T08:37:59.999Z</time></trkpt><trkpt lat="45.00535333633466" lon="8.531488927448724"><ele>186.0</ele><time>2026-04-04T08:38:00.999Z</time></trkpt><trkpt lat="45.00527182933501" lon="8.531443932607715"><ele>186.0</ele><time>2026-04-04T08:38:01.999Z</time></trkpt><trkpt lat="45.00517851535209" lon="8.531374577501351"><ele>186.0</ele><time>2026-04-04T08:38:02.999Z</time></trkpt><trkpt lat="45.00507735116161" lon="8.531329900753029"><ele>186.0</ele><time>2026-04-04T08:38:03.999Z</time></trkpt><trkpt lat="45.0049847536159" lon="8.531277140692447"><ele>187.60000000000002</ele><time>2026-04-04T08:38:04.999Z</time></trkpt><trkpt lat="45.00488993072643" lon="8.53123055477328"><ele>189.2</ele><time>2026-04-04T08:38:05.999Z</time></trkpt><trkpt lat="45.00480121665125" lon="8.531179987808054"><ele>190.8</ele><time>2026-04-04T08:38:06.999Z</time></trkpt><trkpt lat="45.0047068372943" lon="8.531126692276006"><ele>192.39999999999998</ele><time>2026-04-04T08:38:07.999Z</time></trkpt><trkpt lat="45.00458836930564" lon="8.531045781632058"><ele>194.0</ele><time>2026-04-04T08:38:09.999Z</time></trkpt><trkpt lat="45.00449563716921" lon="8.531023320371624"><ele>194.39999999999998</ele><time>2026-04-04T08:38:10.999Z</time></trkpt><trkpt lat="45.00441250054671" lon="8.531026476102321"><ele>194.8</ele><time>2026-04-04T08:38:11.999Z</time></trkpt><trkpt lat="45.00434574844622" lon="8.531078296559643"><ele>195.2</ele><time>2026-04-04T08:38:12.999Z</time></trkpt><trkpt lat="45.00422702353929" lon="8.53117539113857"><ele>195.60000000000002</ele><time>2026-04-04T08:38:14.998Z</time></trkpt><trkpt lat="45.00415753733038" lon="8.531232479957897"><ele>196.0</ele><time>2026-04-04T08:38:15.998Z</time></trkpt><trkpt lat="45.004081880080456" lon="8.531254486968496"><ele>195.99999999999997</ele><time>2026-04-04T08:38:16.998Z</time></trkpt><trkpt lat="45.004003734829105" lon="8.531283788151033"><ele>196.0</ele><time>2026-04-04T08:38:18Z</time></trkpt><trkpt lat="45.003928561103315" lon="8.531307238782619"><ele>196.0</ele><time>2026-04-04T08:38:19Z</time></trkpt><trkpt lat="45.00385302666011" lon="8.531301214586469"><ele>196.0</ele><time>2026-04-04T08:38:20Z</time></trkpt><trkpt lat="45.00376978271479" lon="8.531299042855105"><ele>195.99999999999997</ele><time>2026-04-04T08:38:21Z</time></trkpt><trkpt lat="45.00369391371876" lon="8.531273822774367"><ele>196.0</ele><time>2026-04-04T08:38:22Z</time></trkpt><trkpt lat="45.00360823373763" lon="8.531230898380139"><ele>196.8</ele><time>2026-04-04T08:38:23Z</time></trkpt><trkpt lat="45.00352718183264" lon="8.531181734805356"><ele>197.60000000000002</ele><time>2026-04-04T08:38:24Z</time></trkpt><trkpt lat="45.00346433234323" lon="8.531132779082206"><ele>198.4</ele><time>2026-04-04T08:38:25Z</time></trkpt><trkpt lat="45.003373139077055" lon="8.531088660917598"><ele>199.2</ele><time>2026-04-04T08:38:27Z</time></trkpt><trkpt lat="45.0032585397851" lon="8.531121623723458"><ele>200.0</ele><time>2026-04-04T08:38:29Z</time></trkpt><trkpt lat="45.0031921718394" lon="8.531224392629609"><ele>198.4</ele><time>2026-04-04T08:38:30Z</time></trkpt><trkpt lat="45.00313000997296" lon="8.531348620304252"><ele>196.8</ele><time>2026-04-04T08:38:31Z</time></trkpt><trkpt lat="45.00306728064604" lon="8.531485336987602"><ele>195.2</ele><time>2026-04-04T08:38:32Z</time></trkpt><trkpt lat="45.003033987011584" lon="8.531602544367516"><ele>193.6</ele><time>2026-04-04T08:38:33Z</time></trkpt><trkpt lat="45.00299092503786" lon="8.531718607665779"><ele>192.0</ele><time>2026-04-04T08:38:34Z</time></trkpt><trkpt lat="45.00295117602834" lon="8.53184144531188"><ele>192.0</ele><time>2026-04-04T08:38:35Z</time></trkpt><trkpt lat="45.00292333779791" lon="8.531956052267763"><ele>192.0</ele><time>2026-04-04T08:38:36Z</time></trkpt><trkpt lat="45.00288754174125" lon="8.532079814971558"><ele>192.0</ele><time>2026-04-04T08:38:37Z</time></trkpt><trkpt lat="45.002854181599226" lon="8.53221337596311"><ele>192.0</ele><time>2026-04-04T08:38:38Z</time></trkpt><trkpt lat="45.002830662904124" lon="8.532342313396043"><ele>192.0</ele><time>2026-04-04T08:38:39Z</time></trkpt><trkpt lat="45.00280065119089" lon="8.532467667497865"><ele>192.33333333333334</ele><time>2026-04-04T08:38:40Z</time></trkpt><trkpt lat="45.002754577035795" lon="8.532602108757452"><ele>192.66666666666669</ele><time>2026-04-04T08:38:41Z</time></trkpt><trkpt lat="45.00271461614004" lon="8.532720984605419"><ele>193.0</ele><time>2026-04-04T08:38:42Z</time></trkpt><trkpt lat="45.002674227341245" lon="8.53282687061715"><ele>193.33333333333334</ele><time>2026-04-04T08:38:43Z</time></trkpt><trkpt lat="45.00264272136299" lon="8.532927847435918"><ele>193.66666666666669</ele><time>2026-04-04T08:38:44Z</time></trkpt><trkpt lat="45.00261193042646" lon="8.5330160723716"><ele>194.0</ele><time>2026-04-04T08:38:45Z</time></trkpt><trkpt lat="45.002582997806805" lon="8.533098013771372"><ele>194.00000000000003</ele><time>2026-04-04T08:38:46Z</time></trkpt><trkpt lat="45.00255303877926" lon="8.533202945373272"><ele>194.0</ele><time>2026-04-04T08:38:47Z</time></trkpt><trkpt lat="45.00253628827265" lon="8.533333048959358"><ele>194.0</ele><time>2026-04-04T08:38:48Z</time></trkpt><trkpt lat="45.002511086669365" lon="8.53342865307272"><ele>194.0</ele><time>2026-04-04T08:38:49Z</time></trkpt><trkpt lat="45.00246819106324" lon="8.533526919754074"><ele>194.00000000000003</ele><time>2026-04-04T08:38:50Z</time></trkpt><trkpt lat="45.00242263532161" lon="8.533609911081061"><ele>194.0</ele><time>2026-04-04T08:38:51Z</time></trkpt><trkpt lat="45.00236426865999" lon="8.533737096684973"><ele>193.83333333333334</ele><time>2026-04-04T08:38:52Z</time></trkpt><trkpt lat="45.00227483050977" lon="8.533861252768093"><ele>193.66666666666669</ele><time>2026-04-04T08:38:53.999Z</time></trkpt><trkpt lat="45.002230003732215" lon="8.533932836125683"><ele>193.5</ele><time>2026-04-04T08:38:54.999Z</time></trkpt><trkpt lat="45.002181323231376" lon="8.534015672003882"><ele>193.33333333333331</ele><time>2026-04-04T08:38:55.999Z</time></trkpt><trkpt lat="45.00212409275622" lon="8.534103245039761"><ele>193.16666666666666</ele><time>2026-04-04T08:38:56.999Z</time></trkpt><trkpt lat="45.00207076639546" lon="8.534170079931156"><ele>193.0</ele><time>2026-04-04T08:38:57.999Z</time></trkpt><trkpt lat="45.00201566388924" lon="8.534243682868885"><ele>192.99999999999997</ele><time>2026-04-04T08:38:58.999Z</time></trkpt><trkpt lat="45.00194172296627" lon="8.534319654843866"><ele>193.0</ele><time>2026-04-04T08:38:59.999Z</time></trkpt><trkpt lat="45.001876220065256" lon="8.53437754894007"><ele>193.0</ele><time>2026-04-04T08:39:00.999Z</time></trkpt><trkpt lat="45.001805334608186" lon="8.534425871273967"><ele>193.0</ele><time>2026-04-04T08:39:01.999Z</time></trkpt><trkpt lat="45.00174128876299" lon="8.534475008437493"><ele>192.99999999999997</ele><time>2026-04-04T08:39:02.999Z</time></trkpt><trkpt lat="45.001676837175474" lon="8.534530529388972"><ele>193.0</ele><time>2026-04-04T08:39:03.999Z</time></trkpt><trkpt lat="45.001614806165286" lon="8.53456618008498"><ele>191.75</ele><time>2026-04-04T08:39:04.999Z</time></trkpt><trkpt lat="45.00151550770127" lon="8.534625839208633"><ele>190.5</ele><time>2026-04-04T08:39:06.999Z</time></trkpt><trkpt lat="45.001439816908835" lon="8.534687098536958"><ele>189.25</ele><time>2026-04-04T08:39:07.999Z</time></trkpt><trkpt lat="45.00135073636781" lon="8.534767957357738"><ele>188.0</ele><time>2026-04-04T08:39:08.999Z</time></trkpt><trkpt lat="45.00124522812673" lon="8.534927707118223"><ele>188.0</ele><time>2026-04-04T08:39:09.999Z</time></trkpt><trkpt lat="45.001125964904745" lon="8.535138054968307"><ele>188.0</ele><time>2026-04-04T08:39:10.999Z</time></trkpt><trkpt lat="45.00099638493635" lon="8.53529402223773"><ele>188.0</ele><time>2026-04-04T08:39:11.999Z</time></trkpt><trkpt lat="45.000890281015955" lon="8.535425998464849"><ele>188.0</ele><time>2026-04-04T08:39:12.999Z</time></trkpt><trkpt lat="45.0007657127134" lon="8.535583206622123"><ele>188.0</ele><time>2026-04-04T08:39:13.999Z</time></trkpt><trkpt lat="45.000650770967034" lon="8.535733963565033"><ele>188.0</ele><time>2026-04-04T08:39:14.999Z</time></trkpt><trkpt lat="45.00054591454198" lon="8.535872679883465"><ele>188.0</ele><time>2026-04-04T08:39:15.999Z</time></trkpt><trkpt lat="45.00042812752323" lon="8.536036580194043"><ele>188.0</ele><time>2026-04-04T08:39:16.999Z</time></trkpt><trkpt lat="45.00030319977314" lon="8.536203055147887"><ele>188.0</ele><time>2026-04-04T08:39:17.999Z</time></trkpt><trkpt lat="45.00018185329665" lon="8.536354122349023"><ele>189.0</ele><time>2026-04-04T08:39:18.999Z</time></trkpt><trkpt lat="45.000064603325214" lon="8.536490015623114"><ele>190.0</ele><time>2026-04-04T08:39:19.999Z</time></trkpt><trkpt lat="44.99994581375009" lon="8.536611341009467"><ele>191.0</ele><time>2026-04-04T08:39:20.999Z</time></trkpt><trkpt lat="44.999806211801754" lon="8.536729276917304"><ele>191.0</ele><time>2026-04-04T08:39:21.999Z</time></trkpt><trkpt lat="44.999671992730526" lon="8.53683530868688"><ele>191.0</ele><time>2026-04-04T08:39:22.999Z</time></trkpt><trkpt lat="44.99954188597079" lon="8.536933693725619"><ele>191.0</ele><time>2026-04-04T08:39:23.999Z</time></trkpt><trkpt lat="44.99941985257254" lon="8.537029838775046"><ele>191.0</ele><time>2026-04-04T08:39:24.999Z</time></trkpt><trkpt lat="44.99930246846771" lon="8.53712963353418"><ele>191.33333333333331</ele><time>2026-04-04T08:39:25.999Z</time></trkpt><trkpt lat="44.999173923459715" lon="8.537245178202125"><ele>191.66666666666666</ele><time>2026-04-04T08:39:26.999Z</time></trkpt><trkpt lat="44.99903958022946" lon="8.53737162832386"><ele>192.0</ele><time>2026-04-04T08:39:27.999Z</time></trkpt><trkpt lat="44.998906296741524" lon="8.537495788925554"><ele>192.0</ele><time>2026-04-04T08:39:28.999Z</time></trkpt><trkpt lat="44.9987759622904" lon="8.537599206422366"><ele>192.0</ele><time>2026-04-04T08:39:29.999Z</time></trkpt><trkpt lat="44.99866507852254" lon="8.537685947926201"><ele>192.0</ele><time>2026-04-04T08:39:30.999Z</time></trkpt><trkpt lat="44.99856546724245" lon="8.537776587780478"><ele>192.0</ele><time>2026-04-04T08:39:31.999Z</time></trkpt><trkpt lat="44.998468888281685" lon="8.537922009591309"><ele>192.0</ele><time>2026-04-04T08:39:32.999Z</time></trkpt><trkpt lat="44.99837123200636" lon="8.538111893292355"><ele>192.0</ele><time>2026-04-04T08:39:33.999Z</time></trkpt><trkpt lat="44.99825942202089" lon="8.538327435932969"><ele>192.0</ele><time>2026-04-04T08:39:34.999Z</time></trkpt><trkpt lat="44.99816143257771" lon="8.538519611859169"><ele>192.0</ele><time>2026-04-04T08:39:35.999Z</time></trkpt><trkpt lat="44.998072725207564" lon="8.538696110022283"><ele>192.0</ele><time>2026-04-04T08:39:36.999Z</time></trkpt><trkpt lat="44.99798363006892" lon="8.53887415651936"><ele>192.0</ele><time>2026-04-04T08:39:37.999Z</time></trkpt><trkpt lat="44.99788939041797" lon="8.539067847858135"><ele>192.0</ele><time>2026-04-04T08:39:38.999Z</time></trkpt><trkpt lat="44.99779946561529" lon="8.539264129178513"><ele>192.0</ele><time>2026-04-04T08:39:39.999Z</time></trkpt><trkpt lat="44.99772269710197" lon="8.53941918659593"><ele>192.0</ele><time>2026-04-04T08:39:40.999Z</time></trkpt><trkpt lat="44.99764641730168" lon="8.539553710584652"><ele>192.0</ele><time>2026-04-04T08:39:41.999Z</time></trkpt><trkpt lat="44.99757486895817" lon="8.539675740602974"><ele>191.39999999999998</ele><time>2026-04-04T08:39:42.999Z</time></trkpt><trkpt lat="44.997510077205895" lon="8.53980206221243"><ele>190.79999999999998</ele><time>2026-04-04T08:39:43.999Z</time></trkpt><trkpt lat="44.997449248018796" lon="8.53993493848743"><ele>190.2</ele><time>2026-04-04T08:39:44.999Z</time></trkpt><trkpt lat="44.99739837907695" lon="8.540071726460281"><ele>189.6</ele><time>2026-04-04T08:39:45.999Z</time></trkpt><trkpt lat="44.997359283067404" lon="8.54020159031673"><ele>189.0</ele><time>2026-04-04T08:39:46.999Z</time></trkpt><trkpt lat="44.997349837914285" lon="8.540356205905281"><ele>190.79999999999998</ele><time>2026-04-04T08:39:47.999Z</time></trkpt><trkpt lat="44.997354210429464" lon="8.54049678931048"><ele>192.6</ele><time>2026-04-04T08:39:48.999Z</time></trkpt><trkpt lat="44.99736058534737" lon="8.540626687689036"><ele>194.4</ele><time>2026-04-04T08:39:49.999Z</time></trkpt><trkpt lat="44.99738396506099" lon="8.54077521432196"><ele>196.2</ele><time>2026-04-04T08:39:50.999Z</time></trkpt><trkpt lat="44.997417449570875" lon="8.540924714319734"><ele>198.0</ele><time>2026-04-04T08:39:51.999Z</time></trkpt><trkpt lat="44.99746256433033" lon="8.541093831556294"><ele>196.33333333333331</ele><time>2026-04-04T08:39:52.999Z</time></trkpt><trkpt lat="44.997510678631684" lon="8.541302195200354"><ele>194.66666666666666</ele><time>2026-04-04T08:39:53.999Z</time></trkpt><trkpt lat="44.99756075786026" lon="8.541515356842233"><ele>193.0</ele><time>2026-04-04T08:39:54.999Z</time></trkpt><trkpt lat="44.99761751298673" lon="8.541722122722804"><ele>193.0</ele><time>2026-04-04T08:39:55.999Z</time></trkpt><trkpt lat="44.997671649988504" lon="8.541915203472971"><ele>193.0</ele><time>2026-04-04T08:39:56.999Z</time></trkpt><trkpt lat="44.99772267400168" lon="8.54212761650782"><ele>193.0</ele><time>2026-04-04T08:39:57.999Z</time></trkpt><trkpt lat="44.99776894176822" lon="8.542342217419325"><ele>193.5</ele><time>2026-04-04T08:39:58.999Z</time></trkpt><trkpt lat="44.997817717901675" lon="8.542585765954707"><ele>194.0</ele><time>2026-04-04T08:39:59.999Z</time></trkpt><trkpt lat="44.997844264604645" lon="8.54275544501007"><ele>194.5</ele><time>2026-04-04T08:40:00.999Z</time></trkpt><trkpt lat="44.99785647803593" lon="8.542901586188673"><ele>195.0</ele><time>2026-04-04T08:40:01.999Z</time></trkpt><trkpt lat="44.9978687257968" lon="8.543054649838254"><ele>196.25</ele><time>2026-04-04T08:40:02.999Z</time></trkpt><trkpt lat="44.99787113758394" lon="8.543187780791975"><ele>197.5</ele><time>2026-04-04T08:40:03.999Z</time></trkpt><trkpt lat="44.997863679075806" lon="8.543349324362534"><ele>198.75</ele><time>2026-04-04T08:40:04.999Z</time></trkpt><trkpt lat="44.997828572187345" lon="8.543522691479346"><ele>200.0</ele><time>2026-04-04T08:40:05.999Z</time></trkpt><trkpt lat="44.99779827437802" lon="8.543689647641608"><ele>200.25</ele><time>2026-04-04T08:40:06.999Z</time></trkpt><trkpt lat="44.99775493810354" lon="8.543877603136387"><ele>200.5</ele><time>2026-04-04T08:40:07.999Z</time></trkpt><trkpt lat="44.9976987593572" lon="8.544062014020621"><ele>200.75</ele><time>2026-04-04T08:40:08.999Z</time></trkpt><trkpt lat="44.997644196258456" lon="8.544225897267278"><ele>201.0</ele><time>2026-04-04T08:40:09.999Z</time></trkpt><trkpt lat="44.99758691796399" lon="8.54440046139033"><ele>199.66666666666669</ele><time>2026-04-04T08:40:10.999Z</time></trkpt><trkpt lat="44.99752020885274" lon="8.544567958676485"><ele>198.33333333333334</ele><time>2026-04-04T08:40:11.999Z</time></trkpt><trkpt lat="44.99743380485663" lon="8.544736992196134"><ele>197.0</ele><time>2026-04-04T08:40:12.999Z</time></trkpt><trkpt lat="44.99732805027567" lon="8.544925358093895"><ele>201.0</ele><time>2026-04-04T08:40:13.999Z</time></trkpt><trkpt lat="44.99721896237833" lon="8.545124016604248"><ele>205.0</ele><time>2026-04-04T08:40:14.999Z</time></trkpt><trkpt lat="44.99711959802459" lon="8.545307299178884"><ele>209.0</ele><time>2026-04-04T08:40:15.999Z</time></trkpt><trkpt lat="44.99702326180612" lon="8.545497596279276"><ele>209.33333333333334</ele><time>2026-04-04T08:40:16.999Z</time></trkpt><trkpt lat="44.99694502584072" lon="8.545679846192815"><ele>209.66666666666669</ele><time>2026-04-04T08:40:17.999Z</time></trkpt><trkpt lat="44.99688325652466" lon="8.545860492140033"><ele>210.0</ele><time>2026-04-04T08:40:18.999Z</time></trkpt><trkpt lat="44.9968081481603" lon="8.546091313939456"><ele>209.66666666666669</ele><time>2026-04-04T08:40:19.999Z</time></trkpt><trkpt lat="44.99673043337784" lon="8.546341291167524"><ele>209.33333333333334</ele><time>2026-04-04T08:40:20.999Z</time></trkpt><trkpt lat="44.99666485411661" lon="8.546556384419821"><ele>209.0</ele><time>2026-04-04T08:40:21.998Z</time></trkpt><trkpt lat="44.996615560064" lon="8.546720844891187"><ele>211.00000000000003</ele><time>2026-04-04T08:40:22.998Z</time></trkpt><trkpt lat="44.99656928437978" lon="8.546858820126243"><ele>213.0</ele><time>2026-04-04T08:40:24Z</time></trkpt><trkpt lat="44.996528175848354" lon="8.546961458913094"><ele>215.0</ele><time>2026-04-04T08:40:25Z</time></trkpt><trkpt lat="44.99648269774392" lon="8.547064078167653"><ele>217.0</ele><time>2026-04-04T08:40:26Z</time></trkpt><trkpt lat="44.99643850537252" lon="8.54714066422937"><ele>219.00000000000003</ele><time>2026-04-04T08:40:27Z</time></trkpt><trkpt lat="44.996395730210736" lon="8.547208257193226"><ele>221.0</ele><time>2026-04-04T08:40:28Z</time></trkpt><trkpt lat="44.99633614206611" lon="8.547268816725177"><ele>221.8</ele><time>2026-04-04T08:40:30Z</time></trkpt><trkpt lat="44.99626903993255" lon="8.547340817469323"><ele>222.60000000000002</ele><time>2026-04-04T08:40:39Z</time></trkpt><trkpt lat="44.9962643942725" lon="8.54745250052671"><ele>223.4</ele><time>2026-04-04T08:40:40Z</time></trkpt><trkpt lat="44.9962691055277" lon="8.547569754585325"><ele>224.2</ele><time>2026-04-04T08:40:41Z</time></trkpt><trkpt lat="44.99627360322909" lon="8.547713814390754"><ele>225.0</ele><time>2026-04-04T08:40:42Z</time></trkpt><trkpt lat="44.99626793816718" lon="8.547865112641507"><ele>224.5</ele><time>2026-04-04T08:40:43Z</time></trkpt><trkpt lat="44.99626675472752" lon="8.548017020645656"><ele>224.0</ele><time>2026-04-04T08:40:44Z</time></trkpt><trkpt lat="44.99627171858865" lon="8.548163719874399"><ele>223.5</ele><time>2026-04-04T08:40:45Z</time></trkpt><trkpt lat="44.99628391888945" lon="8.548339194474599"><ele>223.0</ele><time>2026-04-04T08:40:46Z</time></trkpt><trkpt lat="44.996297941842116" lon="8.548528408469585"><ele>221.75</ele><time>2026-04-04T08:40:47Z</time></trkpt><trkpt lat="44.99630793130164" lon="8.548717201069044"><ele>220.5</ele><time>2026-04-04T08:40:48Z</time></trkpt><trkpt lat="44.99631505191976" lon="8.548913776019267"><ele>219.25</ele><time>2026-04-04T08:40:49Z</time></trkpt><trkpt lat="44.996310779086436" lon="8.549107997967162"><ele>218.0</ele><time>2026-04-04T08:40:50Z</time></trkpt><trkpt lat="44.996297916370125" lon="8.549307272149635"><ele>218.0</ele><time>2026-04-04T08:40:51Z</time></trkpt><trkpt lat="44.996283782951906" lon="8.549521386957805"><ele>218.0</ele><time>2026-04-04T08:40:52Z</time></trkpt><trkpt lat="44.99626693705338" lon="8.549741870058917"><ele>218.0</ele><time>2026-04-04T08:40:53Z</time></trkpt><trkpt lat="44.99625612370904" lon="8.549970848226065"><ele>217.33333333333334</ele><time>2026-04-04T08:40:53.999Z</time></trkpt><trkpt lat="44.99624066000786" lon="8.550204052245707"><ele>216.66666666666669</ele><time>2026-04-04T08:40:54.999Z</time></trkpt><trkpt lat="44.99622844863205" lon="8.55044469454552"><ele>216.0</ele><time>2026-04-04T08:40:55.999Z</time></trkpt><trkpt lat="44.99621727323857" lon="8.550661628528639"><ele>214.75</ele><time>2026-04-04T08:40:56.999Z</time></trkpt><trkpt lat="44.996208454662614" lon="8.550868652596042"><ele>213.5</ele><time>2026-04-04T08:40:57.999Z</time></trkpt><trkpt lat="44.996196238381" lon="8.551075511032952"><ele>212.25</ele><time>2026-04-04T08:40:58.999Z</time></trkpt><trkpt lat="44.996187146999645" lon="8.551277053010693"><ele>211.0</ele><time>2026-04-04T08:40:59.999Z</time></trkpt><trkpt lat="44.99618301676644" lon="8.551464647396987"><ele>210.5</ele><time>2026-04-04T08:41:00.999Z</time></trkpt><trkpt lat="44.996191740342226" lon="8.55166081644146"><ele>210.0</ele><time>2026-04-04T08:41:01.999Z</time></trkpt><trkpt lat="44.996209727624795" lon="8.55184470034602"><ele>209.5</ele><time>2026-04-04T08:41:02.999Z</time></trkpt><trkpt lat="44.99622664272687" lon="8.552027124354037"><ele>209.0</ele><time>2026-04-04T08:41:03.999Z</time></trkpt><trkpt lat="44.99625162214027" lon="8.552201031159232"><ele>208.5</ele><time>2026-04-04T08:41:04.999Z</time></trkpt><trkpt lat="44.99627031276043" lon="8.552367964675174"><ele>208.0</ele><time>2026-04-04T08:41:05.999Z</time></trkpt><trkpt lat="44.99630169731703" lon="8.55253910789478"><ele>207.5</ele><time>2026-04-04T08:41:06.999Z</time></trkpt><trkpt lat="44.99633055761439" lon="8.552724406560884"><ele>207.0</ele><time>2026-04-04T08:41:07.999Z</time></trkpt><trkpt lat="44.99635790638638" lon="8.552922954849988"><ele>206.5</ele><time>2026-04-04T08:41:08.999Z</time></trkpt><trkpt lat="44.9963813674683" lon="8.553127600930168"><ele>206.0</ele><time>2026-04-04T08:41:09.999Z</time></trkpt><trkpt lat="44.996419661015764" lon="8.553333637756687"><ele>205.5</ele><time>2026-04-04T08:41:10.999Z</time></trkpt><trkpt lat="44.99646209206807" lon="8.55353918668758"><ele>205.0</ele><time>2026-04-04T08:41:11.999Z</time></trkpt><trkpt lat="44.99652051371155" lon="8.553742366771672"><ele>204.66666666666666</ele><time>2026-04-04T08:41:12.999Z</time></trkpt><trkpt lat="44.99658848662211" lon="8.553949988280817"><ele>204.33333333333331</ele><time>2026-04-04T08:41:13.999Z</time></trkpt><trkpt lat="44.996664045406185" lon="8.554163651909372"><ele>204.0</ele><time>2026-04-04T08:41:14.999Z</time></trkpt><trkpt lat="44.996740430221514" lon="8.55437087642225"><ele>203.66666666666669</ele><time>2026-04-04T08:41:15.999Z</time></trkpt><trkpt lat="44.996834134019934" lon="8.554585466370785"><ele>203.33333333333334</ele><time>2026-04-04T08:41:16.999Z</time></trkpt><trkpt lat="44.99692503253093" lon="8.55478235040821"><ele>203.0</ele><time>2026-04-04T08:41:17.999Z</time></trkpt><trkpt lat="44.99702003702447" lon="8.554977623009975"><ele>203.0</ele><time>2026-04-04T08:41:18.999Z</time></trkpt><trkpt lat="44.99710629617158" lon="8.55517409313647"><ele>203.0</ele><time>2026-04-04T08:41:19.999Z</time></trkpt><trkpt lat="44.997198674882874" lon="8.555368501104779"><ele>203.0</ele><time>2026-04-04T08:41:20.999Z</time></trkpt><trkpt lat="44.99728586972774" lon="8.555568980221965"><ele>203.66666666666669</ele><time>2026-04-04T08:41:21.999Z</time></trkpt><trkpt lat="44.997375493169976" lon="8.555762107818689"><ele>204.33333333333331</ele><time>2026-04-04T08:41:22.999Z</time></trkpt><trkpt lat="44.99746091966374" lon="8.555949995268197"><ele>205.0</ele><time>2026-04-04T08:41:23.999Z</time></trkpt><trkpt lat="44.997545256230374" lon="8.5561375282024"><ele>206.66666666666666</ele><time>2026-04-04T08:41:24.999Z</time></trkpt><trkpt lat="44.99763367708068" lon="8.55632366655246"><ele>208.33333333333331</ele><time>2026-04-04T08:41:25.999Z</time></trkpt><trkpt lat="44.99772484734555" lon="8.556507140257944"><ele>210.0</ele><time>2026-04-04T08:41:26.999Z</time></trkpt><trkpt lat="44.99780346565173" lon="8.556687798765601"><ele>210.0</ele><time>2026-04-04T08:41:27.999Z</time></trkpt><trkpt lat="44.997873778490494" lon="8.556865345167802"><ele>210.0</ele><time>2026-04-04T08:41:28.999Z</time></trkpt><trkpt lat="44.99796627818091" lon="8.557020246492971"><ele>210.0</ele><time>2026-04-04T08:41:29.999Z</time></trkpt><trkpt lat="44.99802729699596" lon="8.557187657287095"><ele>210.0</ele><time>2026-04-04T08:41:30.999Z</time></trkpt><trkpt lat="44.998100926102815" lon="8.557345425419218"><ele>210.5</ele><time>2026-04-04T08:41:31.999Z</time></trkpt><trkpt lat="44.99818435674179" lon="8.557490585658753"><ele>211.0</ele><time>2026-04-04T08:41:32.999Z</time></trkpt><trkpt lat="44.99824519573031" lon="8.55763920072028"><ele>211.5</ele><time>2026-04-04T08:41:33.999Z</time></trkpt><trkpt lat="44.99828636036243" lon="8.55779584287249"><ele>212.0</ele><time>2026-04-04T08:41:34.999Z</time></trkpt><trkpt lat="44.998323134037754" lon="8.557943015707703"><ele>214.25</ele><time>2026-04-04T08:41:35.999Z</time></trkpt><trkpt lat="44.998364648257024" lon="8.558090606726225"><ele>216.5</ele><time>2026-04-04T08:41:36.999Z</time></trkpt><trkpt lat="44.99838409920598" lon="8.558252524105981"><ele>218.75</ele><time>2026-04-04T08:41:37.999Z</time></trkpt><trkpt lat="44.998375066850464" lon="8.558435143835903"><ele>221.0</ele><time>2026-04-04T08:41:38.999Z</time></trkpt><trkpt lat="44.99837399034482" lon="8.55861510492788"><ele>221.25</ele><time>2026-04-04T08:41:39.999Z</time></trkpt><trkpt lat="44.99837000477527" lon="8.558809427139973"><ele>221.5</ele><time>2026-04-04T08:41:40.999Z</time></trkpt><trkpt lat="44.99836258537179" lon="8.559004098408993"><ele>221.75</ele><time>2026-04-04T08:41:41.999Z</time></trkpt><trkpt lat="44.99835192562518" lon="8.559214808812959"><ele>222.0</ele><time>2026-04-04T08:41:42.999Z</time></trkpt><trkpt lat="44.998336308185486" lon="8.559415939779662"><ele>220.75</ele><time>2026-04-04T08:41:43.999Z</time></trkpt><trkpt lat="44.998305157150085" lon="8.559611615620074"><ele>219.5</ele><time>2026-04-04T08:41:44.999Z</time></trkpt><trkpt lat="44.99826476914437" lon="8.559814611141006"><ele>218.25</ele><time>2026-04-04T08:41:45.999Z</time></trkpt><trkpt lat="44.998220850193306" lon="8.560020794948274"><ele>217.0</ele><time>2026-04-04T08:41:46.999Z</time></trkpt><trkpt lat="44.998185370774294" lon="8.560239807419128"><ele>218.33333333333331</ele><time>2026-04-04T08:41:47.999Z</time></trkpt><trkpt lat="44.9981225986534" lon="8.560459950523319"><ele>219.66666666666669</ele><time>2026-04-04T08:41:48.999Z</time></trkpt><trkpt lat="44.99807666468776" lon="8.56066196965412"><ele>221.0</ele><time>2026-04-04T08:41:49.999Z</time></trkpt><trkpt lat="44.99801805634995" lon="8.560857760744705"><ele>221.0</ele><time>2026-04-04T08:41:50.999Z</time></trkpt><trkpt lat="44.99798651949347" lon="8.56103942218833"><ele>221.0</ele><time>2026-04-04T08:41:51.999Z</time></trkpt><trkpt lat="44.99793602138914" lon="8.561206892410931"><ele>221.0</ele><time>2026-04-04T08:41:52.999Z</time></trkpt><trkpt lat="44.99787956772419" lon="8.561369818076473"><ele>221.0</ele><time>2026-04-04T08:41:53.999Z</time></trkpt><trkpt lat="44.99782800325529" lon="8.561528678862897"><ele>221.5</ele><time>2026-04-04T08:41:54.999Z</time></trkpt><trkpt lat="44.99773754395185" lon="8.561656689248684"><ele>222.0</ele><time>2026-04-04T08:41:55.999Z</time></trkpt><trkpt lat="44.99768248678171" lon="8.561804013266055"><ele>222.5</ele><time>2026-04-04T08:41:56.999Z</time></trkpt><trkpt lat="44.99762188742419" lon="8.561965395464929"><ele>223.0</ele><time>2026-04-04T08:41:57.999Z</time></trkpt><trkpt lat="44.99755985673323" lon="8.56213178925046"><ele>221.5</ele><time>2026-04-04T08:41:58.999Z</time></trkpt><trkpt lat="44.997505824066465" lon="8.56228483991416"><ele>220.0</ele><time>2026-04-04T08:41:59.999Z</time></trkpt><trkpt lat="44.99745579418938" lon="8.562426426283396"><ele>218.5</ele><time>2026-04-04T08:42:00.999Z</time></trkpt><trkpt lat="44.997405549391125" lon="8.562566546357816"><ele>217.0</ele><time>2026-04-04T08:42:01.999Z</time></trkpt><trkpt lat="44.99735277836287" lon="8.562710039072801"><ele>216.99999999999997</ele><time>2026-04-04T08:42:02.999Z</time></trkpt><trkpt lat="44.99731968787268" lon="8.562850397937789"><ele>217.0</ele><time>2026-04-04T08:42:03.999Z</time></trkpt><trkpt lat="44.99726124915502" lon="8.562958921360874"><ele>217.0</ele><time>2026-04-04T08:42:04.999Z</time></trkpt><trkpt lat="44.997236930639126" lon="8.563084654432844"><ele>217.0</ele><time>2026-04-04T08:42:05.999Z</time></trkpt><trkpt lat="44.997208594136985" lon="8.563175595996888"><ele>216.99999999999997</ele><time>2026-04-04T08:42:06.999Z</time></trkpt><trkpt lat="44.997165509942754" lon="8.563249764954906"><ele>217.0</ele><time>2026-04-04T08:42:08.999Z</time></trkpt><trkpt lat="44.997096275921905" lon="8.563339206233685"><ele>217.0</ele><time>2026-04-04T08:42:10.999Z</time></trkpt><trkpt lat="44.99702399991825" lon="8.56343785392967"><ele>217.0</ele><time>2026-04-04T08:42:11.999Z</time></trkpt><trkpt lat="44.99694051851248" lon="8.563545926768958"><ele>217.0</ele><time>2026-04-04T08:42:12.999Z</time></trkpt><trkpt lat="44.99682310538018" lon="8.563673654394163"><ele>217.0</ele><time>2026-04-04T08:42:13.999Z</time></trkpt><trkpt lat="44.99671480022984" lon="8.563816072853646"><ele>215.66666666666666</ele><time>2026-04-04T08:42:14.999Z</time></trkpt><trkpt lat="44.99660476598091" lon="8.563965008823878"><ele>214.33333333333331</ele><time>2026-04-04T08:42:15.999Z</time></trkpt><trkpt lat="44.99649600039596" lon="8.564119794729299"><ele>213.0</ele><time>2026-04-04T08:42:16.999Z</time></trkpt><trkpt lat="44.99640294950558" lon="8.564282734396997"><ele>213.0</ele><time>2026-04-04T08:42:17.999Z</time></trkpt><trkpt lat="44.99632036249215" lon="8.56441449464389"><ele>213.0</ele><time>2026-04-04T08:42:18.999Z</time></trkpt><trkpt lat="44.996237832395714" lon="8.564551678437674"><ele>213.0</ele><time>2026-04-04T08:42:19.998Z</time></trkpt><trkpt lat="44.99614078452178" lon="8.564673651479541"><ele>213.0</ele><time>2026-04-04T08:42:20.998Z</time></trkpt><trkpt lat="44.99605711078438" lon="8.564834010301178"><ele>213.5</ele><time>2026-04-04T08:42:21.998Z</time></trkpt><trkpt lat="44.995973777133514" lon="8.564993665415999"><ele>214.0</ele><time>2026-04-04T08:42:22.998Z</time></trkpt><trkpt lat="44.995906481687804" lon="8.565139121677475"><ele>214.5</ele><time>2026-04-04T08:42:23.998Z</time></trkpt><trkpt lat="44.995846062185045" lon="8.565285668042238"><ele>215.0</ele><time>2026-04-04T08:42:24.998Z</time></trkpt><trkpt lat="44.99579692381407" lon="8.565402523964766"><ele>215.00000000000003</ele><time>2026-04-04T08:42:25.998Z</time></trkpt><trkpt lat="44.99574382988476" lon="8.565525296949886"><ele>215.0</ele><time>2026-04-04T08:42:26.998Z</time></trkpt><trkpt lat="44.99568766978878" lon="8.565655152442025"><ele>215.0</ele><time>2026-04-04T08:42:27.998Z</time></trkpt><trkpt lat="44.99564359954294" lon="8.565757048750822"><ele>215.0</ele><time>2026-04-04T08:42:28.998Z</time></trkpt><trkpt lat="44.99560237034627" lon="8.565852785320615"><ele>215.00000000000003</ele><time>2026-04-04T08:42:30Z</time></trkpt><trkpt lat="44.99556703305665" lon="8.56592798108288"><ele>215.0</ele><time>2026-04-04T08:42:31Z</time></trkpt><trkpt lat="44.99552273181314" lon="8.566022251587288"><ele>215.0</ele><time>2026-04-04T08:42:32Z</time></trkpt><trkpt lat="44.99546016998056" lon="8.566142791860386"><ele>215.0</ele><time>2026-04-04T08:42:34Z</time></trkpt><trkpt lat="44.99541794120777" lon="8.566209727000714"><ele>215.0</ele><time>2026-04-04T08:42:37Z</time></trkpt><trkpt lat="44.99543158908251" lon="8.566422932114696"><ele>215.0</ele><time>2026-04-04T08:42:40Z</time></trkpt><trkpt lat="44.99544479849371" lon="8.566533688104146"><ele>215.0</ele><time>2026-04-04T08:42:42Z</time></trkpt><trkpt lat="44.995508685482825" lon="8.566527150180233"><ele>216.6</ele><time>2026-04-04T08:42:43Z</time></trkpt><trkpt lat="44.99562862009617" lon="8.566564497276723"><ele>218.2</ele><time>2026-04-04T08:42:45Z</time></trkpt><trkpt lat="44.99571158411569" lon="8.566554498096268"><ele>219.8</ele><time>2026-04-04T08:42:46Z</time></trkpt><trkpt lat="44.99580962171725" lon="8.566556066712943"><ele>221.4</ele><time>2026-04-04T08:42:47Z</time></trkpt><trkpt lat="44.99589817310429" lon="8.566535694506701"><ele>223.0</ele><time>2026-04-04T08:42:48Z</time></trkpt><trkpt lat="44.99596383933545" lon="8.56642416146459"><ele>224.85714285714286</ele><time>2026-04-04T08:42:50Z</time></trkpt><trkpt lat="44.995990025234974" lon="8.566335596409072"><ele>226.71428571428572</ele><time>2026-04-04T08:42:51Z</time></trkpt><trkpt lat="44.99605822695856" lon="8.56631348732804"><ele>228.57142857142856</ele><time>2026-04-04T08:42:54Z</time></trkpt><trkpt lat="44.9961207779759" lon="8.566357328186292"><ele>230.42857142857144</ele><time>2026-04-04T08:42:55Z</time></trkpt><trkpt lat="44.99619580295498" lon="8.566387978116168"><ele>232.2857142857143</ele><time>2026-04-04T08:42:56Z</time></trkpt><trkpt lat="44.9962552445072" lon="8.566345826575347"><ele>234.14285714285714</ele><time>2026-04-04T08:42:57Z</time></trkpt><trkpt lat="44.99633918847005" lon="8.566301001558326"><ele>236.0</ele><time>2026-04-04T08:42:59Z</time></trkpt><trkpt lat="44.99643717423311" lon="8.566377870196"><ele>236.0</ele><time>2026-04-04T08:43:01Z</time></trkpt><trkpt lat="44.99653230393503" lon="8.566416682835552"><ele>236.0</ele><time>2026-04-04T08:43:03Z</time></trkpt><trkpt lat="44.99659776481598" lon="8.566320132110134"><ele>236.0</ele><time>2026-04-04T08:43:05Z</time></trkpt><trkpt lat="44.996688684015666" lon="8.566093012185567"><ele>236.0</ele><time>2026-04-04T08:43:05.999Z</time></trkpt><trkpt lat="44.99673033973528" lon="8.565992857918639"><ele>236.00000000000003</ele><time>2026-04-04T08:43:07.999Z</time></trkpt><trkpt lat="44.996697019874155" lon="8.566109560307943"><ele>236.0</ele><time>2026-04-04T08:43:31.999Z</time></trkpt><trkpt lat="44.996666680781786" lon="8.566200669531797"><ele>236.0</ele><time>2026-04-04T08:43:32.999Z</time></trkpt><trkpt lat="44.99663092272978" lon="8.566292028368917"><ele>236.0</ele><time>2026-04-04T08:43:33.999Z</time></trkpt><trkpt lat="44.99658014491828" lon="8.566412624580963"><ele>236.00000000000003</ele><time>2026-04-04T08:43:35.999Z</time></trkpt><trkpt lat="44.996529706309225" lon="8.566528076289371"><ele>236.0</ele><time>2026-04-04T08:43:38.999Z</time></trkpt><trkpt lat="44.996483241713705" lon="8.566639678094253"><ele>236.0</ele><time>2026-04-04T08:43:40.999Z</time></trkpt><trkpt lat="44.99673705963661" lon="8.566628802790367"><ele>245.0</ele><time>2026-04-04T08:43:44.999Z</time></trkpt></trkseg></trk></gpx>